<?xml version="1.0" encoding="UTF-8" standalone="no" ?>
  <gpx version="1.0" creator="Loctome.com">
  <metadata>
  <link href="http://loctome.com">
      <text>Loctome Live Track GPS</text>
  </link>
  <desc>Track created by http://loctome.com</desc>
  <time>2017-07-01T12:02:43Z</time>
  </metadata>
  <trk>
   <name>superdriu</name>
   <trkseg>
      <trkpt lat="39.214317" lon="-6.122783"><ele>993</ele><speed>22</speed><time>2017-07-01T12:02:43Z</time><course>126</course><type>1</type></trkpt>
      <trkpt lat="39.214169" lon="-6.122334"><ele>993</ele><speed>30.3</speed><time>2017-07-01T12:02:48Z</time><course>102</course><type>1</type></trkpt>
      <trkpt lat="39.214169" lon="-6.121967"><ele>992</ele><speed>22.79</speed><time>2017-07-01T12:02:53Z</time><course>90</course><type>1</type></trkpt>
      <trkpt lat="39.214001" lon="-6.121450"><ele>990</ele><speed>34.81</speed><time>2017-07-01T12:02:58Z</time><course>112</course><type>1</type></trkpt>
      <trkpt lat="39.213867" lon="-6.120833"><ele>988</ele><speed>39.79</speed><time>2017-07-01T12:03:03Z</time><course>110</course><type>1</type></trkpt>
      <trkpt lat="39.213749" lon="-6.120333"><ele>985</ele><speed>32.46</speed><time>2017-07-01T12:03:08Z</time><course>104</course><type>1</type></trkpt>
      <trkpt lat="39.213600" lon="-6.119633"><ele>980</ele><speed>45.08</speed><time>2017-07-01T12:03:13Z</time><course>110</course><type>1</type></trkpt>
      <trkpt lat="39.213417" lon="-6.119000"><ele>971</ele><speed>41.96</speed><time>2017-07-01T12:03:18Z</time><course>116</course><type>1</type></trkpt>
      <trkpt lat="39.212883" lon="-6.117917"><ele>950</ele><speed>39.86</speed><time>2017-07-01T12:03:28Z</time><course>114</course><type>1</type></trkpt>
      <trkpt lat="39.212566" lon="-6.117283"><ele>953</ele><speed>46.86</speed><time>2017-07-01T12:03:33Z</time><course>130</course><type>1</type></trkpt>
      <trkpt lat="39.212532" lon="-6.116783"><ele>954</ele><speed>31.17</speed><time>2017-07-01T12:03:38Z</time><course>74</course><type>1</type></trkpt>
      <trkpt lat="39.212551" lon="-6.116250"><ele>959</ele><speed>33.13</speed><time>2017-07-01T12:03:43Z</time><course>72</course><type>1</type></trkpt>
      <trkpt lat="39.212685" lon="-6.115900"><ele>970</ele><speed>24.24</speed><time>2017-07-01T12:03:48Z</time><course>64</course><type>1</type></trkpt>
      <trkpt lat="39.212818" lon="-6.115716"><ele>986</ele><speed>15.63</speed><time>2017-07-01T12:03:53Z</time><course>30</course><type>1</type></trkpt>
      <trkpt lat="39.212734" lon="-6.116133"><ele>994</ele><speed>26.76</speed><time>2017-07-01T12:03:58Z</time><course>210</course><type>1</type></trkpt>
      <trkpt lat="39.212101" lon="-6.115850"><ele>1015</ele><speed>53.69</speed><time>2017-07-01T12:04:03Z</time><course>146</course><type>1</type></trkpt>
      <trkpt lat="39.212116" lon="-6.115617"><ele>1014</ele><speed>14.52</speed><time>2017-07-01T12:04:08Z</time><course>38</course><type>1</type></trkpt>
      <trkpt lat="39.211933" lon="-6.116167"><ele>1023</ele><speed>37.17</speed><time>2017-07-01T12:04:13Z</time><course>208</course><type>1</type></trkpt>
      <trkpt lat="39.211468" lon="-6.115933"><ele>1039</ele><speed>40</speed><time>2017-07-01T12:04:18Z</time><course>114</course><type>1</type></trkpt>
      <trkpt lat="39.211399" lon="-6.115167"><ele>1089</ele><speed>23.95</speed><time>2017-07-01T12:04:28Z</time><course>208</course><type>1</type></trkpt>
      <trkpt lat="39.211533" lon="-6.115650"><ele>1113</ele><speed>31.86</speed><time>2017-07-01T12:04:33Z</time><course>352</course><type>1</type></trkpt>
      <trkpt lat="39.211498" lon="-6.115317"><ele>1129</ele><speed>20.87</speed><time>2017-07-01T12:04:38Z</time><course>136</course><type>1</type></trkpt>
      <trkpt lat="39.211182" lon="-6.115850"><ele>1137</ele><speed>41.68</speed><time>2017-07-01T12:04:43Z</time><course>284</course><type>1</type></trkpt>
      <trkpt lat="39.211399" lon="-6.115950"><ele>1161</ele><speed>18.47</speed><time>2017-07-01T12:04:48Z</time><course>64</course><type>1</type></trkpt>
      <trkpt lat="39.210999" lon="-6.115933"><ele>1169</ele><speed>32.08</speed><time>2017-07-01T12:04:53Z</time><course>238</course><type>1</type></trkpt>
      <trkpt lat="39.211216" lon="-6.116384"><ele>1188</ele><speed>32.97</speed><time>2017-07-01T12:04:58Z</time><course>30</course><type>1</type></trkpt>
      <trkpt lat="39.210949" lon="-6.116117"><ele>1198</ele><speed>27.07</speed><time>2017-07-01T12:05:03Z</time><course>198</course><type>1</type></trkpt>
      <trkpt lat="39.210785" lon="-6.116883"><ele>1214</ele><speed>49.35</speed><time>2017-07-01T12:05:08Z</time><course>290</course><type>1</type></trkpt>
      <trkpt lat="39.210865" lon="-6.116700"><ele>1227</ele><speed>13.05</speed><time>2017-07-01T12:05:13Z</time><course>146</course><type>1</type></trkpt>
      <trkpt lat="39.210667" lon="-6.117466"><ele>1270</ele><speed>25.07</speed><time>2017-07-01T12:05:23Z</time><course>96</course><type>1</type></trkpt>
      <trkpt lat="39.210152" lon="-6.117650"><ele>1287</ele><speed>42.83</speed><time>2017-07-01T12:05:28Z</time><course>244</course><type>1</type></trkpt>
      <trkpt lat="39.210300" lon="-6.118267"><ele>1312</ele><speed>40.11</speed><time>2017-07-01T12:05:33Z</time><course>342</course><type>1</type></trkpt>
      <trkpt lat="39.209999" lon="-6.118100"><ele>1328</ele><speed>26.26</speed><time>2017-07-01T12:05:38Z</time><course>206</course><type>1</type></trkpt>
      <trkpt lat="39.209915" lon="-6.119000"><ele>1340</ele><speed>56.3</speed><time>2017-07-01T12:05:43Z</time><course>306</course><type>1</type></trkpt>
      <trkpt lat="39.209866" lon="-6.118783"><ele>1356</ele><speed>14.04</speed><time>2017-07-01T12:05:48Z</time><course>142</course><type>1</type></trkpt>
      <trkpt lat="39.209400" lon="-6.118933"><ele>1364</ele><speed>38.49</speed><time>2017-07-01T12:05:53Z</time><course>214</course><type>1</type></trkpt>
      <trkpt lat="39.209251" lon="-6.119817"><ele>1376</ele><speed>56.18</speed><time>2017-07-01T12:05:58Z</time><course>304</course><type>1</type></trkpt>
      <trkpt lat="39.209232" lon="-6.119767"><ele>1387</ele><speed>3.46</speed><time>2017-07-01T12:06:03Z</time><course>174</course><type>1</type></trkpt>
      <trkpt lat="39.208698" lon="-6.120450"><ele>1393</ele><speed>60.26</speed><time>2017-07-01T12:06:08Z</time><course>256</course><type>1</type></trkpt>
      <trkpt lat="39.208916" lon="-6.121217"><ele>1396</ele><speed>25.37</speed><time>2017-07-01T12:06:18Z</time><course>80</course><type>1</type></trkpt>
      <trkpt lat="39.208767" lon="-6.121017"><ele>1395</ele><speed>17.23</speed><time>2017-07-01T12:06:23Z</time><course>184</course><type>1</type></trkpt>
      <trkpt lat="39.208366" lon="-6.121033"><ele>1402</ele><speed>32.16</speed><time>2017-07-01T12:06:28Z</time><course>180</course><type>1</type></trkpt>
      <trkpt lat="39.207783" lon="-6.121767"><ele>1402</ele><speed>65.28</speed><time>2017-07-01T12:06:33Z</time><course>256</course><type>1</type></trkpt>
      <trkpt lat="39.207901" lon="-6.122366"><ele>1403</ele><speed>38.38</speed><time>2017-07-01T12:06:38Z</time><course>284</course><type>1</type></trkpt>
      <trkpt lat="39.207951" lon="-6.122217"><ele>1382</ele><speed>10.08</speed><time>2017-07-01T12:06:43Z</time><course>116</course><type>1</type></trkpt>
      <trkpt lat="39.207634" lon="-6.121600"><ele>1379</ele><speed>45.98</speed><time>2017-07-01T12:06:48Z</time><course>130</course><type>1</type></trkpt>
      <trkpt lat="39.207268" lon="-6.121300"><ele>1401</ele><speed>34.75</speed><time>2017-07-01T12:06:53Z</time><course>166</course><type>1</type></trkpt>
      <trkpt lat="39.206566" lon="-6.121833"><ele>1413</ele><speed>65.28</speed><time>2017-07-01T12:06:58Z</time><course>250</course><type>1</type></trkpt>
      <trkpt lat="39.205818" lon="-6.122416"><ele>1450</ele><speed>35.02</speed><time>2017-07-01T12:07:08Z</time><course>238</course><type>1</type></trkpt>
      <trkpt lat="39.205833" lon="-6.122917"><ele>1464</ele><speed>31.14</speed><time>2017-07-01T12:07:13Z</time><course>26</course><type>1</type></trkpt>
      <trkpt lat="39.205383" lon="-6.122517"><ele>1485</ele><speed>43.8</speed><time>2017-07-01T12:07:18Z</time><course>176</course><type>1</type></trkpt>
      <trkpt lat="39.204765" lon="-6.122633"><ele>1501</ele><speed>50.05</speed><time>2017-07-01T12:07:23Z</time><course>204</course><type>1</type></trkpt>
      <trkpt lat="39.204765" lon="-6.123000"><ele>1517</ele><speed>22.79</speed><time>2017-07-01T12:07:28Z</time><course>70</course><type>1</type></trkpt>
      <trkpt lat="39.204449" lon="-6.122583"><ele>1536</ele><speed>36.22</speed><time>2017-07-01T12:07:33Z</time><course>146</course><type>1</type></trkpt>
      <trkpt lat="39.203983" lon="-6.122983"><ele>1547</ele><speed>44.86</speed><time>2017-07-01T12:07:38Z</time><course>264</course><type>1</type></trkpt>
      <trkpt lat="39.204182" lon="-6.122933"><ele>1569</ele><speed>16.25</speed><time>2017-07-01T12:07:43Z</time><course>100</course><type>1</type></trkpt>
      <trkpt lat="39.203651" lon="-6.122983"><ele>1585</ele><speed>42.67</speed><time>2017-07-01T12:07:48Z</time><course>226</course><type>1</type></trkpt>
      <trkpt lat="39.203785" lon="-6.123433"><ele>1606</ele><speed>29.94</speed><time>2017-07-01T12:07:53Z</time><course>16</course><type>1</type></trkpt>
      <trkpt lat="39.203835" lon="-6.123067"><ele>1629</ele><speed>23.08</speed><time>2017-07-01T12:07:58Z</time><course>136</course><type>1</type></trkpt>
      <trkpt lat="39.203316" lon="-6.124000"><ele>1652</ele><speed>35.67</speed><time>2017-07-01T12:08:08Z</time><course>298</course><type>1</type></trkpt>
      <trkpt lat="39.203499" lon="-6.124050"><ele>1675</ele><speed>14.99</speed><time>2017-07-01T12:08:13Z</time><course>106</course><type>1</type></trkpt>
      <trkpt lat="39.202984" lon="-6.124500"><ele>1687</ele><speed>49.85</speed><time>2017-07-01T12:08:18Z</time><course>256</course><type>1</type></trkpt>
      <trkpt lat="39.203133" lon="-6.124800"><ele>1701</ele><speed>22.13</speed><time>2017-07-01T12:08:23Z</time><course>60</course><type>1</type></trkpt>
      <trkpt lat="39.202915" lon="-6.124617"><ele>1715</ele><speed>20.84</speed><time>2017-07-01T12:08:28Z</time><course>190</course><type>1</type></trkpt>
      <trkpt lat="39.202518" lon="-6.125417"><ele>1727</ele><speed>59</speed><time>2017-07-01T12:08:33Z</time><course>276</course><type>1</type></trkpt>
      <trkpt lat="39.202667" lon="-6.125500"><ele>1742</ele><speed>13.01</speed><time>2017-07-01T12:08:38Z</time><course>120</course><type>1</type></trkpt>
      <trkpt lat="39.202099" lon="-6.125850"><ele>1760</ele><speed>50.45</speed><time>2017-07-01T12:08:43Z</time><course>238</course><type>1</type></trkpt>
      <trkpt lat="39.202118" lon="-6.126500"><ele>1778</ele><speed>40.4</speed><time>2017-07-01T12:08:48Z</time><course>328</course><type>1</type></trkpt>
      <trkpt lat="39.201618" lon="-6.126283"><ele>1804</ele><speed>21.14</speed><time>2017-07-01T12:08:58Z</time><course>206</course><type>1</type></trkpt>
      <trkpt lat="39.201565" lon="-6.126900"><ele>1822</ele><speed>38.56</speed><time>2017-07-01T12:09:03Z</time><course>346</course><type>1</type></trkpt>
      <trkpt lat="39.201515" lon="-6.126550"><ele>1842</ele><speed>22.1</speed><time>2017-07-01T12:09:08Z</time><course>154</course><type>1</type></trkpt>
      <trkpt lat="39.200951" lon="-6.126733"><ele>1862</ele><speed>46.61</speed><time>2017-07-01T12:09:13Z</time><course>220</course><type>1</type></trkpt>
      <trkpt lat="39.200932" lon="-6.127467"><ele>1879</ele><speed>45.61</speed><time>2017-07-01T12:09:18Z</time><course>318</course><type>1</type></trkpt>
      <trkpt lat="39.200916" lon="-6.127167"><ele>1898</ele><speed>18.68</speed><time>2017-07-01T12:09:23Z</time><course>156</course><type>1</type></trkpt>
      <trkpt lat="39.200367" lon="-6.127584"><ele>1906</ele><speed>51.06</speed><time>2017-07-01T12:09:28Z</time><course>246</course><type>1</type></trkpt>
      <trkpt lat="39.200550" lon="-6.127984"><ele>1924</ele><speed>28.85</speed><time>2017-07-01T12:09:33Z</time><course>48</course><type>1</type></trkpt>
      <trkpt lat="39.200115" lon="-6.127900"><ele>1942</ele><speed>35.25</speed><time>2017-07-01T12:09:38Z</time><course>208</course><type>1</type></trkpt>
      <trkpt lat="39.199718" lon="-6.128650"><ele>1958</ele><speed>56.41</speed><time>2017-07-01T12:09:43Z</time><course>262</course><type>1</type></trkpt>
      <trkpt lat="39.200001" lon="-6.128950"><ele>1967</ele><speed>29.35</speed><time>2017-07-01T12:09:48Z</time><course>28</course><type>1</type></trkpt>
      <trkpt lat="39.194050" lon="-6.135567"><ele>2244</ele><speed>16.14</speed><time>2017-07-01T12:13:03Z</time><course>188</course><type>1</type></trkpt>
      <trkpt lat="39.193333" lon="-6.135567"><ele>2260</ele><speed>57.47</speed><time>2017-07-01T12:13:08Z</time><course>180</course><type>1</type></trkpt>
      <trkpt lat="39.193085" lon="-6.135217"><ele>2270</ele><speed>29.46</speed><time>2017-07-01T12:13:13Z</time><course>52</course><type>1</type></trkpt>
      <trkpt lat="39.193150" lon="-6.135684"><ele>2278</ele><speed>29.47</speed><time>2017-07-01T12:13:18Z</time><course>242</course><type>1</type></trkpt>
      <trkpt lat="39.192616" lon="-6.136133"><ele>2294</ele><speed>51.09</speed><time>2017-07-01T12:13:23Z</time><course>182</course><type>1</type></trkpt>
      <trkpt lat="39.192333" lon="-6.135733"><ele>2296</ele><speed>33.64</speed><time>2017-07-01T12:13:28Z</time><course>56</course><type>1</type></trkpt>
      <trkpt lat="39.192451" lon="-6.136133"><ele>2304</ele><speed>26.59</speed><time>2017-07-01T12:13:33Z</time><course>256</course><type>1</type></trkpt>
      <trkpt lat="39.191952" lon="-6.136683"><ele>2315</ele><speed>52.6</speed><time>2017-07-01T12:13:38Z</time><course>194</course><type>1</type></trkpt>
      <trkpt lat="39.191601" lon="-6.136384"><ele>2320</ele><speed>33.71</speed><time>2017-07-01T12:13:43Z</time><course>80</course><type>1</type></trkpt>
      <trkpt lat="39.191849" lon="-6.136483"><ele>2326</ele><speed>20.81</speed><time>2017-07-01T12:13:48Z</time><course>306</course><type>1</type></trkpt>
      <trkpt lat="39.191700" lon="-6.137084"><ele>2332</ele><speed>39.2</speed><time>2017-07-01T12:13:53Z</time><course>228</course><type>1</type></trkpt>
      <trkpt lat="39.191032" lon="-6.137400"><ele>2344</ele><speed>57.03</speed><time>2017-07-01T12:13:58Z</time><course>186</course><type>1</type></trkpt>
      <trkpt lat="39.190601" lon="-6.137183"><ele>2354</ele><speed>37.08</speed><time>2017-07-01T12:14:03Z</time><course>100</course><type>1</type></trkpt>
      <trkpt lat="39.190815" lon="-6.137417"><ele>2356</ele><speed>22.48</speed><time>2017-07-01T12:14:08Z</time><course>266</course><type>1</type></trkpt>
      <trkpt lat="39.190418" lon="-6.138100"><ele>2366</ele><speed>53.03</speed><time>2017-07-01T12:14:13Z</time><course>212</course><type>1</type></trkpt>
      <trkpt lat="39.189816" lon="-6.138100"><ele>2375</ele><speed>48.25</speed><time>2017-07-01T12:14:18Z</time><course>140</course><type>1</type></trkpt>
      <trkpt lat="39.189934" lon="-6.137883"><ele>2378</ele><speed>16.47</speed><time>2017-07-01T12:14:23Z</time><course>338</course><type>1</type></trkpt>
      <trkpt lat="39.190083" lon="-6.138417"><ele>2386</ele><speed>35.26</speed><time>2017-07-01T12:14:28Z</time><course>270</course><type>1</type></trkpt>
      <trkpt lat="39.189651" lon="-6.139067"><ele>2391</ele><speed>53.19</speed><time>2017-07-01T12:14:33Z</time><course>196</course><type>1</type></trkpt>
      <trkpt lat="39.189301" lon="-6.138834"><ele>2395</ele><speed>31.57</speed><time>2017-07-01T12:14:38Z</time><course>88</course><type>1</type></trkpt>
      <trkpt lat="39.189548" lon="-6.138950"><ele>2399</ele><speed>21.07</speed><time>2017-07-01T12:14:43Z</time><course>310</course><type>1</type></trkpt>
      <trkpt lat="39.189785" lon="-6.139350"><ele>2411</ele><speed>31.28</speed><time>2017-07-01T12:14:48Z</time><course>344</course><type>1</type></trkpt>
      <trkpt lat="39.189533" lon="-6.138983"><ele>2414</ele><speed>30.46</speed><time>2017-07-01T12:14:53Z</time><course>176</course><type>1</type></trkpt>
      <trkpt lat="39.189182" lon="-6.139650"><ele>2422</ele><speed>50.08</speed><time>2017-07-01T12:14:58Z</time><course>278</course><type>1</type></trkpt>
      <trkpt lat="39.189365" lon="-6.139700"><ele>2428</ele><speed>14.99</speed><time>2017-07-01T12:15:03Z</time><course>104</course><type>1</type></trkpt>
      <trkpt lat="39.188801" lon="-6.139616"><ele>2434</ele><speed>45.5</speed><time>2017-07-01T12:15:08Z</time><course>202</course><type>1</type></trkpt>
      <trkpt lat="39.188484" lon="-6.140316"><ele>2442</ele><speed>50.36</speed><time>2017-07-01T12:15:13Z</time><course>268</course><type>1</type></trkpt>
      <trkpt lat="39.188717" lon="-6.140533"><ele>2447</ele><speed>23.03</speed><time>2017-07-01T12:15:18Z</time><course>48</course><type>1</type></trkpt>
      <trkpt lat="39.188316" lon="-6.140300"><ele>2451</ele><speed>35.25</speed><time>2017-07-01T12:15:23Z</time><course>182</course><type>1</type></trkpt>
      <trkpt lat="39.187618" lon="-6.140550"><ele>2459</ele><speed>58.06</speed><time>2017-07-01T12:15:28Z</time><course>202</course><type>1</type></trkpt>
      <trkpt lat="39.187317" lon="-6.141217"><ele>2463</ele><speed>47.95</speed><time>2017-07-01T12:15:33Z</time><course>290</course><type>1</type></trkpt>
      <trkpt lat="39.187515" lon="-6.141267"><ele>2472</ele><speed>16.17</speed><time>2017-07-01T12:15:38Z</time><course>114</course><type>1</type></trkpt>
      <trkpt lat="39.186916" lon="-6.141333"><ele>2477</ele><speed>48.18</speed><time>2017-07-01T12:15:43Z</time><course>224</course><type>1</type></trkpt>
      <trkpt lat="39.186966" lon="-6.141967"><ele>2484</ele><speed>39.59</speed><time>2017-07-01T12:15:48Z</time><course>332</course><type>1</type></trkpt>
      <trkpt lat="39.186832" lon="-6.141700"><ele>2489</ele><speed>19.76</speed><time>2017-07-01T12:15:53Z</time><course>158</course><type>1</type></trkpt>
      <trkpt lat="39.186016" lon="-6.142667"><ele>2498</ele><speed>44.4</speed><time>2017-07-01T12:16:03Z</time><course>290</course><type>1</type></trkpt>
      <trkpt lat="39.186298" lon="-6.142967"><ele>2505</ele><speed>29.3</speed><time>2017-07-01T12:16:08Z</time><course>336</course><type>1</type></trkpt>
      <trkpt lat="39.186184" lon="-6.142717"><ele>2502</ele><speed>18.02</speed><time>2017-07-01T12:16:13Z</time><course>150</course><type>1</type></trkpt>
      <trkpt lat="39.185501" lon="-6.142633"><ele>2504</ele><speed>54.99</speed><time>2017-07-01T12:16:18Z</time><course>186</course><type>1</type></trkpt>
      <trkpt lat="39.184917" lon="-6.142617"><ele>2500</ele><speed>46.82</speed><time>2017-07-01T12:16:23Z</time><course>152</course><type>1</type></trkpt>
      <trkpt lat="39.184982" lon="-6.142350"><ele>2482</ele><speed>17.39</speed><time>2017-07-01T12:16:28Z</time><course>342</course><type>1</type></trkpt>
      <trkpt lat="39.185249" lon="-6.142650"><ele>2480</ele><speed>28.38</speed><time>2017-07-01T12:16:33Z</time><course>304</course><type>1</type></trkpt>
      <trkpt lat="39.185299" lon="-6.143333"><ele>2472</ele><speed>42.62</speed><time>2017-07-01T12:16:38Z</time><course>260</course><type>1</type></trkpt>
      <trkpt lat="39.185017" lon="-6.144283"><ele>2469</ele><speed>63.2</speed><time>2017-07-01T12:16:43Z</time><course>248</course><type>1</type></trkpt>
      <trkpt lat="39.184834" lon="-6.145216"><ele>2469</ele><speed>59.79</speed><time>2017-07-01T12:16:48Z</time><course>252</course><type>1</type></trkpt>
      <trkpt lat="39.184616" lon="-6.146200"><ele>2465</ele><speed>63.58</speed><time>2017-07-01T12:16:53Z</time><course>248</course><type>1</type></trkpt>
      <trkpt lat="39.184299" lon="-6.147167"><ele>2455</ele><speed>65.23</speed><time>2017-07-01T12:16:58Z</time><course>246</course><type>1</type></trkpt>
      <trkpt lat="39.183949" lon="-6.148067"><ele>2445</ele><speed>62.56</speed><time>2017-07-01T12:17:03Z</time><course>240</course><type>1</type></trkpt>
      <trkpt lat="39.183567" lon="-6.148917"><ele>2438</ele><speed>61.04</speed><time>2017-07-01T12:17:08Z</time><course>242</course><type>1</type></trkpt>
      <trkpt lat="39.183285" lon="-6.149817"><ele>2432</ele><speed>60.31</speed><time>2017-07-01T12:17:13Z</time><course>248</course><type>1</type></trkpt>
      <trkpt lat="39.182983" lon="-6.150683"><ele>2428</ele><speed>59</speed><time>2017-07-01T12:17:18Z</time><course>248</course><type>1</type></trkpt>
      <trkpt lat="39.182732" lon="-6.151600"><ele>2424</ele><speed>60.42</speed><time>2017-07-01T12:17:23Z</time><course>252</course><type>1</type></trkpt>
      <trkpt lat="39.182484" lon="-6.152467"><ele>2420</ele><speed>57.41</speed><time>2017-07-01T12:17:28Z</time><course>248</course><type>1</type></trkpt>
      <trkpt lat="39.182152" lon="-6.153400"><ele>2415</ele><speed>63.78</speed><time>2017-07-01T12:17:33Z</time><course>244</course><type>1</type></trkpt>
      <trkpt lat="39.181816" lon="-6.154267"><ele>2410</ele><speed>60.22</speed><time>2017-07-01T12:17:38Z</time><course>246</course><type>1</type></trkpt>
      <trkpt lat="39.181534" lon="-6.155117"><ele>2405</ele><speed>57.44</speed><time>2017-07-01T12:17:43Z</time><course>242</course><type>1</type></trkpt>
      <trkpt lat="39.181232" lon="-6.155917"><ele>2396</ele><speed>55.28</speed><time>2017-07-01T12:17:48Z</time><course>240</course><type>1</type></trkpt>
      <trkpt lat="39.180901" lon="-6.156667"><ele>2390</ele><speed>53.62</speed><time>2017-07-01T12:17:53Z</time><course>238</course><type>1</type></trkpt>
      <trkpt lat="39.180534" lon="-6.157483"><ele>2383</ele><speed>58.61</speed><time>2017-07-01T12:17:58Z</time><course>238</course><type>1</type></trkpt>
      <trkpt lat="39.180199" lon="-6.158283"><ele>2379</ele><speed>56.49</speed><time>2017-07-01T12:18:03Z</time><course>240</course><type>1</type></trkpt>
      <trkpt lat="39.179798" lon="-6.159100"><ele>2369</ele><speed>60.08</speed><time>2017-07-01T12:18:08Z</time><course>234</course><type>1</type></trkpt>
      <trkpt lat="39.179352" lon="-6.160000"><ele>2365</ele><speed>66.37</speed><time>2017-07-01T12:18:13Z</time><course>238</course><type>1</type></trkpt>
      <trkpt lat="39.178982" lon="-6.160883"><ele>2362</ele><speed>62.36</speed><time>2017-07-01T12:18:18Z</time><course>252</course><type>1</type></trkpt>
      <trkpt lat="39.178635" lon="-6.161684"><ele>2356</ele><speed>57.01</speed><time>2017-07-01T12:18:23Z</time><course>232</course><type>1</type></trkpt>
      <trkpt lat="39.178101" lon="-6.162367"><ele>2350</ele><speed>60.27</speed><time>2017-07-01T12:18:28Z</time><course>220</course><type>1</type></trkpt>
      <trkpt lat="39.177532" lon="-6.163000"><ele>2351</ele><speed>60.22</speed><time>2017-07-01T12:18:33Z</time><course>216</course><type>1</type></trkpt>
      <trkpt lat="39.176968" lon="-6.163533"><ele>2344</ele><speed>56.04</speed><time>2017-07-01T12:18:38Z</time><course>214</course><type>1</type></trkpt>
      <trkpt lat="39.176399" lon="-6.164033"><ele>2338</ele><speed>55.18</speed><time>2017-07-01T12:18:43Z</time><course>218</course><type>1</type></trkpt>
      <trkpt lat="39.175766" lon="-6.164567"><ele>2324</ele><speed>60.62</speed><time>2017-07-01T12:18:48Z</time><course>212</course><type>1</type></trkpt>
      <trkpt lat="39.175117" lon="-6.165033"><ele>2303</ele><speed>59.53</speed><time>2017-07-01T12:18:53Z</time><course>206</course><type>1</type></trkpt>
      <trkpt lat="39.174000" lon="-6.165933"><ele>2255</ele><speed>52.78</speed><time>2017-07-01T12:19:03Z</time><course>216</course><type>1</type></trkpt>
      <trkpt lat="39.173565" lon="-6.166383"><ele>2242</ele><speed>44.69</speed><time>2017-07-01T12:19:08Z</time><course>216</course><type>1</type></trkpt>
      <trkpt lat="39.173183" lon="-6.166650"><ele>2236</ele><speed>34.82</speed><time>2017-07-01T12:19:13Z</time><course>200</course><type>1</type></trkpt>
      <trkpt lat="39.172832" lon="-6.166900"><ele>2230</ele><speed>32.14</speed><time>2017-07-01T12:19:18Z</time><course>212</course><type>1</type></trkpt>
      <trkpt lat="39.172535" lon="-6.167267"><ele>2231</ele><speed>32.96</speed><time>2017-07-01T12:19:23Z</time><course>220</course><type>1</type></trkpt>
      <trkpt lat="39.172134" lon="-6.167533"><ele>2225</ele><speed>36.14</speed><time>2017-07-01T12:19:28Z</time><course>206</course><type>1</type></trkpt>
      <trkpt lat="39.171684" lon="-6.167967"><ele>2217</ele><speed>45.03</speed><time>2017-07-01T12:19:33Z</time><course>220</course><type>1</type></trkpt>
      <trkpt lat="39.171200" lon="-6.168483"><ele>2206</ele><speed>50.33</speed><time>2017-07-01T12:19:38Z</time><course>218</course><type>1</type></trkpt>
      <trkpt lat="39.170750" lon="-6.168933"><ele>2210</ele><speed>45.64</speed><time>2017-07-01T12:19:43Z</time><course>218</course><type>1</type></trkpt>
      <trkpt lat="39.170284" lon="-6.169417"><ele>2208</ele><speed>47.95</speed><time>2017-07-01T12:19:48Z</time><course>222</course><type>1</type></trkpt>
      <trkpt lat="39.169849" lon="-6.169950"><ele>2208</ele><speed>48.09</speed><time>2017-07-01T12:19:53Z</time><course>218</course><type>1</type></trkpt>
      <trkpt lat="39.169399" lon="-6.170267"><ele>2225</ele><speed>41.1</speed><time>2017-07-01T12:19:58Z</time><course>220</course><type>1</type></trkpt>
      <trkpt lat="39.169601" lon="-6.170650"><ele>2226</ele><speed>28.78</speed><time>2017-07-01T12:20:03Z</time><course>34</course><type>1</type></trkpt>
      <trkpt lat="39.169216" lon="-6.170183"><ele>2227</ele><speed>42.36</speed><time>2017-07-01T12:20:08Z</time><course>168</course><type>1</type></trkpt>
      <trkpt lat="39.168816" lon="-6.170150"><ele>2234</ele><speed>32.13</speed><time>2017-07-01T12:20:13Z</time><course>206</course><type>1</type></trkpt>
      <trkpt lat="39.169018" lon="-6.170650"><ele>2231</ele><speed>35.03</speed><time>2017-07-01T12:20:18Z</time><course>20</course><type>1</type></trkpt>
      <trkpt lat="39.168732" lon="-6.170250"><ele>2236</ele><speed>33.81</speed><time>2017-07-01T12:20:23Z</time><course>186</course><type>1</type></trkpt>
      <trkpt lat="39.168301" lon="-6.170450"><ele>2236</ele><speed>36.71</speed><time>2017-07-01T12:20:28Z</time><course>194</course><type>1</type></trkpt>
      <trkpt lat="39.167702" lon="-6.170683"><ele>2247</ele><speed>50.15</speed><time>2017-07-01T12:20:33Z</time><course>194</course><type>1</type></trkpt>
      <trkpt lat="39.167068" lon="-6.170866"><ele>2254</ele><speed>52.07</speed><time>2017-07-01T12:20:38Z</time><course>200</course><type>1</type></trkpt>
      <trkpt lat="39.166599" lon="-6.171167"><ele>2277</ele><speed>41.99</speed><time>2017-07-01T12:20:43Z</time><course>228</course><type>1</type></trkpt>
      <trkpt lat="39.166782" lon="-6.171750"><ele>2284</ele><speed>39.08</speed><time>2017-07-01T12:20:48Z</time><course>358</course><type>1</type></trkpt>
      <trkpt lat="39.166733" lon="-6.171433"><ele>2294</ele><speed>20.09</speed><time>2017-07-01T12:20:53Z</time><course>156</course><type>1</type></trkpt>
      <trkpt lat="39.166218" lon="-6.171566"><ele>2304</ele><speed>42.1</speed><time>2017-07-01T12:20:58Z</time><course>212</course><type>1</type></trkpt>
      <trkpt lat="39.166149" lon="-6.172217"><ele>2313</ele><speed>40.83</speed><time>2017-07-01T12:21:03Z</time><course>316</course><type>1</type></trkpt>
      <trkpt lat="39.166351" lon="-6.171983"><ele>2321</ele><speed>21.76</speed><time>2017-07-01T12:21:08Z</time><course>110</course><type>1</type></trkpt>
      <trkpt lat="39.165916" lon="-6.171733"><ele>2334</ele><speed>38.17</speed><time>2017-07-01T12:21:13Z</time><course>188</course><type>1</type></trkpt>
      <trkpt lat="39.165501" lon="-6.172266"><ele>2343</ele><speed>46.94</speed><time>2017-07-01T12:21:18Z</time><course>260</course><type>1</type></trkpt>
      <trkpt lat="39.165798" lon="-6.172417"><ele>2353</ele><speed>25.59</speed><time>2017-07-01T12:21:23Z</time><course>62</course><type>1</type></trkpt>
      <trkpt lat="39.165585" lon="-6.172017"><ele>2363</ele><speed>30.15</speed><time>2017-07-01T12:21:28Z</time><course>160</course><type>1</type></trkpt>
      <trkpt lat="39.165085" lon="-6.172317"><ele>2370</ele><speed>44.2</speed><time>2017-07-01T12:21:33Z</time><course>240</course><type>1</type></trkpt>
      <trkpt lat="39.165318" lon="-6.172650"><ele>2375</ele><speed>27.87</speed><time>2017-07-01T12:21:38Z</time><course>16</course><type>1</type></trkpt>
      <trkpt lat="39.165165" lon="-6.172200"><ele>2382</ele><speed>30.53</speed><time>2017-07-01T12:21:43Z</time><course>158</course><type>1</type></trkpt>
      <trkpt lat="39.164734" lon="-6.172150"><ele>2393</ele><speed>34.68</speed><time>2017-07-01T12:21:48Z</time><course>206</course><type>1</type></trkpt>
      <trkpt lat="39.164665" lon="-6.172750"><ele>2397</ele><speed>37.69</speed><time>2017-07-01T12:21:53Z</time><course>334</course><type>1</type></trkpt>
      <trkpt lat="39.164799" lon="-6.172300"><ele>2405</ele><speed>29.96</speed><time>2017-07-01T12:21:58Z</time><course>118</course><type>1</type></trkpt>
      <trkpt lat="39.163933" lon="-6.172700"><ele>2420</ele><speed>36.86</speed><time>2017-07-01T12:22:08Z</time><course>256</course><type>1</type></trkpt>
      <trkpt lat="39.164135" lon="-6.173183"><ele>2426</ele><speed>34.1</speed><time>2017-07-01T12:22:13Z</time><course>334</course><type>1</type></trkpt>
      <trkpt lat="39.164368" lon="-6.172950"><ele>2430</ele><speed>23.63</speed><time>2017-07-01T12:22:18Z</time><course>78</course><type>1</type></trkpt>
      <trkpt lat="39.164001" lon="-6.172500"><ele>2430</ele><speed>40.59</speed><time>2017-07-01T12:22:23Z</time><course>172</course><type>1</type></trkpt>
      <trkpt lat="39.163383" lon="-6.172633"><ele>2435</ele><speed>50.22</speed><time>2017-07-01T12:22:28Z</time><course>200</course><type>1</type></trkpt>
      <trkpt lat="39.162766" lon="-6.173033"><ele>2437</ele><speed>55.35</speed><time>2017-07-01T12:22:33Z</time><course>212</course><type>1</type></trkpt>
      <trkpt lat="39.162167" lon="-6.173450"><ele>2449</ele><speed>54.56</speed><time>2017-07-01T12:22:38Z</time><course>200</course><type>1</type></trkpt>
      <trkpt lat="39.161999" lon="-6.173867"><ele>2460</ele><speed>29.2</speed><time>2017-07-01T12:22:43Z</time><course>286</course><type>1</type></trkpt>
      <trkpt lat="39.162048" lon="-6.173350"><ele>2460</ele><speed>32.37</speed><time>2017-07-01T12:22:48Z</time><course>142</course><type>1</type></trkpt>
      <trkpt lat="39.161484" lon="-6.173400"><ele>2471</ele><speed>45.31</speed><time>2017-07-01T12:22:53Z</time><course>208</course><type>1</type></trkpt>
      <trkpt lat="39.161034" lon="-6.173883"><ele>2473</ele><speed>46.92</speed><time>2017-07-01T12:22:58Z</time><course>210</course><type>1</type></trkpt>
      <trkpt lat="39.161201" lon="-6.174083"><ele>2474</ele><speed>18.27</speed><time>2017-07-01T12:23:03Z</time><course>32</course><type>1</type></trkpt>
      <trkpt lat="39.161152" lon="-6.173350"><ele>2472</ele><speed>45.72</speed><time>2017-07-01T12:23:08Z</time><course>132</course><type>1</type></trkpt>
      <trkpt lat="39.160484" lon="-6.173234"><ele>2463</ele><speed>54.02</speed><time>2017-07-01T12:23:13Z</time><course>202</course><type>1</type></trkpt>
      <trkpt lat="39.159966" lon="-6.173683"><ele>2462</ele><speed>50.02</speed><time>2017-07-01T12:23:18Z</time><course>216</course><type>1</type></trkpt>
      <trkpt lat="39.159649" lon="-6.174284"><ele>2465</ele><speed>45.17</speed><time>2017-07-01T12:23:23Z</time><course>250</course><type>1</type></trkpt>
      <trkpt lat="39.159882" lon="-6.174483"><ele>2464</ele><speed>22.4</speed><time>2017-07-01T12:23:28Z</time><course>14</course><type>1</type></trkpt>
      <trkpt lat="39.160198" lon="-6.174183"><ele>2464</ele><speed>31.45</speed><time>2017-07-01T12:23:33Z</time><course>34</course><type>1</type></trkpt>
      <trkpt lat="39.159901" lon="-6.173584"><ele>2463</ele><speed>44.19</speed><time>2017-07-01T12:23:38Z</time><course>168</course><type>1</type></trkpt>
      <trkpt lat="39.159302" lon="-6.173750"><ele>2474</ele><speed>49.11</speed><time>2017-07-01T12:23:43Z</time><course>202</course><type>1</type></trkpt>
      <trkpt lat="39.158768" lon="-6.174217"><ele>2471</ele><speed>51.71</speed><time>2017-07-01T12:23:48Z</time><course>204</course><type>1</type></trkpt>
      <trkpt lat="39.158115" lon="-6.174417"><ele>2468</ele><speed>53.79</speed><time>2017-07-01T12:23:53Z</time><course>188</course><type>1</type></trkpt>
      <trkpt lat="39.157452" lon="-6.174533"><ele>2466</ele><speed>53.63</speed><time>2017-07-01T12:23:58Z</time><course>192</course><type>1</type></trkpt>
      <trkpt lat="39.156868" lon="-6.174634"><ele>2471</ele><speed>47.23</speed><time>2017-07-01T12:24:03Z</time><course>188</course><type>1</type></trkpt>
      <trkpt lat="39.156300" lon="-6.174800"><ele>2468</ele><speed>46.68</speed><time>2017-07-01T12:24:08Z</time><course>194</course><type>1</type></trkpt>
      <trkpt lat="39.155666" lon="-6.175017"><ele>2461</ele><speed>52.57</speed><time>2017-07-01T12:24:13Z</time><course>192</course><type>1</type></trkpt>
      <trkpt lat="39.155033" lon="-6.175133"><ele>2460</ele><speed>51.24</speed><time>2017-07-01T12:24:18Z</time><course>186</course><type>1</type></trkpt>
      <trkpt lat="39.154385" lon="-6.175333"><ele>2456</ele><speed>53.4</speed><time>2017-07-01T12:24:23Z</time><course>188</course><type>1</type></trkpt>
      <trkpt lat="39.153732" lon="-6.175500"><ele>2454</ele><speed>53.36</speed><time>2017-07-01T12:24:28Z</time><course>196</course><type>1</type></trkpt>
      <trkpt lat="39.153069" lon="-6.175783"><ele>2439</ele><speed>55.97</speed><time>2017-07-01T12:24:33Z</time><course>204</course><type>1</type></trkpt>
      <trkpt lat="39.152485" lon="-6.176200"><ele>2429</ele><speed>53.5</speed><time>2017-07-01T12:24:38Z</time><course>206</course><type>1</type></trkpt>
      <trkpt lat="39.151817" lon="-6.176583"><ele>2417</ele><speed>58.59</speed><time>2017-07-01T12:24:43Z</time><course>204</course><type>1</type></trkpt>
      <trkpt lat="39.151115" lon="-6.177017"><ele>2408</ele><speed>62.4</speed><time>2017-07-01T12:24:48Z</time><course>204</course><type>1</type></trkpt>
      <trkpt lat="39.150417" lon="-6.177417"><ele>2400</ele><speed>61.22</speed><time>2017-07-01T12:24:53Z</time><course>200</course><type>1</type></trkpt>
      <trkpt lat="39.149448" lon="-6.177300"><ele>2408</ele><speed>39</speed><time>2017-07-01T12:25:03Z</time><course>74</course><type>1</type></trkpt>
      <trkpt lat="39.149715" lon="-6.177516"><ele>2405</ele><speed>25.26</speed><time>2017-07-01T12:25:08Z</time><course>266</course><type>1</type></trkpt>
      <trkpt lat="39.149368" lon="-6.178067"><ele>2405</ele><speed>44.12</speed><time>2017-07-01T12:25:13Z</time><course>218</course><type>1</type></trkpt>
      <trkpt lat="39.148834" lon="-6.178500"><ele>2404</ele><speed>50.56</speed><time>2017-07-01T12:25:18Z</time><course>220</course><type>1</type></trkpt>
      <trkpt lat="39.148418" lon="-6.178884"><ele>2407</ele><speed>41.01</speed><time>2017-07-01T12:25:23Z</time><course>200</course><type>1</type></trkpt>
      <trkpt lat="39.147984" lon="-6.178850"><ele>2409</ele><speed>34.85</speed><time>2017-07-01T12:25:28Z</time><course>194</course><type>1</type></trkpt>
      <trkpt lat="39.148335" lon="-6.178433"><ele>2409</ele><speed>38.25</speed><time>2017-07-01T12:25:33Z</time><course>346</course><type>1</type></trkpt>
      <trkpt lat="39.148384" lon="-6.179067"><ele>2415</ele><speed>39.6</speed><time>2017-07-01T12:25:38Z</time><course>248</course><type>1</type></trkpt>
      <trkpt lat="39.148117" lon="-6.179650"><ele>2422</ele><speed>42.08</speed><time>2017-07-01T12:25:43Z</time><course>224</course><type>1</type></trkpt>
      <trkpt lat="39.147766" lon="-6.180067"><ele>2431</ele><speed>38.25</speed><time>2017-07-01T12:25:48Z</time><course>188</course><type>1</type></trkpt>
      <trkpt lat="39.147617" lon="-6.179417"><ele>2437</ele><speed>42.13</speed><time>2017-07-01T12:25:53Z</time><course>50</course><type>1</type></trkpt>
      <trkpt lat="39.147549" lon="-6.179650"><ele>2445</ele><speed>7.74</speed><time>2017-07-01T12:26:03Z</time><course>128</course><type>1</type></trkpt>
      <trkpt lat="39.147549" lon="-6.178967"><ele>2451</ele><speed>42.45</speed><time>2017-07-01T12:26:08Z</time><course>84</course><type>1</type></trkpt>
      <trkpt lat="39.147835" lon="-6.178916"><ele>2454</ele><speed>23.14</speed><time>2017-07-01T12:26:13Z</time><course>316</course><type>1</type></trkpt>
      <trkpt lat="39.147850" lon="-6.179517"><ele>2456</ele><speed>37.38</speed><time>2017-07-01T12:26:18Z</time><course>268</course><type>1</type></trkpt>
      <trkpt lat="39.147434" lon="-6.179934"><ele>2459</ele><speed>42.23</speed><time>2017-07-01T12:26:23Z</time><course>186</course><type>1</type></trkpt>
      <trkpt lat="39.147099" lon="-6.179650"><ele>2471</ele><speed>32.13</speed><time>2017-07-01T12:26:28Z</time><course>122</course><type>1</type></trkpt>
      <trkpt lat="39.147251" lon="-6.179050"><ele>2475</ele><speed>39.23</speed><time>2017-07-01T12:26:33Z</time><course>24</course><type>1</type></trkpt>
      <trkpt lat="39.147633" lon="-6.179200"><ele>2470</ele><speed>32.01</speed><time>2017-07-01T12:26:38Z</time><course>308</course><type>1</type></trkpt>
      <trkpt lat="39.147598" lon="-6.179883"><ele>2480</ele><speed>42.55</speed><time>2017-07-01T12:26:43Z</time><course>288</course><type>1</type></trkpt>
      <trkpt lat="39.147350" lon="-6.180284"><ele>2485</ele><speed>31.88</speed><time>2017-07-01T12:26:48Z</time><course>182</course><type>1</type></trkpt>
      <trkpt lat="39.147335" lon="-6.179317"><ele>2496</ele><speed>30.06</speed><time>2017-07-01T12:26:58Z</time><course>14</course><type>1</type></trkpt>
      <trkpt lat="39.147633" lon="-6.179767"><ele>2497</ele><speed>36.78</speed><time>2017-07-01T12:27:03Z</time><course>282</course><type>1</type></trkpt>
      <trkpt lat="39.147533" lon="-6.180217"><ele>2508</ele><speed>29.1</speed><time>2017-07-01T12:27:08Z</time><course>218</course><type>1</type></trkpt>
      <trkpt lat="39.147034" lon="-6.180217"><ele>2516</ele><speed>39.99</speed><time>2017-07-01T12:27:13Z</time><course>166</course><type>1</type></trkpt>
      <trkpt lat="39.146767" lon="-6.179783"><ele>2521</ele><speed>34.43</speed><time>2017-07-01T12:27:18Z</time><course>90</course><type>1</type></trkpt>
      <trkpt lat="39.147167" lon="-6.179400"><ele>2520</ele><speed>39.93</speed><time>2017-07-01T12:27:23Z</time><course>4</course><type>1</type></trkpt>
      <trkpt lat="39.147499" lon="-6.179733"><ele>2526</ele><speed>33.71</speed><time>2017-07-01T12:27:28Z</time><course>282</course><type>1</type></trkpt>
      <trkpt lat="39.147350" lon="-6.180217"><ele>2536</ele><speed>32.37</speed><time>2017-07-01T12:27:33Z</time><course>220</course><type>1</type></trkpt>
      <trkpt lat="39.146900" lon="-6.180200"><ele>2543</ele><speed>36.08</speed><time>2017-07-01T12:27:38Z</time><course>142</course><type>1</type></trkpt>
      <trkpt lat="39.146732" lon="-6.179650"><ele>2547</ele><speed>36.74</speed><time>2017-07-01T12:27:43Z</time><course>80</course><type>1</type></trkpt>
      <trkpt lat="39.147217" lon="-6.179300"><ele>2544</ele><speed>44.55</speed><time>2017-07-01T12:27:48Z</time><course>348</course><type>1</type></trkpt>
      <trkpt lat="39.146900" lon="-6.179767"><ele>2559</ele><speed>19.29</speed><time>2017-07-01T12:27:58Z</time><course>180</course><type>1</type></trkpt>
      <trkpt lat="39.146500" lon="-6.179633"><ele>2561</ele><speed>33.12</speed><time>2017-07-01T12:28:03Z</time><course>156</course><type>1</type></trkpt>
      <trkpt lat="39.146049" lon="-6.179483"><ele>2561</ele><speed>37.33</speed><time>2017-07-01T12:28:08Z</time><course>168</course><type>1</type></trkpt>
      <trkpt lat="39.145515" lon="-6.179400"><ele>2548</ele><speed>43.11</speed><time>2017-07-01T12:28:13Z</time><course>166</course><type>1</type></trkpt>
      <trkpt lat="39.145100" lon="-6.179217"><ele>2548</ele><speed>35.15</speed><time>2017-07-01T12:28:18Z</time><course>164</course><type>1</type></trkpt>
      <trkpt lat="39.144615" lon="-6.179033"><ele>2552</ele><speed>40.52</speed><time>2017-07-01T12:28:23Z</time><course>160</course><type>1</type></trkpt>
      <trkpt lat="39.144115" lon="-6.178916"><ele>2546</ele><speed>40.73</speed><time>2017-07-01T12:28:28Z</time><course>152</course><type>1</type></trkpt>
      <trkpt lat="39.143517" lon="-6.178700"><ele>2546</ele><speed>49.77</speed><time>2017-07-01T12:28:33Z</time><course>170</course><type>1</type></trkpt>
      <trkpt lat="39.142982" lon="-6.178450"><ele>2543</ele><speed>45.61</speed><time>2017-07-01T12:28:38Z</time><course>166</course><type>1</type></trkpt>
      <trkpt lat="39.141750" lon="-6.178300"><ele>2544</ele><speed>49.59</speed><time>2017-07-01T12:28:48Z</time><course>174</course><type>1</type></trkpt>
      <trkpt lat="39.141102" lon="-6.178300"><ele>2541</ele><speed>51.94</speed><time>2017-07-01T12:28:53Z</time><course>184</course><type>1</type></trkpt>
      <trkpt lat="39.140415" lon="-6.178367"><ele>2531</ele><speed>55.22</speed><time>2017-07-01T12:28:58Z</time><course>184</course><type>1</type></trkpt>
      <trkpt lat="39.139767" lon="-6.178483"><ele>2524</ele><speed>52.44</speed><time>2017-07-01T12:29:03Z</time><course>194</course><type>1</type></trkpt>
      <trkpt lat="39.139198" lon="-6.178833"><ele>2515</ele><speed>50.53</speed><time>2017-07-01T12:29:08Z</time><course>210</course><type>1</type></trkpt>
      <trkpt lat="39.138618" lon="-6.179183"><ele>2504</ele><speed>51.33</speed><time>2017-07-01T12:29:13Z</time><course>204</course><type>1</type></trkpt>
      <trkpt lat="39.138084" lon="-6.179500"><ele>2507</ele><speed>47.12</speed><time>2017-07-01T12:29:18Z</time><course>206</course><type>1</type></trkpt>
      <trkpt lat="39.137550" lon="-6.179950"><ele>2511</ele><speed>51.13</speed><time>2017-07-01T12:29:23Z</time><course>214</course><type>1</type></trkpt>
      <trkpt lat="39.137016" lon="-6.180017"><ele>2520</ele><speed>43</speed><time>2017-07-01T12:29:28Z</time><course>138</course><type>1</type></trkpt>
      <trkpt lat="39.137085" lon="-6.179633"><ele>2517</ele><speed>24.5</speed><time>2017-07-01T12:29:33Z</time><course>320</course><type>1</type></trkpt>
      <trkpt lat="39.136383" lon="-6.180683"><ele>2517</ele><speed>43.09</speed><time>2017-07-01T12:29:43Z</time><course>202</course><type>1</type></trkpt>
      <trkpt lat="39.135799" lon="-6.181200"><ele>2513</ele><speed>56.78</speed><time>2017-07-01T12:29:48Z</time><course>220</course><type>1</type></trkpt>
      <trkpt lat="39.135250" lon="-6.181767"><ele>2503</ele><speed>56.38</speed><time>2017-07-01T12:29:53Z</time><course>222</course><type>1</type></trkpt>
      <trkpt lat="39.134716" lon="-6.182350"><ele>2496</ele><speed>56.09</speed><time>2017-07-01T12:29:58Z</time><course>220</course><type>1</type></trkpt>
      <trkpt lat="39.134216" lon="-6.182933"><ele>2487</ele><speed>54.03</speed><time>2017-07-01T12:30:03Z</time><course>220</course><type>1</type></trkpt>
      <trkpt lat="39.133717" lon="-6.183450"><ele>2479</ele><speed>51.31</speed><time>2017-07-01T12:30:08Z</time><course>212</course><type>1</type></trkpt>
      <trkpt lat="39.133148" lon="-6.184067"><ele>2462</ele><speed>59.59</speed><time>2017-07-01T12:30:13Z</time><course>218</course><type>1</type></trkpt>
      <trkpt lat="39.132584" lon="-6.184600"><ele>2444</ele><speed>56.05</speed><time>2017-07-01T12:30:18Z</time><course>222</course><type>1</type></trkpt>
      <trkpt lat="39.132065" lon="-6.185283"><ele>2425</ele><speed>59.44</speed><time>2017-07-01T12:30:23Z</time><course>230</course><type>1</type></trkpt>
      <trkpt lat="39.131168" lon="-6.186750"><ele>2390</ele><speed>58.07</speed><time>2017-07-01T12:30:33Z</time><course>232</course><type>1</type></trkpt>
      <trkpt lat="39.130783" lon="-6.187500"><ele>2376</ele><speed>55.92</speed><time>2017-07-01T12:30:38Z</time><course>240</course><type>1</type></trkpt>
      <trkpt lat="39.130402" lon="-6.188250"><ele>2361</ele><speed>55.74</speed><time>2017-07-01T12:30:43Z</time><course>234</course><type>1</type></trkpt>
      <trkpt lat="39.130100" lon="-6.188983"><ele>2349</ele><speed>51.6</speed><time>2017-07-01T12:30:48Z</time><course>244</course><type>1</type></trkpt>
      <trkpt lat="39.129833" lon="-6.189700"><ele>2343</ele><speed>49.45</speed><time>2017-07-01T12:30:53Z</time><course>246</course><type>1</type></trkpt>
      <trkpt lat="39.129616" lon="-6.190417"><ele>2332</ele><speed>47.85</speed><time>2017-07-01T12:30:58Z</time><course>244</course><type>1</type></trkpt>
      <trkpt lat="39.129398" lon="-6.191033"><ele>2326</ele><speed>42.1</speed><time>2017-07-01T12:31:03Z</time><course>248</course><type>1</type></trkpt>
      <trkpt lat="39.129166" lon="-6.191717"><ele>2324</ele><speed>46.41</speed><time>2017-07-01T12:31:08Z</time><course>238</course><type>1</type></trkpt>
      <trkpt lat="39.128868" lon="-6.192100"><ele>2329</ele><speed>33.73</speed><time>2017-07-01T12:31:13Z</time><course>204</course><type>1</type></trkpt>
      <trkpt lat="39.128632" lon="-6.191583"><ele>2333</ele><speed>37.3</speed><time>2017-07-01T12:31:18Z</time><course>64</course><type>1</type></trkpt>
      <trkpt lat="39.128834" lon="-6.192750"><ele>2343</ele><speed>24.78</speed><time>2017-07-01T12:31:33Z</time><course>242</course><type>1</type></trkpt>
      <trkpt lat="39.128418" lon="-6.192667"><ele>2345</ele><speed>33.74</speed><time>2017-07-01T12:31:38Z</time><course>124</course><type>1</type></trkpt>
      <trkpt lat="39.128716" lon="-6.192383"><ele>2348</ele><speed>29.7</speed><time>2017-07-01T12:31:43Z</time><course>334</course><type>1</type></trkpt>
      <trkpt lat="39.128948" lon="-6.192850"><ele>2356</ele><speed>34.48</speed><time>2017-07-01T12:31:48Z</time><course>286</course><type>1</type></trkpt>
      <trkpt lat="39.129250" lon="-6.192633"><ele>2344</ele><speed>27.71</speed><time>2017-07-01T12:31:53Z</time><course>86</course><type>1</type></trkpt>
      <trkpt lat="39.128750" lon="-6.192400"><ele>2341</ele><speed>42.61</speed><time>2017-07-01T12:31:58Z</time><course>186</course><type>1</type></trkpt>
      <trkpt lat="39.128284" lon="-6.192633"><ele>2337</ele><speed>40.06</speed><time>2017-07-01T12:32:03Z</time><course>226</course><type>1</type></trkpt>
      <trkpt lat="39.127983" lon="-6.193350"><ele>2336</ele><speed>50.69</speed><time>2017-07-01T12:32:08Z</time><course>238</course><type>1</type></trkpt>
      <trkpt lat="39.127766" lon="-6.194033"><ele>2361</ele><speed>45.89</speed><time>2017-07-01T12:32:13Z</time><course>252</course><type>1</type></trkpt>
      <trkpt lat="39.127998" lon="-6.194283"><ele>2373</ele><speed>24.24</speed><time>2017-07-01T12:32:18Z</time><course>32</course><type>1</type></trkpt>
      <trkpt lat="39.127815" lon="-6.193717"><ele>2394</ele><speed>38.13</speed><time>2017-07-01T12:32:23Z</time><course>160</course><type>1</type></trkpt>
      <trkpt lat="39.127449" lon="-6.193984"><ele>2407</ele><speed>33.71</speed><time>2017-07-01T12:32:28Z</time><course>260</course><type>1</type></trkpt>
      <trkpt lat="39.127785" lon="-6.193917"><ele>2419</ele><speed>27.25</speed><time>2017-07-01T12:32:33Z</time><course>82</course><type>1</type></trkpt>
      <trkpt lat="39.127365" lon="-6.193650"><ele>2435</ele><speed>37.53</speed><time>2017-07-01T12:32:38Z</time><course>204</course><type>1</type></trkpt>
      <trkpt lat="39.127117" lon="-6.194233"><ele>2447</ele><speed>41.34</speed><time>2017-07-01T12:32:43Z</time><course>270</course><type>1</type></trkpt>
      <trkpt lat="39.127449" lon="-6.194283"><ele>2457</ele><speed>26.79</speed><time>2017-07-01T12:32:48Z</time><course>54</course><type>1</type></trkpt>
      <trkpt lat="39.127102" lon="-6.193883"><ele>2473</ele><speed>37.31</speed><time>2017-07-01T12:32:53Z</time><course>196</course><type>1</type></trkpt>
      <trkpt lat="39.126915" lon="-6.194433"><ele>2486</ele><speed>37.34</speed><time>2017-07-01T12:32:58Z</time><course>300</course><type>1</type></trkpt>
      <trkpt lat="39.127232" lon="-6.194217"><ele>2495</ele><speed>28.74</speed><time>2017-07-01T12:33:03Z</time><course>82</course><type>1</type></trkpt>
      <trkpt lat="39.126884" lon="-6.193733"><ele>2510</ele><speed>41.03</speed><time>2017-07-01T12:33:08Z</time><course>174</course><type>1</type></trkpt>
      <trkpt lat="39.126682" lon="-6.194200"><ele>2516</ele><speed>33.25</speed><time>2017-07-01T12:33:13Z</time><course>312</course><type>1</type></trkpt>
      <trkpt lat="39.127018" lon="-6.193900"><ele>2527</ele><speed>32.76</speed><time>2017-07-01T12:33:18Z</time><course>88</course><type>1</type></trkpt>
      <trkpt lat="39.126598" lon="-6.193433"><ele>2534</ele><speed>44.46</speed><time>2017-07-01T12:33:23Z</time><course>166</course><type>1</type></trkpt>
      <trkpt lat="39.126083" lon="-6.193500"><ele>2540</ele><speed>41.49</speed><time>2017-07-01T12:33:28Z</time><course>210</course><type>1</type></trkpt>
      <trkpt lat="39.126148" lon="-6.193917"><ele>2541</ele><speed>26.45</speed><time>2017-07-01T12:33:33Z</time><course>354</course><type>1</type></trkpt>
      <trkpt lat="39.126350" lon="-6.193433"><ele>2551</ele><speed>34.17</speed><time>2017-07-01T12:33:38Z</time><course>104</course><type>1</type></trkpt>
      <trkpt lat="39.125916" lon="-6.193033"><ele>2553</ele><speed>42.76</speed><time>2017-07-01T12:33:43Z</time><course>180</course><type>1</type></trkpt>
      <trkpt lat="39.125465" lon="-6.193450"><ele>2551</ele><speed>44.48</speed><time>2017-07-01T12:33:48Z</time><course>202</course><type>1</type></trkpt>
      <trkpt lat="39.124935" lon="-6.193750"><ele>2556</ele><speed>46.39</speed><time>2017-07-01T12:33:53Z</time><course>214</course><type>1</type></trkpt>
      <trkpt lat="39.124466" lon="-6.194117"><ele>2564</ele><speed>43.97</speed><time>2017-07-01T12:33:58Z</time><course>214</course><type>1</type></trkpt>
      <trkpt lat="39.124050" lon="-6.194450"><ele>2569</ele><speed>39.25</speed><time>2017-07-01T12:34:03Z</time><course>214</course><type>1</type></trkpt>
      <trkpt lat="39.123615" lon="-6.194867"><ele>2578</ele><speed>43.45</speed><time>2017-07-01T12:34:08Z</time><course>208</course><type>1</type></trkpt>
      <trkpt lat="39.123482" lon="-6.195384"><ele>2579</ele><speed>33.87</speed><time>2017-07-01T12:34:13Z</time><course>296</course><type>1</type></trkpt>
      <trkpt lat="39.123917" lon="-6.195633"><ele>2586</ele><speed>38.15</speed><time>2017-07-01T12:34:18Z</time><course>334</course><type>1</type></trkpt>
      <trkpt lat="39.124035" lon="-6.196084"><ele>2592</ele><speed>29.59</speed><time>2017-07-01T12:34:23Z</time><course>234</course><type>1</type></trkpt>
      <trkpt lat="39.123650" lon="-6.195533"><ele>2606</ele><speed>23.05</speed><time>2017-07-01T12:34:33Z</time><course>4</course><type>1</type></trkpt>
      <trkpt lat="39.123749" lon="-6.196017"><ele>2607</ele><speed>31.12</speed><time>2017-07-01T12:34:38Z</time><course>242</course><type>1</type></trkpt>
      <trkpt lat="39.123482" lon="-6.196567"><ele>2614</ele><speed>40.34</speed><time>2017-07-01T12:34:43Z</time><course>240</course><type>1</type></trkpt>
      <trkpt lat="39.122982" lon="-6.196650"><ele>2617</ele><speed>40.41</speed><time>2017-07-01T12:34:48Z</time><course>152</course><type>1</type></trkpt>
      <trkpt lat="39.122700" lon="-6.196067"><ele>2629</ele><speed>42.72</speed><time>2017-07-01T12:34:53Z</time><course>94</course><type>1</type></trkpt>
      <trkpt lat="39.123001" lon="-6.196100"><ele>2631</ele><speed>24.21</speed><time>2017-07-01T12:34:58Z</time><course>292</course><type>1</type></trkpt>
      <trkpt lat="39.122768" lon="-6.196583"><ele>2637</ele><speed>35.37</speed><time>2017-07-01T12:35:03Z</time><course>214</course><type>1</type></trkpt>
      <trkpt lat="39.122284" lon="-6.196967"><ele>2643</ele><speed>45.55</speed><time>2017-07-01T12:35:08Z</time><course>212</course><type>1</type></trkpt>
      <trkpt lat="39.121849" lon="-6.197333"><ele>2650</ele><speed>41.64</speed><time>2017-07-01T12:35:13Z</time><course>206</course><type>1</type></trkpt>
      <trkpt lat="39.121517" lon="-6.196967"><ele>2646</ele><speed>35.01</speed><time>2017-07-01T12:35:18Z</time><course>86</course><type>1</type></trkpt>
      <trkpt lat="39.121765" lon="-6.197450"><ele>2650</ele><speed>18.01</speed><time>2017-07-01T12:35:28Z</time><course>242</course><type>1</type></trkpt>
      <trkpt lat="39.121349" lon="-6.198017"><ele>2650</ele><speed>48.53</speed><time>2017-07-01T12:35:33Z</time><course>218</course><type>1</type></trkpt>
      <trkpt lat="39.120815" lon="-6.198500"><ele>2651</ele><speed>52.29</speed><time>2017-07-01T12:35:38Z</time><course>208</course><type>1</type></trkpt>
      <trkpt lat="39.120266" lon="-6.198867"><ele>2654</ele><speed>49.57</speed><time>2017-07-01T12:35:43Z</time><course>206</course><type>1</type></trkpt>
      <trkpt lat="39.119667" lon="-6.199200"><ele>2650</ele><speed>52.28</speed><time>2017-07-01T12:35:48Z</time><course>214</course><type>1</type></trkpt>
      <trkpt lat="39.119083" lon="-6.199584"><ele>2644</ele><speed>52.55</speed><time>2017-07-01T12:35:53Z</time><course>204</course><type>1</type></trkpt>
      <trkpt lat="39.118568" lon="-6.200167"><ele>2635</ele><speed>54.94</speed><time>2017-07-01T12:35:58Z</time><course>218</course><type>1</type></trkpt>
      <trkpt lat="39.118000" lon="-6.200716"><ele>2637</ele><speed>56.9</speed><time>2017-07-01T12:36:03Z</time><course>218</course><type>1</type></trkpt>
      <trkpt lat="39.117451" lon="-6.201300"><ele>2636</ele><speed>57.05</speed><time>2017-07-01T12:36:08Z</time><course>222</course><type>1</type></trkpt>
      <trkpt lat="39.116901" lon="-6.201967"><ele>2633</ele><speed>60.53</speed><time>2017-07-01T12:36:13Z</time><course>222</course><type>1</type></trkpt>
      <trkpt lat="39.115967" lon="-6.203166"><ele>2621</ele><speed>52.83</speed><time>2017-07-01T12:36:23Z</time><course>230</course><type>1</type></trkpt>
      <trkpt lat="39.115532" lon="-6.203900"><ele>2612</ele><speed>57.44</speed><time>2017-07-01T12:36:28Z</time><course>230</course><type>1</type></trkpt>
      <trkpt lat="39.115017" lon="-6.204733"><ele>2601</ele><speed>66.24</speed><time>2017-07-01T12:36:33Z</time><course>232</course><type>1</type></trkpt>
      <trkpt lat="39.114532" lon="-6.205483"><ele>2599</ele><speed>60.72</speed><time>2017-07-01T12:36:38Z</time><course>230</course><type>1</type></trkpt>
      <trkpt lat="39.113998" lon="-6.206300"><ele>2578</ele><speed>66.43</speed><time>2017-07-01T12:36:43Z</time><course>228</course><type>1</type></trkpt>
      <trkpt lat="39.113384" lon="-6.207100"><ele>2574</ele><speed>69.98</speed><time>2017-07-01T12:36:48Z</time><course>224</course><type>1</type></trkpt>
      <trkpt lat="39.112717" lon="-6.207883"><ele>2568</ele><speed>72.31</speed><time>2017-07-01T12:36:53Z</time><course>222</course><type>1</type></trkpt>
      <trkpt lat="39.112183" lon="-6.208533"><ele>2562</ele><speed>58.87</speed><time>2017-07-01T12:36:58Z</time><course>224</course><type>1</type></trkpt>
      <trkpt lat="39.111668" lon="-6.209317"><ele>2550</ele><speed>63.88</speed><time>2017-07-01T12:37:03Z</time><course>230</course><type>1</type></trkpt>
      <trkpt lat="39.111084" lon="-6.210017"><ele>2534</ele><speed>63.92</speed><time>2017-07-01T12:37:08Z</time><course>220</course><type>1</type></trkpt>
      <trkpt lat="39.109600" lon="-6.211517"><ele>2508</ele><speed>75.58</speed><time>2017-07-01T12:37:18Z</time><course>214</course><type>1</type></trkpt>
      <trkpt lat="39.108799" lon="-6.212183"><ele>2494</ele><speed>76.4</speed><time>2017-07-01T12:37:23Z</time><course>214</course><type>1</type></trkpt>
      <trkpt lat="39.108017" lon="-6.212867"><ele>2481</ele><speed>75.75</speed><time>2017-07-01T12:37:28Z</time><course>212</course><type>1</type></trkpt>
      <trkpt lat="39.107235" lon="-6.213533"><ele>2467</ele><speed>75.13</speed><time>2017-07-01T12:37:33Z</time><course>212</course><type>1</type></trkpt>
      <trkpt lat="39.106434" lon="-6.214150"><ele>2455</ele><speed>74.79</speed><time>2017-07-01T12:37:38Z</time><course>208</course><type>1</type></trkpt>
      <trkpt lat="39.105618" lon="-6.214700"><ele>2441</ele><speed>73.81</speed><time>2017-07-01T12:37:43Z</time><course>206</course><type>1</type></trkpt>
      <trkpt lat="39.104832" lon="-6.215317"><ele>2436</ele><speed>73.77</speed><time>2017-07-01T12:37:48Z</time><course>212</course><type>1</type></trkpt>
      <trkpt lat="39.104198" lon="-6.215850"><ele>2431</ele><speed>60.67</speed><time>2017-07-01T12:37:53Z</time><course>214</course><type>1</type></trkpt>
      <trkpt lat="39.103550" lon="-6.216467"><ele>2427</ele><speed>64.58</speed><time>2017-07-01T12:37:58Z</time><course>214</course><type>1</type></trkpt>
      <trkpt lat="39.102882" lon="-6.217083"><ele>2423</ele><speed>65.84</speed><time>2017-07-01T12:38:03Z</time><course>216</course><type>1</type></trkpt>
      <trkpt lat="39.101818" lon="-6.218067"><ele>2412</ele><speed>52.48</speed><time>2017-07-01T12:38:13Z</time><course>214</course><type>1</type></trkpt>
      <trkpt lat="39.101234" lon="-6.218616"><ele>2404</ele><speed>57.94</speed><time>2017-07-01T12:38:18Z</time><course>216</course><type>1</type></trkpt>
      <trkpt lat="39.100601" lon="-6.219167"><ele>2396</ele><speed>61.23</speed><time>2017-07-01T12:38:23Z</time><course>210</course><type>1</type></trkpt>
      <trkpt lat="39.100018" lon="-6.219650"><ele>2389</ele><speed>55.55</speed><time>2017-07-01T12:38:28Z</time><course>214</course><type>1</type></trkpt>
      <trkpt lat="39.099434" lon="-6.220217"><ele>2385</ele><speed>58.61</speed><time>2017-07-01T12:38:33Z</time><course>214</course><type>1</type></trkpt>
      <trkpt lat="39.098766" lon="-6.220700"><ele>2383</ele><speed>61.39</speed><time>2017-07-01T12:38:38Z</time><course>206</course><type>1</type></trkpt>
      <trkpt lat="39.098167" lon="-6.221017"><ele>2392</ele><speed>51.9</speed><time>2017-07-01T12:38:43Z</time><course>176</course><type>1</type></trkpt>
      <trkpt lat="39.098000" lon="-6.220634"><ele>2393</ele><speed>27.33</speed><time>2017-07-01T12:38:48Z</time><course>34</course><type>1</type></trkpt>
      <trkpt lat="39.098118" lon="-6.221117"><ele>2394</ele><speed>31.5</speed><time>2017-07-01T12:38:53Z</time><course>256</course><type>1</type></trkpt>
      <trkpt lat="39.097801" lon="-6.221750"><ele>2401</ele><speed>46.86</speed><time>2017-07-01T12:38:58Z</time><course>226</course><type>1</type></trkpt>
      <trkpt lat="39.097183" lon="-6.221483"><ele>2405</ele><speed>26.12</speed><time>2017-07-01T12:39:08Z</time><course>28</course><type>1</type></trkpt>
      <trkpt lat="39.097401" lon="-6.221917"><ele>2404</ele><speed>32.16</speed><time>2017-07-01T12:39:13Z</time><course>264</course><type>1</type></trkpt>
      <trkpt lat="39.097233" lon="-6.222617"><ele>2417</ele><speed>45.58</speed><time>2017-07-01T12:39:18Z</time><course>270</course><type>1</type></trkpt>
      <trkpt lat="39.097485" lon="-6.222567"><ele>2418</ele><speed>20.44</speed><time>2017-07-01T12:39:23Z</time><course>80</course><type>1</type></trkpt>
      <trkpt lat="39.096966" lon="-6.222300"><ele>2426</ele><speed>44.79</speed><time>2017-07-01T12:39:28Z</time><course>198</course><type>1</type></trkpt>
      <trkpt lat="39.096584" lon="-6.222833"><ele>2436</ele><speed>45.13</speed><time>2017-07-01T12:39:33Z</time><course>254</course><type>1</type></trkpt>
      <trkpt lat="39.096851" lon="-6.223233"><ele>2442</ele><speed>32.82</speed><time>2017-07-01T12:39:38Z</time><course>28</course><type>1</type></trkpt>
      <trkpt lat="39.096733" lon="-6.222767"><ele>2447</ele><speed>30.49</speed><time>2017-07-01T12:39:43Z</time><course>140</course><type>1</type></trkpt>
      <trkpt lat="39.096115" lon="-6.222867"><ele>2456</ele><speed>49.92</speed><time>2017-07-01T12:39:48Z</time><course>220</course><type>1</type></trkpt>
      <trkpt lat="39.095966" lon="-6.223550"><ele>2460</ele><speed>44.13</speed><time>2017-07-01T12:39:53Z</time><course>300</course><type>1</type></trkpt>
      <trkpt lat="39.096218" lon="-6.223967"><ele>2472</ele><speed>32.88</speed><time>2017-07-01T12:39:58Z</time><course>298</course><type>1</type></trkpt>
      <trkpt lat="39.096500" lon="-6.224333"><ele>2482</ele><speed>32.08</speed><time>2017-07-01T12:40:03Z</time><course>316</course><type>1</type></trkpt>
      <trkpt lat="39.096767" lon="-6.224650"><ele>2504</ele><speed>29.1</speed><time>2017-07-01T12:40:08Z</time><course>334</course><type>1</type></trkpt>
      <trkpt lat="39.096615" lon="-6.224433"><ele>2504</ele><speed>18.18</speed><time>2017-07-01T12:40:13Z</time><course>174</course><type>1</type></trkpt>
      <trkpt lat="39.096016" lon="-6.225033"><ele>2518</ele><speed>60.81</speed><time>2017-07-01T12:40:18Z</time><course>248</course><type>1</type></trkpt>
      <trkpt lat="39.096050" lon="-6.225767"><ele>2534</ele><speed>45.74</speed><time>2017-07-01T12:40:23Z</time><course>292</course><type>1</type></trkpt>
      <trkpt lat="39.096134" lon="-6.225667"><ele>2545</ele><speed>9.17</speed><time>2017-07-01T12:40:28Z</time><course>130</course><type>1</type></trkpt>
      <trkpt lat="39.095482" lon="-6.225983"><ele>2563</ele><speed>55.83</speed><time>2017-07-01T12:40:33Z</time><course>244</course><type>1</type></trkpt>
      <trkpt lat="39.095615" lon="-6.226583"><ele>2577</ele><speed>38.81</speed><time>2017-07-01T12:40:38Z</time><course>344</course><type>1</type></trkpt>
      <trkpt lat="39.095531" lon="-6.226267"><ele>2591</ele><speed>20.78</speed><time>2017-07-01T12:40:43Z</time><course>156</course><type>1</type></trkpt>
      <trkpt lat="39.094898" lon="-6.226800"><ele>2602</ele><speed>60.61</speed><time>2017-07-01T12:40:48Z</time><course>254</course><type>1</type></trkpt>
      <trkpt lat="39.095116" lon="-6.227366"><ele>2614</ele><speed>39.3</speed><time>2017-07-01T12:40:53Z</time><course>318</course><type>1</type></trkpt>
      <trkpt lat="39.095451" lon="-6.227250"><ele>2633</ele><speed>13.9</speed><time>2017-07-01T12:41:03Z</time><course>6</course><type>1</type></trkpt>
      <trkpt lat="39.095615" lon="-6.227200"><ele>2643</ele><speed>13.51</speed><time>2017-07-01T12:41:08Z</time><course>24</course><type>1</type></trkpt>
      <trkpt lat="39.095798" lon="-6.227016"><ele>2648</ele><speed>18.6</speed><time>2017-07-01T12:41:13Z</time><course>24</course><type>1</type></trkpt>
      <trkpt lat="39.096085" lon="-6.226984"><ele>2661</ele><speed>23.09</speed><time>2017-07-01T12:41:18Z</time><course>8</course><type>1</type></trkpt>
      <trkpt lat="39.096115" lon="-6.226733"><ele>2667</ele><speed>15.8</speed><time>2017-07-01T12:41:23Z</time><course>118</course><type>1</type></trkpt>
      <trkpt lat="39.095749" lon="-6.226167"><ele>2681</ele><speed>45.83</speed><time>2017-07-01T12:41:28Z</time><course>138</course><type>1</type></trkpt>
      <trkpt lat="39.095165" lon="-6.226483"><ele>2673</ele><speed>50.77</speed><time>2017-07-01T12:41:33Z</time><course>250</course><type>1</type></trkpt>
      <trkpt lat="39.095200" lon="-6.227117"><ele>2681</ele><speed>39.54</speed><time>2017-07-01T12:41:38Z</time><course>276</course><type>1</type></trkpt>
      <trkpt lat="39.095348" lon="-6.227500"><ele>2694</ele><speed>26.61</speed><time>2017-07-01T12:41:43Z</time><course>324</course><type>1</type></trkpt>
      <trkpt lat="39.095818" lon="-6.227417"><ele>2714</ele><speed>19.01</speed><time>2017-07-01T12:41:53Z</time><course>332</course><type>1</type></trkpt>
      <trkpt lat="39.095734" lon="-6.226950"><ele>2716</ele><speed>29.82</speed><time>2017-07-01T12:41:58Z</time><course>152</course><type>1</type></trkpt>
      <trkpt lat="39.095333" lon="-6.227467"><ele>2725</ele><speed>45.47</speed><time>2017-07-01T12:42:03Z</time><course>286</course><type>1</type></trkpt>
      <trkpt lat="39.095665" lon="-6.227350"><ele>2728</ele><speed>27.59</speed><time>2017-07-01T12:42:08Z</time><course>72</course><type>1</type></trkpt>
      <trkpt lat="39.095734" lon="-6.226800"><ele>2739</ele><speed>34.66</speed><time>2017-07-01T12:42:13Z</time><course>100</course><type>1</type></trkpt>
      <trkpt lat="39.095200" lon="-6.226500"><ele>2745</ele><speed>46.69</speed><time>2017-07-01T12:42:18Z</time><course>180</course><type>1</type></trkpt>
      <trkpt lat="39.094982" lon="-6.227000"><ele>2750</ele><speed>35.67</speed><time>2017-07-01T12:42:23Z</time><course>296</course><type>1</type></trkpt>
      <trkpt lat="39.095165" lon="-6.226833"><ele>2764</ele><speed>17.97</speed><time>2017-07-01T12:42:28Z</time><course>100</course><type>1</type></trkpt>
      <trkpt lat="39.094666" lon="-6.226634"><ele>2759</ele><speed>41.87</speed><time>2017-07-01T12:42:33Z</time><course>210</course><type>1</type></trkpt>
      <trkpt lat="39.094234" lon="-6.227250"><ele>2764</ele><speed>51.64</speed><time>2017-07-01T12:42:38Z</time><course>230</course><type>1</type></trkpt>
      <trkpt lat="39.094131" lon="-6.227833"><ele>2770</ele><speed>37.19</speed><time>2017-07-01T12:42:43Z</time><course>282</course><type>1</type></trkpt>
      <trkpt lat="39.094349" lon="-6.227833"><ele>2771</ele><speed>17.47</speed><time>2017-07-01T12:42:48Z</time><course>66</course><type>1</type></trkpt>
      <trkpt lat="39.093750" lon="-6.227433"><ele>2771</ele><speed>54.07</speed><time>2017-07-01T12:42:53Z</time><course>188</course><type>1</type></trkpt>
      <trkpt lat="39.093151" lon="-6.227650"><ele>2776</ele><speed>49.87</speed><time>2017-07-01T12:42:58Z</time><course>196</course><type>1</type></trkpt>
      <trkpt lat="39.092449" lon="-6.228150"><ele>2779</ele><speed>64.29</speed><time>2017-07-01T12:43:03Z</time><course>214</course><type>1</type></trkpt>
      <trkpt lat="39.091866" lon="-6.228700"><ele>2762</ele><speed>57.91</speed><time>2017-07-01T12:43:08Z</time><course>214</course><type>1</type></trkpt>
      <trkpt lat="39.091331" lon="-6.229300"><ele>2762</ele><speed>56.85</speed><time>2017-07-01T12:43:13Z</time><course>220</course><type>1</type></trkpt>
      <trkpt lat="39.090733" lon="-6.229983"><ele>2748</ele><speed>64.05</speed><time>2017-07-01T12:43:18Z</time><course>218</course><type>1</type></trkpt>
      <trkpt lat="39.090183" lon="-6.230617"><ele>2736</ele><speed>59.15</speed><time>2017-07-01T12:43:23Z</time><course>224</course><type>1</type></trkpt>
      <trkpt lat="39.089668" lon="-6.231383"><ele>2734</ele><speed>63.04</speed><time>2017-07-01T12:43:28Z</time><course>230</course><type>1</type></trkpt>
      <trkpt lat="39.089218" lon="-6.232133"><ele>2735</ele><speed>58.97</speed><time>2017-07-01T12:43:33Z</time><course>226</course><type>1</type></trkpt>
      <trkpt lat="39.088665" lon="-6.232867"><ele>2724</ele><speed>63.64</speed><time>2017-07-01T12:43:38Z</time><course>222</course><type>1</type></trkpt>
      <trkpt lat="39.087448" lon="-6.234500"><ele>2697</ele><speed>70.42</speed><time>2017-07-01T12:43:48Z</time><course>230</course><type>1</type></trkpt>
      <trkpt lat="39.086933" lon="-6.235350"><ele>2694</ele><speed>67.08</speed><time>2017-07-01T12:43:53Z</time><course>226</course><type>1</type></trkpt>
      <trkpt lat="39.086349" lon="-6.236217"><ele>2675</ele><speed>71.42</speed><time>2017-07-01T12:43:58Z</time><course>228</course><type>1</type></trkpt>
      <trkpt lat="39.085682" lon="-6.237033"><ele>2663</ele><speed>73.72</speed><time>2017-07-01T12:44:03Z</time><course>230</course><type>1</type></trkpt>
      <trkpt lat="39.085083" lon="-6.237933"><ele>2642</ele><speed>73.76</speed><time>2017-07-01T12:44:08Z</time><course>224</course><type>1</type></trkpt>
      <trkpt lat="39.084351" lon="-6.238783"><ele>2641</ele><speed>78.98</speed><time>2017-07-01T12:44:13Z</time><course>222</course><type>1</type></trkpt>
      <trkpt lat="39.083649" lon="-6.239650"><ele>2630</ele><speed>77.94</speed><time>2017-07-01T12:44:18Z</time><course>224</course><type>1</type></trkpt>
      <trkpt lat="39.082901" lon="-6.240533"><ele>2623</ele><speed>81.32</speed><time>2017-07-01T12:44:23Z</time><course>224</course><type>1</type></trkpt>
      <trkpt lat="39.082115" lon="-6.241416"><ele>2607</ele><speed>83.59</speed><time>2017-07-01T12:44:28Z</time><course>218</course><type>1</type></trkpt>
      <trkpt lat="39.080517" lon="-6.242950"><ele>2583</ele><speed>79.86</speed><time>2017-07-01T12:44:38Z</time><course>218</course><type>1</type></trkpt>
      <trkpt lat="39.078968" lon="-6.244400"><ele>2564</ele><speed>76.73</speed><time>2017-07-01T12:44:48Z</time><course>208</course><type>1</type></trkpt>
      <trkpt lat="39.078152" lon="-6.245033"><ele>2556</ele><speed>76.35</speed><time>2017-07-01T12:44:53Z</time><course>212</course><type>1</type></trkpt>
      <trkpt lat="39.077366" lon="-6.245650"><ele>2548</ele><speed>73.77</speed><time>2017-07-01T12:44:58Z</time><course>206</course><type>1</type></trkpt>
      <trkpt lat="39.076534" lon="-6.246183"><ele>2540</ele><speed>74.48</speed><time>2017-07-01T12:45:03Z</time><course>206</course><type>1</type></trkpt>
      <trkpt lat="39.075733" lon="-6.246783"><ele>2538</ele><speed>74.27</speed><time>2017-07-01T12:45:08Z</time><course>212</course><type>1</type></trkpt>
      <trkpt lat="39.075066" lon="-6.247400"><ele>2540</ele><speed>65.82</speed><time>2017-07-01T12:45:13Z</time><course>214</course><type>1</type></trkpt>
      <trkpt lat="39.074333" lon="-6.248050"><ele>2540</ele><speed>71.33</speed><time>2017-07-01T12:45:18Z</time><course>212</course><type>1</type></trkpt>
      <trkpt lat="39.073635" lon="-6.248650"><ele>2541</ele><speed>67.26</speed><time>2017-07-01T12:45:23Z</time><course>214</course><type>1</type></trkpt>
      <trkpt lat="39.072250" lon="-6.249733"><ele>2543</ele><speed>64.93</speed><time>2017-07-01T12:45:33Z</time><course>210</course><type>1</type></trkpt>
      <trkpt lat="39.071548" lon="-6.250267"><ele>2539</ele><speed>65.34</speed><time>2017-07-01T12:45:38Z</time><course>212</course><type>1</type></trkpt>
      <trkpt lat="39.070900" lon="-6.250800"><ele>2541</ele><speed>61.62</speed><time>2017-07-01T12:45:43Z</time><course>214</course><type>1</type></trkpt>
      <trkpt lat="39.070301" lon="-6.251300"><ele>2545</ele><speed>57.21</speed><time>2017-07-01T12:45:48Z</time><course>206</course><type>1</type></trkpt>
      <trkpt lat="39.069599" lon="-6.251767"><ele>2545</ele><speed>63.33</speed><time>2017-07-01T12:45:53Z</time><course>206</course><type>1</type></trkpt>
      <trkpt lat="39.068916" lon="-6.252250"><ele>2541</ele><speed>62.45</speed><time>2017-07-01T12:45:58Z</time><course>208</course><type>1</type></trkpt>
      <trkpt lat="39.068249" lon="-6.252767"><ele>2536</ele><speed>62.39</speed><time>2017-07-01T12:46:03Z</time><course>210</course><type>1</type></trkpt>
      <trkpt lat="39.067600" lon="-6.253366"><ele>2532</ele><speed>63.99</speed><time>2017-07-01T12:46:08Z</time><course>214</course><type>1</type></trkpt>
      <trkpt lat="39.066952" lon="-6.253967"><ele>2530</ele><speed>64</speed><time>2017-07-01T12:46:13Z</time><course>216</course><type>1</type></trkpt>
      <trkpt lat="39.066299" lon="-6.254550"><ele>2530</ele><speed>63.68</speed><time>2017-07-01T12:46:18Z</time><course>214</course><type>1</type></trkpt>
      <trkpt lat="39.064999" lon="-6.255683"><ele>2530</ele><speed>62.9</speed><time>2017-07-01T12:46:28Z</time><course>216</course><type>1</type></trkpt>
      <trkpt lat="39.064365" lon="-6.256300"><ele>2527</ele><speed>63.69</speed><time>2017-07-01T12:46:33Z</time><course>214</course><type>1</type></trkpt>
      <trkpt lat="39.063732" lon="-6.256900"><ele>2515</ele><speed>62.99</speed><time>2017-07-01T12:46:38Z</time><course>214</course><type>1</type></trkpt>
      <trkpt lat="39.063168" lon="-6.257333"><ele>2516</ele><speed>52.63</speed><time>2017-07-01T12:46:43Z</time><course>208</course><type>1</type></trkpt>
      <trkpt lat="39.062565" lon="-6.257667"><ele>2517</ele><speed>52.61</speed><time>2017-07-01T12:46:48Z</time><course>200</course><type>1</type></trkpt>
      <trkpt lat="39.062065" lon="-6.258017"><ele>2528</ele><speed>45.61</speed><time>2017-07-01T12:46:53Z</time><course>202</course><type>1</type></trkpt>
      <trkpt lat="39.061600" lon="-6.257534"><ele>2521</ele><speed>47.88</speed><time>2017-07-01T12:46:58Z</time><course>96</course><type>1</type></trkpt>
      <trkpt lat="39.061733" lon="-6.257233"><ele>2533</ele><speed>21.55</speed><time>2017-07-01T12:47:03Z</time><course>358</course><type>1</type></trkpt>
      <trkpt lat="39.061501" lon="-6.257750"><ele>2537</ele><speed>37.16</speed><time>2017-07-01T12:47:08Z</time><course>220</course><type>1</type></trkpt>
      <trkpt lat="39.060951" lon="-6.257100"><ele>2548</ele><speed>29.92</speed><time>2017-07-01T12:47:18Z</time><course>40</course><type>1</type></trkpt>
      <trkpt lat="39.060932" lon="-6.257417"><ele>2548</ele><speed>19.79</speed><time>2017-07-01T12:47:23Z</time><course>226</course><type>1</type></trkpt>
      <trkpt lat="39.060398" lon="-6.257817"><ele>2539</ele><speed>49.51</speed><time>2017-07-01T12:47:28Z</time><course>208</course><type>1</type></trkpt>
      <trkpt lat="39.059700" lon="-6.258167"><ele>2541</ele><speed>60.04</speed><time>2017-07-01T12:47:33Z</time><course>200</course><type>1</type></trkpt>
      <trkpt lat="39.059032" lon="-6.258533"><ele>2547</ele><speed>58.18</speed><time>2017-07-01T12:47:38Z</time><course>198</course><type>1</type></trkpt>
      <trkpt lat="39.058315" lon="-6.258917"><ele>2548</ele><speed>62.24</speed><time>2017-07-01T12:47:43Z</time><course>206</course><type>1</type></trkpt>
      <trkpt lat="39.057682" lon="-6.259284"><ele>2545</ele><speed>55.64</speed><time>2017-07-01T12:47:48Z</time><course>204</course><type>1</type></trkpt>
      <trkpt lat="39.056950" lon="-6.259600"><ele>2532</ele><speed>61.88</speed><time>2017-07-01T12:47:53Z</time><course>196</course><type>1</type></trkpt>
      <trkpt lat="39.056168" lon="-6.260133"><ele>2518</ele><speed>70.91</speed><time>2017-07-01T12:47:58Z</time><course>212</course><type>1</type></trkpt>
      <trkpt lat="39.055534" lon="-6.260650"><ele>2518</ele><speed>60.15</speed><time>2017-07-01T12:48:03Z</time><course>208</course><type>1</type></trkpt>
      <trkpt lat="39.054916" lon="-6.261017"><ele>2516</ele><speed>54.55</speed><time>2017-07-01T12:48:08Z</time><course>204</course><type>1</type></trkpt>
      <trkpt lat="39.053616" lon="-6.262050"><ele>2488</ele><speed>61.22</speed><time>2017-07-01T12:48:18Z</time><course>212</course><type>1</type></trkpt>
      <trkpt lat="39.052868" lon="-6.262650"><ele>2477</ele><speed>70.63</speed><time>2017-07-01T12:48:23Z</time><course>208</course><type>1</type></trkpt>
      <trkpt lat="39.052166" lon="-6.263134"><ele>2471</ele><speed>63.82</speed><time>2017-07-01T12:48:28Z</time><course>208</course><type>1</type></trkpt>
      <trkpt lat="39.051483" lon="-6.263700"><ele>2458</ele><speed>65.1</speed><time>2017-07-01T12:48:33Z</time><course>212</course><type>1</type></trkpt>
      <trkpt lat="39.050785" lon="-6.264184"><ele>2441</ele><speed>63.54</speed><time>2017-07-01T12:48:38Z</time><course>208</course><type>1</type></trkpt>
      <trkpt lat="39.050117" lon="-6.264717"><ele>2429</ele><speed>62.99</speed><time>2017-07-01T12:48:43Z</time><course>210</course><type>1</type></trkpt>
      <trkpt lat="39.049435" lon="-6.265234"><ele>2416</ele><speed>63.43</speed><time>2017-07-01T12:48:48Z</time><course>206</course><type>1</type></trkpt>
      <trkpt lat="39.048717" lon="-6.265817"><ele>2403</ele><speed>68.03</speed><time>2017-07-01T12:48:53Z</time><course>214</course><type>1</type></trkpt>
      <trkpt lat="39.048065" lon="-6.266400"><ele>2392</ele><speed>63.62</speed><time>2017-07-01T12:48:58Z</time><course>214</course><type>1</type></trkpt>
      <trkpt lat="39.046848" lon="-6.267450"><ele>2363</ele><speed>58.71</speed><time>2017-07-01T12:49:08Z</time><course>208</course><type>1</type></trkpt>
      <trkpt lat="39.046185" lon="-6.267983"><ele>2353</ele><speed>62.65</speed><time>2017-07-01T12:49:13Z</time><course>210</course><type>1</type></trkpt>
      <trkpt lat="39.045532" lon="-6.268466"><ele>2341</ele><speed>60.36</speed><time>2017-07-01T12:49:18Z</time><course>208</course><type>1</type></trkpt>
      <trkpt lat="39.044899" lon="-6.268967"><ele>2324</ele><speed>59.55</speed><time>2017-07-01T12:49:23Z</time><course>208</course><type>1</type></trkpt>
      <trkpt lat="39.044285" lon="-6.269484"><ele>2306</ele><speed>58.8</speed><time>2017-07-01T12:49:28Z</time><course>212</course><type>1</type></trkpt>
      <trkpt lat="39.043701" lon="-6.269933"><ele>2285</ele><speed>54.52</speed><time>2017-07-01T12:49:33Z</time><course>216</course><type>1</type></trkpt>
      <trkpt lat="39.043083" lon="-6.270467"><ele>2263</ele><speed>59.65</speed><time>2017-07-01T12:49:38Z</time><course>212</course><type>1</type></trkpt>
      <trkpt lat="39.042385" lon="-6.271033"><ele>2247</ele><speed>66.12</speed><time>2017-07-01T12:49:43Z</time><course>212</course><type>1</type></trkpt>
      <trkpt lat="39.041752" lon="-6.271600"><ele>2229</ele><speed>61.81</speed><time>2017-07-01T12:49:48Z</time><course>218</course><type>1</type></trkpt>
      <trkpt lat="39.041115" lon="-6.272133"><ele>2214</ele><speed>60.89</speed><time>2017-07-01T12:49:53Z</time><course>210</course><type>1</type></trkpt>
      <trkpt lat="39.039799" lon="-6.273383"><ele>2179</ele><speed>65.54</speed><time>2017-07-01T12:50:03Z</time><course>216</course><type>1</type></trkpt>
      <trkpt lat="39.039165" lon="-6.273967"><ele>2178</ele><speed>62.48</speed><time>2017-07-01T12:50:08Z</time><course>212</course><type>1</type></trkpt>
      <trkpt lat="39.038582" lon="-6.274500"><ele>2162</ele><speed>57.31</speed><time>2017-07-01T12:50:13Z</time><course>212</course><type>1</type></trkpt>
      <trkpt lat="39.037933" lon="-6.275183"><ele>2150</ele><speed>67.18</speed><time>2017-07-01T12:50:18Z</time><course>224</course><type>1</type></trkpt>
      <trkpt lat="39.037567" lon="-6.275733"><ele>2156</ele><speed>45.09</speed><time>2017-07-01T12:50:23Z</time><course>220</course><type>1</type></trkpt>
      <trkpt lat="39.037033" lon="-6.276233"><ele>2143</ele><speed>52.92</speed><time>2017-07-01T12:50:28Z</time><course>202</course><type>1</type></trkpt>
      <trkpt lat="39.036449" lon="-6.276683"><ele>2132</ele><speed>54.55</speed><time>2017-07-01T12:50:33Z</time><course>210</course><type>1</type></trkpt>
      <trkpt lat="39.035885" lon="-6.277083"><ele>2129</ele><speed>51.61</speed><time>2017-07-01T12:50:38Z</time><course>204</course><type>1</type></trkpt>
      <trkpt lat="39.035316" lon="-6.277467"><ele>2120</ele><speed>51.49</speed><time>2017-07-01T12:50:43Z</time><course>212</course><type>1</type></trkpt>
      <trkpt lat="39.034283" lon="-6.278666"><ele>2094</ele><speed>55.74</speed><time>2017-07-01T12:50:53Z</time><course>242</course><type>1</type></trkpt>
      <trkpt lat="39.034100" lon="-6.279383"><ele>2094</ele><speed>46.99</speed><time>2017-07-01T12:50:58Z</time><course>270</course><type>1</type></trkpt>
      <trkpt lat="39.034332" lon="-6.280066"><ele>2088</ele><speed>46.41</speed><time>2017-07-01T12:51:03Z</time><course>274</course><type>1</type></trkpt>
      <trkpt lat="39.034451" lon="-6.280350"><ele>2070</ele><speed>20.09</speed><time>2017-07-01T12:51:08Z</time><course>26</course><type>1</type></trkpt>
      <trkpt lat="39.034035" lon="-6.280033"><ele>2052</ele><speed>38.75</speed><time>2017-07-01T12:51:13Z</time><course>194</course><type>1</type></trkpt>
      <trkpt lat="39.033501" lon="-6.280416"><ele>2048</ele><speed>48.99</speed><time>2017-07-01T12:51:18Z</time><course>214</course><type>1</type></trkpt>
      <trkpt lat="39.032848" lon="-6.281100"><ele>2033</ele><speed>67.47</speed><time>2017-07-01T12:51:23Z</time><course>214</course><type>1</type></trkpt>
      <trkpt lat="39.032200" lon="-6.281800"><ele>2015</ele><speed>67.8</speed><time>2017-07-01T12:51:28Z</time><course>226</course><type>1</type></trkpt>
      <trkpt lat="39.031666" lon="-6.282467"><ele>2004</ele><speed>59.64</speed><time>2017-07-01T12:51:33Z</time><course>228</course><type>1</type></trkpt>
      <trkpt lat="39.031082" lon="-6.283216"><ele>1993</ele><speed>66.07</speed><time>2017-07-01T12:51:38Z</time><course>220</course><type>1</type></trkpt>
      <trkpt lat="39.029999" lon="-6.284767"><ele>1958</ele><speed>64.92</speed><time>2017-07-01T12:51:48Z</time><course>216</course><type>1</type></trkpt>
      <trkpt lat="39.029266" lon="-6.285450"><ele>1938</ele><speed>72.53</speed><time>2017-07-01T12:51:53Z</time><course>212</course><type>1</type></trkpt>
      <trkpt lat="39.028465" lon="-6.286100"><ele>1920</ele><speed>75.89</speed><time>2017-07-01T12:51:58Z</time><course>212</course><type>1</type></trkpt>
      <trkpt lat="39.027718" lon="-6.286733"><ele>1903</ele><speed>71.68</speed><time>2017-07-01T12:52:03Z</time><course>210</course><type>1</type></trkpt>
      <trkpt lat="39.026966" lon="-6.287367"><ele>1891</ele><speed>72.05</speed><time>2017-07-01T12:52:08Z</time><course>212</course><type>1</type></trkpt>
      <trkpt lat="39.026184" lon="-6.287983"><ele>1873</ele><speed>73.48</speed><time>2017-07-01T12:52:13Z</time><course>210</course><type>1</type></trkpt>
      <trkpt lat="39.025368" lon="-6.288500"><ele>1858</ele><speed>72.9</speed><time>2017-07-01T12:52:18Z</time><course>200</course><type>1</type></trkpt>
      <trkpt lat="39.024532" lon="-6.288967"><ele>1844</ele><speed>73.04</speed><time>2017-07-01T12:52:23Z</time><course>206</course><type>1</type></trkpt>
      <trkpt lat="39.023716" lon="-6.289400"><ele>1827</ele><speed>70.74</speed><time>2017-07-01T12:52:28Z</time><course>194</course><type>1</type></trkpt>
      <trkpt lat="39.021999" lon="-6.290133"><ele>1799</ele><speed>72.49</speed><time>2017-07-01T12:52:38Z</time><course>206</course><type>1</type></trkpt>
      <trkpt lat="39.021133" lon="-6.290566"><ele>1788</ele><speed>74.46</speed><time>2017-07-01T12:52:43Z</time><course>200</course><type>1</type></trkpt>
      <trkpt lat="39.020367" lon="-6.290950"><ele>1788</ele><speed>65.89</speed><time>2017-07-01T12:52:48Z</time><course>200</course><type>1</type></trkpt>
      <trkpt lat="39.019650" lon="-6.291117"><ele>1787</ele><speed>58.4</speed><time>2017-07-01T12:52:53Z</time><course>176</course><type>1</type></trkpt>
      <trkpt lat="39.019032" lon="-6.291083"><ele>1780</ele><speed>49.58</speed><time>2017-07-01T12:52:58Z</time><course>172</course><type>1</type></trkpt>
      <trkpt lat="39.018818" lon="-6.290633"><ele>1765</ele><speed>32.85</speed><time>2017-07-01T12:53:03Z</time><course>64</course><type>1</type></trkpt>
      <trkpt lat="39.019085" lon="-6.290817"><ele>1757</ele><speed>24.27</speed><time>2017-07-01T12:53:08Z</time><course>304</course><type>1</type></trkpt>
      <trkpt lat="39.019199" lon="-6.291217"><ele>1750</ele><speed>26.53</speed><time>2017-07-01T12:53:13Z</time><course>284</course><type>1</type></trkpt>
      <trkpt lat="39.019165" lon="-6.291883"><ele>1756</ele><speed>41.56</speed><time>2017-07-01T12:53:18Z</time><course>260</course><type>1</type></trkpt>
      <trkpt lat="39.018616" lon="-6.292517"><ele>1751</ele><speed>59.12</speed><time>2017-07-01T12:53:23Z</time><course>198</course><type>1</type></trkpt>
      <trkpt lat="39.018200" lon="-6.293483"><ele>1734</ele><speed>34.39</speed><time>2017-07-01T12:53:33Z</time><course>350</course><type>1</type></trkpt>
      <trkpt lat="39.018166" lon="-6.293150"><ele>1722</ele><speed>20.91</speed><time>2017-07-01T12:53:38Z</time><course>142</course><type>1</type></trkpt>
      <trkpt lat="39.017483" lon="-6.293067"><ele>1717</ele><speed>54.99</speed><time>2017-07-01T12:53:43Z</time><course>188</course><type>1</type></trkpt>
      <trkpt lat="39.016682" lon="-6.293366"><ele>1706</ele><speed>66.85</speed><time>2017-07-01T12:53:48Z</time><course>202</course><type>1</type></trkpt>
      <trkpt lat="39.015949" lon="-6.293617"><ele>1686</ele><speed>60.79</speed><time>2017-07-01T12:53:53Z</time><course>190</course><type>1</type></trkpt>
      <trkpt lat="39.015266" lon="-6.293917"><ele>1678</ele><speed>57.84</speed><time>2017-07-01T12:53:58Z</time><course>198</course><type>1</type></trkpt>
      <trkpt lat="39.014549" lon="-6.294200"><ele>1664</ele><speed>60.11</speed><time>2017-07-01T12:54:03Z</time><course>196</course><type>1</type></trkpt>
      <trkpt lat="39.013802" lon="-6.294517"><ele>1649</ele><speed>63.04</speed><time>2017-07-01T12:54:08Z</time><course>198</course><type>1</type></trkpt>
      <trkpt lat="39.013100" lon="-6.294967"><ele>1637</ele><speed>62.86</speed><time>2017-07-01T12:54:13Z</time><course>208</course><type>1</type></trkpt>
      <trkpt lat="39.012451" lon="-6.295467"><ele>1625</ele><speed>60.63</speed><time>2017-07-01T12:54:18Z</time><course>210</course><type>1</type></trkpt>
      <trkpt lat="39.011250" lon="-6.296517"><ele>1598</ele><speed>58.19</speed><time>2017-07-01T12:54:28Z</time><course>216</course><type>1</type></trkpt>
      <trkpt lat="39.010601" lon="-6.297050"><ele>1583</ele><speed>61.71</speed><time>2017-07-01T12:54:33Z</time><course>212</course><type>1</type></trkpt>
      <trkpt lat="39.010067" lon="-6.297483"><ele>1581</ele><speed>50.59</speed><time>2017-07-01T12:54:38Z</time><course>216</course><type>1</type></trkpt>
      <trkpt lat="39.009533" lon="-6.297983"><ele>1563</ele><speed>52.93</speed><time>2017-07-01T12:54:43Z</time><course>210</course><type>1</type></trkpt>
      <trkpt lat="39.008934" lon="-6.298517"><ele>1548</ele><speed>58.4</speed><time>2017-07-01T12:54:48Z</time><course>214</course><type>1</type></trkpt>
      <trkpt lat="39.008400" lon="-6.299117"><ele>1529</ele><speed>56.82</speed><time>2017-07-01T12:54:53Z</time><course>220</course><type>1</type></trkpt>
      <trkpt lat="39.007851" lon="-6.299817"><ele>1507</ele><speed>61.94</speed><time>2017-07-01T12:54:58Z</time><course>228</course><type>1</type></trkpt>
      <trkpt lat="39.007351" lon="-6.300600"><ele>1496</ele><speed>63.12</speed><time>2017-07-01T12:55:03Z</time><course>230</course><type>1</type></trkpt>
      <trkpt lat="39.006916" lon="-6.301233"><ele>1486</ele><speed>52.63</speed><time>2017-07-01T12:55:08Z</time><course>230</course><type>1</type></trkpt>
      <trkpt lat="39.006016" lon="-6.302600"><ele>1450</ele><speed>55.8</speed><time>2017-07-01T12:55:18Z</time><course>232</course><type>1</type></trkpt>
      <trkpt lat="39.005650" lon="-6.303517"><ele>1428</ele><speed>64.21</speed><time>2017-07-01T12:55:23Z</time><course>248</course><type>1</type></trkpt>
      <trkpt lat="39.005318" lon="-6.304183"><ele>1407</ele><speed>49.28</speed><time>2017-07-01T12:55:28Z</time><course>230</course><type>1</type></trkpt>
      <trkpt lat="39.004883" lon="-6.304917"><ele>1383</ele><speed>57.49</speed><time>2017-07-01T12:55:33Z</time><course>234</course><type>1</type></trkpt>
      <trkpt lat="39.004398" lon="-6.305700"><ele>1374</ele><speed>62.37</speed><time>2017-07-01T12:55:38Z</time><course>232</course><type>1</type></trkpt>
      <trkpt lat="39.003983" lon="-6.306283"><ele>1355</ele><speed>49.24</speed><time>2017-07-01T12:55:43Z</time><course>224</course><type>1</type></trkpt>
      <trkpt lat="39.003502" lon="-6.306950"><ele>1345</ele><speed>56.68</speed><time>2017-07-01T12:55:48Z</time><course>226</course><type>1</type></trkpt>
      <trkpt lat="39.002998" lon="-6.307700"><ele>1334</ele><speed>61.76</speed><time>2017-07-01T12:55:53Z</time><course>228</course><type>1</type></trkpt>
      <trkpt lat="39.002518" lon="-6.308400"><ele>1326</ele><speed>58.15</speed><time>2017-07-01T12:55:58Z</time><course>228</course><type>1</type></trkpt>
      <trkpt lat="39.001499" lon="-6.309733"><ele>1305</ele><speed>58.23</speed><time>2017-07-01T12:56:08Z</time><course>234</course><type>1</type></trkpt>
      <trkpt lat="39.001133" lon="-6.310567"><ele>1292</ele><speed>59.66</speed><time>2017-07-01T12:56:13Z</time><course>240</course><type>1</type></trkpt>
      <trkpt lat="39.000751" lon="-6.311417"><ele>1285</ele><speed>61.16</speed><time>2017-07-01T12:56:18Z</time><course>244</course><type>1</type></trkpt>
      <trkpt lat="39.000381" lon="-6.312267"><ele>1271</ele><speed>60.68</speed><time>2017-07-01T12:56:23Z</time><course>230</course><type>1</type></trkpt>
      <trkpt lat="38.999916" lon="-6.312950"><ele>1271</ele><speed>56.56</speed><time>2017-07-01T12:56:28Z</time><course>224</course><type>1</type></trkpt>
      <trkpt lat="38.999401" lon="-6.313567"><ele>1263</ele><speed>56.4</speed><time>2017-07-01T12:56:33Z</time><course>220</course><type>1</type></trkpt>
      <trkpt lat="38.998951" lon="-6.314116"><ele>1250</ele><speed>49.7</speed><time>2017-07-01T12:56:38Z</time><course>224</course><type>1</type></trkpt>
      <trkpt lat="38.998516" lon="-6.314767"><ele>1242</ele><speed>53.48</speed><time>2017-07-01T12:56:43Z</time><course>228</course><type>1</type></trkpt>
      <trkpt lat="38.998066" lon="-6.315516"><ele>1229</ele><speed>58.97</speed><time>2017-07-01T12:56:48Z</time><course>234</course><type>1</type></trkpt>
      <trkpt lat="38.997684" lon="-6.316283"><ele>1218</ele><speed>56.75</speed><time>2017-07-01T12:56:53Z</time><course>238</course><type>1</type></trkpt>
      <trkpt lat="38.997349" lon="-6.317983"><ele>1209</ele><speed>54.62</speed><time>2017-07-01T12:57:03Z</time><course>264</course><type>1</type></trkpt>
      <trkpt lat="38.997284" lon="-6.318850"><ele>1208</ele><speed>54.26</speed><time>2017-07-01T12:57:08Z</time><course>260</course><type>1</type></trkpt>
      <trkpt lat="38.997135" lon="-6.319716"><ele>1201</ele><speed>55.25</speed><time>2017-07-01T12:57:13Z</time><course>252</course><type>1</type></trkpt>
      <trkpt lat="38.996819" lon="-6.320500"><ele>1201</ele><speed>55.01</speed><time>2017-07-01T12:57:18Z</time><course>244</course><type>1</type></trkpt>
      <trkpt lat="38.996532" lon="-6.321383"><ele>1193</ele><speed>59.62</speed><time>2017-07-01T12:57:23Z</time><course>252</course><type>1</type></trkpt>
      <trkpt lat="38.996235" lon="-6.322300"><ele>1192</ele><speed>61.88</speed><time>2017-07-01T12:57:28Z</time><course>250</course><type>1</type></trkpt>
      <trkpt lat="38.995949" lon="-6.323200"><ele>1188</ele><speed>60.57</speed><time>2017-07-01T12:57:33Z</time><course>248</course><type>1</type></trkpt>
      <trkpt lat="38.995682" lon="-6.324067"><ele>1189</ele><speed>58.09</speed><time>2017-07-01T12:57:38Z</time><course>250</course><type>1</type></trkpt>
      <trkpt lat="38.995399" lon="-6.324950"><ele>1194</ele><speed>59.5</speed><time>2017-07-01T12:57:43Z</time><course>248</course><type>1</type></trkpt>
      <trkpt lat="38.995735" lon="-6.325634"><ele>1203</ele><speed>25.2</speed><time>2017-07-01T12:57:53Z</time><course>150</course><type>1</type></trkpt>
      <trkpt lat="38.995419" lon="-6.326334"><ele>1206</ele><speed>50.43</speed><time>2017-07-01T12:57:58Z</time><course>286</course><type>1</type></trkpt>
      <trkpt lat="38.995815" lon="-6.326800"><ele>1219</ele><speed>43.01</speed><time>2017-07-01T12:58:03Z</time><course>340</course><type>1</type></trkpt>
      <trkpt lat="38.995918" lon="-6.326517"><ele>1221</ele><speed>19.47</speed><time>2017-07-01T12:58:08Z</time><course>154</course><type>1</type></trkpt>
      <trkpt lat="38.995651" lon="-6.327183"><ele>1224</ele><speed>46.68</speed><time>2017-07-01T12:58:13Z</time><course>274</course><type>1</type></trkpt>
      <trkpt lat="38.995968" lon="-6.327617"><ele>1228</ele><speed>37.1</speed><time>2017-07-01T12:58:18Z</time><course>16</course><type>1</type></trkpt>
      <trkpt lat="38.995800" lon="-6.327333"><ele>1232</ele><speed>22.23</speed><time>2017-07-01T12:58:23Z</time><course>194</course><type>1</type></trkpt>
      <trkpt lat="38.995716" lon="-6.328150"><ele>1233</ele><speed>51.34</speed><time>2017-07-01T12:58:28Z</time><course>304</course><type>1</type></trkpt>
      <trkpt lat="38.995934" lon="-6.328033"><ele>1232</ele><speed>18.93</speed><time>2017-07-01T12:58:33Z</time><course>134</course><type>1</type></trkpt>
      <trkpt lat="38.995583" lon="-6.328483"><ele>1230</ele><speed>39.71</speed><time>2017-07-01T12:58:38Z</time><course>276</course><type>1</type></trkpt>
      <trkpt lat="38.995949" lon="-6.328784"><ele>1230</ele><speed>17.41</speed><time>2017-07-01T12:58:48Z</time><course>154</course><type>1</type></trkpt>
      <trkpt lat="38.995567" lon="-6.328833"><ele>1231</ele><speed>30.77</speed><time>2017-07-01T12:58:53Z</time><course>202</course><type>1</type></trkpt>
      <trkpt lat="38.995518" lon="-6.329517"><ele>1221</ele><speed>42.79</speed><time>2017-07-01T12:58:58Z</time><course>324</course><type>1</type></trkpt>
      <trkpt lat="38.995850" lon="-6.329500"><ele>1225</ele><speed>26.63</speed><time>2017-07-01T12:59:03Z</time><course>24</course><type>1</type></trkpt>
      <trkpt lat="38.995865" lon="-6.329200"><ele>1216</ele><speed>18.73</speed><time>2017-07-01T12:59:08Z</time><course>152</course><type>1</type></trkpt>
      <trkpt lat="38.995434" lon="-6.329083"><ele>1212</ele><speed>35.31</speed><time>2017-07-01T12:59:13Z</time><course>168</course><type>1</type></trkpt>
      <trkpt lat="38.994949" lon="-6.328983"><ele>1216</ele><speed>39.37</speed><time>2017-07-01T12:59:18Z</time><course>172</course><type>1</type></trkpt>
      <trkpt lat="38.994766" lon="-6.328767"><ele>1219</ele><speed>19.9</speed><time>2017-07-01T12:59:23Z</time><course>40</course><type>1</type></trkpt>
      <trkpt lat="38.994835" lon="-6.329333"><ele>1220</ele><speed>35.69</speed><time>2017-07-01T12:59:28Z</time><course>214</course><type>1</type></trkpt>
      <trkpt lat="38.994934" lon="-6.329450"><ele>1240</ele><speed>5.39</speed><time>2017-07-01T12:59:38Z</time><course>296</course><type>1</type></trkpt>
      <trkpt lat="38.994617" lon="-6.329900"><ele>1247</ele><speed>37.83</speed><time>2017-07-01T12:59:43Z</time><course>166</course><type>1</type></trkpt>
      <trkpt lat="38.994701" lon="-6.329583"><ele>1263</ele><speed>20.86</speed><time>2017-07-01T12:59:48Z</time><course>6</course><type>1</type></trkpt>
      <trkpt lat="38.994900" lon="-6.330100"><ele>1275</ele><speed>35.94</speed><time>2017-07-01T12:59:53Z</time><course>270</course><type>1</type></trkpt>
      <trkpt lat="38.994499" lon="-6.330567"><ele>1284</ele><speed>43.35</speed><time>2017-07-01T12:59:58Z</time><course>160</course><type>1</type></trkpt>
      <trkpt lat="38.994568" lon="-6.330350"><ele>1289</ele><speed>14.61</speed><time>2017-07-01T13:00:03Z</time><course>350</course><type>1</type></trkpt>
      <trkpt lat="38.994732" lon="-6.330934"><ele>1299</ele><speed>38.68</speed><time>2017-07-01T13:00:08Z</time><course>264</course><type>1</type></trkpt>
      <trkpt lat="38.994282" lon="-6.331217"><ele>1305</ele><speed>40.15</speed><time>2017-07-01T13:00:13Z</time><course>142</course><type>1</type></trkpt>
      <trkpt lat="38.994434" lon="-6.331083"><ele>1314</ele><speed>14.77</speed><time>2017-07-01T13:00:18Z</time><course>340</course><type>1</type></trkpt>
      <trkpt lat="38.994465" lon="-6.331783"><ele>1321</ele><speed>43.68</speed><time>2017-07-01T13:00:23Z</time><course>238</course><type>1</type></trkpt>
      <trkpt lat="38.994316" lon="-6.331683"><ele>1340</ele><speed>6.73</speed><time>2017-07-01T13:00:33Z</time><course>322</course><type>1</type></trkpt>
      <trkpt lat="38.994202" lon="-6.332450"><ele>1344</ele><speed>48.64</speed><time>2017-07-01T13:00:38Z</time><course>218</course><type>1</type></trkpt>
      <trkpt lat="38.993965" lon="-6.332350"><ele>1354</ele><speed>19.99</speed><time>2017-07-01T13:00:43Z</time><course>60</course><type>1</type></trkpt>
      <trkpt lat="38.994282" lon="-6.332750"><ele>1362</ele><speed>35.59</speed><time>2017-07-01T13:00:48Z</time><course>262</course><type>1</type></trkpt>
      <trkpt lat="38.993832" lon="-6.333250"><ele>1377</ele><speed>47.65</speed><time>2017-07-01T13:00:53Z</time><course>186</course><type>1</type></trkpt>
      <trkpt lat="38.993885" lon="-6.333017"><ele>1384</ele><speed>15.12</speed><time>2017-07-01T13:00:58Z</time><course>358</course><type>1</type></trkpt>
      <trkpt lat="38.994068" lon="-6.333650"><ele>1395</ele><speed>42.07</speed><time>2017-07-01T13:01:03Z</time><course>248</course><type>1</type></trkpt>
      <trkpt lat="38.993599" lon="-6.333900"><ele>1403</ele><speed>40.69</speed><time>2017-07-01T13:01:08Z</time><course>156</course><type>1</type></trkpt>
      <trkpt lat="38.993668" lon="-6.333650"><ele>1413</ele><speed>16.53</speed><time>2017-07-01T13:01:13Z</time><course>6</course><type>1</type></trkpt>
      <trkpt lat="38.993500" lon="-6.334333"><ele>1430</ele><speed>22.31</speed><time>2017-07-01T13:01:23Z</time><course>124</course><type>1</type></trkpt>
      <trkpt lat="38.993683" lon="-6.334150"><ele>1442</ele><speed>18.58</speed><time>2017-07-01T13:01:28Z</time><course>352</course><type>1</type></trkpt>
      <trkpt lat="38.993885" lon="-6.334850"><ele>1447</ele><speed>46.51</speed><time>2017-07-01T13:01:33Z</time><course>248</course><type>1</type></trkpt>
      <trkpt lat="38.993435" lon="-6.335000"><ele>1458</ele><speed>37.26</speed><time>2017-07-01T13:01:38Z</time><course>138</course><type>1</type></trkpt>
      <trkpt lat="38.993618" lon="-6.334784"><ele>1468</ele><speed>19.9</speed><time>2017-07-01T13:01:43Z</time><course>2</course><type>1</type></trkpt>
      <trkpt lat="38.993832" lon="-6.335383"><ele>1475</ele><speed>41.07</speed><time>2017-07-01T13:01:48Z</time><course>260</course><type>1</type></trkpt>
      <trkpt lat="38.993416" lon="-6.335650"><ele>1485</ele><speed>37.26</speed><time>2017-07-01T13:01:53Z</time><course>148</course><type>1</type></trkpt>
      <trkpt lat="38.993568" lon="-6.335400"><ele>1492</ele><speed>19.77</speed><time>2017-07-01T13:01:58Z</time><course>6</course><type>1</type></trkpt>
      <trkpt lat="38.993851" lon="-6.336017"><ele>1500</ele><speed>44.63</speed><time>2017-07-01T13:02:03Z</time><course>264</course><type>1</type></trkpt>
      <trkpt lat="38.993484" lon="-6.336417"><ele>1513</ele><speed>38.55</speed><time>2017-07-01T13:02:08Z</time><course>172</course><type>1</type></trkpt>
      <trkpt lat="38.993832" lon="-6.336733"><ele>1522</ele><speed>17.07</speed><time>2017-07-01T13:02:18Z</time><course>264</course><type>1</type></trkpt>
      <trkpt lat="38.993450" lon="-6.337117"><ele>1536</ele><speed>38.85</speed><time>2017-07-01T13:02:23Z</time><course>166</course><type>1</type></trkpt>
      <trkpt lat="38.993568" lon="-6.336900"><ele>1546</ele><speed>16.5</speed><time>2017-07-01T13:02:28Z</time><course>344</course><type>1</type></trkpt>
      <trkpt lat="38.993832" lon="-6.337533"><ele>1556</ele><speed>44.75</speed><time>2017-07-01T13:02:33Z</time><course>262</course><type>1</type></trkpt>
      <trkpt lat="38.993435" lon="-6.337867"><ele>1565</ele><speed>38.02</speed><time>2017-07-01T13:02:38Z</time><course>158</course><type>1</type></trkpt>
      <trkpt lat="38.993549" lon="-6.337683"><ele>1575</ele><speed>14.66</speed><time>2017-07-01T13:02:43Z</time><course>358</course><type>1</type></trkpt>
      <trkpt lat="38.993866" lon="-6.338367"><ele>1580</ele><speed>49.61</speed><time>2017-07-01T13:02:48Z</time><course>270</course><type>1</type></trkpt>
      <trkpt lat="38.993515" lon="-6.338817"><ele>1585</ele><speed>39.71</speed><time>2017-07-01T13:02:53Z</time><course>178</course><type>1</type></trkpt>
      <trkpt lat="38.993450" lon="-6.338617"><ele>1597</ele><speed>13.5</speed><time>2017-07-01T13:02:58Z</time><course>32</course><type>1</type></trkpt>
      <trkpt lat="38.993851" lon="-6.339016"><ele>1596</ele><speed>40.63</speed><time>2017-07-01T13:03:03Z</time><course>308</course><type>1</type></trkpt>
      <trkpt lat="38.993382" lon="-6.339667"><ele>1620</ele><speed>27.65</speed><time>2017-07-01T13:03:13Z</time><course>120</course><type>1</type></trkpt>
      <trkpt lat="38.993698" lon="-6.339716"><ele>1627</ele><speed>25.51</speed><time>2017-07-01T13:03:18Z</time><course>320</course><type>1</type></trkpt>
      <trkpt lat="38.993767" lon="-6.340500"><ele>1636</ele><speed>49.15</speed><time>2017-07-01T13:03:23Z</time><course>244</course><type>1</type></trkpt>
      <trkpt lat="38.993382" lon="-6.340633"><ele>1644</ele><speed>31.95</speed><time>2017-07-01T13:03:28Z</time><course>130</course><type>1</type></trkpt>
      <trkpt lat="38.993683" lon="-6.340550"><ele>1652</ele><speed>24.67</speed><time>2017-07-01T13:03:33Z</time><course>340</course><type>1</type></trkpt>
      <trkpt lat="38.994019" lon="-6.341233"><ele>1659</ele><speed>50.35</speed><time>2017-07-01T13:03:38Z</time><course>286</course><type>1</type></trkpt>
      <trkpt lat="38.993832" lon="-6.342017"><ele>1672</ele><speed>51.09</speed><time>2017-07-01T13:03:43Z</time><course>214</course><type>1</type></trkpt>
      <trkpt lat="38.993649" lon="-6.341866"><ele>1684</ele><speed>17.42</speed><time>2017-07-01T13:03:48Z</time><course>24</course><type>1</type></trkpt>
      <trkpt lat="38.994068" lon="-6.342167"><ele>1702</ele><speed>38.46</speed><time>2017-07-01T13:03:53Z</time><course>314</course><type>1</type></trkpt>
      <trkpt lat="38.993732" lon="-6.342950"><ele>1729</ele><speed>27.86</speed><time>2017-07-01T13:04:03Z</time><course>80</course><type>1</type></trkpt>
      <trkpt lat="38.994099" lon="-6.343083"><ele>1747</ele><speed>30.56</speed><time>2017-07-01T13:04:08Z</time><course>318</course><type>1</type></trkpt>
      <trkpt lat="38.994167" lon="-6.343867"><ele>1760</ele><speed>49.14</speed><time>2017-07-01T13:04:13Z</time><course>248</course><type>1</type></trkpt>
      <trkpt lat="38.993752" lon="-6.344083"><ele>1768</ele><speed>35.88</speed><time>2017-07-01T13:04:18Z</time><course>140</course><type>1</type></trkpt>
      <trkpt lat="38.993984" lon="-6.344067"><ele>1780</ele><speed>18.62</speed><time>2017-07-01T13:04:23Z</time><course>328</course><type>1</type></trkpt>
      <trkpt lat="38.994335" lon="-6.344650"><ele>1794</ele><speed>45.94</speed><time>2017-07-01T13:04:28Z</time><course>296</course><type>1</type></trkpt>
      <trkpt lat="38.994167" lon="-6.345433"><ele>1802</ele><speed>50.6</speed><time>2017-07-01T13:04:33Z</time><course>210</course><type>1</type></trkpt>
      <trkpt lat="38.993782" lon="-6.345433"><ele>1814</ele><speed>30.86</speed><time>2017-07-01T13:04:38Z</time><course>138</course><type>1</type></trkpt>
      <trkpt lat="38.994133" lon="-6.345400"><ele>1826</ele><speed>28.21</speed><time>2017-07-01T13:04:43Z</time><course>334</course><type>1</type></trkpt>
      <trkpt lat="38.994366" lon="-6.346117"><ele>1840</ele><speed>48.41</speed><time>2017-07-01T13:04:48Z</time><course>270</course><type>1</type></trkpt>
      <trkpt lat="38.993984" lon="-6.346750"><ele>1854</ele><speed>49.92</speed><time>2017-07-01T13:04:53Z</time><course>204</course><type>1</type></trkpt>
      <trkpt lat="38.993816" lon="-6.346500"><ele>1861</ele><speed>20.59</speed><time>2017-07-01T13:04:58Z</time><course>58</course><type>1</type></trkpt>
      <trkpt lat="38.994202" lon="-6.346750"><ele>1872</ele><speed>34.64</speed><time>2017-07-01T13:05:03Z</time><course>314</course><type>1</type></trkpt>
      <trkpt lat="38.994465" lon="-6.347517"><ele>1881</ele><speed>52.22</speed><time>2017-07-01T13:05:08Z</time><course>260</course><type>1</type></trkpt>
      <trkpt lat="38.994034" lon="-6.347850"><ele>1876</ele><speed>40.29</speed><time>2017-07-01T13:05:13Z</time><course>164</course><type>1</type></trkpt>
      <trkpt lat="38.993649" lon="-6.347767"><ele>1891</ele><speed>31.29</speed><time>2017-07-01T13:05:18Z</time><course>202</course><type>1</type></trkpt>
      <trkpt lat="38.993332" lon="-6.348450"><ele>1893</ele><speed>49.56</speed><time>2017-07-01T13:05:23Z</time><course>276</course><type>1</type></trkpt>
      <trkpt lat="38.993683" lon="-6.348950"><ele>1902</ele><speed>41.97</speed><time>2017-07-01T13:05:28Z</time><course>316</course><type>1</type></trkpt>
      <trkpt lat="38.993851" lon="-6.348783"><ele>1904</ele><speed>17.02</speed><time>2017-07-01T13:05:33Z</time><course>82</course><type>1</type></trkpt>
      <trkpt lat="38.993801" lon="-6.348533"><ele>1920</ele><speed>16.08</speed><time>2017-07-01T13:05:38Z</time><course>150</course><type>1</type></trkpt>
      <trkpt lat="38.993401" lon="-6.349067"><ele>1918</ele><speed>46.2</speed><time>2017-07-01T13:05:43Z</time><course>262</course><type>1</type></trkpt>
      <trkpt lat="38.993732" lon="-6.349550"><ele>1928</ele><speed>40.11</speed><time>2017-07-01T13:05:48Z</time><course>352</course><type>1</type></trkpt>
      <trkpt lat="38.993866" lon="-6.349367"><ele>1934</ele><speed>15.66</speed><time>2017-07-01T13:05:53Z</time><course>116</course><type>1</type></trkpt>
      <trkpt lat="38.993382" lon="-6.349733"><ele>1936</ele><speed>45</speed><time>2017-07-01T13:05:58Z</time><course>256</course><type>1</type></trkpt>
      <trkpt lat="38.993633" lon="-6.350417"><ele>1944</ele><speed>47.12</speed><time>2017-07-01T13:06:03Z</time><course>316</course><type>1</type></trkpt>
      <trkpt lat="38.993885" lon="-6.350333"><ele>1948</ele><speed>20.86</speed><time>2017-07-01T13:06:08Z</time><course>80</course><type>1</type></trkpt>
      <trkpt lat="38.993450" lon="-6.350383"><ele>1954</ele><speed>35</speed><time>2017-07-01T13:06:13Z</time><course>234</course><type>1</type></trkpt>
      <trkpt lat="38.993683" lon="-6.351033"><ele>1958</ele><speed>44.59</speed><time>2017-07-01T13:06:18Z</time><course>334</course><type>1</type></trkpt>
      <trkpt lat="38.993935" lon="-6.350900"><ele>1963</ele><speed>21.83</speed><time>2017-07-01T13:06:23Z</time><course>122</course><type>1</type></trkpt>
      <trkpt lat="38.993500" lon="-6.350850"><ele>1955</ele><speed>35</speed><time>2017-07-01T13:06:28Z</time><course>202</course><type>1</type></trkpt>
      <trkpt lat="38.993134" lon="-6.351483"><ele>1961</ele><speed>49.15</speed><time>2017-07-01T13:06:33Z</time><course>254</course><type>1</type></trkpt>
      <trkpt lat="38.993366" lon="-6.351950"><ele>1961</ele><speed>34.53</speed><time>2017-07-01T13:06:38Z</time><course>2</course><type>1</type></trkpt>
      <trkpt lat="38.993351" lon="-6.351700"><ele>1963</ele><speed>15.62</speed><time>2017-07-01T13:06:43Z</time><course>154</course><type>1</type></trkpt>
      <trkpt lat="38.992817" lon="-6.351817"><ele>1960</ele><speed>43.42</speed><time>2017-07-01T13:06:48Z</time><course>210</course><type>1</type></trkpt>
      <trkpt lat="38.992485" lon="-6.352533"><ele>1962</ele><speed>51.94</speed><time>2017-07-01T13:06:53Z</time><course>252</course><type>1</type></trkpt>
      <trkpt lat="38.992416" lon="-6.353333"><ele>1965</ele><speed>50.14</speed><time>2017-07-01T13:06:58Z</time><course>274</course><type>1</type></trkpt>
      <trkpt lat="38.992249" lon="-6.354683"><ele>1967</ele><speed>42.58</speed><time>2017-07-01T13:07:08Z</time><course>196</course><type>1</type></trkpt>
      <trkpt lat="38.992085" lon="-6.354450"><ele>1968</ele><speed>19.58</speed><time>2017-07-01T13:07:13Z</time><course>38</course><type>1</type></trkpt>
      <trkpt lat="38.992332" lon="-6.354367"><ele>1975</ele><speed>20.46</speed><time>2017-07-01T13:07:18Z</time><course>354</course><type>1</type></trkpt>
      <trkpt lat="38.992352" lon="-6.354967"><ele>1975</ele><speed>37.41</speed><time>2017-07-01T13:07:23Z</time><course>234</course><type>1</type></trkpt>
      <trkpt lat="38.991817" lon="-6.355166"><ele>1971</ele><speed>44.64</speed><time>2017-07-01T13:07:28Z</time><course>168</course><type>1</type></trkpt>
      <trkpt lat="38.991650" lon="-6.354867"><ele>1978</ele><speed>22.94</speed><time>2017-07-01T13:07:33Z</time><course>70</course><type>1</type></trkpt>
      <trkpt lat="38.991901" lon="-6.355150"><ele>1976</ele><speed>26.75</speed><time>2017-07-01T13:07:38Z</time><course>288</course><type>1</type></trkpt>
      <trkpt lat="38.991699" lon="-6.355866"><ele>1973</ele><speed>47.45</speed><time>2017-07-01T13:07:43Z</time><course>218</course><type>1</type></trkpt>
      <trkpt lat="38.991085" lon="-6.356250"><ele>1967</ele><speed>54.72</speed><time>2017-07-01T13:07:48Z</time><course>204</course><type>1</type></trkpt>
      <trkpt lat="38.990433" lon="-6.356633"><ele>1966</ele><speed>57.45</speed><time>2017-07-01T13:07:53Z</time><course>204</course><type>1</type></trkpt>
      <trkpt lat="38.989750" lon="-6.357033"><ele>1961</ele><speed>60.15</speed><time>2017-07-01T13:07:58Z</time><course>202</course><type>1</type></trkpt>
      <trkpt lat="38.989101" lon="-6.357400"><ele>1959</ele><speed>56.82</speed><time>2017-07-01T13:08:03Z</time><course>204</course><type>1</type></trkpt>
      <trkpt lat="38.988434" lon="-6.357850"><ele>1957</ele><speed>60.36</speed><time>2017-07-01T13:08:08Z</time><course>202</course><type>1</type></trkpt>
      <trkpt lat="38.987751" lon="-6.358317"><ele>1956</ele><speed>61.99</speed><time>2017-07-01T13:08:13Z</time><course>206</course><type>1</type></trkpt>
      <trkpt lat="38.987034" lon="-6.358800"><ele>1956</ele><speed>64.87</speed><time>2017-07-01T13:08:18Z</time><course>206</course><type>1</type></trkpt>
      <trkpt lat="38.986515" lon="-6.359517"><ele>1965</ele><speed>61.04</speed><time>2017-07-01T13:08:23Z</time><course>256</course><type>1</type></trkpt>
      <trkpt lat="38.986698" lon="-6.360034"><ele>1966</ele><speed>35.39</speed><time>2017-07-01T13:08:28Z</time><course>26</course><type>1</type></trkpt>
      <trkpt lat="38.986416" lon="-6.359766"><ele>1971</ele><speed>28.1</speed><time>2017-07-01T13:08:33Z</time><course>178</course><type>1</type></trkpt>
      <trkpt lat="38.985802" lon="-6.360283"><ele>1972</ele><speed>58.82</speed><time>2017-07-01T13:08:38Z</time><course>238</course><type>1</type></trkpt>
      <trkpt lat="38.985901" lon="-6.360967"><ele>1974</ele><speed>43.35</speed><time>2017-07-01T13:08:43Z</time><course>326</course><type>1</type></trkpt>
      <trkpt lat="38.985985" lon="-6.360800"><ele>1975</ele><speed>12.39</speed><time>2017-07-01T13:08:48Z</time><course>56</course><type>1</type></trkpt>
      <trkpt lat="38.985100" lon="-6.360567"><ele>1975</ele><speed>36.2</speed><time>2017-07-01T13:08:58Z</time><course>188</course><type>1</type></trkpt>
      <trkpt lat="38.984432" lon="-6.360767"><ele>1983</ele><speed>54.97</speed><time>2017-07-01T13:09:03Z</time><course>190</course><type>1</type></trkpt>
      <trkpt lat="38.983982" lon="-6.361283"><ele>1979</ele><speed>48.32</speed><time>2017-07-01T13:09:08Z</time><course>254</course><type>1</type></trkpt>
      <trkpt lat="38.984165" lon="-6.361667"><ele>1977</ele><speed>28.06</speed><time>2017-07-01T13:09:13Z</time><course>20</course><type>1</type></trkpt>
      <trkpt lat="38.983932" lon="-6.361500"><ele>1981</ele><speed>21.38</speed><time>2017-07-01T13:09:18Z</time><course>168</course><type>1</type></trkpt>
      <trkpt lat="38.983284" lon="-6.361633"><ele>1979</ele><speed>52.59</speed><time>2017-07-01T13:09:23Z</time><course>200</course><type>1</type></trkpt>
      <trkpt lat="38.982552" lon="-6.361933"><ele>1968</ele><speed>61.58</speed><time>2017-07-01T13:09:28Z</time><course>198</course><type>1</type></trkpt>
      <trkpt lat="38.981834" lon="-6.362233"><ele>1959</ele><speed>60.51</speed><time>2017-07-01T13:09:33Z</time><course>198</course><type>1</type></trkpt>
      <trkpt lat="38.981152" lon="-6.362583"><ele>1941</ele><speed>58.85</speed><time>2017-07-01T13:09:38Z</time><course>200</course><type>1</type></trkpt>
      <trkpt lat="38.980434" lon="-6.362950"><ele>1930</ele><speed>61.92</speed><time>2017-07-01T13:09:43Z</time><course>196</course><type>1</type></trkpt>
      <trkpt lat="38.978882" lon="-6.363600"><ele>1906</ele><speed>65.41</speed><time>2017-07-01T13:09:53Z</time><course>194</course><type>1</type></trkpt>
      <trkpt lat="38.978085" lon="-6.363867"><ele>1896</ele><speed>66.01</speed><time>2017-07-01T13:09:58Z</time><course>196</course><type>1</type></trkpt>
      <trkpt lat="38.977348" lon="-6.364200"><ele>1881</ele><speed>62.61</speed><time>2017-07-01T13:10:03Z</time><course>196</course><type>1</type></trkpt>
      <trkpt lat="38.976566" lon="-6.364567"><ele>1869</ele><speed>66.72</speed><time>2017-07-01T13:10:08Z</time><course>200</course><type>1</type></trkpt>
      <trkpt lat="38.975815" lon="-6.364883"><ele>1858</ele><speed>63.33</speed><time>2017-07-01T13:10:13Z</time><course>196</course><type>1</type></trkpt>
      <trkpt lat="38.975151" lon="-6.365133"><ele>1855</ele><speed>55.45</speed><time>2017-07-01T13:10:18Z</time><course>192</course><type>1</type></trkpt>
      <trkpt lat="38.974449" lon="-6.365417"><ele>1842</ele><speed>58.98</speed><time>2017-07-01T13:10:23Z</time><course>198</course><type>1</type></trkpt>
      <trkpt lat="38.973782" lon="-6.365750"><ele>1828</ele><speed>57.35</speed><time>2017-07-01T13:10:28Z</time><course>200</course><type>1</type></trkpt>
      <trkpt lat="38.973083" lon="-6.366083"><ele>1811</ele><speed>59.74</speed><time>2017-07-01T13:10:33Z</time><course>198</course><type>1</type></trkpt>
      <trkpt lat="38.971600" lon="-6.366883"><ele>1764</ele><speed>64.45</speed><time>2017-07-01T13:10:43Z</time><course>204</course><type>1</type></trkpt>
      <trkpt lat="38.970867" lon="-6.367317"><ele>1736</ele><speed>64.68</speed><time>2017-07-01T13:10:48Z</time><course>202</course><type>1</type></trkpt>
      <trkpt lat="38.970032" lon="-6.367850"><ele>1700</ele><speed>74.71</speed><time>2017-07-01T13:10:53Z</time><course>210</course><type>1</type></trkpt>
      <trkpt lat="38.969200" lon="-6.368467"><ele>1670</ele><speed>76.97</speed><time>2017-07-01T13:10:58Z</time><course>210</course><type>1</type></trkpt>
      <trkpt lat="38.968369" lon="-6.369133"><ele>1640</ele><speed>78.48</speed><time>2017-07-01T13:11:03Z</time><course>208</course><type>1</type></trkpt>
      <trkpt lat="38.967602" lon="-6.369733"><ele>1632</ele><speed>71.95</speed><time>2017-07-01T13:11:08Z</time><course>214</course><type>1</type></trkpt>
      <trkpt lat="38.967033" lon="-6.370117"><ele>1618</ele><speed>51.5</speed><time>2017-07-01T13:11:13Z</time><course>204</course><type>1</type></trkpt>
      <trkpt lat="38.966331" lon="-6.370584"><ele>1610</ele><speed>63.35</speed><time>2017-07-01T13:11:18Z</time><course>208</course><type>1</type></trkpt>
      <trkpt lat="38.965500" lon="-6.371133"><ele>1593</ele><speed>74.88</speed><time>2017-07-01T13:11:23Z</time><course>204</course><type>1</type></trkpt>
      <trkpt lat="38.964699" lon="-6.371634"><ele>1590</ele><speed>71.39</speed><time>2017-07-01T13:11:28Z</time><course>204</course><type>1</type></trkpt>
      <trkpt lat="38.963299" lon="-6.372400"><ele>1583</ele><speed>60.97</speed><time>2017-07-01T13:11:38Z</time><course>198</course><type>1</type></trkpt>
      <trkpt lat="38.962650" lon="-6.372783"><ele>1579</ele><speed>57.23</speed><time>2017-07-01T13:11:43Z</time><course>206</course><type>1</type></trkpt>
      <trkpt lat="38.961983" lon="-6.373300"><ele>1574</ele><speed>62.42</speed><time>2017-07-01T13:11:48Z</time><course>214</course><type>1</type></trkpt>
      <trkpt lat="38.961369" lon="-6.373833"><ele>1571</ele><speed>59.37</speed><time>2017-07-01T13:11:53Z</time><course>210</course><type>1</type></trkpt>
      <trkpt lat="38.960850" lon="-6.374267"><ele>1566</ele><speed>49.62</speed><time>2017-07-01T13:11:58Z</time><course>206</course><type>1</type></trkpt>
      <trkpt lat="38.960217" lon="-6.374750"><ele>1560</ele><speed>58.99</speed><time>2017-07-01T13:12:03Z</time><course>208</course><type>1</type></trkpt>
      <trkpt lat="38.959549" lon="-6.375333"><ele>1547</ele><speed>64.71</speed><time>2017-07-01T13:12:08Z</time><course>216</course><type>1</type></trkpt>
      <trkpt lat="38.958866" lon="-6.375883"><ele>1543</ele><speed>64.59</speed><time>2017-07-01T13:12:13Z</time><course>208</course><type>1</type></trkpt>
      <trkpt lat="38.958149" lon="-6.376400"><ele>1535</ele><speed>65.88</speed><time>2017-07-01T13:12:18Z</time><course>208</course><type>1</type></trkpt>
      <trkpt lat="38.957500" lon="-6.376850"><ele>1522</ele><speed>59.1</speed><time>2017-07-01T13:12:23Z</time><course>208</course><type>1</type></trkpt>
      <trkpt lat="38.956184" lon="-6.377850"><ele>1511</ele><speed>61.26</speed><time>2017-07-01T13:12:33Z</time><course>206</course><type>1</type></trkpt>
      <trkpt lat="38.955517" lon="-6.378183"><ele>1503</ele><speed>57.35</speed><time>2017-07-01T13:12:38Z</time><course>208</course><type>1</type></trkpt>
      <trkpt lat="38.954918" lon="-6.378684"><ele>1489</ele><speed>57.27</speed><time>2017-07-01T13:12:43Z</time><course>210</course><type>1</type></trkpt>
      <trkpt lat="38.954350" lon="-6.379083"><ele>1477</ele><speed>51.87</speed><time>2017-07-01T13:12:48Z</time><course>208</course><type>1</type></trkpt>
      <trkpt lat="38.953751" lon="-6.379517"><ele>1459</ele><speed>55.11</speed><time>2017-07-01T13:12:53Z</time><course>208</course><type>1</type></trkpt>
      <trkpt lat="38.953232" lon="-6.379900"><ele>1444</ele><speed>47.96</speed><time>2017-07-01T13:12:58Z</time><course>218</course><type>1</type></trkpt>
      <trkpt lat="38.952801" lon="-6.380283"><ele>1443</ele><speed>41.99</speed><time>2017-07-01T13:13:03Z</time><course>224</course><type>1</type></trkpt>
      <trkpt lat="38.952316" lon="-6.380700"><ele>1437</ele><speed>46.76</speed><time>2017-07-01T13:13:08Z</time><course>210</course><type>1</type></trkpt>
      <trkpt lat="38.951817" lon="-6.381033"><ele>1428</ele><speed>45.06</speed><time>2017-07-01T13:13:13Z</time><course>206</course><type>1</type></trkpt>
      <trkpt lat="38.951248" lon="-6.381250"><ele>1419</ele><speed>47.57</speed><time>2017-07-01T13:13:18Z</time><course>184</course><type>1</type></trkpt>
      <trkpt lat="38.950249" lon="-6.381883"><ele>1409</ele><speed>44.63</speed><time>2017-07-01T13:13:28Z</time><course>224</course><type>1</type></trkpt>
      <trkpt lat="38.950016" lon="-6.382517"><ele>1417</ele><speed>43.71</speed><time>2017-07-01T13:13:33Z</time><course>232</course><type>1</type></trkpt>
      <trkpt lat="38.950115" lon="-6.382967"><ele>1417</ele><speed>29.15</speed><time>2017-07-01T13:13:38Z</time><course>332</course><type>1</type></trkpt>
      <trkpt lat="38.950466" lon="-6.382967"><ele>1431</ele><speed>28.13</speed><time>2017-07-01T13:13:43Z</time><course>32</course><type>1</type></trkpt>
      <trkpt lat="38.950268" lon="-6.382550"><ele>1427</ele><speed>30.45</speed><time>2017-07-01T13:13:48Z</time><course>172</course><type>1</type></trkpt>
      <trkpt lat="38.950001" lon="-6.383067"><ele>1427</ele><speed>38.68</speed><time>2017-07-01T13:13:53Z</time><course>272</course><type>1</type></trkpt>
      <trkpt lat="38.950085" lon="-6.383700"><ele>1431</ele><speed>40.03</speed><time>2017-07-01T13:13:58Z</time><course>284</course><type>1</type></trkpt>
      <trkpt lat="38.950283" lon="-6.384050"><ele>1433</ele><speed>26.98</speed><time>2017-07-01T13:14:03Z</time><course>356</course><type>1</type></trkpt>
      <trkpt lat="38.950016" lon="-6.383683"><ele>1410</ele><speed>31.33</speed><time>2017-07-01T13:14:08Z</time><course>168</course><type>1</type></trkpt>
      <trkpt lat="38.949467" lon="-6.384567"><ele>1403</ele><speed>35.26</speed><time>2017-07-01T13:14:18Z</time><course>272</course><type>1</type></trkpt>
      <trkpt lat="38.949718" lon="-6.385050"><ele>1412</ele><speed>36.21</speed><time>2017-07-01T13:14:23Z</time><course>328</course><type>1</type></trkpt>
      <trkpt lat="38.949982" lon="-6.385250"><ele>1418</ele><speed>24.56</speed><time>2017-07-01T13:14:28Z</time><course>328</course><type>1</type></trkpt>
      <trkpt lat="38.949966" lon="-6.384850"><ele>1413</ele><speed>24.97</speed><time>2017-07-01T13:14:33Z</time><course>158</course><type>1</type></trkpt>
      <trkpt lat="38.949417" lon="-6.385350"><ele>1399</ele><speed>53.92</speed><time>2017-07-01T13:14:38Z</time><course>236</course><type>1</type></trkpt>
      <trkpt lat="38.949051" lon="-6.385883"><ele>1405</ele><speed>44.32</speed><time>2017-07-01T13:14:43Z</time><course>204</course><type>1</type></trkpt>
      <trkpt lat="38.948666" lon="-6.385583"><ele>1401</ele><speed>36.08</speed><time>2017-07-01T13:14:48Z</time><course>90</course><type>1</type></trkpt>
      <trkpt lat="38.948917" lon="-6.385684"><ele>1397</ele><speed>21.08</speed><time>2017-07-01T13:14:53Z</time><course>288</course><type>1</type></trkpt>
      <trkpt lat="38.948666" lon="-6.386384"><ele>1398</ele><speed>48.05</speed><time>2017-07-01T13:14:58Z</time><course>230</course><type>1</type></trkpt>
      <trkpt lat="38.948166" lon="-6.386600"><ele>1398</ele><speed>42.28</speed><time>2017-07-01T13:15:03Z</time><course>154</course><type>1</type></trkpt>
      <trkpt lat="38.948318" lon="-6.387116"><ele>1394</ele><speed>17.2</speed><time>2017-07-01T13:15:13Z</time><course>268</course><type>1</type></trkpt>
      <trkpt lat="38.947983" lon="-6.387833"><ele>1390</ele><speed>52.14</speed><time>2017-07-01T13:15:18Z</time><course>222</course><type>1</type></trkpt>
      <trkpt lat="38.947350" lon="-6.388317"><ele>1395</ele><speed>59.03</speed><time>2017-07-01T13:15:23Z</time><course>212</course><type>1</type></trkpt>
      <trkpt lat="38.946751" lon="-6.388717"><ele>1387</ele><speed>54.1</speed><time>2017-07-01T13:15:28Z</time><course>202</course><type>1</type></trkpt>
      <trkpt lat="38.946182" lon="-6.388967"><ele>1393</ele><speed>48.19</speed><time>2017-07-01T13:15:33Z</time><course>200</course><type>1</type></trkpt>
      <trkpt lat="38.945633" lon="-6.389450"><ele>1400</ele><speed>53.32</speed><time>2017-07-01T13:15:38Z</time><course>212</course><type>1</type></trkpt>
      <trkpt lat="38.945232" lon="-6.390167"><ele>1407</ele><speed>55.05</speed><time>2017-07-01T13:15:43Z</time><course>262</course><type>1</type></trkpt>
      <trkpt lat="38.945450" lon="-6.390967"><ele>1423</ele><speed>52.84</speed><time>2017-07-01T13:15:48Z</time><course>302</course><type>1</type></trkpt>
      <trkpt lat="38.945633" lon="-6.390917"><ele>1421</ele><speed>14.99</speed><time>2017-07-01T13:15:53Z</time><course>132</course><type>1</type></trkpt>
      <trkpt lat="38.945118" lon="-6.391333"><ele>1431</ele><speed>48.75</speed><time>2017-07-01T13:15:58Z</time><course>244</course><type>1</type></trkpt>
      <trkpt lat="38.945267" lon="-6.392100"><ele>1448</ele><speed>24.64</speed><time>2017-07-01T13:16:08Z</time><course>184</course><type>1</type></trkpt>
      <trkpt lat="38.945084" lon="-6.392933"><ele>1459</ele><speed>53.96</speed><time>2017-07-01T13:16:13Z</time><course>296</course><type>1</type></trkpt>
      <trkpt lat="38.945415" lon="-6.393050"><ele>1467</ele><speed>27.51</speed><time>2017-07-01T13:16:18Z</time><course>40</course><type>1</type></trkpt>
      <trkpt lat="38.945099" lon="-6.392900"><ele>1475</ele><speed>27</speed><time>2017-07-01T13:16:23Z</time><course>210</course><type>1</type></trkpt>
      <trkpt lat="38.945049" lon="-6.393617"><ele>1486</ele><speed>44.87</speed><time>2017-07-01T13:16:28Z</time><course>308</course><type>1</type></trkpt>
      <trkpt lat="38.945217" lon="-6.393400"><ele>1485</ele><speed>19.09</speed><time>2017-07-01T13:16:33Z</time><course>134</course><type>1</type></trkpt>
      <trkpt lat="38.944782" lon="-6.393583"><ele>1505</ele><speed>36.68</speed><time>2017-07-01T13:16:38Z</time><course>230</course><type>1</type></trkpt>
      <trkpt lat="38.944881" lon="-6.394200"><ele>1505</ele><speed>39.27</speed><time>2017-07-01T13:16:43Z</time><course>336</course><type>1</type></trkpt>
      <trkpt lat="38.944984" lon="-6.394000"><ele>1509</ele><speed>14.95</speed><time>2017-07-01T13:16:48Z</time><course>118</course><type>1</type></trkpt>
      <trkpt lat="38.944618" lon="-6.393883"><ele>1526</ele><speed>30.23</speed><time>2017-07-01T13:16:53Z</time><course>184</course><type>1</type></trkpt>
      <trkpt lat="38.944599" lon="-6.394417"><ele>1544</ele><speed>16.66</speed><time>2017-07-01T13:17:03Z</time><course>70</course><type>1</type></trkpt>
      <trkpt lat="38.944317" lon="-6.394267"><ele>1559</ele><speed>24.46</speed><time>2017-07-01T13:17:08Z</time><course>194</course><type>1</type></trkpt>
      <trkpt lat="38.944302" lon="-6.394917"><ele>1567</ele><speed>40.54</speed><time>2017-07-01T13:17:13Z</time><course>324</course><type>1</type></trkpt>
      <trkpt lat="38.944550" lon="-6.394717"><ele>1585</ele><speed>23.46</speed><time>2017-07-01T13:17:18Z</time><course>88</course><type>1</type></trkpt>
      <trkpt lat="38.944084" lon="-6.394750"><ele>1592</ele><speed>37.41</speed><time>2017-07-01T13:17:23Z</time><course>224</course><type>1</type></trkpt>
      <trkpt lat="38.944267" lon="-6.395383"><ele>1602</ele><speed>42.1</speed><time>2017-07-01T13:17:28Z</time><course>338</course><type>1</type></trkpt>
      <trkpt lat="38.944534" lon="-6.395200"><ele>1610</ele><speed>24.25</speed><time>2017-07-01T13:17:33Z</time><course>88</course><type>1</type></trkpt>
      <trkpt lat="38.943985" lon="-6.395200"><ele>1607</ele><speed>44</speed><time>2017-07-01T13:17:38Z</time><course>232</course><type>1</type></trkpt>
      <trkpt lat="38.944118" lon="-6.395884"><ele>1617</ele><speed>43.95</speed><time>2017-07-01T13:17:43Z</time><course>314</course><type>1</type></trkpt>
      <trkpt lat="38.944416" lon="-6.396117"><ele>1629</ele><speed>27.95</speed><time>2017-07-01T13:17:48Z</time><course>32</course><type>1</type></trkpt>
      <trkpt lat="38.943649" lon="-6.396117"><ele>1624</ele><speed>30.74</speed><time>2017-07-01T13:17:58Z</time><course>230</course><type>1</type></trkpt>
      <trkpt lat="38.943565" lon="-6.396833"><ele>1633</ele><speed>45.14</speed><time>2017-07-01T13:18:03Z</time><course>290</course><type>1</type></trkpt>
      <trkpt lat="38.943851" lon="-6.396950"><ele>1642</ele><speed>24.06</speed><time>2017-07-01T13:18:08Z</time><course>56</course><type>1</type></trkpt>
      <trkpt lat="38.943401" lon="-6.396683"><ele>1643</ele><speed>39.72</speed><time>2017-07-01T13:18:13Z</time><course>208</course><type>1</type></trkpt>
      <trkpt lat="38.943268" lon="-6.397433"><ele>1650</ele><speed>47.95</speed><time>2017-07-01T13:18:18Z</time><course>294</course><type>1</type></trkpt>
      <trkpt lat="38.943451" lon="-6.397350"><ele>1659</ele><speed>15.55</speed><time>2017-07-01T13:18:23Z</time><course>114</course><type>1</type></trkpt>
      <trkpt lat="38.942902" lon="-6.397500"><ele>1669</ele><speed>44.98</speed><time>2017-07-01T13:18:28Z</time><course>246</course><type>1</type></trkpt>
      <trkpt lat="38.943035" lon="-6.398083"><ele>1672</ele><speed>37.87</speed><time>2017-07-01T13:18:33Z</time><course>314</course><type>1</type></trkpt>
      <trkpt lat="38.943165" lon="-6.398083"><ele>1666</ele><speed>10.42</speed><time>2017-07-01T13:18:38Z</time><course>82</course><type>1</type></trkpt>
      <trkpt lat="38.942867" lon="-6.397567"><ele>1654</ele><speed>40.06</speed><time>2017-07-01T13:18:43Z</time><course>156</course><type>1</type></trkpt>
      <trkpt lat="38.941833" lon="-6.398517"><ele>1642</ele><speed>50.93</speed><time>2017-07-01T13:18:53Z</time><course>236</course><type>1</type></trkpt>
      <trkpt lat="38.941467" lon="-6.399400"><ele>1653</ele><speed>62.37</speed><time>2017-07-01T13:18:58Z</time><course>244</course><type>1</type></trkpt>
      <trkpt lat="38.941601" lon="-6.400033"><ele>1657</ele><speed>40.9</speed><time>2017-07-01T13:19:03Z</time><course>330</course><type>1</type></trkpt>
      <trkpt lat="38.941532" lon="-6.399717"><ele>1654</ele><speed>20.46</speed><time>2017-07-01T13:19:08Z</time><course>164</course><type>1</type></trkpt>
      <trkpt lat="38.940948" lon="-6.400333"><ele>1656</ele><speed>60.54</speed><time>2017-07-01T13:19:13Z</time><course>236</course><type>1</type></trkpt>
      <trkpt lat="38.940815" lon="-6.401134"><ele>1656</ele><speed>51.06</speed><time>2017-07-01T13:19:18Z</time><course>290</course><type>1</type></trkpt>
      <trkpt lat="38.940983" lon="-6.401117"><ele>1650</ele><speed>13.51</speed><time>2017-07-01T13:19:23Z</time><course>140</course><type>1</type></trkpt>
      <trkpt lat="38.940434" lon="-6.401433"><ele>1646</ele><speed>48.21</speed><time>2017-07-01T13:19:28Z</time><course>226</course><type>1</type></trkpt>
      <trkpt lat="38.940018" lon="-6.402283"><ele>1649</ele><speed>62.61</speed><time>2017-07-01T13:19:33Z</time><course>258</course><type>1</type></trkpt>
      <trkpt lat="38.940434" lon="-6.402650"><ele>1637</ele><speed>20.22</speed><time>2017-07-01T13:19:43Z</time><course>64</course><type>1</type></trkpt>
      <trkpt lat="38.940033" lon="-6.402200"><ele>1617</ele><speed>42.66</speed><time>2017-07-01T13:19:48Z</time><course>152</course><type>1</type></trkpt>
      <trkpt lat="38.939449" lon="-6.402017"><ele>1605</ele><speed>48.18</speed><time>2017-07-01T13:19:53Z</time><course>182</course><type>1</type></trkpt>
      <trkpt lat="38.938835" lon="-6.402200"><ele>1602</ele><speed>50.52</speed><time>2017-07-01T13:19:58Z</time><course>200</course><type>1</type></trkpt>
      <trkpt lat="38.938301" lon="-6.403067"><ele>1601</ele><speed>68.94</speed><time>2017-07-01T13:20:03Z</time><course>242</course><type>1</type></trkpt>
      <trkpt lat="38.938251" lon="-6.403767"><ele>1589</ele><speed>43.82</speed><time>2017-07-01T13:20:08Z</time><course>296</course><type>1</type></trkpt>
      <trkpt lat="38.937950" lon="-6.403584"><ele>1575</ele><speed>26.69</speed><time>2017-07-01T13:20:13Z</time><course>170</course><type>1</type></trkpt>
      <trkpt lat="38.937416" lon="-6.403417"><ele>1570</ele><speed>44.05</speed><time>2017-07-01T13:20:18Z</time><course>138</course><type>1</type></trkpt>
      <trkpt lat="38.937332" lon="-6.403083"><ele>1570</ele><speed>21.88</speed><time>2017-07-01T13:20:23Z</time><course>106</course><type>1</type></trkpt>
      <trkpt lat="38.937382" lon="-6.402850"><ele>1573</ele><speed>15.07</speed><time>2017-07-01T13:20:28Z</time><course>52</course><type>1</type></trkpt>
      <trkpt lat="38.937752" lon="-6.402450"><ele>1583</ele><speed>19.37</speed><time>2017-07-01T13:20:38Z</time><course>58</course><type>1</type></trkpt>
      <trkpt lat="38.937317" lon="-6.402317"><ele>1583</ele><speed>35.84</speed><time>2017-07-01T13:20:43Z</time><course>210</course><type>1</type></trkpt>
      <trkpt lat="38.937149" lon="-6.403117"><ele>1589</ele><speed>51.66</speed><time>2017-07-01T13:20:48Z</time><course>272</course><type>1</type></trkpt>
      <trkpt lat="38.937401" lon="-6.403450"><ele>1591</ele><speed>28.96</speed><time>2017-07-01T13:20:53Z</time><course>10</course><type>1</type></trkpt>
      <trkpt lat="38.937416" lon="-6.403167"><ele>1597</ele><speed>17.68</speed><time>2017-07-01T13:20:58Z</time><course>126</course><type>1</type></trkpt>
      <trkpt lat="38.936867" lon="-6.403316"><ele>1598</ele><speed>44.97</speed><time>2017-07-01T13:21:03Z</time><course>230</course><type>1</type></trkpt>
      <trkpt lat="38.936901" lon="-6.403934"><ele>1603</ele><speed>38.62</speed><time>2017-07-01T13:21:08Z</time><course>318</course><type>1</type></trkpt>
      <trkpt lat="38.937267" lon="-6.404167"><ele>1612</ele><speed>32.73</speed><time>2017-07-01T13:21:13Z</time><course>336</course><type>1</type></trkpt>
      <trkpt lat="38.937233" lon="-6.403950"><ele>1613</ele><speed>13.8</speed><time>2017-07-01T13:21:18Z</time><course>150</course><type>1</type></trkpt>
      <trkpt lat="38.936684" lon="-6.405050"><ele>1626</ele><speed>40.74</speed><time>2017-07-01T13:21:28Z</time><course>288</course><type>1</type></trkpt>
      <trkpt lat="38.936916" lon="-6.405450"><ele>1620</ele><speed>31.11</speed><time>2017-07-01T13:21:33Z</time><course>10</course><type>1</type></trkpt>
      <trkpt lat="38.936932" lon="-6.405150"><ele>1621</ele><speed>18.75</speed><time>2017-07-01T13:21:38Z</time><course>142</course><type>1</type></trkpt>
      <trkpt lat="38.936333" lon="-6.405183"><ele>1613</ele><speed>48.05</speed><time>2017-07-01T13:21:43Z</time><course>206</course><type>1</type></trkpt>
      <trkpt lat="38.936165" lon="-6.405900"><ele>1619</ele><speed>46.68</speed><time>2017-07-01T13:21:48Z</time><course>306</course><type>1</type></trkpt>
      <trkpt lat="38.936417" lon="-6.405967"><ele>1620</ele><speed>20.63</speed><time>2017-07-01T13:21:53Z</time><course>62</course><type>1</type></trkpt>
      <trkpt lat="38.936001" lon="-6.405667"><ele>1617</ele><speed>38.23</speed><time>2017-07-01T13:21:58Z</time><course>170</course><type>1</type></trkpt>
      <trkpt lat="38.935417" lon="-6.405717"><ele>1627</ele><speed>46.91</speed><time>2017-07-01T13:22:03Z</time><course>198</course><type>1</type></trkpt>
      <trkpt lat="38.935215" lon="-6.406500"><ele>1624</ele><speed>51.43</speed><time>2017-07-01T13:22:08Z</time><course>304</course><type>1</type></trkpt>
      <trkpt lat="38.935452" lon="-6.406466"><ele>1634</ele><speed>19.11</speed><time>2017-07-01T13:22:13Z</time><course>82</course><type>1</type></trkpt>
      <trkpt lat="38.934734" lon="-6.406933"><ele>1635</ele><speed>32.25</speed><time>2017-07-01T13:22:23Z</time><course>268</course><type>1</type></trkpt>
      <trkpt lat="38.934982" lon="-6.407383"><ele>1637</ele><speed>34.38</speed><time>2017-07-01T13:22:28Z</time><course>358</course><type>1</type></trkpt>
      <trkpt lat="38.935066" lon="-6.407084"><ele>1643</ele><speed>19.82</speed><time>2017-07-01T13:22:33Z</time><course>100</course><type>1</type></trkpt>
      <trkpt lat="38.934715" lon="-6.406883"><ele>1645</ele><speed>30.8</speed><time>2017-07-01T13:22:38Z</time><course>178</course><type>1</type></trkpt>
      <trkpt lat="38.934319" lon="-6.407434"><ele>1646</ele><speed>46.77</speed><time>2017-07-01T13:22:43Z</time><course>274</course><type>1</type></trkpt>
      <trkpt lat="38.934582" lon="-6.407866"><ele>1655</ele><speed>34.2</speed><time>2017-07-01T13:22:48Z</time><course>352</course><type>1</type></trkpt>
      <trkpt lat="38.934635" lon="-6.407567"><ele>1651</ele><speed>19.12</speed><time>2017-07-01T13:22:53Z</time><course>106</course><type>1</type></trkpt>
      <trkpt lat="38.934349" lon="-6.407183"><ele>1654</ele><speed>33.15</speed><time>2017-07-01T13:22:58Z</time><course>146</course><type>1</type></trkpt>
      <trkpt lat="38.933750" lon="-6.407250"><ele>1659</ele><speed>48.19</speed><time>2017-07-01T13:23:03Z</time><course>214</course><type>1</type></trkpt>
      <trkpt lat="38.933716" lon="-6.407983"><ele>1658</ele><speed>45.78</speed><time>2017-07-01T13:23:08Z</time><course>312</course><type>1</type></trkpt>
      <trkpt lat="38.933750" lon="-6.407600"><ele>1664</ele><speed>12.02</speed><time>2017-07-01T13:23:18Z</time><course>172</course><type>1</type></trkpt>
      <trkpt lat="38.933167" lon="-6.408033"><ele>1675</ele><speed>53.97</speed><time>2017-07-01T13:23:23Z</time><course>224</course><type>1</type></trkpt>
      <trkpt lat="38.932785" lon="-6.408800"><ele>1677</ele><speed>56.78</speed><time>2017-07-01T13:23:28Z</time><course>242</course><type>1</type></trkpt>
      <trkpt lat="38.932434" lon="-6.409517"><ele>1677</ele><speed>52.82</speed><time>2017-07-01T13:23:33Z</time><course>236</course><type>1</type></trkpt>
      <trkpt lat="38.932152" lon="-6.410367"><ele>1680</ele><speed>57.61</speed><time>2017-07-01T13:23:38Z</time><course>254</course><type>1</type></trkpt>
      <trkpt lat="38.932167" lon="-6.411117"><ele>1684</ele><speed>46.78</speed><time>2017-07-01T13:23:43Z</time><course>298</course><type>1</type></trkpt>
      <trkpt lat="38.932335" lon="-6.411016"><ele>1682</ele><speed>14.86</speed><time>2017-07-01T13:23:48Z</time><course>76</course><type>1</type></trkpt>
      <trkpt lat="38.932384" lon="-6.410683"><ele>1678</ele><speed>21.13</speed><time>2017-07-01T13:23:53Z</time><course>88</course><type>1</type></trkpt>
      <trkpt lat="38.932384" lon="-6.410300"><ele>1683</ele><speed>23.88</speed><time>2017-07-01T13:23:58Z</time><course>96</course><type>1</type></trkpt>
      <trkpt lat="38.932034" lon="-6.410800"><ele>1686</ele><speed>20.97</speed><time>2017-07-01T13:24:08Z</time><course>180</course><type>1</type></trkpt>
      <trkpt lat="38.931900" lon="-6.410433"><ele>1688</ele><speed>25.28</speed><time>2017-07-01T13:24:13Z</time><course>72</course><type>1</type></trkpt>
      <trkpt lat="38.931934" lon="-6.410067"><ele>1686</ele><speed>22.98</speed><time>2017-07-01T13:24:18Z</time><course>68</course><type>1</type></trkpt>
      <trkpt lat="38.931999" lon="-6.409650"><ele>1693</ele><speed>26.52</speed><time>2017-07-01T13:24:23Z</time><course>90</course><type>1</type></trkpt>
      <trkpt lat="38.931683" lon="-6.409350"><ele>1690</ele><speed>31.49</speed><time>2017-07-01T13:24:28Z</time><course>180</course><type>1</type></trkpt>
      <trkpt lat="38.931252" lon="-6.410033"><ele>1690</ele><speed>54.83</speed><time>2017-07-01T13:24:33Z</time><course>256</course><type>1</type></trkpt>
      <trkpt lat="38.931217" lon="-6.410700"><ele>1694</ele><speed>41.68</speed><time>2017-07-01T13:24:38Z</time><course>278</course><type>1</type></trkpt>
      <trkpt lat="38.931400" lon="-6.410850"><ele>1693</ele><speed>17.4</speed><time>2017-07-01T13:24:43Z</time><course>46</course><type>1</type></trkpt>
      <trkpt lat="38.931099" lon="-6.410483"><ele>1692</ele><speed>33.25</speed><time>2017-07-01T13:24:48Z</time><course>164</course><type>1</type></trkpt>
      <trkpt lat="38.930485" lon="-6.410650"><ele>1689</ele><speed>50.3</speed><time>2017-07-01T13:24:53Z</time><course>196</course><type>1</type></trkpt>
      <trkpt lat="38.929832" lon="-6.411033"><ele>1687</ele><speed>57.53</speed><time>2017-07-01T13:24:58Z</time><course>202</course><type>1</type></trkpt>
      <trkpt lat="38.928566" lon="-6.411567"><ele>1684</ele><speed>53.4</speed><time>2017-07-01T13:25:08Z</time><course>200</course><type>1</type></trkpt>
      <trkpt lat="38.927967" lon="-6.411867"><ele>1681</ele><speed>51.53</speed><time>2017-07-01T13:25:13Z</time><course>200</course><type>1</type></trkpt>
      <trkpt lat="38.927368" lon="-6.412200"><ele>1678</ele><speed>52.31</speed><time>2017-07-01T13:25:18Z</time><course>200</course><type>1</type></trkpt>
      <trkpt lat="38.926750" lon="-6.412483"><ele>1674</ele><speed>52.58</speed><time>2017-07-01T13:25:23Z</time><course>200</course><type>1</type></trkpt>
      <trkpt lat="38.926132" lon="-6.412867"><ele>1681</ele><speed>55.02</speed><time>2017-07-01T13:25:28Z</time><course>218</course><type>1</type></trkpt>
      <trkpt lat="38.926132" lon="-6.413650"><ele>1684</ele><speed>48.82</speed><time>2017-07-01T13:25:33Z</time><course>314</course><type>1</type></trkpt>
      <trkpt lat="38.926201" lon="-6.413367"><ele>1687</ele><speed>18.49</speed><time>2017-07-01T13:25:38Z</time><course>144</course><type>1</type></trkpt>
      <trkpt lat="38.925682" lon="-6.413333"><ele>1687</ele><speed>41.65</speed><time>2017-07-01T13:25:43Z</time><course>190</course><type>1</type></trkpt>
      <trkpt lat="38.925133" lon="-6.413983"><ele>1693</ele><speed>59.82</speed><time>2017-07-01T13:25:48Z</time><course>244</course><type>1</type></trkpt>
      <trkpt lat="38.925117" lon="-6.414700"><ele>1692</ele><speed>44.73</speed><time>2017-07-01T13:25:53Z</time><course>302</course><type>1</type></trkpt>
      <trkpt lat="38.924950" lon="-6.414650"><ele>1699</ele><speed>6.87</speed><time>2017-07-01T13:26:03Z</time><course>200</course><type>1</type></trkpt>
      <trkpt lat="38.924583" lon="-6.415267"><ele>1708</ele><speed>48.43</speed><time>2017-07-01T13:26:08Z</time><course>260</course><type>1</type></trkpt>
      <trkpt lat="38.924866" lon="-6.415717"><ele>1705</ele><speed>36.08</speed><time>2017-07-01T13:26:13Z</time><course>12</course><type>1</type></trkpt>
      <trkpt lat="38.924717" lon="-6.415400"><ele>1709</ele><speed>23.09</speed><time>2017-07-01T13:26:18Z</time><course>154</course><type>1</type></trkpt>
      <trkpt lat="38.924084" lon="-6.415583"><ele>1714</ele><speed>52</speed><time>2017-07-01T13:26:23Z</time><course>220</course><type>1</type></trkpt>
      <trkpt lat="38.924034" lon="-6.416383"><ele>1714</ele><speed>50.04</speed><time>2017-07-01T13:26:28Z</time><course>312</course><type>1</type></trkpt>
      <trkpt lat="38.924282" lon="-6.416533"><ele>1725</ele><speed>21.97</speed><time>2017-07-01T13:26:33Z</time><course>352</course><type>1</type></trkpt>
      <trkpt lat="38.924049" lon="-6.416200"><ele>1723</ele><speed>27.93</speed><time>2017-07-01T13:26:38Z</time><course>168</course><type>1</type></trkpt>
      <trkpt lat="38.923485" lon="-6.416633"><ele>1729</ele><speed>52.65</speed><time>2017-07-01T13:26:43Z</time><course>240</course><type>1</type></trkpt>
      <trkpt lat="38.923550" lon="-6.417300"><ele>1733</ele><speed>41.92</speed><time>2017-07-01T13:26:48Z</time><course>318</course><type>1</type></trkpt>
      <trkpt lat="38.923634" lon="-6.417083"><ele>1734</ele><speed>15.11</speed><time>2017-07-01T13:26:53Z</time><course>132</course><type>1</type></trkpt>
      <trkpt lat="38.922417" lon="-6.417316"><ele>1731</ele><speed>49.31</speed><time>2017-07-01T13:27:03Z</time><course>216</course><type>1</type></trkpt>
      <trkpt lat="38.922501" lon="-6.418633"><ele>1715</ele><speed>41.2</speed><time>2017-07-01T13:27:13Z</time><course>302</course><type>1</type></trkpt>
      <trkpt lat="38.922749" lon="-6.419250"><ele>1720</ele><speed>43.31</speed><time>2017-07-01T13:27:18Z</time><course>288</course><type>1</type></trkpt>
      <trkpt lat="38.923035" lon="-6.419850"><ele>1722</ele><speed>43.88</speed><time>2017-07-01T13:27:23Z</time><course>302</course><type>1</type></trkpt>
      <trkpt lat="38.923332" lon="-6.420217"><ele>1724</ele><speed>33.02</speed><time>2017-07-01T13:27:28Z</time><course>348</course><type>1</type></trkpt>
      <trkpt lat="38.923500" lon="-6.420017"><ele>1725</ele><speed>18.35</speed><time>2017-07-01T13:27:33Z</time><course>54</course><type>1</type></trkpt>
      <trkpt lat="38.923100" lon="-6.419833"><ele>1722</ele><speed>34.05</speed><time>2017-07-01T13:27:38Z</time><course>196</course><type>1</type></trkpt>
      <trkpt lat="38.922852" lon="-6.420583"><ele>1723</ele><speed>50.82</speed><time>2017-07-01T13:27:43Z</time><course>288</course><type>1</type></trkpt>
      <trkpt lat="38.923149" lon="-6.420800"><ele>1721</ele><speed>27.38</speed><time>2017-07-01T13:27:48Z</time><course>6</course><type>1</type></trkpt>
      <trkpt lat="38.922932" lon="-6.420050"><ele>1717</ele><speed>24.95</speed><time>2017-07-01T13:27:58Z</time><course>138</course><type>1</type></trkpt>
      <trkpt lat="38.922451" lon="-6.419750"><ele>1714</ele><speed>42.85</speed><time>2017-07-01T13:28:03Z</time><course>162</course><type>1</type></trkpt>
      <trkpt lat="38.921734" lon="-6.419933"><ele>1708</ele><speed>58.59</speed><time>2017-07-01T13:28:08Z</time><course>202</course><type>1</type></trkpt>
      <trkpt lat="38.921268" lon="-6.420567"><ele>1712</ele><speed>54.39</speed><time>2017-07-01T13:28:13Z</time><course>250</course><type>1</type></trkpt>
      <trkpt lat="38.921249" lon="-6.421450"><ele>1714</ele><speed>55.08</speed><time>2017-07-01T13:28:18Z</time><course>270</course><type>1</type></trkpt>
      <trkpt lat="38.921383" lon="-6.422000"><ele>1719</ele><speed>35.94</speed><time>2017-07-01T13:28:23Z</time><course>316</course><type>1</type></trkpt>
      <trkpt lat="38.921150" lon="-6.421667"><ele>1714</ele><speed>27.93</speed><time>2017-07-01T13:28:28Z</time><course>172</course><type>1</type></trkpt>
      <trkpt lat="38.920551" lon="-6.422250"><ele>1716</ele><speed>60.22</speed><time>2017-07-01T13:28:33Z</time><course>238</course><type>1</type></trkpt>
      <trkpt lat="38.920250" lon="-6.423150"><ele>1722</ele><speed>61.09</speed><time>2017-07-01T13:28:38Z</time><course>248</course><type>1</type></trkpt>
      <trkpt lat="38.920200" lon="-6.423950"><ele>1722</ele><speed>50.05</speed><time>2017-07-01T13:28:43Z</time><course>298</course><type>1</type></trkpt>
      <trkpt lat="38.920216" lon="-6.423850"><ele>1720</ele><speed>6.37</speed><time>2017-07-01T13:28:48Z</time><course>158</course><type>1</type></trkpt>
      <trkpt lat="38.919102" lon="-6.424550"><ele>1731</ele><speed>49.69</speed><time>2017-07-01T13:28:58Z</time><course>242</course><type>1</type></trkpt>
      <trkpt lat="38.919117" lon="-6.425283"><ele>1729</ele><speed>45.73</speed><time>2017-07-01T13:29:03Z</time><course>304</course><type>1</type></trkpt>
      <trkpt lat="38.919300" lon="-6.425300"><ele>1727</ele><speed>14.71</speed><time>2017-07-01T13:29:08Z</time><course>104</course><type>1</type></trkpt>
      <trkpt lat="38.918850" lon="-6.425017"><ele>1726</ele><speed>40.15</speed><time>2017-07-01T13:29:13Z</time><course>172</course><type>1</type></trkpt>
      <trkpt lat="38.918350" lon="-6.425133"><ele>1727</ele><speed>40.72</speed><time>2017-07-01T13:29:18Z</time><course>208</course><type>1</type></trkpt>
      <trkpt lat="38.918201" lon="-6.425967"><ele>1722</ele><speed>53.36</speed><time>2017-07-01T13:29:23Z</time><course>306</course><type>1</type></trkpt>
      <trkpt lat="38.918385" lon="-6.426033"><ele>1722</ele><speed>15.31</speed><time>2017-07-01T13:29:28Z</time><course>64</course><type>1</type></trkpt>
      <trkpt lat="38.918118" lon="-6.425766"><ele>1715</ele><speed>27.11</speed><time>2017-07-01T13:29:33Z</time><course>156</course><type>1</type></trkpt>
      <trkpt lat="38.917683" lon="-6.425550"><ele>1714</ele><speed>37.38</speed><time>2017-07-01T13:29:38Z</time><course>162</course><type>1</type></trkpt>
      <trkpt lat="38.917168" lon="-6.425416"><ele>1711</ele><speed>42.11</speed><time>2017-07-01T13:29:43Z</time><course>182</course><type>1</type></trkpt>
      <trkpt lat="38.915783" lon="-6.425450"><ele>1716</ele><speed>55.51</speed><time>2017-07-01T13:29:53Z</time><course>154</course><type>1</type></trkpt>
      <trkpt lat="38.915901" lon="-6.425550"><ele>1708</ele><speed>11.33</speed><time>2017-07-01T13:29:58Z</time><course>280</course><type>1</type></trkpt>
      <trkpt lat="38.915417" lon="-6.426267"><ele>1712</ele><speed>59.2</speed><time>2017-07-01T13:30:03Z</time><course>212</course><type>1</type></trkpt>
      <trkpt lat="38.914867" lon="-6.426283"><ele>1705</ele><speed>44.09</speed><time>2017-07-01T13:30:08Z</time><course>124</course><type>1</type></trkpt>
      <trkpt lat="38.914932" lon="-6.426217"><ele>1708</ele><speed>6.64</speed><time>2017-07-01T13:30:13Z</time><course>316</course><type>1</type></trkpt>
      <trkpt lat="38.914967" lon="-6.426917"><ele>1702</ele><speed>43.74</speed><time>2017-07-01T13:30:18Z</time><course>252</course><type>1</type></trkpt>
      <trkpt lat="38.914398" lon="-6.427467"><ele>1703</ele><speed>57.06</speed><time>2017-07-01T13:30:23Z</time><course>194</course><type>1</type></trkpt>
      <trkpt lat="38.913666" lon="-6.427500"><ele>1704</ele><speed>58.71</speed><time>2017-07-01T13:30:28Z</time><course>180</course><type>1</type></trkpt>
      <trkpt lat="38.912918" lon="-6.427667"><ele>1699</ele><speed>60.85</speed><time>2017-07-01T13:30:33Z</time><course>214</course><type>1</type></trkpt>
      <trkpt lat="38.912735" lon="-6.428417"><ele>1694</ele><speed>49.02</speed><time>2017-07-01T13:30:38Z</time><course>286</course><type>1</type></trkpt>
      <trkpt lat="38.912231" lon="-6.428233"><ele>1681</ele><speed>21</speed><time>2017-07-01T13:30:48Z</time><course>182</course><type>1</type></trkpt>
      <trkpt lat="38.911633" lon="-6.428233"><ele>1681</ele><speed>47.93</speed><time>2017-07-01T13:30:53Z</time><course>172</course><type>1</type></trkpt>
      <trkpt lat="38.910984" lon="-6.428167"><ele>1678</ele><speed>52.18</speed><time>2017-07-01T13:30:58Z</time><course>168</course><type>1</type></trkpt>
      <trkpt lat="38.910385" lon="-6.428083"><ele>1678</ele><speed>48.29</speed><time>2017-07-01T13:31:03Z</time><course>176</course><type>1</type></trkpt>
      <trkpt lat="38.909782" lon="-6.427983"><ele>1675</ele><speed>48.73</speed><time>2017-07-01T13:31:08Z</time><course>170</course><type>1</type></trkpt>
      <trkpt lat="38.909149" lon="-6.427917"><ele>1676</ele><speed>50.9</speed><time>2017-07-01T13:31:13Z</time><course>180</course><type>1</type></trkpt>
      <trkpt lat="38.908432" lon="-6.428033"><ele>1668</ele><speed>57.92</speed><time>2017-07-01T13:31:18Z</time><course>196</course><type>1</type></trkpt>
      <trkpt lat="38.907749" lon="-6.428367"><ele>1665</ele><speed>58.57</speed><time>2017-07-01T13:31:23Z</time><course>192</course><type>1</type></trkpt>
      <trkpt lat="38.907066" lon="-6.428700"><ele>1660</ele><speed>58.55</speed><time>2017-07-01T13:31:28Z</time><course>202</course><type>1</type></trkpt>
      <trkpt lat="38.906433" lon="-6.429117"><ele>1659</ele><speed>57.01</speed><time>2017-07-01T13:31:33Z</time><course>224</course><type>1</type></trkpt>
      <trkpt lat="38.906750" lon="-6.430250"><ele>1645</ele><speed>37.55</speed><time>2017-07-01T13:31:43Z</time><course>320</course><type>1</type></trkpt>
      <trkpt lat="38.907082" lon="-6.430417"><ele>1646</ele><speed>28.58</speed><time>2017-07-01T13:31:48Z</time><course>352</course><type>1</type></trkpt>
      <trkpt lat="38.907398" lon="-6.430467"><ele>1646</ele><speed>25.52</speed><time>2017-07-01T13:31:53Z</time><course>0</course><type>1</type></trkpt>
      <trkpt lat="38.907600" lon="-6.430483"><ele>1643</ele><speed>16.22</speed><time>2017-07-01T13:31:58Z</time><course>44</course><type>1</type></trkpt>
      <trkpt lat="38.907269" lon="-6.430133"><ele>1643</ele><speed>34.36</speed><time>2017-07-01T13:32:03Z</time><course>152</course><type>1</type></trkpt>
      <trkpt lat="38.906685" lon="-6.429950"><ele>1636</ele><speed>48.18</speed><time>2017-07-01T13:32:08Z</time><course>170</course><type>1</type></trkpt>
      <trkpt lat="38.906017" lon="-6.430067"><ele>1633</ele><speed>54.04</speed><time>2017-07-01T13:32:13Z</time><course>190</course><type>1</type></trkpt>
      <trkpt lat="38.905251" lon="-6.430300"><ele>1622</ele><speed>63.09</speed><time>2017-07-01T13:32:18Z</time><course>192</course><type>1</type></trkpt>
      <trkpt lat="38.904518" lon="-6.430450"><ele>1615</ele><speed>59.49</speed><time>2017-07-01T13:32:23Z</time><course>184</course><type>1</type></trkpt>
      <trkpt lat="38.903782" lon="-6.430567"><ele>1623</ele><speed>59.44</speed><time>2017-07-01T13:32:28Z</time><course>192</course><type>1</type></trkpt>
      <trkpt lat="38.902851" lon="-6.430217"><ele>1615</ele><speed>38.87</speed><time>2017-07-01T13:32:38Z</time><course>200</course><type>1</type></trkpt>
      <trkpt lat="38.902184" lon="-6.430666"><ele>1613</ele><speed>60.35</speed><time>2017-07-01T13:32:43Z</time><course>208</course><type>1</type></trkpt>
      <trkpt lat="38.901516" lon="-6.431033"><ele>1613</ele><speed>58.23</speed><time>2017-07-01T13:32:48Z</time><course>192</course><type>1</type></trkpt>
      <trkpt lat="38.900883" lon="-6.431283"><ele>1604</ele><speed>53.08</speed><time>2017-07-01T13:32:53Z</time><course>194</course><type>1</type></trkpt>
      <trkpt lat="38.900215" lon="-6.431483"><ele>1605</ele><speed>54.97</speed><time>2017-07-01T13:32:58Z</time><course>186</course><type>1</type></trkpt>
      <trkpt lat="38.899734" lon="-6.431867"><ele>1605</ele><speed>45.39</speed><time>2017-07-01T13:33:03Z</time><course>250</course><type>1</type></trkpt>
      <trkpt lat="38.899967" lon="-6.432217"><ele>1603</ele><speed>28.73</speed><time>2017-07-01T13:33:08Z</time><course>40</course><type>1</type></trkpt>
      <trkpt lat="38.899765" lon="-6.431850"><ele>1601</ele><speed>28.04</speed><time>2017-07-01T13:33:13Z</time><course>148</course><type>1</type></trkpt>
      <trkpt lat="38.899250" lon="-6.431667"><ele>1601</ele><speed>42.83</speed><time>2017-07-01T13:33:18Z</time><course>166</course><type>1</type></trkpt>
      <trkpt lat="38.898701" lon="-6.431633"><ele>1603</ele><speed>44.05</speed><time>2017-07-01T13:33:23Z</time><course>180</course><type>1</type></trkpt>
      <trkpt lat="38.897484" lon="-6.431800"><ele>1591</ele><speed>49.05</speed><time>2017-07-01T13:33:33Z</time><course>186</course><type>1</type></trkpt>
      <trkpt lat="38.896816" lon="-6.431833"><ele>1585</ele><speed>53.58</speed><time>2017-07-01T13:33:38Z</time><course>188</course><type>1</type></trkpt>
      <trkpt lat="38.896267" lon="-6.431917"><ele>1574</ele><speed>44.31</speed><time>2017-07-01T13:33:43Z</time><course>180</course><type>1</type></trkpt>
      <trkpt lat="38.895584" lon="-6.431967"><ele>1570</ele><speed>54.83</speed><time>2017-07-01T13:33:48Z</time><course>184</course><type>1</type></trkpt>
      <trkpt lat="38.894985" lon="-6.432017"><ele>1570</ele><speed>48.11</speed><time>2017-07-01T13:33:53Z</time><course>182</course><type>1</type></trkpt>
      <trkpt lat="38.894451" lon="-6.432066"><ele>1568</ele><speed>42.91</speed><time>2017-07-01T13:33:58Z</time><course>170</course><type>1</type></trkpt>
      <trkpt lat="38.894165" lon="-6.431783"><ele>1562</ele><speed>28.93</speed><time>2017-07-01T13:34:03Z</time><course>146</course><type>1</type></trkpt>
      <trkpt lat="38.893818" lon="-6.431433"><ele>1548</ele><speed>35.36</speed><time>2017-07-01T13:34:08Z</time><course>152</course><type>1</type></trkpt>
      <trkpt lat="38.893200" lon="-6.431366"><ele>1543</ele><speed>49.71</speed><time>2017-07-01T13:34:13Z</time><course>166</course><type>1</type></trkpt>
      <trkpt lat="38.891850" lon="-6.431383"><ele>1529</ele><speed>54.1</speed><time>2017-07-01T13:34:23Z</time><course>178</course><type>1</type></trkpt>
      <trkpt lat="38.891350" lon="-6.431233"><ele>1531</ele><speed>41.15</speed><time>2017-07-01T13:34:28Z</time><course>150</course><type>1</type></trkpt>
      <trkpt lat="38.890984" lon="-6.430883"><ele>1536</ele><speed>36.57</speed><time>2017-07-01T13:34:33Z</time><course>142</course><type>1</type></trkpt>
      <trkpt lat="38.890732" lon="-6.430567"><ele>1543</ele><speed>28.22</speed><time>2017-07-01T13:34:38Z</time><course>142</course><type>1</type></trkpt>
      <trkpt lat="38.890617" lon="-6.430284"><ele>1550</ele><speed>19.92</speed><time>2017-07-01T13:34:43Z</time><course>94</course><type>1</type></trkpt>
      <trkpt lat="38.890751" lon="-6.430433"><ele>1548</ele><speed>14.2</speed><time>2017-07-01T13:34:48Z</time><course>280</course><type>1</type></trkpt>
      <trkpt lat="38.890415" lon="-6.431233"><ele>1542</ele><speed>56.71</speed><time>2017-07-01T13:34:53Z</time><course>224</course><type>1</type></trkpt>
      <trkpt lat="38.889717" lon="-6.431667"><ele>1544</ele><speed>62.15</speed><time>2017-07-01T13:34:58Z</time><course>194</course><type>1</type></trkpt>
      <trkpt lat="38.889301" lon="-6.431667"><ele>1546</ele><speed>33.34</speed><time>2017-07-01T13:35:03Z</time><course>122</course><type>1</type></trkpt>
      <trkpt lat="38.889484" lon="-6.432083"><ele>1538</ele><speed>29.81</speed><time>2017-07-01T13:35:08Z</time><course>262</course><type>1</type></trkpt>
      <trkpt lat="38.888866" lon="-6.432517"><ele>1544</ele><speed>56.45</speed><time>2017-07-01T13:35:13Z</time><course>180</course><type>1</type></trkpt>
      <trkpt lat="38.888302" lon="-6.432766"><ele>1535</ele><speed>47.8</speed><time>2017-07-01T13:35:18Z</time><course>220</course><type>1</type></trkpt>
      <trkpt lat="38.888248" lon="-6.433750"><ele>1532</ele><speed>61.54</speed><time>2017-07-01T13:35:23Z</time><course>296</course><type>1</type></trkpt>
      <trkpt lat="38.888451" lon="-6.434017"><ele>1529</ele><speed>23.28</speed><time>2017-07-01T13:35:28Z</time><course>30</course><type>1</type></trkpt>
      <trkpt lat="38.888401" lon="-6.433750"><ele>1531</ele><speed>17.13</speed><time>2017-07-01T13:35:33Z</time><course>106</course><type>1</type></trkpt>
      <trkpt lat="38.888065" lon="-6.433700"><ele>1523</ele><speed>27.11</speed><time>2017-07-01T13:35:38Z</time><course>190</course><type>1</type></trkpt>
      <trkpt lat="38.887600" lon="-6.434550"><ele>1504</ele><speed>64.82</speed><time>2017-07-01T13:35:43Z</time><course>268</course><type>1</type></trkpt>
      <trkpt lat="38.887749" lon="-6.434850"><ele>1491</ele><speed>22.2</speed><time>2017-07-01T13:35:48Z</time><course>102</course><type>1</type></trkpt>
      <trkpt lat="38.887218" lon="-6.434783"><ele>1490</ele><speed>42.76</speed><time>2017-07-01T13:35:53Z</time><course>184</course><type>1</type></trkpt>
      <trkpt lat="38.886616" lon="-6.434750"><ele>1484</ele><speed>48.29</speed><time>2017-07-01T13:35:58Z</time><course>176</course><type>1</type></trkpt>
      <trkpt lat="38.885433" lon="-6.434267"><ele>1490</ele><speed>33.16</speed><time>2017-07-01T13:36:13Z</time><course>112</course><type>1</type></trkpt>
      <trkpt lat="38.885368" lon="-6.434150"><ele>1501</ele><speed>8.97</speed><time>2017-07-01T13:36:18Z</time><course>120</course><type>1</type></trkpt>
      <trkpt lat="38.885033" lon="-6.434367"><ele>1507</ele><speed>30.07</speed><time>2017-07-01T13:36:23Z</time><course>224</course><type>1</type></trkpt>
      <trkpt lat="38.885201" lon="-6.435283"><ele>1511</ele><speed>58.71</speed><time>2017-07-01T13:36:28Z</time><course>322</course><type>1</type></trkpt>
      <trkpt lat="38.885517" lon="-6.435483"><ele>1522</ele><speed>28.23</speed><time>2017-07-01T13:36:33Z</time><course>356</course><type>1</type></trkpt>
      <trkpt lat="38.885448" lon="-6.435367"><ele>1524</ele><speed>9.11</speed><time>2017-07-01T13:36:38Z</time><course>182</course><type>1</type></trkpt>
      <trkpt lat="38.885181" lon="-6.436183"><ele>1531</ele><speed>55.22</speed><time>2017-07-01T13:36:43Z</time><course>294</course><type>1</type></trkpt>
      <trkpt lat="38.885315" lon="-6.436267"><ele>1542</ele><speed>11.95</speed><time>2017-07-01T13:36:48Z</time><course>136</course><type>1</type></trkpt>
      <trkpt lat="38.884815" lon="-6.436817"><ele>1541</ele><speed>52.76</speed><time>2017-07-01T13:36:53Z</time><course>260</course><type>1</type></trkpt>
      <trkpt lat="38.885082" lon="-6.437417"><ele>1553</ele><speed>43.12</speed><time>2017-07-01T13:36:58Z</time><course>308</course><type>1</type></trkpt>
      <trkpt lat="38.885082" lon="-6.437317"><ele>1550</ele><speed>6.24</speed><time>2017-07-01T13:37:03Z</time><course>152</course><type>1</type></trkpt>
      <trkpt lat="38.884651" lon="-6.438000"><ele>1547</ele><speed>54.86</speed><time>2017-07-01T13:37:08Z</time><course>276</course><type>1</type></trkpt>
      <trkpt lat="38.884918" lon="-6.438617"><ele>1552</ele><speed>44.04</speed><time>2017-07-01T13:37:13Z</time><course>296</course><type>1</type></trkpt>
      <trkpt lat="38.885067" lon="-6.438733"><ele>1555</ele><speed>13.96</speed><time>2017-07-01T13:37:18Z</time><course>100</course><type>1</type></trkpt>
      <trkpt lat="38.884567" lon="-6.439167"><ele>1558</ele><speed>48.37</speed><time>2017-07-01T13:37:23Z</time><course>260</course><type>1</type></trkpt>
      <trkpt lat="38.884800" lon="-6.439667"><ele>1569</ele><speed>36.36</speed><time>2017-07-01T13:37:28Z</time><course>328</course><type>1</type></trkpt>
      <trkpt lat="38.884682" lon="-6.439550"><ele>1571</ele><speed>11.95</speed><time>2017-07-01T13:37:33Z</time><course>172</course><type>1</type></trkpt>
      <trkpt lat="38.884365" lon="-6.440383"><ele>1572</ele><speed>57.85</speed><time>2017-07-01T13:37:38Z</time><course>294</course><type>1</type></trkpt>
      <trkpt lat="38.884583" lon="-6.440650"><ele>1584</ele><speed>24.14</speed><time>2017-07-01T13:37:43Z</time><course>348</course><type>1</type></trkpt>
      <trkpt lat="38.884182" lon="-6.440600"><ele>1586</ele><speed>32.29</speed><time>2017-07-01T13:37:48Z</time><course>210</course><type>1</type></trkpt>
      <trkpt lat="38.884132" lon="-6.441517"><ele>1591</ele><speed>57.35</speed><time>2017-07-01T13:37:53Z</time><course>310</course><type>1</type></trkpt>
      <trkpt lat="38.884232" lon="-6.441534"><ele>1595</ele><speed>8.08</speed><time>2017-07-01T13:37:58Z</time><course>132</course><type>1</type></trkpt>
      <trkpt lat="38.883701" lon="-6.441717"><ele>1602</ele><speed>44.06</speed><time>2017-07-01T13:38:03Z</time><course>228</course><type>1</type></trkpt>
      <trkpt lat="38.883801" lon="-6.442500"><ele>1605</ele><speed>49.5</speed><time>2017-07-01T13:38:08Z</time><course>334</course><type>1</type></trkpt>
      <trkpt lat="38.883816" lon="-6.442367"><ele>1614</ele><speed>8.38</speed><time>2017-07-01T13:38:13Z</time><course>148</course><type>1</type></trkpt>
      <trkpt lat="38.883266" lon="-6.442683"><ele>1615</ele><speed>48.29</speed><time>2017-07-01T13:38:18Z</time><course>230</course><type>1</type></trkpt>
      <trkpt lat="38.883366" lon="-6.443517"><ele>1618</ele><speed>52.65</speed><time>2017-07-01T13:38:23Z</time><course>316</course><type>1</type></trkpt>
      <trkpt lat="38.883633" lon="-6.443800"><ele>1630</ele><speed>27.74</speed><time>2017-07-01T13:38:28Z</time><course>0</course><type>1</type></trkpt>
      <trkpt lat="38.883068" lon="-6.444016"><ele>1631</ele><speed>47.25</speed><time>2017-07-01T13:38:33Z</time><course>232</course><type>1</type></trkpt>
      <trkpt lat="38.883049" lon="-6.444983"><ele>1635</ele><speed>60.35</speed><time>2017-07-01T13:38:38Z</time><course>296</course><type>1</type></trkpt>
      <trkpt lat="38.883251" lon="-6.445050"><ele>1636</ele><speed>16.72</speed><time>2017-07-01T13:38:43Z</time><course>104</course><type>1</type></trkpt>
      <trkpt lat="38.882851" lon="-6.444967"><ele>1636</ele><speed>32.48</speed><time>2017-07-01T13:38:48Z</time><course>186</course><type>1</type></trkpt>
      <trkpt lat="38.882351" lon="-6.445734"><ele>1644</ele><speed>62.42</speed><time>2017-07-01T13:38:53Z</time><course>262</course><type>1</type></trkpt>
      <trkpt lat="38.882751" lon="-6.446466"><ele>1640</ele><speed>27.9</speed><time>2017-07-01T13:39:03Z</time><course>50</course><type>1</type></trkpt>
      <trkpt lat="38.882633" lon="-6.446267"><ele>1641</ele><speed>15.61</speed><time>2017-07-01T13:39:08Z</time><course>142</course><type>1</type></trkpt>
      <trkpt lat="38.882198" lon="-6.446167"><ele>1643</ele><speed>35.42</speed><time>2017-07-01T13:39:13Z</time><course>204</course><type>1</type></trkpt>
      <trkpt lat="38.882000" lon="-6.447150"><ele>1648</ele><speed>63.35</speed><time>2017-07-01T13:39:18Z</time><course>288</course><type>1</type></trkpt>
      <trkpt lat="38.882183" lon="-6.447317"><ele>1652</ele><speed>17.99</speed><time>2017-07-01T13:39:23Z</time><course>66</course><type>1</type></trkpt>
      <trkpt lat="38.881748" lon="-6.447317"><ele>1657</ele><speed>34.87</speed><time>2017-07-01T13:39:28Z</time><course>212</course><type>1</type></trkpt>
      <trkpt lat="38.881550" lon="-6.448283"><ele>1659</ele><speed>62.33</speed><time>2017-07-01T13:39:33Z</time><course>284</course><type>1</type></trkpt>
      <trkpt lat="38.881748" lon="-6.448750"><ele>1662</ele><speed>33.18</speed><time>2017-07-01T13:39:38Z</time><course>346</course><type>1</type></trkpt>
      <trkpt lat="38.881783" lon="-6.448517"><ele>1662</ele><speed>14.81</speed><time>2017-07-01T13:39:43Z</time><course>114</course><type>1</type></trkpt>
      <trkpt lat="38.881565" lon="-6.448283"><ele>1662</ele><speed>22.77</speed><time>2017-07-01T13:39:48Z</time><course>170</course><type>1</type></trkpt>
      <trkpt lat="38.881302" lon="-6.449700"><ele>1656</ele><speed>45.44</speed><time>2017-07-01T13:39:58Z</time><course>318</course><type>1</type></trkpt>
      <trkpt lat="38.881584" lon="-6.449783"><ele>1657</ele><speed>23.19</speed><time>2017-07-01T13:40:03Z</time><course>50</course><type>1</type></trkpt>
      <trkpt lat="38.881466" lon="-6.449550"><ele>1651</ele><speed>17.34</speed><time>2017-07-01T13:40:08Z</time><course>118</course><type>1</type></trkpt>
      <trkpt lat="38.881248" lon="-6.449317"><ele>1649</ele><speed>22.73</speed><time>2017-07-01T13:40:13Z</time><course>150</course><type>1</type></trkpt>
      <trkpt lat="38.880951" lon="-6.449117"><ele>1655</ele><speed>26.88</speed><time>2017-07-01T13:40:18Z</time><course>168</course><type>1</type></trkpt>
      <trkpt lat="38.880634" lon="-6.448950"><ele>1660</ele><speed>27.46</speed><time>2017-07-01T13:40:23Z</time><course>146</course><type>1</type></trkpt>
      <trkpt lat="38.880383" lon="-6.448733"><ele>1669</ele><speed>24.25</speed><time>2017-07-01T13:40:28Z</time><course>154</course><type>1</type></trkpt>
      <trkpt lat="38.879982" lon="-6.448600"><ele>1679</ele><speed>33.19</speed><time>2017-07-01T13:40:33Z</time><course>160</course><type>1</type></trkpt>
      <trkpt lat="38.879601" lon="-6.448467"><ele>1693</ele><speed>31.64</speed><time>2017-07-01T13:40:38Z</time><course>168</course><type>1</type></trkpt>
      <trkpt lat="38.879135" lon="-6.448783"><ele>1701</ele><speed>42.23</speed><time>2017-07-01T13:40:43Z</time><course>228</course><type>1</type></trkpt>
      <trkpt lat="38.879368" lon="-6.449800"><ele>1717</ele><speed>33.07</speed><time>2017-07-01T13:40:53Z</time><course>62</course><type>1</type></trkpt>
      <trkpt lat="38.879002" lon="-6.449733"><ele>1725</ele><speed>29.63</speed><time>2017-07-01T13:40:58Z</time><course>192</course><type>1</type></trkpt>
      <trkpt lat="38.878483" lon="-6.449934"><ele>1726</ele><speed>43.45</speed><time>2017-07-01T13:41:03Z</time><course>196</course><type>1</type></trkpt>
      <trkpt lat="38.877899" lon="-6.450366"><ele>1732</ele><speed>54.01</speed><time>2017-07-01T13:41:08Z</time><course>220</course><type>1</type></trkpt>
      <trkpt lat="38.877316" lon="-6.450984"><ele>1736</ele><speed>60.58</speed><time>2017-07-01T13:41:13Z</time><course>214</course><type>1</type></trkpt>
      <trkpt lat="38.876667" lon="-6.451600"><ele>1738</ele><speed>64.68</speed><time>2017-07-01T13:41:18Z</time><course>220</course><type>1</type></trkpt>
      <trkpt lat="38.876133" lon="-6.452217"><ele>1749</ele><speed>57.57</speed><time>2017-07-01T13:41:23Z</time><course>236</course><type>1</type></trkpt>
      <trkpt lat="38.876266" lon="-6.453000"><ele>1752</ele><speed>50.01</speed><time>2017-07-01T13:41:28Z</time><course>328</course><type>1</type></trkpt>
      <trkpt lat="38.876415" lon="-6.453150"><ele>1766</ele><speed>15.17</speed><time>2017-07-01T13:41:33Z</time><course>342</course><type>1</type></trkpt>
      <trkpt lat="38.875916" lon="-6.453250"><ele>1763</ele><speed>40.48</speed><time>2017-07-01T13:41:38Z</time><course>218</course><type>1</type></trkpt>
      <trkpt lat="38.875683" lon="-6.454167"><ele>1774</ele><speed>60.19</speed><time>2017-07-01T13:41:43Z</time><course>272</course><type>1</type></trkpt>
      <trkpt lat="38.875851" lon="-6.454983"><ele>1781</ele><speed>52.67</speed><time>2017-07-01T13:41:48Z</time><course>290</course><type>1</type></trkpt>
      <trkpt lat="38.876068" lon="-6.455534"><ele>1788</ele><speed>38.53</speed><time>2017-07-01T13:41:53Z</time><course>316</course><type>1</type></trkpt>
      <trkpt lat="38.875782" lon="-6.455383"><ele>1790</ele><speed>24.78</speed><time>2017-07-01T13:41:58Z</time><course>182</course><type>1</type></trkpt>
      <trkpt lat="38.875267" lon="-6.456133"><ele>1794</ele><speed>62.4</speed><time>2017-07-01T13:42:03Z</time><course>258</course><type>1</type></trkpt>
      <trkpt lat="38.875465" lon="-6.456850"><ele>1797</ele><speed>47.47</speed><time>2017-07-01T13:42:08Z</time><course>314</course><type>1</type></trkpt>
      <trkpt lat="38.875515" lon="-6.456867"><ele>1796</ele><speed>4.15</speed><time>2017-07-01T13:42:13Z</time><course>136</course><type>1</type></trkpt>
      <trkpt lat="38.875134" lon="-6.456700"><ele>1792</ele><speed>32.27</speed><time>2017-07-01T13:42:18Z</time><course>162</course><type>1</type></trkpt>
      <trkpt lat="38.874802" lon="-6.456517"><ele>1795</ele><speed>28.96</speed><time>2017-07-01T13:42:23Z</time><course>160</course><type>1</type></trkpt>
      <trkpt lat="38.874233" lon="-6.456617"><ele>1791</ele><speed>46.03</speed><time>2017-07-01T13:42:28Z</time><course>196</course><type>1</type></trkpt>
      <trkpt lat="38.873650" lon="-6.456700"><ele>1796</ele><speed>47.01</speed><time>2017-07-01T13:42:33Z</time><course>180</course><type>1</type></trkpt>
      <trkpt lat="38.873798" lon="-6.456783"><ele>1794</ele><speed>12.94</speed><time>2017-07-01T13:42:38Z</time><course>310</course><type>1</type></trkpt>
      <trkpt lat="38.873432" lon="-6.457617"><ele>1793</ele><speed>59.74</speed><time>2017-07-01T13:42:43Z</time><course>208</course><type>1</type></trkpt>
      <trkpt lat="38.872898" lon="-6.457633"><ele>1794</ele><speed>42.81</speed><time>2017-07-01T13:42:48Z</time><course>144</course><type>1</type></trkpt>
      <trkpt lat="38.872917" lon="-6.457450"><ele>1793</ele><speed>11.52</speed><time>2017-07-01T13:42:53Z</time><course>22</course><type>1</type></trkpt>
      <trkpt lat="38.873016" lon="-6.457334"><ele>1793</ele><speed>10.74</speed><time>2017-07-01T13:42:58Z</time><course>4</course><type>1</type></trkpt>
      <trkpt lat="38.873184" lon="-6.458034"><ele>1784</ele><speed>45.71</speed><time>2017-07-01T13:43:03Z</time><course>266</course><type>1</type></trkpt>
      <trkpt lat="38.872849" lon="-6.459000"><ele>1777</ele><speed>65.99</speed><time>2017-07-01T13:43:08Z</time><course>230</course><type>1</type></trkpt>
      <trkpt lat="38.872200" lon="-6.459633"><ele>1777</ele><speed>65.31</speed><time>2017-07-01T13:43:13Z</time><course>212</course><type>1</type></trkpt>
      <trkpt lat="38.871517" lon="-6.460200"><ele>1774</ele><speed>65.18</speed><time>2017-07-01T13:43:18Z</time><course>210</course><type>1</type></trkpt>
      <trkpt lat="38.870815" lon="-6.460717"><ele>1768</ele><speed>64.86</speed><time>2017-07-01T13:43:23Z</time><course>206</course><type>1</type></trkpt>
      <trkpt lat="38.870083" lon="-6.461283"><ele>1759</ele><speed>68.48</speed><time>2017-07-01T13:43:28Z</time><course>210</course><type>1</type></trkpt>
      <trkpt lat="38.869366" lon="-6.461800"><ele>1745</ele><speed>65.9</speed><time>2017-07-01T13:43:33Z</time><course>204</course><type>1</type></trkpt>
      <trkpt lat="38.868584" lon="-6.462183"><ele>1723</ele><speed>67.08</speed><time>2017-07-01T13:43:38Z</time><course>196</course><type>1</type></trkpt>
      <trkpt lat="38.867767" lon="-6.462500"><ele>1703</ele><speed>68.41</speed><time>2017-07-01T13:43:43Z</time><course>196</course><type>1</type></trkpt>
      <trkpt lat="38.866917" lon="-6.462900"><ele>1683</ele><speed>72.56</speed><time>2017-07-01T13:43:48Z</time><course>202</course><type>1</type></trkpt>
      <trkpt lat="38.865200" lon="-6.463817"><ele>1657</ele><speed>74.52</speed><time>2017-07-01T13:43:58Z</time><course>202</course><type>1</type></trkpt>
      <trkpt lat="38.864349" lon="-6.464283"><ele>1646</ele><speed>74.15</speed><time>2017-07-01T13:44:03Z</time><course>202</course><type>1</type></trkpt>
      <trkpt lat="38.863548" lon="-6.464767"><ele>1641</ele><speed>70.95</speed><time>2017-07-01T13:44:08Z</time><course>204</course><type>1</type></trkpt>
      <trkpt lat="38.862751" lon="-6.465167"><ele>1630</ele><speed>68.58</speed><time>2017-07-01T13:44:13Z</time><course>198</course><type>1</type></trkpt>
      <trkpt lat="38.861950" lon="-6.465567"><ele>1624</ele><speed>68.88</speed><time>2017-07-01T13:44:18Z</time><course>202</course><type>1</type></trkpt>
      <trkpt lat="38.861118" lon="-6.466017"><ele>1614</ele><speed>72.36</speed><time>2017-07-01T13:44:23Z</time><course>204</course><type>1</type></trkpt>
      <trkpt lat="38.860283" lon="-6.466483"><ele>1606</ele><speed>72.97</speed><time>2017-07-01T13:44:28Z</time><course>202</course><type>1</type></trkpt>
      <trkpt lat="38.859482" lon="-6.466833"><ele>1595</ele><speed>67.81</speed><time>2017-07-01T13:44:33Z</time><course>196</course><type>1</type></trkpt>
      <trkpt lat="38.858616" lon="-6.467167"><ele>1578</ele><speed>72.47</speed><time>2017-07-01T13:44:38Z</time><course>194</course><type>1</type></trkpt>
      <trkpt lat="38.857784" lon="-6.467267"><ele>1565</ele><speed>66.98</speed><time>2017-07-01T13:44:43Z</time><course>180</course><type>1</type></trkpt>
      <trkpt lat="38.857101" lon="-6.466300"><ele>1511</ele><speed>27.16</speed><time>2017-07-01T13:44:58Z</time><course>34</course><type>1</type></trkpt>
      <trkpt lat="38.857449" lon="-6.466233"><ele>1517</ele><speed>28.2</speed><time>2017-07-01T13:45:03Z</time><course>342</course><type>1</type></trkpt>
      <trkpt lat="38.857765" lon="-6.466217"><ele>1515</ele><speed>25.35</speed><time>2017-07-01T13:45:08Z</time><course>0</course><type>1</type></trkpt>
      <trkpt lat="38.858002" lon="-6.466200"><ele>1518</ele><speed>19.03</speed><time>2017-07-01T13:45:13Z</time><course>4</course><type>1</type></trkpt>
      <trkpt lat="38.858250" lon="-6.466183"><ele>1519</ele><speed>19.91</speed><time>2017-07-01T13:45:18Z</time><course>6</course><type>1</type></trkpt>
      <trkpt lat="38.858250" lon="-6.465950"><ele>1515</ele><speed>14.54</speed><time>2017-07-01T13:45:23Z</time><course>134</course><type>1</type></trkpt>
      <trkpt lat="38.857868" lon="-6.465583"><ele>1512</ele><speed>38.24</speed><time>2017-07-01T13:45:28Z</time><course>146</course><type>1</type></trkpt>
      <trkpt lat="38.857601" lon="-6.465300"><ele>1510</ele><speed>27.75</speed><time>2017-07-01T13:45:33Z</time><course>118</course><type>1</type></trkpt>
      <trkpt lat="38.857468" lon="-6.464933"><ele>1505</ele><speed>25.26</speed><time>2017-07-01T13:45:38Z</time><course>118</course><type>1</type></trkpt>
      <trkpt lat="38.857250" lon="-6.464517"><ele>1508</ele><speed>31.3</speed><time>2017-07-01T13:45:43Z</time><course>116</course><type>1</type></trkpt>
      <trkpt lat="38.857151" lon="-6.464083"><ele>1507</ele><speed>28.23</speed><time>2017-07-01T13:45:48Z</time><course>110</course><type>1</type></trkpt>
      <trkpt lat="38.857201" lon="-6.463733"><ele>1496</ele><speed>22.21</speed><time>2017-07-01T13:45:53Z</time><course>40</course><type>1</type></trkpt>
      <trkpt lat="38.857433" lon="-6.463984"><ele>1484</ele><speed>24.31</speed><time>2017-07-01T13:45:58Z</time><course>296</course><type>1</type></trkpt>
      <trkpt lat="38.857567" lon="-6.464500"><ele>1476</ele><speed>33.95</speed><time>2017-07-01T13:46:03Z</time><course>284</course><type>1</type></trkpt>
      <trkpt lat="38.857651" lon="-6.465167"><ele>1470</ele><speed>42.17</speed><time>2017-07-01T13:46:08Z</time><course>274</course><type>1</type></trkpt>
      <trkpt lat="38.857700" lon="-6.465867"><ele>1461</ele><speed>43.87</speed><time>2017-07-01T13:46:13Z</time><course>272</course><type>1</type></trkpt>
      <trkpt lat="38.857750" lon="-6.466633"><ele>1454</ele><speed>47.98</speed><time>2017-07-01T13:46:18Z</time><course>276</course><type>1</type></trkpt>
      <trkpt lat="38.857800" lon="-6.467383"><ele>1455</ele><speed>46.98</speed><time>2017-07-01T13:46:23Z</time><course>278</course><type>1</type></trkpt>
      <trkpt lat="38.857933" lon="-6.468100"><ele>1466</ele><speed>46</speed><time>2017-07-01T13:46:28Z</time><course>282</course><type>1</type></trkpt>
      <trkpt lat="38.858067" lon="-6.468650"><ele>1474</ele><speed>35.97</speed><time>2017-07-01T13:46:33Z</time><course>314</course><type>1</type></trkpt>
      <trkpt lat="38.858284" lon="-6.469017"><ele>1482</ele><speed>28.76</speed><time>2017-07-01T13:46:38Z</time><course>276</course><type>1</type></trkpt>
      <trkpt lat="38.858284" lon="-6.468683"><ele>1464</ele><speed>20.85</speed><time>2017-07-01T13:46:43Z</time><course>138</course><type>1</type></trkpt>
      <trkpt lat="38.857716" lon="-6.468817"><ele>1473</ele><speed>46.29</speed><time>2017-07-01T13:46:48Z</time><course>220</course><type>1</type></trkpt>
      <trkpt lat="38.857735" lon="-6.469250"><ele>1468</ele><speed>27.07</speed><time>2017-07-01T13:46:53Z</time><course>0</course><type>1</type></trkpt>
      <trkpt lat="38.857449" lon="-6.468800"><ele>1467</ele><speed>36.25</speed><time>2017-07-01T13:46:58Z</time><course>182</course><type>1</type></trkpt>
      <trkpt lat="38.856968" lon="-6.468884"><ele>1472</ele><speed>38.91</speed><time>2017-07-01T13:47:03Z</time><course>190</course><type>1</type></trkpt>
      <trkpt lat="38.856533" lon="-6.469383"><ele>1474</ele><speed>46.75</speed><time>2017-07-01T13:47:08Z</time><course>252</course><type>1</type></trkpt>
      <trkpt lat="38.856785" lon="-6.469733"><ele>1473</ele><speed>29.75</speed><time>2017-07-01T13:47:13Z</time><course>26</course><type>1</type></trkpt>
      <trkpt lat="38.856449" lon="-6.469367"><ele>1471</ele><speed>35.31</speed><time>2017-07-01T13:47:18Z</time><course>170</course><type>1</type></trkpt>
      <trkpt lat="38.855900" lon="-6.469567"><ele>1479</ele><speed>45.74</speed><time>2017-07-01T13:47:23Z</time><course>206</course><type>1</type></trkpt>
      <trkpt lat="38.855400" lon="-6.470100"><ele>1481</ele><speed>52.08</speed><time>2017-07-01T13:47:28Z</time><course>212</course><type>1</type></trkpt>
      <trkpt lat="38.855183" lon="-6.469800"><ele>1482</ele><speed>25.56</speed><time>2017-07-01T13:47:33Z</time><course>44</course><type>1</type></trkpt>
      <trkpt lat="38.855202" lon="-6.470467"><ele>1484</ele><speed>41.66</speed><time>2017-07-01T13:47:38Z</time><course>228</course><type>1</type></trkpt>
      <trkpt lat="38.854717" lon="-6.470417"><ele>1495</ele><speed>39</speed><time>2017-07-01T13:47:43Z</time><course>136</course><type>1</type></trkpt>
      <trkpt lat="38.855034" lon="-6.470383"><ele>1496</ele><speed>25.5</speed><time>2017-07-01T13:47:48Z</time><course>318</course><type>1</type></trkpt>
      <trkpt lat="38.854584" lon="-6.470967"><ele>1504</ele><speed>25.64</speed><time>2017-07-01T13:47:58Z</time><course>118</course><type>1</type></trkpt>
      <trkpt lat="38.854832" lon="-6.470950"><ele>1513</ele><speed>19.91</speed><time>2017-07-01T13:48:03Z</time><course>300</course><type>1</type></trkpt>
      <trkpt lat="38.854450" lon="-6.471450"><ele>1514</ele><speed>43.72</speed><time>2017-07-01T13:48:08Z</time><course>184</course><type>1</type></trkpt>
      <trkpt lat="38.854168" lon="-6.471217"><ele>1525</ele><speed>26.88</speed><time>2017-07-01T13:48:13Z</time><course>70</course><type>1</type></trkpt>
      <trkpt lat="38.854435" lon="-6.471133"><ele>1525</ele><speed>22.03</speed><time>2017-07-01T13:48:18Z</time><course>316</course><type>1</type></trkpt>
      <trkpt lat="38.854282" lon="-6.471800"><ele>1525</ele><speed>43.4</speed><time>2017-07-01T13:48:23Z</time><course>212</course><type>1</type></trkpt>
      <trkpt lat="38.853683" lon="-6.471667"><ele>1525</ele><speed>48.72</speed><time>2017-07-01T13:48:28Z</time><course>130</course><type>1</type></trkpt>
      <trkpt lat="38.853783" lon="-6.471400"><ele>1518</ele><speed>18.49</speed><time>2017-07-01T13:48:33Z</time><course>8</course><type>1</type></trkpt>
      <trkpt lat="38.854134" lon="-6.471717"><ele>1520</ele><speed>34.39</speed><time>2017-07-01T13:48:38Z</time><course>322</course><type>1</type></trkpt>
      <trkpt lat="38.854218" lon="-6.472183"><ele>1515</ele><speed>29.86</speed><time>2017-07-01T13:48:43Z</time><course>244</course><type>1</type></trkpt>
      <trkpt lat="38.853149" lon="-6.472034"><ele>1506</ele><speed>28.73</speed><time>2017-07-01T13:48:58Z</time><course>88</course><type>1</type></trkpt>
      <trkpt lat="38.853401" lon="-6.472150"><ele>1505</ele><speed>21.46</speed><time>2017-07-01T13:49:03Z</time><course>316</course><type>1</type></trkpt>
      <trkpt lat="38.853584" lon="-6.472034"><ele>1503</ele><speed>16.36</speed><time>2017-07-01T13:49:08Z</time><course>108</course><type>1</type></trkpt>
      <trkpt lat="38.853016" lon="-6.471817"><ele>1501</ele><speed>47.5</speed><time>2017-07-01T13:49:13Z</time><course>190</course><type>1</type></trkpt>
      <trkpt lat="38.852417" lon="-6.472450"><ele>1493</ele><speed>62.18</speed><time>2017-07-01T13:49:18Z</time><course>234</course><type>1</type></trkpt>
      <trkpt lat="38.852085" lon="-6.473250"><ele>1495</ele><speed>56.58</speed><time>2017-07-01T13:49:23Z</time><course>252</course><type>1</type></trkpt>
      <trkpt lat="38.851952" lon="-6.474033"><ele>1497</ele><speed>50.02</speed><time>2017-07-01T13:49:28Z</time><course>260</course><type>1</type></trkpt>
      <trkpt lat="38.852234" lon="-6.474317"><ele>1490</ele><speed>28.72</speed><time>2017-07-01T13:49:33Z</time><course>28</course><type>1</type></trkpt>
      <trkpt lat="38.851952" lon="-6.474033"><ele>1493</ele><speed>28.72</speed><time>2017-07-01T13:49:38Z</time><course>172</course><type>1</type></trkpt>
      <trkpt lat="38.851265" lon="-6.474250"><ele>1496</ele><speed>56.7</speed><time>2017-07-01T13:49:43Z</time><course>216</course><type>1</type></trkpt>
      <trkpt lat="38.851082" lon="-6.475067"><ele>1499</ele><speed>53.06</speed><time>2017-07-01T13:49:48Z</time><course>260</course><type>1</type></trkpt>
      <trkpt lat="38.851250" lon="-6.475584"><ele>1496</ele><speed>34.97</speed><time>2017-07-01T13:49:53Z</time><course>352</course><type>1</type></trkpt>
      <trkpt lat="38.851200" lon="-6.475266"><ele>1496</ele><speed>20.25</speed><time>2017-07-01T13:49:58Z</time><course>156</course><type>1</type></trkpt>
      <trkpt lat="38.850616" lon="-6.475483"><ele>1496</ele><speed>48.73</speed><time>2017-07-01T13:50:03Z</time><course>216</course><type>1</type></trkpt>
      <trkpt lat="38.850166" lon="-6.476333"><ele>1501</ele><speed>64.16</speed><time>2017-07-01T13:50:08Z</time><course>236</course><type>1</type></trkpt>
      <trkpt lat="38.850166" lon="-6.476984"><ele>1498</ele><speed>40.64</speed><time>2017-07-01T13:50:13Z</time><course>326</course><type>1</type></trkpt>
      <trkpt lat="38.850132" lon="-6.476683"><ele>1499</ele><speed>18.99</speed><time>2017-07-01T13:50:18Z</time><course>162</course><type>1</type></trkpt>
      <trkpt lat="38.849567" lon="-6.477150"><ele>1501</ele><speed>53.86</speed><time>2017-07-01T13:50:23Z</time><course>234</course><type>1</type></trkpt>
      <trkpt lat="38.849365" lon="-6.477867"><ele>1502</ele><speed>47.59</speed><time>2017-07-01T13:50:28Z</time><course>286</course><type>1</type></trkpt>
      <trkpt lat="38.849617" lon="-6.477900"><ele>1505</ele><speed>20.3</speed><time>2017-07-01T13:50:33Z</time><course>92</course><type>1</type></trkpt>
      <trkpt lat="38.849182" lon="-6.477767"><ele>1505</ele><speed>35.84</speed><time>2017-07-01T13:50:38Z</time><course>196</course><type>1</type></trkpt>
      <trkpt lat="38.848766" lon="-6.478384"><ele>1505</ele><speed>50.94</speed><time>2017-07-01T13:50:43Z</time><course>254</course><type>1</type></trkpt>
      <trkpt lat="38.848751" lon="-6.479267"><ele>1507</ele><speed>55.13</speed><time>2017-07-01T13:50:48Z</time><course>268</course><type>1</type></trkpt>
      <trkpt lat="38.848949" lon="-6.479633"><ele>1511</ele><speed>27.82</speed><time>2017-07-01T13:50:53Z</time><course>42</course><type>1</type></trkpt>
      <trkpt lat="38.848751" lon="-6.479317"><ele>1523</ele><speed>25.32</speed><time>2017-07-01T13:50:58Z</time><course>172</course><type>1</type></trkpt>
      <trkpt lat="38.848282" lon="-6.479883"><ele>1519</ele><speed>51.59</speed><time>2017-07-01T13:51:03Z</time><course>270</course><type>1</type></trkpt>
      <trkpt lat="38.848549" lon="-6.480300"><ele>1529</ele><speed>33.7</speed><time>2017-07-01T13:51:08Z</time><course>322</course><type>1</type></trkpt>
      <trkpt lat="38.848618" lon="-6.480150"><ele>1532</ele><speed>10.87</speed><time>2017-07-01T13:51:13Z</time><course>128</course><type>1</type></trkpt>
      <trkpt lat="38.848015" lon="-6.480333"><ele>1535</ele><speed>49.66</speed><time>2017-07-01T13:51:18Z</time><course>222</course><type>1</type></trkpt>
      <trkpt lat="38.847935" lon="-6.481167"><ele>1535</ele><speed>52.45</speed><time>2017-07-01T13:51:23Z</time><course>292</course><type>1</type></trkpt>
      <trkpt lat="38.848133" lon="-6.481467"><ele>1544</ele><speed>24.55</speed><time>2017-07-01T13:51:28Z</time><course>358</course><type>1</type></trkpt>
      <trkpt lat="38.847885" lon="-6.481184"><ele>1548</ele><speed>26.59</speed><time>2017-07-01T13:51:33Z</time><course>184</course><type>1</type></trkpt>
      <trkpt lat="38.847500" lon="-6.481867"><ele>1554</ele><speed>52.63</speed><time>2017-07-01T13:51:38Z</time><course>266</course><type>1</type></trkpt>
      <trkpt lat="38.847633" lon="-6.482567"><ele>1564</ele><speed>44.98</speed><time>2017-07-01T13:51:43Z</time><course>296</course><type>1</type></trkpt>
      <trkpt lat="38.847832" lon="-6.482600"><ele>1568</ele><speed>16.08</speed><time>2017-07-01T13:51:48Z</time><course>88</course><type>1</type></trkpt>
      <trkpt lat="38.847252" lon="-6.483167"><ele>1581</ele><speed>29.21</speed><time>2017-07-01T13:51:58Z</time><course>298</course><type>1</type></trkpt>
      <trkpt lat="38.847500" lon="-6.483450"><ele>1588</ele><speed>26.59</speed><time>2017-07-01T13:52:03Z</time><course>356</course><type>1</type></trkpt>
      <trkpt lat="38.847301" lon="-6.483117"><ele>1590</ele><speed>26.2</speed><time>2017-07-01T13:52:08Z</time><course>176</course><type>1</type></trkpt>
      <trkpt lat="38.846882" lon="-6.483750"><ele>1595</ele><speed>51.86</speed><time>2017-07-01T13:52:13Z</time><course>266</course><type>1</type></trkpt>
      <trkpt lat="38.847050" lon="-6.484367"><ele>1602</ele><speed>40.8</speed><time>2017-07-01T13:52:18Z</time><course>300</course><type>1</type></trkpt>
      <trkpt lat="38.847301" lon="-6.484633"><ele>1611</ele><speed>26.08</speed><time>2017-07-01T13:52:23Z</time><course>8</course><type>1</type></trkpt>
      <trkpt lat="38.847099" lon="-6.484383"><ele>1612</ele><speed>22.49</speed><time>2017-07-01T13:52:28Z</time><course>166</course><type>1</type></trkpt>
      <trkpt lat="38.846584" lon="-6.484883"><ele>1620</ele><speed>51.75</speed><time>2017-07-01T13:52:33Z</time><course>248</course><type>1</type></trkpt>
      <trkpt lat="38.846634" lon="-6.485600"><ele>1623</ele><speed>44.94</speed><time>2017-07-01T13:52:38Z</time><course>294</course><type>1</type></trkpt>
      <trkpt lat="38.846931" lon="-6.485883"><ele>1627</ele><speed>29.64</speed><time>2017-07-01T13:52:43Z</time><course>346</course><type>1</type></trkpt>
      <trkpt lat="38.847282" lon="-6.485883"><ele>1632</ele><speed>28.13</speed><time>2017-07-01T13:52:48Z</time><course>12</course><type>1</type></trkpt>
      <trkpt lat="38.847267" lon="-6.485533"><ele>1634</ele><speed>21.88</speed><time>2017-07-01T13:52:53Z</time><course>146</course><type>1</type></trkpt>
      <trkpt lat="38.846699" lon="-6.485800"><ele>1637</ele><speed>48.48</speed><time>2017-07-01T13:52:58Z</time><course>232</course><type>1</type></trkpt>
      <trkpt lat="38.846733" lon="-6.486567"><ele>1638</ele><speed>47.96</speed><time>2017-07-01T13:53:03Z</time><course>306</course><type>1</type></trkpt>
      <trkpt lat="38.847015" lon="-6.486733"><ele>1644</ele><speed>24.86</speed><time>2017-07-01T13:53:08Z</time><course>12</course><type>1</type></trkpt>
      <trkpt lat="38.847015" lon="-6.486300"><ele>1641</ele><speed>27.03</speed><time>2017-07-01T13:53:13Z</time><course>118</course><type>1</type></trkpt>
      <trkpt lat="38.846550" lon="-6.486166"><ele>1642</ele><speed>38.2</speed><time>2017-07-01T13:53:18Z</time><course>194</course><type>1</type></trkpt>
      <trkpt lat="38.846134" lon="-6.486784"><ele>1641</ele><speed>50.99</speed><time>2017-07-01T13:53:23Z</time><course>254</course><type>1</type></trkpt>
      <trkpt lat="38.846100" lon="-6.487566"><ele>1645</ele><speed>48.89</speed><time>2017-07-01T13:53:28Z</time><course>278</course><type>1</type></trkpt>
      <trkpt lat="38.846249" lon="-6.488183"><ele>1645</ele><speed>40.32</speed><time>2017-07-01T13:53:33Z</time><course>320</course><type>1</type></trkpt>
      <trkpt lat="38.846600" lon="-6.488133"><ele>1644</ele><speed>28.31</speed><time>2017-07-01T13:53:38Z</time><course>18</course><type>1</type></trkpt>
      <trkpt lat="38.846699" lon="-6.487817"><ele>1643</ele><speed>21.26</speed><time>2017-07-01T13:53:43Z</time><course>122</course><type>1</type></trkpt>
      <trkpt lat="38.846169" lon="-6.487783"><ele>1643</ele><speed>42.53</speed><time>2017-07-01T13:53:48Z</time><course>202</course><type>1</type></trkpt>
      <trkpt lat="38.845684" lon="-6.488383"><ele>1637</ele><speed>53.98</speed><time>2017-07-01T13:53:53Z</time><course>236</course><type>1</type></trkpt>
      <trkpt lat="38.845417" lon="-6.489100"><ele>1641</ele><speed>49.61</speed><time>2017-07-01T13:53:58Z</time><course>258</course><type>1</type></trkpt>
      <trkpt lat="38.845718" lon="-6.489400"><ele>1636</ele><speed>30.54</speed><time>2017-07-01T13:54:03Z</time><course>44</course><type>1</type></trkpt>
      <trkpt lat="38.845501" lon="-6.489067"><ele>1637</ele><speed>27.1</speed><time>2017-07-01T13:54:08Z</time><course>170</course><type>1</type></trkpt>
      <trkpt lat="38.844898" lon="-6.489033"><ele>1630</ele><speed>48.38</speed><time>2017-07-01T13:54:13Z</time><course>178</course><type>1</type></trkpt>
      <trkpt lat="38.844318" lon="-6.489000"><ele>1629</ele><speed>46.53</speed><time>2017-07-01T13:54:18Z</time><course>180</course><type>1</type></trkpt>
      <trkpt lat="38.843716" lon="-6.489284"><ele>1631</ele><speed>51.4</speed><time>2017-07-01T13:54:23Z</time><course>222</course><type>1</type></trkpt>
      <trkpt lat="38.843735" lon="-6.490050"><ele>1631</ele><speed>47.84</speed><time>2017-07-01T13:54:28Z</time><course>306</course><type>1</type></trkpt>
      <trkpt lat="38.843983" lon="-6.490417"><ele>1631</ele><speed>30.33</speed><time>2017-07-01T13:54:33Z</time><course>352</course><type>1</type></trkpt>
      <trkpt lat="38.844002" lon="-6.490083"><ele>1633</ele><speed>20.91</speed><time>2017-07-01T13:54:38Z</time><course>150</course><type>1</type></trkpt>
      <trkpt lat="38.843132" lon="-6.491017"><ele>1631</ele><speed>45.45</speed><time>2017-07-01T13:54:48Z</time><course>258</course><type>1</type></trkpt>
      <trkpt lat="38.843166" lon="-6.491833"><ele>1631</ele><speed>51.01</speed><time>2017-07-01T13:54:53Z</time><course>278</course><type>1</type></trkpt>
      <trkpt lat="38.843418" lon="-6.492133"><ele>1630</ele><speed>27.54</speed><time>2017-07-01T13:54:58Z</time><course>18</course><type>1</type></trkpt>
      <trkpt lat="38.843117" lon="-6.491783"><ele>1637</ele><speed>32.55</speed><time>2017-07-01T13:55:03Z</time><course>182</course><type>1</type></trkpt>
      <trkpt lat="38.842518" lon="-6.492317"><ele>1634</ele><speed>58.45</speed><time>2017-07-01T13:55:08Z</time><course>242</course><type>1</type></trkpt>
      <trkpt lat="38.842533" lon="-6.493067"><ele>1641</ele><speed>46.84</speed><time>2017-07-01T13:55:13Z</time><course>276</course><type>1</type></trkpt>
      <trkpt lat="38.842785" lon="-6.493233"><ele>1636</ele><speed>22.7</speed><time>2017-07-01T13:55:18Z</time><course>36</course><type>1</type></trkpt>
      <trkpt lat="38.842701" lon="-6.492933"><ele>1638</ele><speed>19.9</speed><time>2017-07-01T13:55:23Z</time><course>146</course><type>1</type></trkpt>
      <trkpt lat="38.842117" lon="-6.493033"><ele>1635</ele><speed>47.22</speed><time>2017-07-01T13:55:28Z</time><course>218</course><type>1</type></trkpt>
      <trkpt lat="38.841835" lon="-6.493917"><ele>1635</ele><speed>59.63</speed><time>2017-07-01T13:55:33Z</time><course>248</course><type>1</type></trkpt>
      <trkpt lat="38.841667" lon="-6.494817"><ele>1644</ele><speed>57.78</speed><time>2017-07-01T13:55:38Z</time><course>264</course><type>1</type></trkpt>
      <trkpt lat="38.841782" lon="-6.495433"><ele>1658</ele><speed>39.54</speed><time>2017-07-01T13:55:43Z</time><course>336</course><type>1</type></trkpt>
      <trkpt lat="38.841850" lon="-6.495150"><ele>1673</ele><speed>18.49</speed><time>2017-07-01T13:55:48Z</time><course>154</course><type>1</type></trkpt>
      <trkpt lat="38.841351" lon="-6.495500"><ele>1678</ele><speed>45.57</speed><time>2017-07-01T13:55:53Z</time><course>250</course><type>1</type></trkpt>
      <trkpt lat="38.841549" lon="-6.496117"><ele>1695</ele><speed>41.66</speed><time>2017-07-01T13:55:58Z</time><course>328</course><type>1</type></trkpt>
      <trkpt lat="38.841648" lon="-6.495883"><ele>1705</ele><speed>16.62</speed><time>2017-07-01T13:56:03Z</time><course>134</course><type>1</type></trkpt>
      <trkpt lat="38.841099" lon="-6.496167"><ele>1708</ele><speed>47.44</speed><time>2017-07-01T13:56:08Z</time><course>236</course><type>1</type></trkpt>
      <trkpt lat="38.841015" lon="-6.496917"><ele>1724</ele><speed>47.3</speed><time>2017-07-01T13:56:13Z</time><course>294</course><type>1</type></trkpt>
      <trkpt lat="38.841267" lon="-6.496833"><ele>1735</ele><speed>20.87</speed><time>2017-07-01T13:56:18Z</time><course>112</course><type>1</type></trkpt>
      <trkpt lat="38.840717" lon="-6.496850"><ele>1741</ele><speed>44.1</speed><time>2017-07-01T13:56:23Z</time><course>214</course><type>1</type></trkpt>
      <trkpt lat="38.840466" lon="-6.497550"><ele>1753</ele><speed>48.11</speed><time>2017-07-01T13:56:28Z</time><course>278</course><type>1</type></trkpt>
      <trkpt lat="38.840816" lon="-6.497667"><ele>1760</ele><speed>28.99</speed><time>2017-07-01T13:56:33Z</time><course>62</course><type>1</type></trkpt>
      <trkpt lat="38.840450" lon="-6.497433"><ele>1768</ele><speed>32.77</speed><time>2017-07-01T13:56:38Z</time><course>194</course><type>1</type></trkpt>
      <trkpt lat="38.840118" lon="-6.498150"><ele>1775</ele><speed>52.07</speed><time>2017-07-01T13:56:43Z</time><course>272</course><type>1</type></trkpt>
      <trkpt lat="38.840351" lon="-6.498533"><ele>1780</ele><speed>30.34</speed><time>2017-07-01T13:56:48Z</time><course>6</course><type>1</type></trkpt>
      <trkpt lat="38.840549" lon="-6.498217"><ele>1787</ele><speed>25.32</speed><time>2017-07-01T13:56:53Z</time><course>70</course><type>1</type></trkpt>
      <trkpt lat="38.840134" lon="-6.498067"><ele>1782</ele><speed>34.56</speed><time>2017-07-01T13:56:58Z</time><course>196</course><type>1</type></trkpt>
      <trkpt lat="38.839649" lon="-6.498683"><ele>1788</ele><speed>54.68</speed><time>2017-07-01T13:57:03Z</time><course>240</course><type>1</type></trkpt>
      <trkpt lat="38.839466" lon="-6.499567"><ele>1794</ele><speed>57.1</speed><time>2017-07-01T13:57:08Z</time><course>264</course><type>1</type></trkpt>
      <trkpt lat="38.839668" lon="-6.500183"><ele>1800</ele><speed>41.73</speed><time>2017-07-01T13:57:13Z</time><course>346</course><type>1</type></trkpt>
      <trkpt lat="38.839550" lon="-6.499917"><ele>1806</ele><speed>19.11</speed><time>2017-07-01T13:57:18Z</time><course>176</course><type>1</type></trkpt>
      <trkpt lat="38.839016" lon="-6.500400"><ele>1814</ele><speed>52.36</speed><time>2017-07-01T13:57:23Z</time><course>236</course><type>1</type></trkpt>
      <trkpt lat="38.838818" lon="-6.501266"><ele>1823</ele><speed>56.35</speed><time>2017-07-01T13:57:28Z</time><course>266</course><type>1</type></trkpt>
      <trkpt lat="38.839134" lon="-6.501833"><ele>1834</ele><speed>43.53</speed><time>2017-07-01T13:57:33Z</time><course>324</course><type>1</type></trkpt>
      <trkpt lat="38.839382" lon="-6.501750"><ele>1838</ele><speed>20.54</speed><time>2017-07-01T13:57:38Z</time><course>88</course><type>1</type></trkpt>
      <trkpt lat="38.838932" lon="-6.501650"><ele>1845</ele><speed>36.6</speed><time>2017-07-01T13:57:43Z</time><course>212</course><type>1</type></trkpt>
      <trkpt lat="38.838600" lon="-6.502417"><ele>1852</ele><speed>54.78</speed><time>2017-07-01T13:57:48Z</time><course>254</course><type>1</type></trkpt>
      <trkpt lat="38.839050" lon="-6.503217"><ele>1866</ele><speed>30.8</speed><time>2017-07-01T13:57:58Z</time><course>16</course><type>1</type></trkpt>
      <trkpt lat="38.838917" lon="-6.502867"><ele>1862</ele><speed>24.31</speed><time>2017-07-01T13:58:03Z</time><course>162</course><type>1</type></trkpt>
      <trkpt lat="38.838402" lon="-6.503117"><ele>1868</ele><speed>44.13</speed><time>2017-07-01T13:58:08Z</time><course>220</course><type>1</type></trkpt>
      <trkpt lat="38.838184" lon="-6.503833"><ele>1871</ele><speed>47.99</speed><time>2017-07-01T13:58:13Z</time><course>274</course><type>1</type></trkpt>
      <trkpt lat="38.838516" lon="-6.504250"><ele>1872</ele><speed>37.23</speed><time>2017-07-01T13:58:18Z</time><course>2</course><type>1</type></trkpt>
      <trkpt lat="38.838665" lon="-6.503917"><ele>1873</ele><speed>23.98</speed><time>2017-07-01T13:58:23Z</time><course>104</course><type>1</type></trkpt>
      <trkpt lat="38.838299" lon="-6.503684"><ele>1875</ele><speed>32.74</speed><time>2017-07-01T13:58:28Z</time><course>168</course><type>1</type></trkpt>
      <trkpt lat="38.837784" lon="-6.503967"><ele>1876</ele><speed>44.9</speed><time>2017-07-01T13:58:33Z</time><course>224</course><type>1</type></trkpt>
      <trkpt lat="38.837433" lon="-6.504766"><ele>1879</ele><speed>57.27</speed><time>2017-07-01T13:58:38Z</time><course>244</course><type>1</type></trkpt>
      <trkpt lat="38.837185" lon="-6.505617"><ele>1885</ele><speed>56.73</speed><time>2017-07-01T13:58:43Z</time><course>254</course><type>1</type></trkpt>
      <trkpt lat="38.837234" lon="-6.506350"><ele>1893</ele><speed>45.93</speed><time>2017-07-01T13:58:48Z</time><course>308</course><type>1</type></trkpt>
      <trkpt lat="38.837433" lon="-6.506183"><ele>1895</ele><speed>19.06</speed><time>2017-07-01T13:58:53Z</time><course>120</course><type>1</type></trkpt>
      <trkpt lat="38.836933" lon="-6.506200"><ele>1895</ele><speed>40.09</speed><time>2017-07-01T13:58:58Z</time><course>202</course><type>1</type></trkpt>
      <trkpt lat="38.836449" lon="-6.506800"><ele>1904</ele><speed>53.93</speed><time>2017-07-01T13:59:03Z</time><course>242</course><type>1</type></trkpt>
      <trkpt lat="38.836582" lon="-6.507550"><ele>1911</ele><speed>48.02</speed><time>2017-07-01T13:59:08Z</time><course>314</course><type>1</type></trkpt>
      <trkpt lat="38.836765" lon="-6.507467"><ele>1917</ele><speed>15.56</speed><time>2017-07-01T13:59:13Z</time><course>110</course><type>1</type></trkpt>
      <trkpt lat="38.836315" lon="-6.507317"><ele>1923</ele><speed>37.26</speed><time>2017-07-01T13:59:18Z</time><course>192</course><type>1</type></trkpt>
      <trkpt lat="38.835785" lon="-6.507817"><ele>1930</ele><speed>52.72</speed><time>2017-07-01T13:59:23Z</time><course>226</course><type>1</type></trkpt>
      <trkpt lat="38.835632" lon="-6.508567"><ele>1934</ele><speed>48.4</speed><time>2017-07-01T13:59:28Z</time><course>290</course><type>1</type></trkpt>
      <trkpt lat="38.836018" lon="-6.508767"><ele>1935</ele><speed>33.36</speed><time>2017-07-01T13:59:33Z</time><course>352</course><type>1</type></trkpt>
      <trkpt lat="38.836216" lon="-6.508733"><ele>1938</ele><speed>16.01</speed><time>2017-07-01T13:59:38Z</time><course>100</course><type>1</type></trkpt>
      <trkpt lat="38.835716" lon="-6.508616"><ele>1941</ele><speed>40.74</speed><time>2017-07-01T13:59:43Z</time><course>196</course><type>1</type></trkpt>
      <trkpt lat="38.835335" lon="-6.509133"><ele>1945</ele><speed>44.43</speed><time>2017-07-01T13:59:48Z</time><course>262</course><type>1</type></trkpt>
      <trkpt lat="38.835583" lon="-6.509783"><ele>1951</ele><speed>45.19</speed><time>2017-07-01T13:59:53Z</time><course>310</course><type>1</type></trkpt>
      <trkpt lat="38.835667" lon="-6.509617"><ele>1948</ele><speed>12.36</speed><time>2017-07-01T13:59:58Z</time><course>104</course><type>1</type></trkpt>
      <trkpt lat="38.835217" lon="-6.509483"><ele>1951</ele><speed>37.03</speed><time>2017-07-01T14:00:03Z</time><course>186</course><type>1</type></trkpt>
      <trkpt lat="38.834667" lon="-6.509700"><ele>1951</ele><speed>46.12</speed><time>2017-07-01T14:00:08Z</time><course>200</course><type>1</type></trkpt>
      <trkpt lat="38.834118" lon="-6.509967"><ele>1947</ele><speed>47.05</speed><time>2017-07-01T14:00:13Z</time><course>198</course><type>1</type></trkpt>
      <trkpt lat="38.833416" lon="-6.510300"><ele>1936</ele><speed>59.98</speed><time>2017-07-01T14:00:18Z</time><course>196</course><type>1</type></trkpt>
      <trkpt lat="38.832699" lon="-6.510533"><ele>1938</ele><speed>59.28</speed><time>2017-07-01T14:00:23Z</time><course>196</course><type>1</type></trkpt>
      <trkpt lat="38.831882" lon="-6.510833"><ele>1937</ele><speed>68.11</speed><time>2017-07-01T14:00:28Z</time><course>198</course><type>1</type></trkpt>
      <trkpt lat="38.831348" lon="-6.511333"><ele>1944</ele><speed>52.98</speed><time>2017-07-01T14:00:33Z</time><course>242</course><type>1</type></trkpt>
      <trkpt lat="38.831348" lon="-6.512217"><ele>1959</ele><speed>55.19</speed><time>2017-07-01T14:00:38Z</time><course>284</course><type>1</type></trkpt>
      <trkpt lat="38.831635" lon="-6.512350"><ele>1958</ele><speed>24.46</speed><time>2017-07-01T14:00:43Z</time><course>66</course><type>1</type></trkpt>
      <trkpt lat="38.831249" lon="-6.512133"><ele>1962</ele><speed>33.77</speed><time>2017-07-01T14:00:48Z</time><course>180</course><type>1</type></trkpt>
      <trkpt lat="38.830284" lon="-6.513067"><ele>1980</ele><speed>48.43</speed><time>2017-07-01T14:00:58Z</time><course>276</course><type>1</type></trkpt>
      <trkpt lat="38.830635" lon="-6.513550"><ele>1992</ele><speed>41.24</speed><time>2017-07-01T14:01:03Z</time><course>314</course><type>1</type></trkpt>
      <trkpt lat="38.830666" lon="-6.513450"><ele>1999</ele><speed>6.72</speed><time>2017-07-01T14:01:08Z</time><course>144</course><type>1</type></trkpt>
      <trkpt lat="38.830101" lon="-6.513916"><ele>2009</ele><speed>53.83</speed><time>2017-07-01T14:01:13Z</time><course>248</course><type>1</type></trkpt>
      <trkpt lat="38.830250" lon="-6.514633"><ele>2019</ele><speed>46.33</speed><time>2017-07-01T14:01:18Z</time><course>308</course><type>1</type></trkpt>
      <trkpt lat="38.830448" lon="-6.514817"><ele>2032</ele><speed>19.59</speed><time>2017-07-01T14:01:23Z</time><course>54</course><type>1</type></trkpt>
      <trkpt lat="38.829933" lon="-6.514650"><ele>2040</ele><speed>42.57</speed><time>2017-07-01T14:01:28Z</time><course>200</course><type>1</type></trkpt>
      <trkpt lat="38.829533" lon="-6.515450"><ele>2050</ele><speed>59.35</speed><time>2017-07-01T14:01:33Z</time><course>264</course><type>1</type></trkpt>
      <trkpt lat="38.829750" lon="-6.516083"><ele>2064</ele><speed>43.18</speed><time>2017-07-01T14:01:38Z</time><course>320</course><type>1</type></trkpt>
      <trkpt lat="38.829815" lon="-6.515950"><ele>2072</ele><speed>9.8</speed><time>2017-07-01T14:01:43Z</time><course>138</course><type>1</type></trkpt>
      <trkpt lat="38.829235" lon="-6.516133"><ele>2081</ele><speed>47.87</speed><time>2017-07-01T14:01:48Z</time><course>226</course><type>1</type></trkpt>
      <trkpt lat="38.829166" lon="-6.516933"><ele>2092</ele><speed>50.26</speed><time>2017-07-01T14:01:53Z</time><course>302</course><type>1</type></trkpt>
      <trkpt lat="38.829350" lon="-6.516917"><ele>2104</ele><speed>14.78</speed><time>2017-07-01T14:01:58Z</time><course>106</course><type>1</type></trkpt>
      <trkpt lat="38.828884" lon="-6.516800"><ele>2113</ele><speed>38.06</speed><time>2017-07-01T14:02:03Z</time><course>192</course><type>1</type></trkpt>
      <trkpt lat="38.828300" lon="-6.517383"><ele>2123</ele><speed>59.3</speed><time>2017-07-01T14:02:08Z</time><course>234</course><type>1</type></trkpt>
      <trkpt lat="38.828201" lon="-6.518300"><ele>2134</ele><speed>57.8</speed><time>2017-07-01T14:02:13Z</time><course>280</course><type>1</type></trkpt>
      <trkpt lat="38.828468" lon="-6.518767"><ele>2151</ele><speed>36.17</speed><time>2017-07-01T14:02:18Z</time><course>334</course><type>1</type></trkpt>
      <trkpt lat="38.828583" lon="-6.518650"><ele>2169</ele><speed>11.76</speed><time>2017-07-01T14:02:23Z</time><course>138</course><type>1</type></trkpt>
      <trkpt lat="38.827965" lon="-6.518867"><ele>2175</ele><speed>51.35</speed><time>2017-07-01T14:02:28Z</time><course>222</course><type>1</type></trkpt>
      <trkpt lat="38.827702" lon="-6.519700"><ele>2188</ele><speed>56.12</speed><time>2017-07-01T14:02:33Z</time><course>266</course><type>1</type></trkpt>
      <trkpt lat="38.827801" lon="-6.520417"><ele>2208</ele><speed>45.47</speed><time>2017-07-01T14:02:38Z</time><course>298</course><type>1</type></trkpt>
      <trkpt lat="38.827934" lon="-6.520300"><ele>2217</ele><speed>12.92</speed><time>2017-07-01T14:02:43Z</time><course>126</course><type>1</type></trkpt>
      <trkpt lat="38.827400" lon="-6.520300"><ele>2235</ele><speed>42.8</speed><time>2017-07-01T14:02:48Z</time><course>208</course><type>1</type></trkpt>
      <trkpt lat="38.827015" lon="-6.521083"><ele>2248</ele><speed>57.81</speed><time>2017-07-01T14:02:53Z</time><course>254</course><type>1</type></trkpt>
      <trkpt lat="38.827202" lon="-6.521717"><ele>2258</ele><speed>42.33</speed><time>2017-07-01T14:02:58Z</time><course>336</course><type>1</type></trkpt>
      <trkpt lat="38.827415" lon="-6.521567"><ele>2270</ele><speed>19.47</speed><time>2017-07-01T14:03:03Z</time><course>72</course><type>1</type></trkpt>
      <trkpt lat="38.827000" lon="-6.521500"><ele>2275</ele><speed>33.52</speed><time>2017-07-01T14:03:08Z</time><course>204</course><type>1</type></trkpt>
      <trkpt lat="38.826618" lon="-6.522267"><ele>2286</ele><speed>56.84</speed><time>2017-07-01T14:03:13Z</time><course>254</course><type>1</type></trkpt>
      <trkpt lat="38.826801" lon="-6.522900"><ele>2290</ele><speed>42.16</speed><time>2017-07-01T14:03:18Z</time><course>326</course><type>1</type></trkpt>
      <trkpt lat="38.827068" lon="-6.522833"><ele>2301</ele><speed>21.81</speed><time>2017-07-01T14:03:23Z</time><course>38</course><type>1</type></trkpt>
      <trkpt lat="38.826717" lon="-6.522717"><ele>2304</ele><speed>29.05</speed><time>2017-07-01T14:03:28Z</time><course>192</course><type>1</type></trkpt>
      <trkpt lat="38.826283" lon="-6.524300"><ele>2313</ele><speed>52.39</speed><time>2017-07-01T14:03:38Z</time><course>288</course><type>1</type></trkpt>
      <trkpt lat="38.826633" lon="-6.524900"><ele>2317</ele><speed>46.8</speed><time>2017-07-01T14:03:43Z</time><course>330</course><type>1</type></trkpt>
      <trkpt lat="38.826885" lon="-6.524950"><ele>2322</ele><speed>20.44</speed><time>2017-07-01T14:03:48Z</time><course>40</course><type>1</type></trkpt>
      <trkpt lat="38.826668" lon="-6.524800"><ele>2328</ele><speed>19.75</speed><time>2017-07-01T14:03:53Z</time><course>180</course><type>1</type></trkpt>
      <trkpt lat="38.826065" lon="-6.525150"><ele>2334</ele><speed>53.04</speed><time>2017-07-01T14:03:58Z</time><course>210</course><type>1</type></trkpt>
      <trkpt lat="38.825768" lon="-6.525967"><ele>2330</ele><speed>56.3</speed><time>2017-07-01T14:04:03Z</time><course>280</course><type>1</type></trkpt>
      <trkpt lat="38.826118" lon="-6.526350"><ele>2332</ele><speed>36.86</speed><time>2017-07-01T14:04:08Z</time><course>8</course><type>1</type></trkpt>
      <trkpt lat="38.826317" lon="-6.526150"><ele>2332</ele><speed>20.26</speed><time>2017-07-01T14:04:13Z</time><course>46</course><type>1</type></trkpt>
      <trkpt lat="38.826618" lon="-6.526617"><ele>2326</ele><speed>37.85</speed><time>2017-07-01T14:04:18Z</time><course>286</course><type>1</type></trkpt>
      <trkpt lat="38.825615" lon="-6.527817"><ele>2319</ele><speed>54.95</speed><time>2017-07-01T14:04:28Z</time><course>208</course><type>1</type></trkpt>
      <trkpt lat="38.825016" lon="-6.528150"><ele>2316</ele><speed>52.32</speed><time>2017-07-01T14:04:33Z</time><course>206</course><type>1</type></trkpt>
      <trkpt lat="38.824417" lon="-6.528717"><ele>2307</ele><speed>59.65</speed><time>2017-07-01T14:04:38Z</time><course>224</course><type>1</type></trkpt>
      <trkpt lat="38.823898" lon="-6.529433"><ele>2299</ele><speed>61.07</speed><time>2017-07-01T14:04:43Z</time><course>224</course><type>1</type></trkpt>
      <trkpt lat="38.823299" lon="-6.530083"><ele>2293</ele><speed>62.87</speed><time>2017-07-01T14:04:48Z</time><course>222</course><type>1</type></trkpt>
      <trkpt lat="38.822716" lon="-6.530667"><ele>2288</ele><speed>59.27</speed><time>2017-07-01T14:04:53Z</time><course>218</course><type>1</type></trkpt>
      <trkpt lat="38.822151" lon="-6.531384"><ele>2283</ele><speed>63.68</speed><time>2017-07-01T14:04:58Z</time><course>220</course><type>1</type></trkpt>
      <trkpt lat="38.821568" lon="-6.532117"><ele>2280</ele><speed>65.41</speed><time>2017-07-01T14:05:03Z</time><course>224</course><type>1</type></trkpt>
      <trkpt lat="38.820984" lon="-6.532917"><ele>2271</ele><speed>68.46</speed><time>2017-07-01T14:05:08Z</time><course>228</course><type>1</type></trkpt>
      <trkpt lat="38.820435" lon="-6.533700"><ele>2259</ele><speed>65.78</speed><time>2017-07-01T14:05:13Z</time><course>226</course><type>1</type></trkpt>
      <trkpt lat="38.819168" lon="-6.535400"><ele>2230</ele><speed>73.45</speed><time>2017-07-01T14:05:23Z</time><course>220</course><type>1</type></trkpt>
      <trkpt lat="38.818565" lon="-6.536133"><ele>2215</ele><speed>66.57</speed><time>2017-07-01T14:05:28Z</time><course>226</course><type>1</type></trkpt>
      <trkpt lat="38.818001" lon="-6.537017"><ele>2201</ele><speed>71.35</speed><time>2017-07-01T14:05:33Z</time><course>232</course><type>1</type></trkpt>
      <trkpt lat="38.817516" lon="-6.537883"><ele>2186</ele><speed>66.6</speed><time>2017-07-01T14:05:38Z</time><course>236</course><type>1</type></trkpt>
      <trkpt lat="38.817066" lon="-6.538750"><ele>2179</ele><speed>65.06</speed><time>2017-07-01T14:05:43Z</time><course>232</course><type>1</type></trkpt>
      <trkpt lat="38.816502" lon="-6.539533"><ele>2174</ele><speed>66.59</speed><time>2017-07-01T14:05:48Z</time><course>228</course><type>1</type></trkpt>
      <trkpt lat="38.815968" lon="-6.540383"><ele>2165</ele><speed>68.19</speed><time>2017-07-01T14:05:53Z</time><course>232</course><type>1</type></trkpt>
      <trkpt lat="38.815498" lon="-6.541283"><ele>2161</ele><speed>67.66</speed><time>2017-07-01T14:05:58Z</time><course>238</course><type>1</type></trkpt>
      <trkpt lat="38.814884" lon="-6.542483"><ele>2144</ele><speed>74.71</speed><time>2017-07-01T14:06:04Z</time><course>232</course><type>1</type></trkpt>
      <trkpt lat="38.813717" lon="-6.543933"><ele>2141</ele><speed>65.09</speed><time>2017-07-01T14:06:14Z</time><course>226</course><type>1</type></trkpt>
      <trkpt lat="38.813183" lon="-6.544683"><ele>2134</ele><speed>63.45</speed><time>2017-07-01T14:06:19Z</time><course>224</course><type>1</type></trkpt>
      <trkpt lat="38.812565" lon="-6.545300"><ele>2122</ele><speed>62.76</speed><time>2017-07-01T14:06:24Z</time><course>210</course><type>1</type></trkpt>
      <trkpt lat="38.811932" lon="-6.545417"><ele>2113</ele><speed>51.26</speed><time>2017-07-01T14:06:29Z</time><course>178</course><type>1</type></trkpt>
      <trkpt lat="38.811298" lon="-6.545350"><ele>2106</ele><speed>50.99</speed><time>2017-07-01T14:06:34Z</time><course>174</course><type>1</type></trkpt>
      <trkpt lat="38.810719" lon="-6.545217"><ele>2104</ele><speed>47.14</speed><time>2017-07-01T14:06:39Z</time><course>166</course><type>1</type></trkpt>
      <trkpt lat="38.810135" lon="-6.544983"><ele>2091</ele><speed>49.04</speed><time>2017-07-01T14:06:44Z</time><course>154</course><type>1</type></trkpt>
      <trkpt lat="38.809483" lon="-6.544550"><ele>2080</ele><speed>58.84</speed><time>2017-07-01T14:06:49Z</time><course>154</course><type>1</type></trkpt>
      <trkpt lat="38.808800" lon="-6.544217"><ele>2075</ele><speed>58.56</speed><time>2017-07-01T14:06:54Z</time><course>158</course><type>1</type></trkpt>
      <trkpt lat="38.808067" lon="-6.543883"><ele>2079</ele><speed>62.34</speed><time>2017-07-01T14:06:59Z</time><course>156</course><type>1</type></trkpt>
      <trkpt lat="38.807232" lon="-6.544683"><ele>2092</ele><speed>41.76</speed><time>2017-07-01T14:07:09Z</time><course>270</course><type>1</type></trkpt>
      <trkpt lat="38.807434" lon="-6.545000"><ele>2097</ele><speed>25.58</speed><time>2017-07-01T14:07:14Z</time><course>10</course><type>1</type></trkpt>
      <trkpt lat="38.807400" lon="-6.544717"><ele>2103</ele><speed>17.88</speed><time>2017-07-01T14:07:19Z</time><course>146</course><type>1</type></trkpt>
      <trkpt lat="38.806850" lon="-6.544850"><ele>2103</ele><speed>44.86</speed><time>2017-07-01T14:07:24Z</time><course>222</course><type>1</type></trkpt>
      <trkpt lat="38.806702" lon="-6.545800"><ele>2107</ele><speed>60.51</speed><time>2017-07-01T14:07:29Z</time><course>274</course><type>1</type></trkpt>
      <trkpt lat="38.806934" lon="-6.546017"><ele>2107</ele><speed>23.01</speed><time>2017-07-01T14:07:34Z</time><course>42</course><type>1</type></trkpt>
      <trkpt lat="38.806618" lon="-6.545784"><ele>2116</ele><speed>29.21</speed><time>2017-07-01T14:07:39Z</time><course>186</course><type>1</type></trkpt>
      <trkpt lat="38.806118" lon="-6.546417"><ele>2116</ele><speed>56.29</speed><time>2017-07-01T14:07:44Z</time><course>248</course><type>1</type></trkpt>
      <trkpt lat="38.805950" lon="-6.547333"><ele>2122</ele><speed>58.78</speed><time>2017-07-01T14:07:49Z</time><course>266</course><type>1</type></trkpt>
      <trkpt lat="38.806183" lon="-6.547800"><ele>2126</ele><speed>34.63</speed><time>2017-07-01T14:07:54Z</time><course>356</course><type>1</type></trkpt>
      <trkpt lat="38.806118" lon="-6.547517"><ele>2131</ele><speed>18.43</speed><time>2017-07-01T14:07:59Z</time><course>148</course><type>1</type></trkpt>
      <trkpt lat="38.805515" lon="-6.547583"><ele>2135</ele><speed>48.51</speed><time>2017-07-01T14:08:04Z</time><course>206</course><type>1</type></trkpt>
      <trkpt lat="38.805099" lon="-6.548400"><ele>2138</ele><speed>60.96</speed><time>2017-07-01T14:08:09Z</time><course>256</course><type>1</type></trkpt>
      <trkpt lat="38.805016" lon="-6.549284"><ele>2148</ele><speed>55.61</speed><time>2017-07-01T14:08:14Z</time><course>274</course><type>1</type></trkpt>
      <trkpt lat="38.805302" lon="-6.549617"><ele>2152</ele><speed>30.95</speed><time>2017-07-01T14:08:19Z</time><course>340</course><type>1</type></trkpt>
      <trkpt lat="38.805584" lon="-6.549700"><ele>2153</ele><speed>23.19</speed><time>2017-07-01T14:08:24Z</time><course>12</course><type>1</type></trkpt>
      <trkpt lat="38.805752" lon="-6.549533"><ele>2155</ele><speed>17.03</speed><time>2017-07-01T14:08:29Z</time><course>54</course><type>1</type></trkpt>
      <trkpt lat="38.805782" lon="-6.549183"><ele>2160</ele><speed>21.99</speed><time>2017-07-01T14:08:34Z</time><course>96</course><type>1</type></trkpt>
      <trkpt lat="38.805416" lon="-6.548934"><ele>2162</ele><speed>33.2</speed><time>2017-07-01T14:08:39Z</time><course>176</course><type>1</type></trkpt>
      <trkpt lat="38.804783" lon="-6.548900"><ele>2168</ele><speed>50.78</speed><time>2017-07-01T14:08:44Z</time><course>178</course><type>1</type></trkpt>
      <trkpt lat="38.804367" lon="-6.549550"><ele>2169</ele><speed>52.54</speed><time>2017-07-01T14:08:49Z</time><course>270</course><type>1</type></trkpt>
      <trkpt lat="38.804565" lon="-6.549767"><ele>2169</ele><speed>20.87</speed><time>2017-07-01T14:08:54Z</time><course>42</course><type>1</type></trkpt>
      <trkpt lat="38.804333" lon="-6.549350"><ele>2173</ele><speed>32</speed><time>2017-07-01T14:08:59Z</time><course>146</course><type>1</type></trkpt>
      <trkpt lat="38.803932" lon="-6.548934"><ele>2175</ele><speed>41.33</speed><time>2017-07-01T14:09:04Z</time><course>150</course><type>1</type></trkpt>
      <trkpt lat="38.803467" lon="-6.548733"><ele>2179</ele><speed>39.33</speed><time>2017-07-01T14:09:09Z</time><course>152</course><type>1</type></trkpt>
      <trkpt lat="38.802952" lon="-6.548567"><ele>2177</ele><speed>42.56</speed><time>2017-07-01T14:09:14Z</time><course>166</course><type>1</type></trkpt>
      <trkpt lat="38.802448" lon="-6.548350"><ele>2164</ele><speed>42.61</speed><time>2017-07-01T14:09:19Z</time><course>166</course><type>1</type></trkpt>
      <trkpt lat="38.801815" lon="-6.547983"><ele>2143</ele><speed>55.67</speed><time>2017-07-01T14:09:24Z</time><course>156</course><type>1</type></trkpt>
      <trkpt lat="38.801182" lon="-6.547600"><ele>2131</ele><speed>56.09</speed><time>2017-07-01T14:09:29Z</time><course>150</course><type>1</type></trkpt>
      <trkpt lat="38.799900" lon="-6.546783"><ele>2097</ele><speed>57.36</speed><time>2017-07-01T14:09:39Z</time><course>154</course><type>1</type></trkpt>
      <trkpt lat="38.799217" lon="-6.546317"><ele>2084</ele><speed>62</speed><time>2017-07-01T14:09:44Z</time><course>152</course><type>1</type></trkpt>
      <trkpt lat="38.798599" lon="-6.545866"><ele>2078</ele><speed>56.98</speed><time>2017-07-01T14:09:49Z</time><course>146</course><type>1</type></trkpt>
      <trkpt lat="38.798084" lon="-6.545434"><ele>2073</ele><speed>49.32</speed><time>2017-07-01T14:09:54Z</time><course>146</course><type>1</type></trkpt>
      <trkpt lat="38.797565" lon="-6.545067"><ele>2059</ele><speed>47.5</speed><time>2017-07-01T14:09:59Z</time><course>150</course><type>1</type></trkpt>
      <trkpt lat="38.797001" lon="-6.544667"><ele>2044</ele><speed>51.65</speed><time>2017-07-01T14:10:04Z</time><course>148</course><type>1</type></trkpt>
      <trkpt lat="38.796482" lon="-6.544367"><ele>2036</ele><speed>45.62</speed><time>2017-07-01T14:10:09Z</time><course>162</course><type>1</type></trkpt>
      <trkpt lat="38.796001" lon="-6.544083"><ele>2008</ele><speed>42.44</speed><time>2017-07-01T14:10:14Z</time><course>144</course><type>1</type></trkpt>
      <trkpt lat="38.795532" lon="-6.543617"><ele>1998</ele><speed>47.54</speed><time>2017-07-01T14:10:19Z</time><course>144</course><type>1</type></trkpt>
      <trkpt lat="38.795265" lon="-6.543417"><ele>2000</ele><speed>24.78</speed><time>2017-07-01T14:10:24Z</time><course>148</course><type>1</type></trkpt>
      <trkpt lat="38.794983" lon="-6.543217"><ele>1991</ele><speed>25.83</speed><time>2017-07-01T14:10:29Z</time><course>154</course><type>1</type></trkpt>
      <trkpt lat="38.794533" lon="-6.542833"><ele>1975</ele><speed>43.32</speed><time>2017-07-01T14:10:34Z</time><course>144</course><type>1</type></trkpt>
      <trkpt lat="38.793652" lon="-6.542083"><ele>1974</ele><speed>42.37</speed><time>2017-07-01T14:10:44Z</time><course>144</course><type>1</type></trkpt>
      <trkpt lat="38.793266" lon="-6.541850"><ele>1972</ele><speed>34.19</speed><time>2017-07-01T14:10:49Z</time><course>160</course><type>1</type></trkpt>
      <trkpt lat="38.792816" lon="-6.541483"><ele>1957</ele><speed>42.74</speed><time>2017-07-01T14:10:54Z</time><course>144</course><type>1</type></trkpt>
      <trkpt lat="38.792400" lon="-6.541150"><ele>1947</ele><speed>39.3</speed><time>2017-07-01T14:10:59Z</time><course>152</course><type>1</type></trkpt>
      <trkpt lat="38.791866" lon="-6.540783"><ele>1935</ele><speed>48.55</speed><time>2017-07-01T14:11:04Z</time><course>144</course><type>1</type></trkpt>
      <trkpt lat="38.791382" lon="-6.540350"><ele>1928</ele><speed>47.29</speed><time>2017-07-01T14:11:09Z</time><course>142</course><type>1</type></trkpt>
      <trkpt lat="38.791050" lon="-6.540133"><ele>1933</ele><speed>29.86</speed><time>2017-07-01T14:11:14Z</time><course>154</course><type>1</type></trkpt>
      <trkpt lat="38.790684" lon="-6.539817"><ele>1928</ele><speed>35.36</speed><time>2017-07-01T14:11:19Z</time><course>154</course><type>1</type></trkpt>
      <trkpt lat="38.790333" lon="-6.539516"><ele>1927</ele><speed>33.84</speed><time>2017-07-01T14:11:24Z</time><course>138</course><type>1</type></trkpt>
      <trkpt lat="38.790066" lon="-6.539250"><ele>1932</ele><speed>27.09</speed><time>2017-07-01T14:11:29Z</time><course>146</course><type>1</type></trkpt>
      <trkpt lat="38.789883" lon="-6.539067"><ele>1928</ele><speed>18.6</speed><time>2017-07-01T14:11:34Z</time><course>110</course><type>1</type></trkpt>
      <trkpt lat="38.789967" lon="-6.538900"><ele>1923</ele><speed>7.76</speed><time>2017-07-01T14:11:42Z</time><course>66</course><type>1</type></trkpt>
      <trkpt lat="38.789501" lon="-6.538767"><ele>1904</ele><speed>38.26</speed><time>2017-07-01T14:11:47Z</time><course>178</course><type>1</type></trkpt>
      <trkpt lat="38.788898" lon="-6.538650"><ele>1895</ele><speed>48.88</speed><time>2017-07-01T14:11:52Z</time><course>178</course><type>1</type></trkpt>
      <trkpt lat="38.788349" lon="-6.538466"><ele>1896</ele><speed>45.48</speed><time>2017-07-01T14:11:57Z</time><course>168</course><type>1</type></trkpt>
      <trkpt lat="38.787666" lon="-6.538816"><ele>1909</ele><speed>58.95</speed><time>2017-07-01T14:12:02Z</time><course>222</course><type>1</type></trkpt>
      <trkpt lat="38.787716" lon="-6.539567"><ele>1916</ele><speed>47.09</speed><time>2017-07-01T14:12:07Z</time><course>338</course><type>1</type></trkpt>
      <trkpt lat="38.787434" lon="-6.539367"><ele>1933</ele><speed>25.83</speed><time>2017-07-01T14:12:12Z</time><course>180</course><type>1</type></trkpt>
      <trkpt lat="38.786949" lon="-6.540200"><ele>1947</ele><speed>64.96</speed><time>2017-07-01T14:12:17Z</time><course>258</course><type>1</type></trkpt>
      <trkpt lat="38.787067" lon="-6.540750"><ele>1962</ele><speed>35.64</speed><time>2017-07-01T14:12:22Z</time><course>348</course><type>1</type></trkpt>
      <trkpt lat="38.786617" lon="-6.540633"><ele>1975</ele><speed>36.8</speed><time>2017-07-01T14:12:27Z</time><course>204</course><type>1</type></trkpt>
      <trkpt lat="38.786266" lon="-6.541450"><ele>1993</ele><speed>58.28</speed><time>2017-07-01T14:12:32Z</time><course>280</course><type>1</type></trkpt>
      <trkpt lat="38.786400" lon="-6.541533"><ele>2005</ele><speed>11.93</speed><time>2017-07-01T14:12:37Z</time><course>142</course><type>1</type></trkpt>
      <trkpt lat="38.785782" lon="-6.541633"><ele>2019</ele><speed>49.93</speed><time>2017-07-01T14:12:42Z</time><course>214</course><type>1</type></trkpt>
      <trkpt lat="38.785618" lon="-6.542467"><ele>2030</ele><speed>53.74</speed><time>2017-07-01T14:12:47Z</time><course>304</course><type>1</type></trkpt>
      <trkpt lat="38.785683" lon="-6.542316"><ele>2040</ele><speed>10.78</speed><time>2017-07-01T14:12:52Z</time><course>154</course><type>1</type></trkpt>
      <trkpt lat="38.785099" lon="-6.542400"><ele>2059</ele><speed>47.1</speed><time>2017-07-01T14:12:57Z</time><course>204</course><type>1</type></trkpt>
      <trkpt lat="38.784935" lon="-6.543233"><ele>2066</ele><speed>53.68</speed><time>2017-07-01T14:13:02Z</time><course>306</course><type>1</type></trkpt>
      <trkpt lat="38.785049" lon="-6.543100"><ele>2078</ele><speed>12.35</speed><time>2017-07-01T14:13:07Z</time><course>118</course><type>1</type></trkpt>
      <trkpt lat="38.784618" lon="-6.543067"><ele>2093</ele><speed>34.61</speed><time>2017-07-01T14:13:12Z</time><course>198</course><type>1</type></trkpt>
      <trkpt lat="38.784317" lon="-6.543900"><ele>2103</ele><speed>57.36</speed><time>2017-07-01T14:13:17Z</time><course>288</course><type>1</type></trkpt>
      <trkpt lat="38.784515" lon="-6.543967"><ele>2119</ele><speed>16.41</speed><time>2017-07-01T14:13:22Z</time><course>88</course><type>1</type></trkpt>
      <trkpt lat="38.784115" lon="-6.543967"><ele>2124</ele><speed>32.06</speed><time>2017-07-01T14:13:27Z</time><course>198</course><type>1</type></trkpt>
      <trkpt lat="38.783699" lon="-6.544750"><ele>2134</ele><speed>59.2</speed><time>2017-07-01T14:13:32Z</time><course>266</course><type>1</type></trkpt>
      <trkpt lat="38.784065" lon="-6.545084"><ele>2144</ele><speed>36</speed><time>2017-07-01T14:13:37Z</time><course>6</course><type>1</type></trkpt>
      <trkpt lat="38.783985" lon="-6.545033"><ele>2163</ele><speed>7.16</speed><time>2017-07-01T14:13:42Z</time><course>164</course><type>1</type></trkpt>
      <trkpt lat="38.783417" lon="-6.546317"><ele>2179</ele><speed>46.12</speed><time>2017-07-01T14:13:52Z</time><course>300</course><type>1</type></trkpt>
      <trkpt lat="38.783699" lon="-6.546517"><ele>2186</ele><speed>25.83</speed><time>2017-07-01T14:13:57Z</time><course>38</course><type>1</type></trkpt>
      <trkpt lat="38.783566" lon="-6.546233"><ele>2193</ele><speed>20.7</speed><time>2017-07-01T14:14:02Z</time><course>154</course><type>1</type></trkpt>
      <trkpt lat="38.783031" lon="-6.546484"><ele>2200</ele><speed>45.66</speed><time>2017-07-01T14:14:07Z</time><course>238</course><type>1</type></trkpt>
      <trkpt lat="38.783115" lon="-6.547283"><ele>2212</ele><speed>50.37</speed><time>2017-07-01T14:14:12Z</time><course>318</course><type>1</type></trkpt>
      <trkpt lat="38.783382" lon="-6.547233"><ele>2218</ele><speed>21.63</speed><time>2017-07-01T14:14:17Z</time><course>74</course><type>1</type></trkpt>
      <trkpt lat="38.783066" lon="-6.547000"><ele>2219</ele><speed>29.21</speed><time>2017-07-01T14:14:22Z</time><course>188</course><type>1</type></trkpt>
      <trkpt lat="38.782452" lon="-6.547500"><ele>2228</ele><speed>58.29</speed><time>2017-07-01T14:14:27Z</time><course>222</course><type>1</type></trkpt>
      <trkpt lat="38.782383" lon="-6.548234"><ele>2228</ele><speed>46.19</speed><time>2017-07-01T14:14:32Z</time><course>314</course><type>1</type></trkpt>
      <trkpt lat="38.782616" lon="-6.548100"><ele>2233</ele><speed>20.47</speed><time>2017-07-01T14:14:37Z</time><course>102</course><type>1</type></trkpt>
      <trkpt lat="38.782215" lon="-6.547800"><ele>2237</ele><speed>37.21</speed><time>2017-07-01T14:14:42Z</time><course>170</course><type>1</type></trkpt>
      <trkpt lat="38.781567" lon="-6.547900"><ele>2232</ele><speed>52.31</speed><time>2017-07-01T14:14:47Z</time><course>190</course><type>1</type></trkpt>
      <trkpt lat="38.780918" lon="-6.548367"><ele>2230</ele><speed>59.64</speed><time>2017-07-01T14:14:52Z</time><course>214</course><type>1</type></trkpt>
      <trkpt lat="38.780399" lon="-6.548867"><ele>2234</ele><speed>52.02</speed><time>2017-07-01T14:14:57Z</time><course>232</course><type>1</type></trkpt>
      <trkpt lat="38.779884" lon="-6.549417"><ele>2231</ele><speed>53.71</speed><time>2017-07-01T14:15:02Z</time><course>204</course><type>1</type></trkpt>
      <trkpt lat="38.779232" lon="-6.549984"><ele>2229</ele><speed>63.13</speed><time>2017-07-01T14:15:07Z</time><course>206</course><type>1</type></trkpt>
      <trkpt lat="38.778515" lon="-6.550550"><ele>2215</ele><speed>67.48</speed><time>2017-07-01T14:15:12Z</time><course>210</course><type>1</type></trkpt>
      <trkpt lat="38.777748" lon="-6.551133"><ele>2192</ele><speed>71.46</speed><time>2017-07-01T14:15:17Z</time><course>212</course><type>1</type></trkpt>
      <trkpt lat="38.777016" lon="-6.551733"><ele>2180</ele><speed>69.63</speed><time>2017-07-01T14:15:22Z</time><course>214</course><type>1</type></trkpt>
      <trkpt lat="38.776333" lon="-6.552383"><ele>2171</ele><speed>68.16</speed><time>2017-07-01T14:15:27Z</time><course>216</course><type>1</type></trkpt>
      <trkpt lat="38.775684" lon="-6.552967"><ele>2155</ele><speed>63.54</speed><time>2017-07-01T14:15:32Z</time><course>212</course><type>1</type></trkpt>
      <trkpt lat="38.774967" lon="-6.553583"><ele>2159</ele><speed>69.17</speed><time>2017-07-01T14:15:37Z</time><course>216</course><type>1</type></trkpt>
      <trkpt lat="38.774265" lon="-6.554167"><ele>2147</ele><speed>67.06</speed><time>2017-07-01T14:15:42Z</time><course>210</course><type>1</type></trkpt>
      <trkpt lat="38.773567" lon="-6.554733"><ele>2141</ele><speed>66.19</speed><time>2017-07-01T14:15:47Z</time><course>210</course><type>1</type></trkpt>
      <trkpt lat="38.772835" lon="-6.555333"><ele>2136</ele><speed>69.63</speed><time>2017-07-01T14:15:52Z</time><course>212</course><type>1</type></trkpt>
      <trkpt lat="38.772167" lon="-6.555933"><ele>2131</ele><speed>65.36</speed><time>2017-07-01T14:15:57Z</time><course>214</course><type>1</type></trkpt>
      <trkpt lat="38.771465" lon="-6.556567"><ele>2122</ele><speed>68.81</speed><time>2017-07-01T14:16:02Z</time><course>214</course><type>1</type></trkpt>
      <trkpt lat="38.770782" lon="-6.557150"><ele>2109</ele><speed>65.76</speed><time>2017-07-01T14:16:07Z</time><course>212</course><type>1</type></trkpt>
      <trkpt lat="38.770084" lon="-6.557717"><ele>2110</ele><speed>66.22</speed><time>2017-07-01T14:16:12Z</time><course>212</course><type>1</type></trkpt>
      <trkpt lat="38.769466" lon="-6.558133"><ele>2110</ele><speed>55.94</speed><time>2017-07-01T14:16:17Z</time><course>206</course><type>1</type></trkpt>
      <trkpt lat="38.768784" lon="-6.558600"><ele>2105</ele><speed>61.96</speed><time>2017-07-01T14:16:22Z</time><course>202</course><type>1</type></trkpt>
      <trkpt lat="38.768082" lon="-6.559050"><ele>2094</ele><speed>62.9</speed><time>2017-07-01T14:16:27Z</time><course>206</course><type>1</type></trkpt>
      <trkpt lat="38.767418" lon="-6.559450"><ele>2084</ele><speed>58.8</speed><time>2017-07-01T14:16:32Z</time><course>206</course><type>1</type></trkpt>
      <trkpt lat="38.766682" lon="-6.559883"><ele>2074</ele><speed>64.9</speed><time>2017-07-01T14:16:37Z</time><course>208</course><type>1</type></trkpt>
      <trkpt lat="38.766083" lon="-6.560233"><ele>2071</ele><speed>52.76</speed><time>2017-07-01T14:16:42Z</time><course>202</course><type>1</type></trkpt>
      <trkpt lat="38.764782" lon="-6.561083"><ele>2055</ele><speed>58.51</speed><time>2017-07-01T14:16:52Z</time><course>212</course><type>1</type></trkpt>
      <trkpt lat="38.764183" lon="-6.561483"><ele>2050</ele><speed>54.13</speed><time>2017-07-01T14:16:57Z</time><course>202</course><type>1</type></trkpt>
      <trkpt lat="38.763500" lon="-6.561917"><ele>2053</ele><speed>61.09</speed><time>2017-07-01T14:17:02Z</time><course>200</course><type>1</type></trkpt>
      <trkpt lat="38.763248" lon="-6.562583"><ele>2067</ele><speed>46.26</speed><time>2017-07-01T14:17:07Z</time><course>292</course><type>1</type></trkpt>
      <trkpt lat="38.763416" lon="-6.562500"><ele>2080</ele><speed>14.43</speed><time>2017-07-01T14:17:12Z</time><course>148</course><type>1</type></trkpt>
      <trkpt lat="38.762951" lon="-6.563033"><ele>2095</ele><speed>49.99</speed><time>2017-07-01T14:17:17Z</time><course>270</course><type>1</type></trkpt>
      <trkpt lat="38.763302" lon="-6.563300"><ele>2106</ele><speed>32.71</speed><time>2017-07-01T14:17:22Z</time><course>54</course><type>1</type></trkpt>
      <trkpt lat="38.762833" lon="-6.563300"><ele>2114</ele><speed>37.59</speed><time>2017-07-01T14:17:27Z</time><course>214</course><type>1</type></trkpt>
      <trkpt lat="38.762699" lon="-6.564100"><ele>2128</ele><speed>51.14</speed><time>2017-07-01T14:17:32Z</time><course>298</course><type>1</type></trkpt>
      <trkpt lat="38.762985" lon="-6.564050"><ele>2136</ele><speed>23.13</speed><time>2017-07-01T14:17:37Z</time><course>134</course><type>1</type></trkpt>
      <trkpt lat="38.762501" lon="-6.564517"><ele>2141</ele><speed>48.55</speed><time>2017-07-01T14:17:42Z</time><course>252</course><type>1</type></trkpt>
      <trkpt lat="38.762733" lon="-6.565166"><ele>2153</ele><speed>44.62</speed><time>2017-07-01T14:17:47Z</time><course>340</course><type>1</type></trkpt>
      <trkpt lat="38.762318" lon="-6.566067"><ele>2175</ele><speed>16.35</speed><time>2017-07-01T14:18:07Z</time><course>186</course><type>1</type></trkpt>
      <trkpt lat="38.761967" lon="-6.566900"><ele>2188</ele><speed>59.18</speed><time>2017-07-01T14:18:12Z</time><course>274</course><type>1</type></trkpt>
      <trkpt lat="38.762268" lon="-6.567250"><ele>2193</ele><speed>32.57</speed><time>2017-07-01T14:18:17Z</time><course>58</course><type>1</type></trkpt>
      <trkpt lat="38.761883" lon="-6.567083"><ele>2200</ele><speed>32.58</speed><time>2017-07-01T14:18:22Z</time><course>190</course><type>1</type></trkpt>
      <trkpt lat="38.761433" lon="-6.567650"><ele>2209</ele><speed>50.56</speed><time>2017-07-01T14:18:27Z</time><course>260</course><type>1</type></trkpt>
      <trkpt lat="38.761799" lon="-6.568117"><ele>2217</ele><speed>41.38</speed><time>2017-07-01T14:18:32Z</time><course>20</course><type>1</type></trkpt>
      <trkpt lat="38.761467" lon="-6.568067"><ele>2219</ele><speed>26.79</speed><time>2017-07-01T14:18:37Z</time><course>206</course><type>1</type></trkpt>
      <trkpt lat="38.761135" lon="-6.568883"><ele>2234</ele><speed>57.52</speed><time>2017-07-01T14:18:42Z</time><course>266</course><type>1</type></trkpt>
      <trkpt lat="38.761467" lon="-6.569400"><ele>2236</ele><speed>41.86</speed><time>2017-07-01T14:18:47Z</time><course>358</course><type>1</type></trkpt>
      <trkpt lat="38.761284" lon="-6.569250"><ele>2240</ele><speed>17.41</speed><time>2017-07-01T14:18:52Z</time><course>186</course><type>1</type></trkpt>
      <trkpt lat="38.760799" lon="-6.569750"><ele>2246</ele><speed>49.88</speed><time>2017-07-01T14:18:57Z</time><course>236</course><type>1</type></trkpt>
      <trkpt lat="38.760517" lon="-6.570583"><ele>2255</ele><speed>56.76</speed><time>2017-07-01T14:19:02Z</time><course>240</course><type>1</type></trkpt>
      <trkpt lat="38.759998" lon="-6.571100"><ele>2250</ele><speed>52.67</speed><time>2017-07-01T14:19:07Z</time><course>216</course><type>1</type></trkpt>
      <trkpt lat="38.759315" lon="-6.571667"><ele>2239</ele><speed>65.21</speed><time>2017-07-01T14:19:12Z</time><course>210</course><type>1</type></trkpt>
      <trkpt lat="38.758568" lon="-6.572317"><ele>2243</ele><speed>72.35</speed><time>2017-07-01T14:19:17Z</time><course>212</course><type>1</type></trkpt>
      <trkpt lat="38.757832" lon="-6.572850"><ele>2231</ele><speed>67.75</speed><time>2017-07-01T14:19:22Z</time><course>206</course><type>1</type></trkpt>
      <trkpt lat="38.756916" lon="-6.573433"><ele>2224</ele><speed>81.96</speed><time>2017-07-01T14:19:27Z</time><course>206</course><type>1</type></trkpt>
      <trkpt lat="38.756050" lon="-6.573983"><ele>2220</ele><speed>77.46</speed><time>2017-07-01T14:19:32Z</time><course>206</course><type>1</type></trkpt>
      <trkpt lat="38.755184" lon="-6.574517"><ele>2213</ele><speed>77.02</speed><time>2017-07-01T14:19:37Z</time><course>206</course><type>1</type></trkpt>
      <trkpt lat="38.754333" lon="-6.574934"><ele>2204</ele><speed>73.02</speed><time>2017-07-01T14:19:42Z</time><course>194</course><type>1</type></trkpt>
      <trkpt lat="38.753448" lon="-6.575233"><ele>2188</ele><speed>73.35</speed><time>2017-07-01T14:19:47Z</time><course>192</course><type>1</type></trkpt>
      <trkpt lat="38.752548" lon="-6.575567"><ele>2185</ele><speed>75.1</speed><time>2017-07-01T14:19:52Z</time><course>196</course><type>1</type></trkpt>
      <trkpt lat="38.751682" lon="-6.575917"><ele>2178</ele><speed>72.78</speed><time>2017-07-01T14:19:57Z</time><course>196</course><type>1</type></trkpt>
      <trkpt lat="38.750801" lon="-6.576233"><ele>2169</ele><speed>73.32</speed><time>2017-07-01T14:20:02Z</time><course>196</course><type>1</type></trkpt>
      <trkpt lat="38.749950" lon="-6.576550"><ele>2160</ele><speed>71.03</speed><time>2017-07-01T14:20:07Z</time><course>194</course><type>1</type></trkpt>
      <trkpt lat="38.749065" lon="-6.576850"><ele>2150</ele><speed>73.37</speed><time>2017-07-01T14:20:12Z</time><course>192</course><type>1</type></trkpt>
      <trkpt lat="38.748199" lon="-6.577100"><ele>2141</ele><speed>71.15</speed><time>2017-07-01T14:20:17Z</time><course>192</course><type>1</type></trkpt>
      <trkpt lat="38.747318" lon="-6.577300"><ele>2132</ele><speed>71.71</speed><time>2017-07-01T14:20:22Z</time><course>190</course><type>1</type></trkpt>
      <trkpt lat="38.746449" lon="-6.577533"><ele>2125</ele><speed>71.16</speed><time>2017-07-01T14:20:27Z</time><course>192</course><type>1</type></trkpt>
      <trkpt lat="38.745548" lon="-6.577783"><ele>2116</ele><speed>73.89</speed><time>2017-07-01T14:20:32Z</time><course>192</course><type>1</type></trkpt>
      <trkpt lat="38.744617" lon="-6.578067"><ele>2110</ele><speed>76.7</speed><time>2017-07-01T14:20:37Z</time><course>192</course><type>1</type></trkpt>
      <trkpt lat="38.743717" lon="-6.578350"><ele>2106</ele><speed>74.27</speed><time>2017-07-01T14:20:42Z</time><course>196</course><type>1</type></trkpt>
      <trkpt lat="38.743065" lon="-6.578583"><ele>2105</ele><speed>54.25</speed><time>2017-07-01T14:20:47Z</time><course>196</course><type>1</type></trkpt>
      <trkpt lat="38.742317" lon="-6.578850"><ele>2100</ele><speed>62.23</speed><time>2017-07-01T14:20:52Z</time><course>194</course><type>1</type></trkpt>
      <trkpt lat="38.741550" lon="-6.579134"><ele>2096</ele><speed>63.99</speed><time>2017-07-01T14:20:57Z</time><course>196</course><type>1</type></trkpt>
      <trkpt lat="38.740116" lon="-6.579883"><ele>2090</ele><speed>62.05</speed><time>2017-07-01T14:21:07Z</time><course>204</course><type>1</type></trkpt>
      <trkpt lat="38.739498" lon="-6.580266"><ele>2083</ele><speed>55.02</speed><time>2017-07-01T14:21:12Z</time><course>202</course><type>1</type></trkpt>
      <trkpt lat="38.738800" lon="-6.580483"><ele>2071</ele><speed>57.57</speed><time>2017-07-01T14:21:17Z</time><course>178</course><type>1</type></trkpt>
      <trkpt lat="38.738152" lon="-6.580400"><ele>2070</ele><speed>52.2</speed><time>2017-07-01T14:21:22Z</time><course>168</course><type>1</type></trkpt>
      <trkpt lat="38.737583" lon="-6.580350"><ele>2082</ele><speed>45.71</speed><time>2017-07-01T14:21:27Z</time><course>180</course><type>1</type></trkpt>
      <trkpt lat="38.737251" lon="-6.580217"><ele>2097</ele><speed>27.88</speed><time>2017-07-01T14:21:32Z</time><course>112</course><type>1</type></trkpt>
      <trkpt lat="38.737385" lon="-6.580783"><ele>2105</ele><speed>36.98</speed><time>2017-07-01T14:21:37Z</time><course>250</course><type>1</type></trkpt>
      <trkpt lat="38.736752" lon="-6.581284"><ele>2115</ele><speed>59.62</speed><time>2017-07-01T14:21:42Z</time><course>186</course><type>1</type></trkpt>
      <trkpt lat="38.736485" lon="-6.581200"><ele>2124</ele><speed>22.04</speed><time>2017-07-01T14:21:47Z</time><course>58</course><type>1</type></trkpt>
      <trkpt lat="38.736584" lon="-6.581817"><ele>2129</ele><speed>39.38</speed><time>2017-07-01T14:21:52Z</time><course>254</course><type>1</type></trkpt>
      <trkpt lat="38.735950" lon="-6.582283"><ele>2140</ele><speed>58.57</speed><time>2017-07-01T14:21:57Z</time><course>178</course><type>1</type></trkpt>
      <trkpt lat="38.735935" lon="-6.582167"><ele>2143</ele><speed>7.35</speed><time>2017-07-01T14:22:02Z</time><course>344</course><type>1</type></trkpt>
      <trkpt lat="38.736183" lon="-6.582450"><ele>2162</ele><speed>26.61</speed><time>2017-07-01T14:22:07Z</time><course>288</course><type>1</type></trkpt>
      <trkpt lat="38.735916" lon="-6.583250"><ele>2159</ele><speed>54.4</speed><time>2017-07-01T14:22:12Z</time><course>218</course><type>1</type></trkpt>
      <trkpt lat="38.735432" lon="-6.583233"><ele>2174</ele><speed>38.81</speed><time>2017-07-01T14:22:17Z</time><course>134</course><type>1</type></trkpt>
      <trkpt lat="38.735600" lon="-6.583617"><ele>2177</ele><speed>27.53</speed><time>2017-07-01T14:22:22Z</time><course>264</course><type>1</type></trkpt>
      <trkpt lat="38.735035" lon="-6.584050"><ele>2184</ele><speed>52.76</speed><time>2017-07-01T14:22:27Z</time><course>156</course><type>1</type></trkpt>
      <trkpt lat="38.735035" lon="-6.583917"><ele>2193</ele><speed>8.32</speed><time>2017-07-01T14:22:32Z</time><course>310</course><type>1</type></trkpt>
      <trkpt lat="38.734932" lon="-6.584750"><ele>2196</ele><speed>52.73</speed><time>2017-07-01T14:22:37Z</time><course>232</course><type>1</type></trkpt>
      <trkpt lat="38.734333" lon="-6.585083"><ele>2205</ele><speed>52.33</speed><time>2017-07-01T14:22:42Z</time><course>174</course><type>1</type></trkpt>
      <trkpt lat="38.734299" lon="-6.584883"><ele>2200</ele><speed>12.8</speed><time>2017-07-01T14:22:47Z</time><course>340</course><type>1</type></trkpt>
      <trkpt lat="38.734283" lon="-6.585683"><ele>2203</ele><speed>50.03</speed><time>2017-07-01T14:22:52Z</time><course>238</course><type>1</type></trkpt>
      <trkpt lat="38.733650" lon="-6.586300"><ele>2211</ele><speed>63.73</speed><time>2017-07-01T14:22:57Z</time><course>212</course><type>1</type></trkpt>
      <trkpt lat="38.733234" lon="-6.586283"><ele>2202</ele><speed>33.36</speed><time>2017-07-01T14:23:02Z</time><course>110</course><type>1</type></trkpt>
      <trkpt lat="38.733383" lon="-6.586650"><ele>2193</ele><speed>25.87</speed><time>2017-07-01T14:23:07Z</time><course>270</course><type>1</type></trkpt>
      <trkpt lat="38.732735" lon="-6.587717"><ele>2184</ele><speed>60.39</speed><time>2017-07-01T14:23:14Z</time><course>222</course><type>1</type></trkpt>
      <trkpt lat="38.732033" lon="-6.588350"><ele>2169</ele><speed>68.79</speed><time>2017-07-01T14:23:19Z</time><course>214</course><type>1</type></trkpt>
      <trkpt lat="38.731335" lon="-6.588950"><ele>2154</ele><speed>67.36</speed><time>2017-07-01T14:23:24Z</time><course>214</course><type>1</type></trkpt>
      <trkpt lat="38.730465" lon="-6.589583"><ele>2140</ele><speed>80.18</speed><time>2017-07-01T14:23:29Z</time><course>208</course><type>1</type></trkpt>
      <trkpt lat="38.729717" lon="-6.590367"><ele>2126</ele><speed>77.44</speed><time>2017-07-01T14:23:34Z</time><course>214</course><type>1</type></trkpt>
      <trkpt lat="38.728931" lon="-6.591050"><ele>2120</ele><speed>76.11</speed><time>2017-07-01T14:23:39Z</time><course>216</course><type>1</type></trkpt>
      <trkpt lat="38.728485" lon="-6.591617"><ele>2118</ele><speed>50.35</speed><time>2017-07-01T14:23:44Z</time><course>250</course><type>1</type></trkpt>
      <trkpt lat="38.728699" lon="-6.592050"><ele>2108</ele><speed>32.05</speed><time>2017-07-01T14:23:49Z</time><course>56</course><type>1</type></trkpt>
      <trkpt lat="38.728184" lon="-6.591967"><ele>2105</ele><speed>41.6</speed><time>2017-07-01T14:23:54Z</time><course>202</course><type>1</type></trkpt>
      <trkpt lat="38.727551" lon="-6.592417"><ele>2104</ele><speed>58.01</speed><time>2017-07-01T14:23:59Z</time><course>206</course><type>1</type></trkpt>
      <trkpt lat="38.726898" lon="-6.592817"><ele>2097</ele><speed>58.01</speed><time>2017-07-01T14:24:04Z</time><course>202</course><type>1</type></trkpt>
      <trkpt lat="38.725552" lon="-6.593650"><ele>2086</ele><speed>59.9</speed><time>2017-07-01T14:24:14Z</time><course>206</course><type>1</type></trkpt>
      <trkpt lat="38.724850" lon="-6.594167"><ele>2083</ele><speed>64.89</speed><time>2017-07-01T14:24:19Z</time><course>212</course><type>1</type></trkpt>
      <trkpt lat="38.724152" lon="-6.594783"><ele>2080</ele><speed>67.92</speed><time>2017-07-01T14:24:24Z</time><course>216</course><type>1</type></trkpt>
      <trkpt lat="38.723415" lon="-6.595366"><ele>2083</ele><speed>69.41</speed><time>2017-07-01T14:24:29Z</time><course>204</course><type>1</type></trkpt>
      <trkpt lat="38.722599" lon="-6.595583"><ele>2073</ele><speed>66.8</speed><time>2017-07-01T14:24:34Z</time><course>180</course><type>1</type></trkpt>
      <trkpt lat="38.721931" lon="-6.595533"><ele>2076</ele><speed>44.69</speed><time>2017-07-01T14:24:40Z</time><course>168</course><type>1</type></trkpt>
      <trkpt lat="38.721966" lon="-6.595533"><ele>2083</ele><speed>2.81</speed><time>2017-07-01T14:24:45Z</time><course>300</course><type>1</type></trkpt>
      <trkpt lat="38.721684" lon="-6.596433"><ele>2090</ele><speed>60.65</speed><time>2017-07-01T14:24:50Z</time><course>230</course><type>1</type></trkpt>
      <trkpt lat="38.721115" lon="-6.596983"><ele>2108</ele><speed>57.12</speed><time>2017-07-01T14:24:55Z</time><course>208</course><type>1</type></trkpt>
      <trkpt lat="38.720966" lon="-6.596650"><ele>2110</ele><speed>24</speed><time>2017-07-01T14:25:00Z</time><course>350</course><type>1</type></trkpt>
      <trkpt lat="38.720917" lon="-6.597267"><ele>2115</ele><speed>38.78</speed><time>2017-07-01T14:25:05Z</time><course>254</course><type>1</type></trkpt>
      <trkpt lat="38.720467" lon="-6.597700"><ele>2126</ele><speed>45.1</speed><time>2017-07-01T14:25:10Z</time><course>168</course><type>1</type></trkpt>
      <trkpt lat="38.720451" lon="-6.597500"><ele>2136</ele><speed>12.57</speed><time>2017-07-01T14:25:15Z</time><course>336</course><type>1</type></trkpt>
      <trkpt lat="38.720501" lon="-6.598083"><ele>2152</ele><speed>36.68</speed><time>2017-07-01T14:25:20Z</time><course>264</course><type>1</type></trkpt>
      <trkpt lat="38.719967" lon="-6.598500"><ele>2159</ele><speed>50.12</speed><time>2017-07-01T14:25:25Z</time><course>164</course><type>1</type></trkpt>
      <trkpt lat="38.719833" lon="-6.598250"><ele>2167</ele><speed>18.97</speed><time>2017-07-01T14:25:30Z</time><course>16</course><type>1</type></trkpt>
      <trkpt lat="38.719967" lon="-6.598783"><ele>2173</ele><speed>35.02</speed><time>2017-07-01T14:25:35Z</time><course>258</course><type>1</type></trkpt>
      <trkpt lat="38.719467" lon="-6.599350"><ele>2179</ele><speed>53.51</speed><time>2017-07-01T14:25:40Z</time><course>178</course><type>1</type></trkpt>
      <trkpt lat="38.718918" lon="-6.599200"><ele>2188</ele><speed>44.99</speed><time>2017-07-01T14:25:45Z</time><course>156</course><type>1</type></trkpt>
      <trkpt lat="38.719051" lon="-6.599050"><ele>2191</ele><speed>14.2</speed><time>2017-07-01T14:25:50Z</time><course>334</course><type>1</type></trkpt>
      <trkpt lat="38.719151" lon="-6.599517"><ele>2197</ele><speed>30.28</speed><time>2017-07-01T14:25:55Z</time><course>270</course><type>1</type></trkpt>
      <trkpt lat="38.718533" lon="-6.600033"><ele>2196</ele><speed>59.12</speed><time>2017-07-01T14:26:00Z</time><course>168</course><type>1</type></trkpt>
      <trkpt lat="38.718384" lon="-6.599750"><ele>2198</ele><speed>21.35</speed><time>2017-07-01T14:26:05Z</time><course>30</course><type>1</type></trkpt>
      <trkpt lat="38.718601" lon="-6.599850"><ele>2210</ele><speed>18.48</speed><time>2017-07-01T14:26:10Z</time><course>314</course><type>1</type></trkpt>
      <trkpt lat="38.718418" lon="-6.600616"><ele>2207</ele><speed>50.1</speed><time>2017-07-01T14:26:15Z</time><course>220</course><type>1</type></trkpt>
      <trkpt lat="38.717834" lon="-6.600683"><ele>2218</ele><speed>46.99</speed><time>2017-07-01T14:26:20Z</time><course>144</course><type>1</type></trkpt>
      <trkpt lat="38.717934" lon="-6.600483"><ele>2222</ele><speed>14.85</speed><time>2017-07-01T14:26:25Z</time><course>322</course><type>1</type></trkpt>
      <trkpt lat="38.717834" lon="-6.601267"><ele>2223</ele><speed>49.68</speed><time>2017-07-01T14:26:30Z</time><course>236</course><type>1</type></trkpt>
      <trkpt lat="38.717201" lon="-6.601833"><ele>2227</ele><speed>61.86</speed><time>2017-07-01T14:26:35Z</time><course>206</course><type>1</type></trkpt>
      <trkpt lat="38.716534" lon="-6.602200"><ele>2235</ele><speed>58.18</speed><time>2017-07-01T14:26:40Z</time><course>196</course><type>1</type></trkpt>
      <trkpt lat="38.715816" lon="-6.602383"><ele>2231</ele><speed>58.67</speed><time>2017-07-01T14:26:45Z</time><course>192</course><type>1</type></trkpt>
      <trkpt lat="38.714401" lon="-6.602716"><ele>2225</ele><speed>57.65</speed><time>2017-07-01T14:26:55Z</time><course>194</course><type>1</type></trkpt>
      <trkpt lat="38.713833" lon="-6.602817"><ele>2229</ele><speed>45.96</speed><time>2017-07-01T14:27:00Z</time><course>160</course><type>1</type></trkpt>
      <trkpt lat="38.713951" lon="-6.602667"><ele>2224</ele><speed>13.32</speed><time>2017-07-01T14:27:05Z</time><course>318</course><type>1</type></trkpt>
      <trkpt lat="38.713718" lon="-6.603433"><ele>2225</ele><speed>51.42</speed><time>2017-07-01T14:27:10Z</time><course>220</course><type>1</type></trkpt>
      <trkpt lat="38.713165" lon="-6.604033"><ele>2227</ele><speed>58.07</speed><time>2017-07-01T14:27:15Z</time><course>210</course><type>1</type></trkpt>
      <trkpt lat="38.712482" lon="-6.604567"><ele>2229</ele><speed>64.13</speed><time>2017-07-01T14:27:20Z</time><course>210</course><type>1</type></trkpt>
      <trkpt lat="38.711784" lon="-6.605117"><ele>2234</ele><speed>65.67</speed><time>2017-07-01T14:27:25Z</time><course>210</course><type>1</type></trkpt>
      <trkpt lat="38.711067" lon="-6.605650"><ele>2230</ele><speed>66.44</speed><time>2017-07-01T14:27:30Z</time><course>212</course><type>1</type></trkpt>
      <trkpt lat="38.710335" lon="-6.606233"><ele>2227</ele><speed>69.08</speed><time>2017-07-01T14:27:35Z</time><course>210</course><type>1</type></trkpt>
      <trkpt lat="38.708866" lon="-6.607633"><ele>2219</ele><speed>73.36</speed><time>2017-07-01T14:27:45Z</time><course>216</course><type>1</type></trkpt>
      <trkpt lat="38.708199" lon="-6.608350"><ele>2205</ele><speed>69.78</speed><time>2017-07-01T14:27:50Z</time><course>216</course><type>1</type></trkpt>
      <trkpt lat="38.707500" lon="-6.609233"><ele>2195</ele><speed>65.56</speed><time>2017-07-01T14:27:56Z</time><course>228</course><type>1</type></trkpt>
      <trkpt lat="38.706833" lon="-6.610067"><ele>2194</ele><speed>74.69</speed><time>2017-07-01T14:28:01Z</time><course>222</course><type>1</type></trkpt>
      <trkpt lat="38.706249" lon="-6.610734"><ele>2192</ele><speed>62.7</speed><time>2017-07-01T14:28:06Z</time><course>224</course><type>1</type></trkpt>
      <trkpt lat="38.705685" lon="-6.611467"><ele>2189</ele><speed>64.38</speed><time>2017-07-01T14:28:11Z</time><course>226</course><type>1</type></trkpt>
      <trkpt lat="38.705116" lon="-6.612200"><ele>2183</ele><speed>64.67</speed><time>2017-07-01T14:28:16Z</time><course>224</course><type>1</type></trkpt>
      <trkpt lat="38.704567" lon="-6.613000"><ele>2178</ele><speed>66.63</speed><time>2017-07-01T14:28:21Z</time><course>230</course><type>1</type></trkpt>
      <trkpt lat="38.704048" lon="-6.613783"><ele>2174</ele><speed>64.26</speed><time>2017-07-01T14:28:26Z</time><course>232</course><type>1</type></trkpt>
      <trkpt lat="38.703484" lon="-6.614500"><ele>2166</ele><speed>63.68</speed><time>2017-07-01T14:28:31Z</time><course>228</course><type>1</type></trkpt>
      <trkpt lat="38.702499" lon="-6.616000"><ele>2150</ele><speed>61.31</speed><time>2017-07-01T14:28:41Z</time><course>230</course><type>1</type></trkpt>
      <trkpt lat="38.702118" lon="-6.616833"><ele>2137</ele><speed>60.39</speed><time>2017-07-01T14:28:46Z</time><course>238</course><type>1</type></trkpt>
      <trkpt lat="38.701717" lon="-6.617650"><ele>2124</ele><speed>60.37</speed><time>2017-07-01T14:28:51Z</time><course>236</course><type>1</type></trkpt>
      <trkpt lat="38.701317" lon="-6.618450"><ele>2112</ele><speed>59.43</speed><time>2017-07-01T14:28:56Z</time><course>238</course><type>1</type></trkpt>
      <trkpt lat="38.700932" lon="-6.619333"><ele>2100</ele><speed>63.27</speed><time>2017-07-01T14:29:01Z</time><course>240</course><type>1</type></trkpt>
      <trkpt lat="38.700550" lon="-6.620250"><ele>2086</ele><speed>65.02</speed><time>2017-07-01T14:29:06Z</time><course>236</course><type>1</type></trkpt>
      <trkpt lat="38.700085" lon="-6.621117"><ele>2080</ele><speed>65.8</speed><time>2017-07-01T14:29:11Z</time><course>238</course><type>1</type></trkpt>
      <trkpt lat="38.699566" lon="-6.622000"><ele>2068</ele><speed>69.15</speed><time>2017-07-01T14:29:16Z</time><course>232</course><type>1</type></trkpt>
      <trkpt lat="38.699100" lon="-6.622867"><ele>2062</ele><speed>65.85</speed><time>2017-07-01T14:29:21Z</time><course>240</course><type>1</type></trkpt>
      <trkpt lat="38.698250" lon="-6.624850"><ele>2043</ele><speed>70.76</speed><time>2017-07-01T14:29:31Z</time><course>236</course><type>1</type></trkpt>
      <trkpt lat="38.697765" lon="-6.625800"><ele>2032</ele><speed>71.01</speed><time>2017-07-01T14:29:36Z</time><course>234</course><type>1</type></trkpt>
      <trkpt lat="38.697285" lon="-6.626700"><ele>2025</ele><speed>68.19</speed><time>2017-07-01T14:29:41Z</time><course>236</course><type>1</type></trkpt>
      <trkpt lat="38.696766" lon="-6.627617"><ele>2019</ele><speed>70.86</speed><time>2017-07-01T14:29:46Z</time><course>230</course><type>1</type></trkpt>
      <trkpt lat="38.696232" lon="-6.628500"><ele>2015</ele><speed>69.88</speed><time>2017-07-01T14:29:51Z</time><course>234</course><type>1</type></trkpt>
      <trkpt lat="38.695683" lon="-6.629367"><ele>2007</ele><speed>69.84</speed><time>2017-07-01T14:29:56Z</time><course>224</course><type>1</type></trkpt>
      <trkpt lat="38.695168" lon="-6.630317"><ele>2005</ele><speed>72.36</speed><time>2017-07-01T14:30:01Z</time><course>234</course><type>1</type></trkpt>
      <trkpt lat="38.694733" lon="-6.631200"><ele>2003</ele><speed>65.32</speed><time>2017-07-01T14:30:06Z</time><course>234</course><type>1</type></trkpt>
      <trkpt lat="38.694283" lon="-6.632083"><ele>2002</ele><speed>65.97</speed><time>2017-07-01T14:30:11Z</time><course>232</course><type>1</type></trkpt>
      <trkpt lat="38.693317" lon="-6.633833"><ele>1997</ele><speed>67.04</speed><time>2017-07-01T14:30:21Z</time><course>234</course><type>1</type></trkpt>
      <trkpt lat="38.692799" lon="-6.634650"><ele>1991</ele><speed>65.85</speed><time>2017-07-01T14:30:26Z</time><course>230</course><type>1</type></trkpt>
      <trkpt lat="38.692299" lon="-6.635467"><ele>1990</ele><speed>64.95</speed><time>2017-07-01T14:30:31Z</time><course>236</course><type>1</type></trkpt>
      <trkpt lat="38.691868" lon="-6.636250"><ele>1985</ele><speed>59.94</speed><time>2017-07-01T14:30:36Z</time><course>234</course><type>1</type></trkpt>
      <trkpt lat="38.691433" lon="-6.637084"><ele>1974</ele><speed>62.75</speed><time>2017-07-01T14:30:41Z</time><course>238</course><type>1</type></trkpt>
      <trkpt lat="38.690983" lon="-6.637983"><ele>1964</ele><speed>66.81</speed><time>2017-07-01T14:30:46Z</time><course>238</course><type>1</type></trkpt>
      <trkpt lat="38.690483" lon="-6.638900"><ele>1955</ele><speed>69.98</speed><time>2017-07-01T14:30:51Z</time><course>234</course><type>1</type></trkpt>
      <trkpt lat="38.689934" lon="-6.639750"><ele>1947</ele><speed>69.02</speed><time>2017-07-01T14:30:56Z</time><course>232</course><type>1</type></trkpt>
      <trkpt lat="38.689365" lon="-6.640683"><ele>1940</ele><speed>74.07</speed><time>2017-07-01T14:31:01Z</time><course>230</course><type>1</type></trkpt>
      <trkpt lat="38.688782" lon="-6.641550"><ele>1932</ele><speed>71.59</speed><time>2017-07-01T14:31:06Z</time><course>228</course><type>1</type></trkpt>
      <trkpt lat="38.687565" lon="-6.643217"><ele>1906</ele><speed>71.4</speed><time>2017-07-01T14:31:16Z</time><course>230</course><type>1</type></trkpt>
      <trkpt lat="38.687016" lon="-6.644083"><ele>1894</ele><speed>69.8</speed><time>2017-07-01T14:31:21Z</time><course>232</course><type>1</type></trkpt>
      <trkpt lat="38.686501" lon="-6.644967"><ele>1881</ele><speed>69.01</speed><time>2017-07-01T14:31:26Z</time><course>234</course><type>1</type></trkpt>
      <trkpt lat="38.686001" lon="-6.645900"><ele>1869</ele><speed>70.8</speed><time>2017-07-01T14:31:31Z</time><course>234</course><type>1</type></trkpt>
      <trkpt lat="38.685551" lon="-6.646783"><ele>1865</ele><speed>65.98</speed><time>2017-07-01T14:31:36Z</time><course>238</course><type>1</type></trkpt>
      <trkpt lat="38.685116" lon="-6.647666"><ele>1851</ele><speed>65.33</speed><time>2017-07-01T14:31:41Z</time><course>240</course><type>1</type></trkpt>
      <trkpt lat="38.684650" lon="-6.648567"><ele>1839</ele><speed>67.62</speed><time>2017-07-01T14:31:46Z</time><course>236</course><type>1</type></trkpt>
      <trkpt lat="38.684185" lon="-6.649517"><ele>1831</ele><speed>70.16</speed><time>2017-07-01T14:31:51Z</time><course>234</course><type>1</type></trkpt>
      <trkpt lat="38.683681" lon="-6.650400"><ele>1824</ele><speed>68.44</speed><time>2017-07-01T14:31:56Z</time><course>232</course><type>1</type></trkpt>
      <trkpt lat="38.682533" lon="-6.651933"><ele>1804</ele><speed>66.46</speed><time>2017-07-01T14:32:06Z</time><course>228</course><type>1</type></trkpt>
      <trkpt lat="38.681999" lon="-6.652800"><ele>1787</ele><speed>69.1</speed><time>2017-07-01T14:32:11Z</time><course>226</course><type>1</type></trkpt>
      <trkpt lat="38.681385" lon="-6.653550"><ele>1776</ele><speed>68</speed><time>2017-07-01T14:32:16Z</time><course>220</course><type>1</type></trkpt>
      <trkpt lat="38.680752" lon="-6.654300"><ele>1767</ele><speed>69.11</speed><time>2017-07-01T14:32:21Z</time><course>222</course><type>1</type></trkpt>
      <trkpt lat="38.680134" lon="-6.655066"><ele>1757</ele><speed>68.92</speed><time>2017-07-01T14:32:26Z</time><course>224</course><type>1</type></trkpt>
      <trkpt lat="38.679565" lon="-6.655817"><ele>1747</ele><speed>65.48</speed><time>2017-07-01T14:32:31Z</time><course>226</course><type>1</type></trkpt>
      <trkpt lat="38.678951" lon="-6.656617"><ele>1734</ele><speed>70.2</speed><time>2017-07-01T14:32:36Z</time><course>224</course><type>1</type></trkpt>
      <trkpt lat="38.678398" lon="-6.657317"><ele>1726</ele><speed>62.31</speed><time>2017-07-01T14:32:41Z</time><course>224</course><type>1</type></trkpt>
      <trkpt lat="38.677799" lon="-6.658033"><ele>1717</ele><speed>65.67</speed><time>2017-07-01T14:32:46Z</time><course>224</course><type>1</type></trkpt>
      <trkpt lat="38.677250" lon="-6.658750"><ele>1710</ele><speed>62.84</speed><time>2017-07-01T14:32:51Z</time><course>224</course><type>1</type></trkpt>
      <trkpt lat="38.676201" lon="-6.660100"><ele>1695</ele><speed>59.59</speed><time>2017-07-01T14:33:01Z</time><course>226</course><type>1</type></trkpt>
      <trkpt lat="38.675751" lon="-6.660817"><ele>1687</ele><speed>57.56</speed><time>2017-07-01T14:33:06Z</time><course>230</course><type>1</type></trkpt>
      <trkpt lat="38.675316" lon="-6.661550"><ele>1679</ele><speed>57.61</speed><time>2017-07-01T14:33:11Z</time><course>232</course><type>1</type></trkpt>
      <trkpt lat="38.674915" lon="-6.662300"><ele>1670</ele><speed>56.88</speed><time>2017-07-01T14:33:16Z</time><course>234</course><type>1</type></trkpt>
      <trkpt lat="38.674500" lon="-6.663050"><ele>1663</ele><speed>57.52</speed><time>2017-07-01T14:33:21Z</time><course>234</course><type>1</type></trkpt>
      <trkpt lat="38.674049" lon="-6.663800"><ele>1653</ele><speed>59.24</speed><time>2017-07-01T14:33:26Z</time><course>230</course><type>1</type></trkpt>
      <trkpt lat="38.673565" lon="-6.664533"><ele>1648</ele><speed>60.07</speed><time>2017-07-01T14:33:31Z</time><course>230</course><type>1</type></trkpt>
      <trkpt lat="38.673035" lon="-6.665200"><ele>1640</ele><speed>59.55</speed><time>2017-07-01T14:33:36Z</time><course>220</course><type>1</type></trkpt>
      <trkpt lat="38.672516" lon="-6.665884"><ele>1632</ele><speed>59.69</speed><time>2017-07-01T14:33:41Z</time><course>224</course><type>1</type></trkpt>
      <trkpt lat="38.671566" lon="-6.667316"><ele>1624</ele><speed>58.8</speed><time>2017-07-01T14:33:51Z</time><course>242</course><type>1</type></trkpt>
      <trkpt lat="38.671650" lon="-6.668067"><ele>1620</ele><speed>47.47</speed><time>2017-07-01T14:33:56Z</time><course>306</course><type>1</type></trkpt>
      <trkpt lat="38.671867" lon="-6.668100"><ele>1616</ele><speed>17.51</speed><time>2017-07-01T14:34:01Z</time><course>74</course><type>1</type></trkpt>
      <trkpt lat="38.671501" lon="-6.667900"><ele>1606</ele><speed>31.89</speed><time>2017-07-01T14:34:06Z</time><course>178</course><type>1</type></trkpt>
      <trkpt lat="38.670898" lon="-6.667984"><ele>1603</ele><speed>48.62</speed><time>2017-07-01T14:34:11Z</time><course>182</course><type>1</type></trkpt>
      <trkpt lat="38.670334" lon="-6.668150"><ele>1599</ele><speed>46.38</speed><time>2017-07-01T14:34:16Z</time><course>202</course><type>1</type></trkpt>
      <trkpt lat="38.669735" lon="-6.668567"><ele>1590</ele><speed>54.64</speed><time>2017-07-01T14:34:21Z</time><course>214</course><type>1</type></trkpt>
      <trkpt lat="38.669449" lon="-6.669384"><ele>1582</ele><speed>56.03</speed><time>2017-07-01T14:34:26Z</time><course>256</course><type>1</type></trkpt>
      <trkpt lat="38.669315" lon="-6.670317"><ele>1573</ele><speed>59.37</speed><time>2017-07-01T14:34:31Z</time><course>260</course><type>1</type></trkpt>
      <trkpt lat="38.668999" lon="-6.671183"><ele>1562</ele><speed>59.82</speed><time>2017-07-01T14:34:36Z</time><course>238</course><type>1</type></trkpt>
      <trkpt lat="38.668633" lon="-6.672017"><ele>1552</ele><speed>59.87</speed><time>2017-07-01T14:34:41Z</time><course>240</course><type>1</type></trkpt>
      <trkpt lat="38.667782" lon="-6.673567"><ele>1537</ele><speed>59.29</speed><time>2017-07-01T14:34:51Z</time><course>226</course><type>1</type></trkpt>
      <trkpt lat="38.667233" lon="-6.674366"><ele>1532</ele><speed>55.5</speed><time>2017-07-01T14:34:57Z</time><course>228</course><type>1</type></trkpt>
      <trkpt lat="38.666767" lon="-6.675017"><ele>1521</ele><speed>55.27</speed><time>2017-07-01T14:35:02Z</time><course>230</course><type>1</type></trkpt>
      <trkpt lat="38.666367" lon="-6.675650"><ele>1511</ele><speed>50.96</speed><time>2017-07-01T14:35:07Z</time><course>238</course><type>1</type></trkpt>
      <trkpt lat="38.665985" lon="-6.676383"><ele>1493</ele><speed>55.15</speed><time>2017-07-01T14:35:12Z</time><course>228</course><type>1</type></trkpt>
      <trkpt lat="38.665466" lon="-6.677150"><ele>1481</ele><speed>63.52</speed><time>2017-07-01T14:35:17Z</time><course>230</course><type>1</type></trkpt>
      <trkpt lat="38.665066" lon="-6.678000"><ele>1469</ele><speed>62.11</speed><time>2017-07-01T14:35:22Z</time><course>238</course><type>1</type></trkpt>
      <trkpt lat="38.664700" lon="-6.678833"><ele>1463</ele><speed>59.82</speed><time>2017-07-01T14:35:27Z</time><course>238</course><type>1</type></trkpt>
      <trkpt lat="38.664783" lon="-6.679400"><ele>1453</ele><speed>36.1</speed><time>2017-07-01T14:35:32Z</time><course>324</course><type>1</type></trkpt>
      <trkpt lat="38.664200" lon="-6.679266"><ele>1439</ele><speed>23.74</speed><time>2017-07-01T14:35:42Z</time><course>202</course><type>1</type></trkpt>
      <trkpt lat="38.663601" lon="-6.679633"><ele>1427</ele><speed>53.22</speed><time>2017-07-01T14:35:47Z</time><course>210</course><type>1</type></trkpt>
      <trkpt lat="38.663132" lon="-6.680233"><ele>1419</ele><speed>53.13</speed><time>2017-07-01T14:35:52Z</time><course>222</course><type>1</type></trkpt>
      <trkpt lat="38.662666" lon="-6.680883"><ele>1406</ele><speed>55.23</speed><time>2017-07-01T14:35:57Z</time><course>230</course><type>1</type></trkpt>
      <trkpt lat="38.662182" lon="-6.681550"><ele>1396</ele><speed>56.99</speed><time>2017-07-01T14:36:02Z</time><course>228</course><type>1</type></trkpt>
      <trkpt lat="38.661701" lon="-6.682283"><ele>1384</ele><speed>59.92</speed><time>2017-07-01T14:36:07Z</time><course>226</course><type>1</type></trkpt>
      <trkpt lat="38.661182" lon="-6.683017"><ele>1367</ele><speed>61.97</speed><time>2017-07-01T14:36:12Z</time><course>224</course><type>1</type></trkpt>
      <trkpt lat="38.660683" lon="-6.683617"><ele>1358</ele><speed>54.86</speed><time>2017-07-01T14:36:17Z</time><course>220</course><type>1</type></trkpt>
      <trkpt lat="38.660069" lon="-6.684200"><ele>1346</ele><speed>61.26</speed><time>2017-07-01T14:36:22Z</time><course>216</course><type>1</type></trkpt>
      <trkpt lat="38.658901" lon="-6.685450"><ele>1328</ele><speed>61</speed><time>2017-07-01T14:36:32Z</time><course>222</course><type>1</type></trkpt>
      <trkpt lat="38.658367" lon="-6.686083"><ele>1320</ele><speed>58.32</speed><time>2017-07-01T14:36:37Z</time><course>222</course><type>1</type></trkpt>
      <trkpt lat="38.657867" lon="-6.686717"><ele>1306</ele><speed>56.4</speed><time>2017-07-01T14:36:42Z</time><course>226</course><type>1</type></trkpt>
      <trkpt lat="38.657349" lon="-6.687383"><ele>1295</ele><speed>58.83</speed><time>2017-07-01T14:36:47Z</time><course>222</course><type>1</type></trkpt>
      <trkpt lat="38.656799" lon="-6.687984"><ele>1290</ele><speed>57.95</speed><time>2017-07-01T14:36:52Z</time><course>216</course><type>1</type></trkpt>
      <trkpt lat="38.656235" lon="-6.688500"><ele>1278</ele><speed>55.56</speed><time>2017-07-01T14:36:57Z</time><course>214</course><type>1</type></trkpt>
      <trkpt lat="38.655666" lon="-6.689100"><ele>1271</ele><speed>59.08</speed><time>2017-07-01T14:37:02Z</time><course>222</course><type>1</type></trkpt>
      <trkpt lat="38.655067" lon="-6.689767"><ele>1262</ele><speed>63.62</speed><time>2017-07-01T14:37:07Z</time><course>224</course><type>1</type></trkpt>
      <trkpt lat="38.654484" lon="-6.690417"><ele>1252</ele><speed>61.96</speed><time>2017-07-01T14:37:12Z</time><course>224</course><type>1</type></trkpt>
      <trkpt lat="38.653915" lon="-6.691100"><ele>1245</ele><speed>62.51</speed><time>2017-07-01T14:37:17Z</time><course>218</course><type>1</type></trkpt>
      <trkpt lat="38.652718" lon="-6.692283"><ele>1239</ele><speed>60.6</speed><time>2017-07-01T14:37:27Z</time><course>216</course><type>1</type></trkpt>
      <trkpt lat="38.651966" lon="-6.692850"><ele>1230</ele><speed>69.95</speed><time>2017-07-01T14:37:32Z</time><course>194</course><type>1</type></trkpt>
      <trkpt lat="38.651318" lon="-6.692833"><ele>1232</ele><speed>51.95</speed><time>2017-07-01T14:37:37Z</time><course>180</course><type>1</type></trkpt>
      <trkpt lat="38.651165" lon="-6.692633"><ele>1236</ele><speed>17.52</speed><time>2017-07-01T14:37:42Z</time><course>358</course><type>1</type></trkpt>
      <trkpt lat="38.651031" lon="-6.693367"><ele>1237</ele><speed>47.18</speed><time>2017-07-01T14:37:47Z</time><course>222</course><type>1</type></trkpt>
      <trkpt lat="38.650452" lon="-6.693817"><ele>1247</ele><speed>54.29</speed><time>2017-07-01T14:37:52Z</time><course>184</course><type>1</type></trkpt>
      <trkpt lat="38.650215" lon="-6.693500"><ele>1254</ele><speed>27.47</speed><time>2017-07-01T14:37:57Z</time><course>72</course><type>1</type></trkpt>
      <trkpt lat="38.650318" lon="-6.694016"><ele>1257</ele><speed>33.34</speed><time>2017-07-01T14:38:02Z</time><course>250</course><type>1</type></trkpt>
      <trkpt lat="38.649666" lon="-6.694250"><ele>1257</ele><speed>54.27</speed><time>2017-07-01T14:38:07Z</time><course>158</course><type>1</type></trkpt>
      <trkpt lat="38.649399" lon="-6.693967"><ele>1269</ele><speed>27.78</speed><time>2017-07-01T14:38:12Z</time><course>124</course><type>1</type></trkpt>
      <trkpt lat="38.649715" lon="-6.693917"><ele>1281</ele><speed>12.76</speed><time>2017-07-01T14:38:22Z</time><course>354</course><type>1</type></trkpt>
      <trkpt lat="38.649899" lon="-6.693850"><ele>1288</ele><speed>15.33</speed><time>2017-07-01T14:38:27Z</time><course>6</course><type>1</type></trkpt>
      <trkpt lat="38.649948" lon="-6.693700"><ele>1289</ele><speed>10.18</speed><time>2017-07-01T14:38:32Z</time><course>114</course><type>1</type></trkpt>
      <trkpt lat="38.649651" lon="-6.693467"><ele>1295</ele><speed>27.92</speed><time>2017-07-01T14:38:37Z</time><course>172</course><type>1</type></trkpt>
      <trkpt lat="38.649017" lon="-6.693817"><ele>1294</ele><speed>55.34</speed><time>2017-07-01T14:38:42Z</time><course>226</course><type>1</type></trkpt>
      <trkpt lat="38.648899" lon="-6.694550"><ele>1301</ele><speed>46.85</speed><time>2017-07-01T14:38:47Z</time><course>290</course><type>1</type></trkpt>
      <trkpt lat="38.649117" lon="-6.694600"><ele>1304</ele><speed>17.75</speed><time>2017-07-01T14:38:52Z</time><course>80</course><type>1</type></trkpt>
      <trkpt lat="38.648617" lon="-6.694750"><ele>1307</ele><speed>41.16</speed><time>2017-07-01T14:38:57Z</time><course>226</course><type>1</type></trkpt>
      <trkpt lat="38.648701" lon="-6.695416"><ele>1312</ele><speed>42.23</speed><time>2017-07-01T14:39:02Z</time><course>318</course><type>1</type></trkpt>
      <trkpt lat="38.648949" lon="-6.695500"><ele>1313</ele><speed>20.56</speed><time>2017-07-01T14:39:07Z</time><course>30</course><type>1</type></trkpt>
      <trkpt lat="38.648518" lon="-6.696267"><ele>1319</ele><speed>29.57</speed><time>2017-07-01T14:39:17Z</time><course>300</course><type>1</type></trkpt>
      <trkpt lat="38.648701" lon="-6.696250"><ele>1320</ele><speed>14.71</speed><time>2017-07-01T14:39:22Z</time><course>52</course><type>1</type></trkpt>
      <trkpt lat="38.648666" lon="-6.695983"><ele>1323</ele><speed>16.95</speed><time>2017-07-01T14:39:27Z</time><course>122</course><type>1</type></trkpt>
      <trkpt lat="38.648335" lon="-6.695833"><ele>1325</ele><speed>28.14</speed><time>2017-07-01T14:39:32Z</time><course>182</course><type>1</type></trkpt>
      <trkpt lat="38.648067" lon="-6.696517"><ele>1326</ele><speed>47.9</speed><time>2017-07-01T14:39:37Z</time><course>292</course><type>1</type></trkpt>
      <trkpt lat="38.648182" lon="-6.696500"><ele>1329</ele><speed>9.28</speed><time>2017-07-01T14:39:42Z</time><course>82</course><type>1</type></trkpt>
      <trkpt lat="38.648132" lon="-6.696300"><ele>1331</ele><speed>13.15</speed><time>2017-07-01T14:39:47Z</time><course>142</course><type>1</type></trkpt>
      <trkpt lat="38.647652" lon="-6.696750"><ele>1330</ele><speed>47.68</speed><time>2017-07-01T14:39:52Z</time><course>270</course><type>1</type></trkpt>
      <trkpt lat="38.647900" lon="-6.697383"><ele>1330</ele><speed>44.33</speed><time>2017-07-01T14:39:57Z</time><course>298</course><type>1</type></trkpt>
      <trkpt lat="38.648167" lon="-6.697834"><ele>1340</ele><speed>35.43</speed><time>2017-07-01T14:40:02Z</time><course>334</course><type>1</type></trkpt>
      <trkpt lat="38.647865" lon="-6.697667"><ele>1344</ele><speed>26.37</speed><time>2017-07-01T14:40:07Z</time><course>198</course><type>1</type></trkpt>
      <trkpt lat="38.647835" lon="-6.698767"><ele>1357</ele><speed>34.45</speed><time>2017-07-01T14:40:17Z</time><course>40</course><type>1</type></trkpt>
      <trkpt lat="38.647366" lon="-6.698750"><ele>1362</ele><speed>37.61</speed><time>2017-07-01T14:40:22Z</time><course>224</course><type>1</type></trkpt>
      <trkpt lat="38.647282" lon="-6.699500"><ele>1371</ele><speed>47.43</speed><time>2017-07-01T14:40:27Z</time><course>284</course><type>1</type></trkpt>
      <trkpt lat="38.647484" lon="-6.699584"><ele>1377</ele><speed>17.02</speed><time>2017-07-01T14:40:32Z</time><course>86</course><type>1</type></trkpt>
      <trkpt lat="38.646999" lon="-6.699584"><ele>1383</ele><speed>38.87</speed><time>2017-07-01T14:40:37Z</time><course>218</course><type>1</type></trkpt>
      <trkpt lat="38.646900" lon="-6.700333"><ele>1389</ele><speed>47.55</speed><time>2017-07-01T14:40:42Z</time><course>296</course><type>1</type></trkpt>
      <trkpt lat="38.647217" lon="-6.700617"><ele>1394</ele><speed>31.01</speed><time>2017-07-01T14:40:47Z</time><course>352</course><type>1</type></trkpt>
      <trkpt lat="38.647167" lon="-6.700300"><ele>1397</ele><speed>20.24</speed><time>2017-07-01T14:40:52Z</time><course>138</course><type>1</type></trkpt>
      <trkpt lat="38.646667" lon="-6.700350"><ele>1399</ele><speed>40.2</speed><time>2017-07-01T14:40:57Z</time><course>206</course><type>1</type></trkpt>
      <trkpt lat="38.646282" lon="-6.701700"><ele>1402</ele><speed>44.98</speed><time>2017-07-01T14:41:07Z</time><course>320</course><type>1</type></trkpt>
      <trkpt lat="38.646465" lon="-6.701667"><ele>1410</ele><speed>14.81</speed><time>2017-07-01T14:41:12Z</time><course>84</course><type>1</type></trkpt>
      <trkpt lat="38.645985" lon="-6.701450"><ele>1410</ele><speed>40.8</speed><time>2017-07-01T14:41:17Z</time><course>192</course><type>1</type></trkpt>
      <trkpt lat="38.645382" lon="-6.701933"><ele>1413</ele><speed>57.01</speed><time>2017-07-01T14:41:22Z</time><course>220</course><type>1</type></trkpt>
      <trkpt lat="38.645149" lon="-6.702750"><ele>1418</ele><speed>54.45</speed><time>2017-07-01T14:41:27Z</time><course>278</course><type>1</type></trkpt>
      <trkpt lat="38.645382" lon="-6.703183"><ele>1423</ele><speed>32.92</speed><time>2017-07-01T14:41:32Z</time><course>346</course><type>1</type></trkpt>
      <trkpt lat="38.645618" lon="-6.703033"><ele>1426</ele><speed>21.12</speed><time>2017-07-01T14:41:37Z</time><course>46</course><type>1</type></trkpt>
      <trkpt lat="38.645233" lon="-6.702750"><ele>1428</ele><speed>35.58</speed><time>2017-07-01T14:41:42Z</time><course>164</course><type>1</type></trkpt>
      <trkpt lat="38.644665" lon="-6.702900"><ele>1431</ele><speed>46.48</speed><time>2017-07-01T14:41:47Z</time><course>212</course><type>1</type></trkpt>
      <trkpt lat="38.644535" lon="-6.704134"><ele>1429</ele><speed>38.97</speed><time>2017-07-01T14:41:57Z</time><course>0</course><type>1</type></trkpt>
      <trkpt lat="38.644718" lon="-6.704200"><ele>1435</ele><speed>15.24</speed><time>2017-07-01T14:42:02Z</time><course>326</course><type>1</type></trkpt>
      <trkpt lat="38.644550" lon="-6.703933"><ele>1433</ele><speed>21.46</speed><time>2017-07-01T14:42:07Z</time><course>146</course><type>1</type></trkpt>
      <trkpt lat="38.644051" lon="-6.703967"><ele>1440</ele><speed>40.05</speed><time>2017-07-01T14:42:12Z</time><course>206</course><type>1</type></trkpt>
      <trkpt lat="38.643917" lon="-6.704767"><ele>1432</ele><speed>51.22</speed><time>2017-07-01T14:42:17Z</time><course>296</course><type>1</type></trkpt>
      <trkpt lat="38.644066" lon="-6.704783"><ele>1435</ele><speed>11.98</speed><time>2017-07-01T14:42:22Z</time><course>64</course><type>1</type></trkpt>
      <trkpt lat="38.643784" lon="-6.704467"><ele>1434</ele><speed>30.04</speed><time>2017-07-01T14:42:27Z</time><course>164</course><type>1</type></trkpt>
      <trkpt lat="38.643349" lon="-6.704867"><ele>1431</ele><speed>42.93</speed><time>2017-07-01T14:42:32Z</time><course>244</course><type>1</type></trkpt>
      <trkpt lat="38.643517" lon="-6.705550"><ele>1429</ele><speed>44.83</speed><time>2017-07-01T14:42:37Z</time><course>324</course><type>1</type></trkpt>
      <trkpt lat="38.643799" lon="-6.705867"><ele>1433</ele><speed>30.08</speed><time>2017-07-01T14:42:42Z</time><course>326</course><type>1</type></trkpt>
      <trkpt lat="38.643185" lon="-6.706050"><ele>1426</ele><speed>25.26</speed><time>2017-07-01T14:42:52Z</time><course>244</course><type>1</type></trkpt>
      <trkpt lat="38.643318" lon="-6.706767"><ele>1420</ele><speed>46.13</speed><time>2017-07-01T14:42:57Z</time><course>316</course><type>1</type></trkpt>
      <trkpt lat="38.643650" lon="-6.707183"><ele>1417</ele><speed>37.23</speed><time>2017-07-01T14:43:02Z</time><course>300</course><type>1</type></trkpt>
      <trkpt lat="38.643799" lon="-6.708550"><ele>1414</ele><speed>54</speed><time>2017-07-01T14:43:10Z</time><course>276</course><type>1</type></trkpt>
      <trkpt lat="38.643867" lon="-6.709434"><ele>1412</ele><speed>55.61</speed><time>2017-07-01T14:43:15Z</time><course>274</course><type>1</type></trkpt>
      <trkpt lat="38.643768" lon="-6.710450"><ele>1395</ele><speed>64.1</speed><time>2017-07-01T14:43:20Z</time><course>262</course><type>1</type></trkpt>
      <trkpt lat="38.643700" lon="-6.711467"><ele>1378</ele><speed>63.9</speed><time>2017-07-01T14:43:25Z</time><course>268</course><type>1</type></trkpt>
      <trkpt lat="38.643684" lon="-6.712433"><ele>1376</ele><speed>60.49</speed><time>2017-07-01T14:43:30Z</time><course>264</course><type>1</type></trkpt>
      <trkpt lat="38.643650" lon="-6.713233"><ele>1365</ele><speed>50.15</speed><time>2017-07-01T14:43:35Z</time><course>266</course><type>1</type></trkpt>
      <trkpt lat="38.643417" lon="-6.714783"><ele>1346</ele><speed>49.41</speed><time>2017-07-01T14:43:45Z</time><course>274</course><type>1</type></trkpt>
      <trkpt lat="38.643368" lon="-6.715667"><ele>1330</ele><speed>55.48</speed><time>2017-07-01T14:43:50Z</time><course>256</course><type>1</type></trkpt>
      <trkpt lat="38.643215" lon="-6.716434"><ele>1319</ele><speed>49.56</speed><time>2017-07-01T14:43:55Z</time><course>264</course><type>1</type></trkpt>
      <trkpt lat="38.643166" lon="-6.717233"><ele>1306</ele><speed>50.17</speed><time>2017-07-01T14:44:00Z</time><course>264</course><type>1</type></trkpt>
      <trkpt lat="38.643200" lon="-6.717916"><ele>1293</ele><speed>42.84</speed><time>2017-07-01T14:44:05Z</time><course>280</course><type>1</type></trkpt>
      <trkpt lat="38.643215" lon="-6.718600"><ele>1285</ele><speed>42.84</speed><time>2017-07-01T14:44:10Z</time><course>260</course><type>1</type></trkpt>
      <trkpt lat="38.643200" lon="-6.719350"><ele>1265</ele><speed>46.97</speed><time>2017-07-01T14:44:15Z</time><course>266</course><type>1</type></trkpt>
      <trkpt lat="38.643135" lon="-6.720250"><ele>1243</ele><speed>56.58</speed><time>2017-07-01T14:44:20Z</time><course>262</course><type>1</type></trkpt>
      <trkpt lat="38.642918" lon="-6.721217"><ele>1224</ele><speed>62.98</speed><time>2017-07-01T14:44:25Z</time><course>242</course><type>1</type></trkpt>
      <trkpt lat="38.642651" lon="-6.722050"><ele>1215</ele><speed>56.37</speed><time>2017-07-01T14:44:30Z</time><course>252</course><type>1</type></trkpt>
      <trkpt lat="38.642132" lon="-6.723516"><ele>1213</ele><speed>50.38</speed><time>2017-07-01T14:44:40Z</time><course>208</course><type>1</type></trkpt>
      <trkpt lat="38.641483" lon="-6.723683"><ele>1217</ele><speed>53.06</speed><time>2017-07-01T14:44:45Z</time><course>164</course><type>1</type></trkpt>
      <trkpt lat="38.641315" lon="-6.723350"><ele>1209</ele><speed>24.82</speed><time>2017-07-01T14:44:50Z</time><course>38</course><type>1</type></trkpt>
      <trkpt lat="38.641548" lon="-6.723800"><ele>1206</ele><speed>33.8</speed><time>2017-07-01T14:44:55Z</time><course>284</course><type>1</type></trkpt>
      <trkpt lat="38.641651" lon="-6.724200"><ele>1209</ele><speed>26.37</speed><time>2017-07-01T14:45:00Z</time><course>308</course><type>1</type></trkpt>
      <trkpt lat="38.641365" lon="-6.723917"><ele>1204</ele><speed>28.97</speed><time>2017-07-01T14:45:05Z</time><course>182</course><type>1</type></trkpt>
      <trkpt lat="38.640835" lon="-6.724433"><ele>1203</ele><speed>53.37</speed><time>2017-07-01T14:45:10Z</time><course>234</course><type>1</type></trkpt>
      <trkpt lat="38.640549" lon="-6.725200"><ele>1203</ele><speed>53.21</speed><time>2017-07-01T14:45:15Z</time><course>242</course><type>1</type></trkpt>
      <trkpt lat="38.640400" lon="-6.725883"><ele>1205</ele><speed>44.39</speed><time>2017-07-01T14:45:20Z</time><course>282</course><type>1</type></trkpt>
      <trkpt lat="38.639832" lon="-6.725817"><ele>1199</ele><speed>22.86</speed><time>2017-07-01T14:45:30Z</time><course>204</course><type>1</type></trkpt>
      <trkpt lat="38.639385" lon="-6.726433"><ele>1198</ele><speed>52.64</speed><time>2017-07-01T14:45:35Z</time><course>246</course><type>1</type></trkpt>
      <trkpt lat="38.639584" lon="-6.726950"><ele>1181</ele><speed>36.08</speed><time>2017-07-01T14:45:40Z</time><course>334</course><type>1</type></trkpt>
      <trkpt lat="38.639751" lon="-6.726800"><ele>1188</ele><speed>16.35</speed><time>2017-07-01T14:45:45Z</time><course>32</course><type>1</type></trkpt>
      <trkpt lat="38.639866" lon="-6.726733"><ele>1180</ele><speed>10.13</speed><time>2017-07-01T14:45:50Z</time><course>14</course><type>1</type></trkpt>
      <trkpt lat="38.640018" lon="-6.727000"><ele>1172</ele><speed>20.68</speed><time>2017-07-01T14:45:55Z</time><course>288</course><type>1</type></trkpt>
      <trkpt lat="38.639866" lon="-6.727767"><ele>1169</ele><speed>49.54</speed><time>2017-07-01T14:46:00Z</time><course>242</course><type>1</type></trkpt>
      <trkpt lat="38.639435" lon="-6.728500"><ele>1165</ele><speed>57.44</speed><time>2017-07-01T14:46:05Z</time><course>220</course><type>1</type></trkpt>
      <trkpt lat="38.638966" lon="-6.729116"><ele>1157</ele><speed>53.85</speed><time>2017-07-01T14:46:10Z</time><course>222</course><type>1</type></trkpt>
      <trkpt lat="38.638416" lon="-6.729767"><ele>1153</ele><speed>60.04</speed><time>2017-07-01T14:46:15Z</time><course>216</course><type>1</type></trkpt>
      <trkpt lat="38.637135" lon="-6.730583"><ele>1129</ele><speed>57.34</speed><time>2017-07-01T14:46:25Z</time><course>202</course><type>1</type></trkpt>
      <trkpt lat="38.636433" lon="-6.731100"><ele>1127</ele><speed>64.91</speed><time>2017-07-01T14:46:30Z</time><course>208</course><type>1</type></trkpt>
      <trkpt lat="38.635784" lon="-6.731467"><ele>1137</ele><speed>56.87</speed><time>2017-07-01T14:46:35Z</time><course>200</course><type>1</type></trkpt>
      <trkpt lat="38.635368" lon="-6.731250"><ele>1135</ele><speed>36</speed><time>2017-07-01T14:46:40Z</time><course>100</course><type>1</type></trkpt>
      <trkpt lat="38.635418" lon="-6.731616"><ele>1130</ele><speed>23.26</speed><time>2017-07-01T14:46:45Z</time><course>266</course><type>1</type></trkpt>
      <trkpt lat="38.634865" lon="-6.732267"><ele>1131</ele><speed>60.21</speed><time>2017-07-01T14:46:50Z</time><course>198</course><type>1</type></trkpt>
      <trkpt lat="38.634132" lon="-6.732550"><ele>1135</ele><speed>61.36</speed><time>2017-07-01T14:46:55Z</time><course>194</course><type>1</type></trkpt>
      <trkpt lat="38.633366" lon="-6.732850"><ele>1136</ele><speed>64.2</speed><time>2017-07-01T14:47:00Z</time><course>200</course><type>1</type></trkpt>
      <trkpt lat="38.632950" lon="-6.733433"><ele>1134</ele><speed>49.44</speed><time>2017-07-01T14:47:05Z</time><course>268</course><type>1</type></trkpt>
      <trkpt lat="38.632999" lon="-6.733483"><ele>1134</ele><speed>5.02</speed><time>2017-07-01T14:47:10Z</time><course>144</course><type>1</type></trkpt>
      <trkpt lat="38.632282" lon="-6.733483"><ele>1136</ele><speed>57.47</speed><time>2017-07-01T14:47:15Z</time><course>188</course><type>1</type></trkpt>
      <trkpt lat="38.631851" lon="-6.734050"><ele>1130</ele><speed>49.53</speed><time>2017-07-01T14:47:20Z</time><course>262</course><type>1</type></trkpt>
      <trkpt lat="38.631916" lon="-6.734684"><ele>1138</ele><speed>40.04</speed><time>2017-07-01T14:47:25Z</time><course>276</course><type>1</type></trkpt>
      <trkpt lat="38.632015" lon="-6.734733"><ele>1134</ele><speed>8.51</speed><time>2017-07-01T14:47:30Z</time><course>118</course><type>1</type></trkpt>
      <trkpt lat="38.631401" lon="-6.734950"><ele>1132</ele><speed>51.05</speed><time>2017-07-01T14:47:35Z</time><course>232</course><type>1</type></trkpt>
      <trkpt lat="38.630852" lon="-6.735533"><ele>1142</ele><speed>57.17</speed><time>2017-07-01T14:47:40Z</time><course>174</course><type>1</type></trkpt>
      <trkpt lat="38.630817" lon="-6.735417"><ele>1144</ele><speed>7.79</speed><time>2017-07-01T14:47:45Z</time><course>310</course><type>1</type></trkpt>
      <trkpt lat="38.630585" lon="-6.736166"><ele>1159</ele><speed>50.45</speed><time>2017-07-01T14:47:50Z</time><course>218</course><type>1</type></trkpt>
      <trkpt lat="38.629883" lon="-6.736267"><ele>1168</ele><speed>56.62</speed><time>2017-07-01T14:47:55Z</time><course>142</course><type>1</type></trkpt>
      <trkpt lat="38.630051" lon="-6.736250"><ele>1173</ele><speed>13.51</speed><time>2017-07-01T14:48:00Z</time><course>290</course><type>1</type></trkpt>
      <trkpt lat="38.629566" lon="-6.736866"><ele>1189</ele><speed>54.76</speed><time>2017-07-01T14:48:05Z</time><course>206</course><type>1</type></trkpt>
      <trkpt lat="38.629051" lon="-6.736817"><ele>1202</ele><speed>41.39</speed><time>2017-07-01T14:48:10Z</time><course>138</course><type>1</type></trkpt>
      <trkpt lat="38.629166" lon="-6.736633"><ele>1203</ele><speed>14.75</speed><time>2017-07-01T14:48:15Z</time><course>342</course><type>1</type></trkpt>
      <trkpt lat="38.629284" lon="-6.737050"><ele>1203</ele><speed>27.77</speed><time>2017-07-01T14:48:20Z</time><course>258</course><type>1</type></trkpt>
      <trkpt lat="38.628632" lon="-6.737367"><ele>1217</ele><speed>55.9</speed><time>2017-07-01T14:48:25Z</time><course>150</course><type>1</type></trkpt>
      <trkpt lat="38.628765" lon="-6.737333"><ele>1216</ele><speed>10.87</speed><time>2017-07-01T14:48:30Z</time><course>296</course><type>1</type></trkpt>
      <trkpt lat="38.628784" lon="-6.737983"><ele>1233</ele><speed>40.73</speed><time>2017-07-01T14:48:35Z</time><course>266</course><type>1</type></trkpt>
      <trkpt lat="38.628201" lon="-6.738517"><ele>1247</ele><speed>57.46</speed><time>2017-07-01T14:48:40Z</time><course>178</course><type>1</type></trkpt>
      <trkpt lat="38.628082" lon="-6.738234"><ele>1265</ele><speed>20.12</speed><time>2017-07-01T14:48:45Z</time><course>26</course><type>1</type></trkpt>
      <trkpt lat="38.628181" lon="-6.738917"><ele>1278</ele><speed>43.5</speed><time>2017-07-01T14:48:50Z</time><course>268</course><type>1</type></trkpt>
      <trkpt lat="38.627766" lon="-6.739500"><ele>1295</ele><speed>49.39</speed><time>2017-07-01T14:48:55Z</time><course>190</course><type>1</type></trkpt>
      <trkpt lat="38.627201" lon="-6.739400"><ele>1318</ele><speed>45.72</speed><time>2017-07-01T14:49:00Z</time><course>144</course><type>1</type></trkpt>
      <trkpt lat="38.627300" lon="-6.739284"><ele>1336</ele><speed>10.76</speed><time>2017-07-01T14:49:05Z</time><course>318</course><type>1</type></trkpt>
      <trkpt lat="38.627300" lon="-6.739883"><ele>1346</ele><speed>37.51</speed><time>2017-07-01T14:49:10Z</time><course>260</course><type>1</type></trkpt>
      <trkpt lat="38.626801" lon="-6.740433"><ele>1357</ele><speed>52.78</speed><time>2017-07-01T14:49:15Z</time><course>194</course><type>1</type></trkpt>
      <trkpt lat="38.626232" lon="-6.740317"><ele>1373</ele><speed>46.18</speed><time>2017-07-01T14:49:20Z</time><course>142</course><type>1</type></trkpt>
      <trkpt lat="38.626202" lon="-6.740950"><ele>1402</ele><speed>19.85</speed><time>2017-07-01T14:49:30Z</time><course>234</course><type>1</type></trkpt>
      <trkpt lat="38.625465" lon="-6.741317"><ele>1407</ele><speed>63.38</speed><time>2017-07-01T14:49:35Z</time><course>190</course><type>1</type></trkpt>
      <trkpt lat="38.625149" lon="-6.741083"><ele>1419</ele><speed>29.26</speed><time>2017-07-01T14:49:40Z</time><course>26</course><type>1</type></trkpt>
      <trkpt lat="38.625168" lon="-6.741734"><ele>1438</ele><speed>40.79</speed><time>2017-07-01T14:49:45Z</time><course>236</course><type>1</type></trkpt>
      <trkpt lat="38.624535" lon="-6.742283"><ele>1460</ele><speed>61.28</speed><time>2017-07-01T14:49:50Z</time><course>194</course><type>1</type></trkpt>
      <trkpt lat="38.624249" lon="-6.742067"><ele>1477</ele><speed>26.62</speed><time>2017-07-01T14:49:55Z</time><course>358</course><type>1</type></trkpt>
      <trkpt lat="38.624016" lon="-6.742784"><ele>1490</ele><speed>48.63</speed><time>2017-07-01T14:50:00Z</time><course>216</course><type>1</type></trkpt>
      <trkpt lat="38.623466" lon="-6.742733"><ele>1512</ele><speed>44.2</speed><time>2017-07-01T14:50:05Z</time><course>130</course><type>1</type></trkpt>
      <trkpt lat="38.623535" lon="-6.742816"><ele>1527</ele><speed>7.59</speed><time>2017-07-01T14:50:10Z</time><course>290</course><type>1</type></trkpt>
      <trkpt lat="38.623268" lon="-6.743583"><ele>1544</ele><speed>52.58</speed><time>2017-07-01T14:50:15Z</time><course>224</course><type>1</type></trkpt>
      <trkpt lat="38.622650" lon="-6.743667"><ele>1563</ele><speed>49.81</speed><time>2017-07-01T14:50:20Z</time><course>150</course><type>1</type></trkpt>
      <trkpt lat="38.622616" lon="-6.743617"><ele>1558</ele><speed>4.15</speed><time>2017-07-01T14:50:25Z</time><course>38</course><type>1</type></trkpt>
      <trkpt lat="38.622566" lon="-6.744250"><ele>1578</ele><speed>39.84</speed><time>2017-07-01T14:50:30Z</time><course>236</course><type>1</type></trkpt>
      <trkpt lat="38.621983" lon="-6.744600"><ele>1596</ele><speed>51.61</speed><time>2017-07-01T14:50:35Z</time><course>162</course><type>1</type></trkpt>
      <trkpt lat="38.621834" lon="-6.744283"><ele>1619</ele><speed>23.17</speed><time>2017-07-01T14:50:40Z</time><course>66</course><type>1</type></trkpt>
      <trkpt lat="38.622002" lon="-6.744617"><ele>1629</ele><speed>24.87</speed><time>2017-07-01T14:50:45Z</time><course>278</course><type>1</type></trkpt>
      <trkpt lat="38.622150" lon="-6.745283"><ele>1647</ele><speed>43.36</speed><time>2017-07-01T14:50:50Z</time><course>278</course><type>1</type></trkpt>
      <trkpt lat="38.621899" lon="-6.745966"><ele>1666</ele><speed>47.26</speed><time>2017-07-01T14:50:55Z</time><course>208</course><type>1</type></trkpt>
      <trkpt lat="38.621616" lon="-6.745783"><ele>1674</ele><speed>25.41</speed><time>2017-07-01T14:51:00Z</time><course>30</course><type>1</type></trkpt>
      <trkpt lat="38.621819" lon="-6.746300"><ele>1685</ele><speed>36.23</speed><time>2017-07-01T14:51:05Z</time><course>272</course><type>1</type></trkpt>
      <trkpt lat="38.621700" lon="-6.747183"><ele>1693</ele><speed>56.11</speed><time>2017-07-01T14:51:10Z</time><course>250</course><type>1</type></trkpt>
      <trkpt lat="38.621201" lon="-6.747766"><ele>1700</ele><speed>54.15</speed><time>2017-07-01T14:51:15Z</time><course>188</course><type>1</type></trkpt>
      <trkpt lat="38.620850" lon="-6.747500"><ele>1713</ele><speed>32.69</speed><time>2017-07-01T14:51:20Z</time><course>96</course><type>1</type></trkpt>
      <trkpt lat="38.620834" lon="-6.747967"><ele>1719</ele><speed>29.27</speed><time>2017-07-01T14:51:25Z</time><course>244</course><type>1</type></trkpt>
      <trkpt lat="38.620216" lon="-6.748550"><ele>1733</ele><speed>61.53</speed><time>2017-07-01T14:51:30Z</time><course>202</course><type>1</type></trkpt>
      <trkpt lat="38.619732" lon="-6.748400"><ele>1745</ele><speed>39.91</speed><time>2017-07-01T14:51:35Z</time><course>136</course><type>1</type></trkpt>
      <trkpt lat="38.619999" lon="-6.748400"><ele>1755</ele><speed>21.4</speed><time>2017-07-01T14:51:40Z</time><course>344</course><type>1</type></trkpt>
      <trkpt lat="38.620132" lon="-6.748783"><ele>1763</ele><speed>26.25</speed><time>2017-07-01T14:51:45Z</time><course>270</course><type>1</type></trkpt>
      <trkpt lat="38.619518" lon="-6.749400"><ele>1768</ele><speed>62.57</speed><time>2017-07-01T14:51:50Z</time><course>190</course><type>1</type></trkpt>
      <trkpt lat="38.619099" lon="-6.749267"><ele>1775</ele><speed>34.6</speed><time>2017-07-01T14:51:55Z</time><course>112</course><type>1</type></trkpt>
      <trkpt lat="38.619350" lon="-6.749567"><ele>1784</ele><speed>27.53</speed><time>2017-07-01T14:52:00Z</time><course>282</course><type>1</type></trkpt>
      <trkpt lat="38.618935" lon="-6.750283"><ele>1789</ele><speed>55.83</speed><time>2017-07-01T14:52:05Z</time><course>200</course><type>1</type></trkpt>
      <trkpt lat="38.610500" lon="-6.761400"><ele>1994</ele><speed>24.88</speed><time>2017-07-01T14:55:20Z</time><course>298</course><type>1</type></trkpt>
      <trkpt lat="38.610699" lon="-6.761650"><ele>2001</ele><speed>22.35</speed><time>2017-07-01T14:55:25Z</time><course>24</course><type>1</type></trkpt>
      <trkpt lat="38.610565" lon="-6.761367"><ele>2000</ele><speed>20.72</speed><time>2017-07-01T14:55:30Z</time><course>162</course><type>1</type></trkpt>
      <trkpt lat="38.610085" lon="-6.761250"><ele>1999</ele><speed>39.16</speed><time>2017-07-01T14:55:35Z</time><course>184</course><type>1</type></trkpt>
      <trkpt lat="38.609566" lon="-6.761300"><ele>2001</ele><speed>41.72</speed><time>2017-07-01T14:55:40Z</time><course>190</course><type>1</type></trkpt>
      <trkpt lat="38.609032" lon="-6.761950"><ele>2006</ele><speed>59.07</speed><time>2017-07-01T14:55:45Z</time><course>258</course><type>1</type></trkpt>
      <trkpt lat="38.609234" lon="-6.762400"><ele>2012</ele><speed>32.5</speed><time>2017-07-01T14:55:50Z</time><course>348</course><type>1</type></trkpt>
      <trkpt lat="38.608967" lon="-6.762200"><ele>2015</ele><speed>24.8</speed><time>2017-07-01T14:55:55Z</time><course>154</course><type>1</type></trkpt>
      <trkpt lat="38.608650" lon="-6.762033"><ele>2021</ele><speed>27.48</speed><time>2017-07-01T14:56:00Z</time><course>162</course><type>1</type></trkpt>
      <trkpt lat="38.608284" lon="-6.762033"><ele>2035</ele><speed>29.33</speed><time>2017-07-01T14:56:05Z</time><course>192</course><type>1</type></trkpt>
      <trkpt lat="38.607685" lon="-6.762650"><ele>2038</ele><speed>61.63</speed><time>2017-07-01T14:56:10Z</time><course>242</course><type>1</type></trkpt>
      <trkpt lat="38.607651" lon="-6.763433"><ele>2053</ele><speed>49.12</speed><time>2017-07-01T14:56:15Z</time><course>290</course><type>1</type></trkpt>
      <trkpt lat="38.607784" lon="-6.763417"><ele>2056</ele><speed>10.71</speed><time>2017-07-01T14:56:20Z</time><course>146</course><type>1</type></trkpt>
      <trkpt lat="38.607235" lon="-6.763683"><ele>2067</ele><speed>47.05</speed><time>2017-07-01T14:56:25Z</time><course>220</course><type>1</type></trkpt>
      <trkpt lat="38.606632" lon="-6.764534"><ele>2071</ele><speed>71.95</speed><time>2017-07-01T14:56:30Z</time><course>220</course><type>1</type></trkpt>
      <trkpt lat="38.606098" lon="-6.764583"><ele>2083</ele><speed>42.91</speed><time>2017-07-01T14:56:35Z</time><course>124</course><type>1</type></trkpt>
      <trkpt lat="38.606300" lon="-6.764950"><ele>2089</ele><speed>28.12</speed><time>2017-07-01T14:56:40Z</time><course>274</course><type>1</type></trkpt>
      <trkpt lat="38.605766" lon="-6.765584"><ele>2097</ele><speed>58.38</speed><time>2017-07-01T14:56:45Z</time><course>186</course><type>1</type></trkpt>
      <trkpt lat="38.605251" lon="-6.765517"><ele>2110</ele><speed>41.49</speed><time>2017-07-01T14:56:50Z</time><course>150</course><type>1</type></trkpt>
      <trkpt lat="38.605385" lon="-6.765483"><ele>2113</ele><speed>10.95</speed><time>2017-07-01T14:56:55Z</time><course>312</course><type>1</type></trkpt>
      <trkpt lat="38.605118" lon="-6.766333"><ele>2120</ele><speed>57.38</speed><time>2017-07-01T14:57:00Z</time><course>214</course><type>1</type></trkpt>
      <trkpt lat="38.604450" lon="-6.766583"><ele>2130</ele><speed>55.78</speed><time>2017-07-01T14:57:05Z</time><course>184</course><type>1</type></trkpt>
      <trkpt lat="38.604252" lon="-6.766383"><ele>2138</ele><speed>20.22</speed><time>2017-07-01T14:57:10Z</time><course>20</course><type>1</type></trkpt>
      <trkpt lat="38.604382" lon="-6.767066"><ele>2142</ele><speed>44.03</speed><time>2017-07-01T14:57:15Z</time><course>248</course><type>1</type></trkpt>
      <trkpt lat="38.603851" lon="-6.767617"><ele>2147</ele><speed>54.79</speed><time>2017-07-01T14:57:20Z</time><course>188</course><type>1</type></trkpt>
      <trkpt lat="38.603382" lon="-6.767450"><ele>2160</ele><speed>39.02</speed><time>2017-07-01T14:57:25Z</time><course>142</course><type>1</type></trkpt>
      <trkpt lat="38.603584" lon="-6.767567"><ele>2167</ele><speed>17.77</speed><time>2017-07-01T14:57:30Z</time><course>298</course><type>1</type></trkpt>
      <trkpt lat="38.603367" lon="-6.768434"><ele>2177</ele><speed>57.02</speed><time>2017-07-01T14:57:35Z</time><course>226</course><type>1</type></trkpt>
      <trkpt lat="38.602734" lon="-6.768717"><ele>2186</ele><speed>53.74</speed><time>2017-07-01T14:57:40Z</time><course>184</course><type>1</type></trkpt>
      <trkpt lat="38.602333" lon="-6.768850"><ele>2193</ele><speed>18.45</speed><time>2017-07-01T14:57:49Z</time><course>182</course><type>1</type></trkpt>
      <trkpt lat="38.602951" lon="-6.769050"><ele>2200</ele><speed>51.09</speed><time>2017-07-01T14:57:54Z</time><course>280</course><type>1</type></trkpt>
      <trkpt lat="38.602966" lon="-6.769900"><ele>2208</ele><speed>53.25</speed><time>2017-07-01T14:57:59Z</time><course>256</course><type>1</type></trkpt>
      <trkpt lat="38.602467" lon="-6.770500"><ele>2212</ele><speed>54.88</speed><time>2017-07-01T14:58:04Z</time><course>204</course><type>1</type></trkpt>
      <trkpt lat="38.602135" lon="-6.771333"><ele>2217</ele><speed>58.57</speed><time>2017-07-01T14:58:09Z</time><course>262</course><type>1</type></trkpt>
      <trkpt lat="38.602299" lon="-6.771950"><ele>2218</ele><speed>40.82</speed><time>2017-07-01T14:58:14Z</time><course>316</course><type>1</type></trkpt>
      <trkpt lat="38.602135" lon="-6.772000"><ele>2227</ele><speed>6.76</speed><time>2017-07-01T14:58:24Z</time><course>208</course><type>1</type></trkpt>
      <trkpt lat="38.601818" lon="-6.772783"><ele>2232</ele><speed>55.24</speed><time>2017-07-01T14:58:29Z</time><course>262</course><type>1</type></trkpt>
      <trkpt lat="38.601868" lon="-6.773716"><ele>2240</ele><speed>58.58</speed><time>2017-07-01T14:58:34Z</time><course>276</course><type>1</type></trkpt>
      <trkpt lat="38.602165" lon="-6.774267"><ele>2242</ele><speed>41.93</speed><time>2017-07-01T14:58:39Z</time><course>348</course><type>1</type></trkpt>
      <trkpt lat="38.602184" lon="-6.774117"><ele>2242</ele><speed>9.52</speed><time>2017-07-01T14:58:44Z</time><course>46</course><type>1</type></trkpt>
      <trkpt lat="38.601582" lon="-6.774317"><ele>2242</ele><speed>49.85</speed><time>2017-07-01T14:58:49Z</time><course>210</course><type>1</type></trkpt>
      <trkpt lat="38.600948" lon="-6.774933"><ele>2249</ele><speed>63.8</speed><time>2017-07-01T14:58:54Z</time><course>234</course><type>1</type></trkpt>
      <trkpt lat="38.600517" lon="-6.775717"><ele>2247</ele><speed>60.04</speed><time>2017-07-01T14:58:59Z</time><course>238</course><type>1</type></trkpt>
      <trkpt lat="38.600117" lon="-6.776650"><ele>2239</ele><speed>66.66</speed><time>2017-07-01T14:59:04Z</time><course>240</course><type>1</type></trkpt>
      <trkpt lat="38.599766" lon="-6.777600"><ele>2238</ele><speed>65.82</speed><time>2017-07-01T14:59:09Z</time><course>244</course><type>1</type></trkpt>
      <trkpt lat="38.599434" lon="-6.778600"><ele>2237</ele><speed>68.06</speed><time>2017-07-01T14:59:14Z</time><course>244</course><type>1</type></trkpt>
      <trkpt lat="38.599117" lon="-6.779634"><ele>2231</ele><speed>69.57</speed><time>2017-07-01T14:59:19Z</time><course>244</course><type>1</type></trkpt>
      <trkpt lat="38.598732" lon="-6.780600"><ele>2226</ele><speed>67.92</speed><time>2017-07-01T14:59:24Z</time><course>244</course><type>1</type></trkpt>
      <trkpt lat="38.598351" lon="-6.781567"><ele>2221</ele><speed>67.84</speed><time>2017-07-01T14:59:29Z</time><course>242</course><type>1</type></trkpt>
      <trkpt lat="38.597851" lon="-6.782784"><ele>2220</ele><speed>71.77</speed><time>2017-07-01T14:59:35Z</time><course>242</course><type>1</type></trkpt>
      <trkpt lat="38.597450" lon="-6.783767"><ele>2213</ele><speed>69.46</speed><time>2017-07-01T14:59:40Z</time><course>242</course><type>1</type></trkpt>
      <trkpt lat="38.597034" lon="-6.784733"><ele>2202</ele><speed>69.09</speed><time>2017-07-01T14:59:45Z</time><course>240</course><type>1</type></trkpt>
      <trkpt lat="38.596615" lon="-6.785833"><ele>2187</ele><speed>76.65</speed><time>2017-07-01T14:59:50Z</time><course>242</course><type>1</type></trkpt>
      <trkpt lat="38.596149" lon="-6.786933"><ele>2183</ele><speed>78.38</speed><time>2017-07-01T14:59:55Z</time><course>236</course><type>1</type></trkpt>
      <trkpt lat="38.595699" lon="-6.788017"><ele>2166</ele><speed>76.89</speed><time>2017-07-01T15:00:00Z</time><course>240</course><type>1</type></trkpt>
      <trkpt lat="38.595184" lon="-6.789134"><ele>2153</ele><speed>81.24</speed><time>2017-07-01T15:00:05Z</time><course>238</course><type>1</type></trkpt>
      <trkpt lat="38.594650" lon="-6.790283"><ele>2138</ele><speed>83.74</speed><time>2017-07-01T15:00:10Z</time><course>240</course><type>1</type></trkpt>
      <trkpt lat="38.594116" lon="-6.791367"><ele>2122</ele><speed>80.27</speed><time>2017-07-01T15:00:15Z</time><course>234</course><type>1</type></trkpt>
      <trkpt lat="38.593567" lon="-6.792483"><ele>2111</ele><speed>82.61</speed><time>2017-07-01T15:00:20Z</time><course>236</course><type>1</type></trkpt>
      <trkpt lat="38.592999" lon="-6.793550"><ele>2095</ele><speed>80.87</speed><time>2017-07-01T15:00:25Z</time><course>236</course><type>1</type></trkpt>
      <trkpt lat="38.592133" lon="-6.795350"><ele>2079</ele><speed>82.76</speed><time>2017-07-01T15:00:33Z</time><course>234</course><type>1</type></trkpt>
      <trkpt lat="38.591648" lon="-6.796300"><ele>2078</ele><speed>71.08</speed><time>2017-07-01T15:00:38Z</time><course>236</course><type>1</type></trkpt>
      <trkpt lat="38.591167" lon="-6.797317"><ele>2061</ele><speed>74.47</speed><time>2017-07-01T15:00:43Z</time><course>238</course><type>1</type></trkpt>
      <trkpt lat="38.590649" lon="-6.798333"><ele>2047</ele><speed>75.99</speed><time>2017-07-01T15:00:48Z</time><course>238</course><type>1</type></trkpt>
      <trkpt lat="38.590134" lon="-6.799300"><ele>2047</ele><speed>73.31</speed><time>2017-07-01T15:00:53Z</time><course>234</course><type>1</type></trkpt>
      <trkpt lat="38.589565" lon="-6.800317"><ele>2035</ele><speed>78.35</speed><time>2017-07-01T15:00:58Z</time><course>232</course><type>1</type></trkpt>
      <trkpt lat="38.589134" lon="-6.801233"><ele>2040</ele><speed>66.98</speed><time>2017-07-01T15:01:03Z</time><course>242</course><type>1</type></trkpt>
      <trkpt lat="38.588902" lon="-6.802250"><ele>2024</ele><speed>66.37</speed><time>2017-07-01T15:01:08Z</time><course>240</course><type>1</type></trkpt>
      <trkpt lat="38.588451" lon="-6.803233"><ele>2018</ele><speed>71.41</speed><time>2017-07-01T15:01:13Z</time><course>240</course><type>1</type></trkpt>
      <trkpt lat="38.587849" lon="-6.804433"><ele>2009</ele><speed>74.44</speed><time>2017-07-01T15:01:19Z</time><course>234</course><type>1</type></trkpt>
      <trkpt lat="38.586868" lon="-6.806533"><ele>1989</ele><speed>76.63</speed><time>2017-07-01T15:01:29Z</time><course>236</course><type>1</type></trkpt>
      <trkpt lat="38.586369" lon="-6.807550"><ele>1980</ele><speed>75.23</speed><time>2017-07-01T15:01:34Z</time><course>236</course><type>1</type></trkpt>
      <trkpt lat="38.585835" lon="-6.808483"><ele>1971</ele><speed>72.45</speed><time>2017-07-01T15:01:39Z</time><course>232</course><type>1</type></trkpt>
      <trkpt lat="38.585285" lon="-6.809467"><ele>1968</ele><speed>75.79</speed><time>2017-07-01T15:01:44Z</time><course>234</course><type>1</type></trkpt>
      <trkpt lat="38.584782" lon="-6.810433"><ele>1961</ele><speed>72.72</speed><time>2017-07-01T15:01:49Z</time><course>234</course><type>1</type></trkpt>
      <trkpt lat="38.584282" lon="-6.811433"><ele>1956</ele><speed>74.37</speed><time>2017-07-01T15:01:54Z</time><course>234</course><type>1</type></trkpt>
      <trkpt lat="38.583466" lon="-6.812767"><ele>1951</ele><speed>75.8</speed><time>2017-07-01T15:02:01Z</time><course>230</course><type>1</type></trkpt>
      <trkpt lat="38.582851" lon="-6.813700"><ele>1944</ele><speed>76.46</speed><time>2017-07-01T15:02:06Z</time><course>232</course><type>1</type></trkpt>
      <trkpt lat="38.582184" lon="-6.814617"><ele>1933</ele><speed>78.48</speed><time>2017-07-01T15:02:11Z</time><course>226</course><type>1</type></trkpt>
      <trkpt lat="38.581585" lon="-6.815550"><ele>1928</ele><speed>75.64</speed><time>2017-07-01T15:02:16Z</time><course>234</course><type>1</type></trkpt>
      <trkpt lat="38.580982" lon="-6.816517"><ele>1915</ele><speed>77.5</speed><time>2017-07-01T15:02:21Z</time><course>232</course><type>1</type></trkpt>
      <trkpt lat="38.578548" lon="-6.820100"><ele>1898</ele><speed>74.35</speed><time>2017-07-01T15:02:41Z</time><course>230</course><type>1</type></trkpt>
      <trkpt lat="38.577984" lon="-6.820883"><ele>1888</ele><speed>66.71</speed><time>2017-07-01T15:02:46Z</time><course>228</course><type>1</type></trkpt>
      <trkpt lat="38.577351" lon="-6.821633"><ele>1878</ele><speed>69.16</speed><time>2017-07-01T15:02:51Z</time><course>224</course><type>1</type></trkpt>
      <trkpt lat="38.576149" lon="-6.823184"><ele>1864</ele><speed>68.42</speed><time>2017-07-01T15:03:01Z</time><course>228</course><type>1</type></trkpt>
      <trkpt lat="38.575600" lon="-6.824000"><ele>1856</ele><speed>67.46</speed><time>2017-07-01T15:03:06Z</time><course>226</course><type>1</type></trkpt>
      <trkpt lat="38.575050" lon="-6.824817"><ele>1847</ele><speed>67.56</speed><time>2017-07-01T15:03:11Z</time><course>232</course><type>1</type></trkpt>
      <trkpt lat="38.574516" lon="-6.825600"><ele>1841</ele><speed>65.11</speed><time>2017-07-01T15:03:16Z</time><course>226</course><type>1</type></trkpt>
      <trkpt lat="38.573933" lon="-6.826317"><ele>1831</ele><speed>64.82</speed><time>2017-07-01T15:03:21Z</time><course>220</course><type>1</type></trkpt>
      <trkpt lat="38.573383" lon="-6.827100"><ele>1817</ele><speed>65.96</speed><time>2017-07-01T15:03:26Z</time><course>230</course><type>1</type></trkpt>
      <trkpt lat="38.572849" lon="-6.827867"><ele>1812</ele><speed>64.36</speed><time>2017-07-01T15:03:31Z</time><course>230</course><type>1</type></trkpt>
      <trkpt lat="38.572365" lon="-6.828650"><ele>1793</ele><speed>62.55</speed><time>2017-07-01T15:03:36Z</time><course>234</course><type>1</type></trkpt>
      <trkpt lat="38.571815" lon="-6.829383"><ele>1780</ele><speed>63.66</speed><time>2017-07-01T15:03:41Z</time><course>226</course><type>1</type></trkpt>
      <trkpt lat="38.571301" lon="-6.830117"><ele>1771</ele><speed>61.75</speed><time>2017-07-01T15:03:46Z</time><course>226</course><type>1</type></trkpt>
      <trkpt lat="38.569881" lon="-6.831900"><ele>1767</ele><speed>66.45</speed><time>2017-07-01T15:03:58Z</time><course>226</course><type>1</type></trkpt>
      <trkpt lat="38.569302" lon="-6.832600"><ele>1752</ele><speed>63.86</speed><time>2017-07-01T15:04:03Z</time><course>222</course><type>1</type></trkpt>
      <trkpt lat="38.568768" lon="-6.833150"><ele>1752</ele><speed>54.95</speed><time>2017-07-01T15:04:08Z</time><course>202</course><type>1</type></trkpt>
      <trkpt lat="38.568134" lon="-6.833017"><ele>1745</ele><speed>51.49</speed><time>2017-07-01T15:04:13Z</time><course>164</course><type>1</type></trkpt>
      <trkpt lat="38.567833" lon="-6.832800"><ele>1740</ele><speed>27.69</speed><time>2017-07-01T15:04:18Z</time><course>94</course><type>1</type></trkpt>
      <trkpt lat="38.568035" lon="-6.833050"><ele>1726</ele><speed>22.53</speed><time>2017-07-01T15:04:23Z</time><course>278</course><type>1</type></trkpt>
      <trkpt lat="38.567783" lon="-6.833850"><ele>1721</ele><speed>54.05</speed><time>2017-07-01T15:04:28Z</time><course>232</course><type>1</type></trkpt>
      <trkpt lat="38.567200" lon="-6.834583"><ele>1713</ele><speed>65.52</speed><time>2017-07-01T15:04:33Z</time><course>226</course><type>1</type></trkpt>
      <trkpt lat="38.566666" lon="-6.835267"><ele>1710</ele><speed>60.57</speed><time>2017-07-01T15:04:38Z</time><course>222</course><type>1</type></trkpt>
      <trkpt lat="38.565434" lon="-6.836383"><ele>1711</ele><speed>60.5</speed><time>2017-07-01T15:04:48Z</time><course>194</course><type>1</type></trkpt>
      <trkpt lat="38.564667" lon="-6.836867"><ele>1712</ele><speed>57.13</speed><time>2017-07-01T15:04:54Z</time><course>204</course><type>1</type></trkpt>
      <trkpt lat="38.564667" lon="-6.837683"><ele>1712</ele><speed>51.14</speed><time>2017-07-01T15:04:59Z</time><course>292</course><type>1</type></trkpt>
      <trkpt lat="38.564934" lon="-6.837934"><ele>1714</ele><speed>26.56</speed><time>2017-07-01T15:05:04Z</time><course>22</course><type>1</type></trkpt>
      <trkpt lat="38.564617" lon="-6.837733"><ele>1713</ele><speed>28.36</speed><time>2017-07-01T15:05:09Z</time><course>186</course><type>1</type></trkpt>
      <trkpt lat="38.564083" lon="-6.838250"><ele>1719</ele><speed>53.68</speed><time>2017-07-01T15:05:14Z</time><course>238</course><type>1</type></trkpt>
      <trkpt lat="38.564232" lon="-6.838950"><ele>1720</ele><speed>45.47</speed><time>2017-07-01T15:05:19Z</time><course>310</course><type>1</type></trkpt>
      <trkpt lat="38.564568" lon="-6.839250"><ele>1723</ele><speed>32.84</speed><time>2017-07-01T15:05:24Z</time><course>346</course><type>1</type></trkpt>
      <trkpt lat="38.564365" lon="-6.839016"><ele>1721</ele><speed>21.9</speed><time>2017-07-01T15:05:29Z</time><course>178</course><type>1</type></trkpt>
      <trkpt lat="38.563801" lon="-6.839500"><ele>1720</ele><speed>54.44</speed><time>2017-07-01T15:05:34Z</time><course>228</course><type>1</type></trkpt>
      <trkpt lat="38.563965" lon="-6.840667"><ele>1715</ele><speed>37.15</speed><time>2017-07-01T15:05:44Z</time><course>336</course><type>1</type></trkpt>
      <trkpt lat="38.564117" lon="-6.840567"><ele>1710</ele><speed>13.7</speed><time>2017-07-01T15:05:49Z</time><course>116</course><type>1</type></trkpt>
      <trkpt lat="38.563702" lon="-6.840517"><ele>1707</ele><speed>33.41</speed><time>2017-07-01T15:05:54Z</time><course>188</course><type>1</type></trkpt>
      <trkpt lat="38.563118" lon="-6.840667"><ele>1702</ele><speed>47.74</speed><time>2017-07-01T15:05:59Z</time><course>190</course><type>1</type></trkpt>
      <trkpt lat="38.562500" lon="-6.840967"><ele>1704</ele><speed>52.98</speed><time>2017-07-01T15:06:04Z</time><course>206</course><type>1</type></trkpt>
      <trkpt lat="38.561916" lon="-6.841283"><ele>1707</ele><speed>50.82</speed><time>2017-07-01T15:06:09Z</time><course>198</course><type>1</type></trkpt>
      <trkpt lat="38.561249" lon="-6.841533"><ele>1714</ele><speed>55.71</speed><time>2017-07-01T15:06:14Z</time><course>196</course><type>1</type></trkpt>
      <trkpt lat="38.560566" lon="-6.841784"><ele>1726</ele><speed>56.96</speed><time>2017-07-01T15:06:19Z</time><course>190</course><type>1</type></trkpt>
      <trkpt lat="38.560001" lon="-6.841750"><ele>1739</ele><speed>45.33</speed><time>2017-07-01T15:06:24Z</time><course>146</course><type>1</type></trkpt>
      <trkpt lat="38.560165" lon="-6.841833"><ele>1737</ele><speed>14.14</speed><time>2017-07-01T15:06:29Z</time><course>290</course><type>1</type></trkpt>
      <trkpt lat="38.559818" lon="-6.843250"><ele>1756</ele><speed>46.53</speed><time>2017-07-01T15:06:39Z</time><course>194</course><type>1</type></trkpt>
      <trkpt lat="38.559483" lon="-6.843083"><ele>1765</ele><speed>28.82</speed><time>2017-07-01T15:06:44Z</time><course>18</course><type>1</type></trkpt>
      <trkpt lat="38.559685" lon="-6.843600"><ele>1773</ele><speed>36.22</speed><time>2017-07-01T15:06:49Z</time><course>266</course><type>1</type></trkpt>
      <trkpt lat="38.559368" lon="-6.844367"><ele>1772</ele><speed>54.37</speed><time>2017-07-01T15:06:54Z</time><course>218</course><type>1</type></trkpt>
      <trkpt lat="38.558716" lon="-6.844633"><ele>1782</ele><speed>54.85</speed><time>2017-07-01T15:06:59Z</time><course>198</course><type>1</type></trkpt>
      <trkpt lat="38.558666" lon="-6.844500"><ele>1786</ele><speed>9.25</speed><time>2017-07-01T15:07:04Z</time><course>346</course><type>1</type></trkpt>
      <trkpt lat="38.558784" lon="-6.845167"><ele>1806</ele><speed>42.86</speed><time>2017-07-01T15:07:09Z</time><course>252</course><type>1</type></trkpt>
      <trkpt lat="38.558250" lon="-6.845667"><ele>1822</ele><speed>53.05</speed><time>2017-07-01T15:07:14Z</time><course>182</course><type>1</type></trkpt>
      <trkpt lat="38.558132" lon="-6.845500"><ele>1828</ele><speed>14.11</speed><time>2017-07-01T15:07:19Z</time><course>28</course><type>1</type></trkpt>
      <trkpt lat="38.558350" lon="-6.846583"><ele>1842</ele><speed>35.05</speed><time>2017-07-01T15:07:29Z</time><course>218</course><type>1</type></trkpt>
      <trkpt lat="38.557919" lon="-6.846600"><ele>1852</ele><speed>34.56</speed><time>2017-07-01T15:07:34Z</time><course>124</course><type>1</type></trkpt>
      <trkpt lat="38.558266" lon="-6.847084"><ele>1854</ele><speed>25.72</speed><time>2017-07-01T15:07:42Z</time><course>272</course><type>1</type></trkpt>
      <trkpt lat="38.557583" lon="-6.847733"><ele>1870</ele><speed>68.2</speed><time>2017-07-01T15:07:47Z</time><course>198</course><type>1</type></trkpt>
      <trkpt lat="38.557568" lon="-6.847583"><ele>1880</ele><speed>9.48</speed><time>2017-07-01T15:07:52Z</time><course>354</course><type>1</type></trkpt>
      <trkpt lat="38.557682" lon="-6.848383"><ele>1882</ele><speed>50.97</speed><time>2017-07-01T15:07:57Z</time><course>242</course><type>1</type></trkpt>
      <trkpt lat="38.557133" lon="-6.848866"><ele>1896</ele><speed>53.41</speed><time>2017-07-01T15:08:02Z</time><course>198</course><type>1</type></trkpt>
      <trkpt lat="38.556850" lon="-6.848667"><ele>1905</ele><speed>25.89</speed><time>2017-07-01T15:08:07Z</time><course>94</course><type>1</type></trkpt>
      <trkpt lat="38.557049" lon="-6.848983"><ele>1903</ele><speed>25.43</speed><time>2017-07-01T15:08:12Z</time><course>332</course><type>1</type></trkpt>
      <trkpt lat="38.556450" lon="-6.850250"><ele>1921</ele><speed>46.4</speed><time>2017-07-01T15:08:22Z</time><course>180</course><type>1</type></trkpt>
      <trkpt lat="38.555950" lon="-6.850317"><ele>1923</ele><speed>40.29</speed><time>2017-07-01T15:08:27Z</time><course>164</course><type>1</type></trkpt>
      <trkpt lat="38.555916" lon="-6.850083"><ele>1928</ele><speed>14.92</speed><time>2017-07-01T15:08:32Z</time><course>24</course><type>1</type></trkpt>
      <trkpt lat="38.556198" lon="-6.850616"><ele>1925</ele><speed>40.33</speed><time>2017-07-01T15:08:37Z</time><course>276</course><type>1</type></trkpt>
      <trkpt lat="38.555851" lon="-6.851450"><ele>1923</ele><speed>59.21</speed><time>2017-07-01T15:08:42Z</time><course>218</course><type>1</type></trkpt>
      <trkpt lat="38.555065" lon="-6.851733"><ele>1925</ele><speed>40.9</speed><time>2017-07-01T15:08:50Z</time><course>186</course><type>1</type></trkpt>
      <trkpt lat="38.554832" lon="-6.851333"><ele>1925</ele><speed>31.26</speed><time>2017-07-01T15:08:55Z</time><course>154</course><type>1</type></trkpt>
      <trkpt lat="38.554417" lon="-6.851433"><ele>1898</ele><speed>33.85</speed><time>2017-07-01T15:09:00Z</time><course>212</course><type>1</type></trkpt>
      <trkpt lat="38.553883" lon="-6.852067"><ele>1890</ele><speed>58.4</speed><time>2017-07-01T15:09:05Z</time><course>218</course><type>1</type></trkpt>
      <trkpt lat="38.553398" lon="-6.852650"><ele>1885</ele><speed>53.35</speed><time>2017-07-01T15:09:10Z</time><course>228</course><type>1</type></trkpt>
      <trkpt lat="38.552952" lon="-6.853400"><ele>1889</ele><speed>59.06</speed><time>2017-07-01T15:09:15Z</time><course>242</course><type>1</type></trkpt>
      <trkpt lat="38.552532" lon="-6.853633"><ele>1887</ele><speed>36.69</speed><time>2017-07-01T15:09:20Z</time><course>152</course><type>1</type></trkpt>
      <trkpt lat="38.552784" lon="-6.853617"><ele>1881</ele><speed>20.22</speed><time>2017-07-01T15:09:25Z</time><course>320</course><type>1</type></trkpt>
      <trkpt lat="38.553051" lon="-6.854283"><ele>1881</ele><speed>46.91</speed><time>2017-07-01T15:09:30Z</time><course>282</course><type>1</type></trkpt>
      <trkpt lat="38.552765" lon="-6.855166"><ele>1871</ele><speed>59.91</speed><time>2017-07-01T15:09:35Z</time><course>228</course><type>1</type></trkpt>
      <trkpt lat="38.552334" lon="-6.855800"><ele>1867</ele><speed>52.65</speed><time>2017-07-01T15:09:40Z</time><course>232</course><type>1</type></trkpt>
      <trkpt lat="38.551899" lon="-6.856583"><ele>1861</ele><speed>60.2</speed><time>2017-07-01T15:09:45Z</time><course>230</course><type>1</type></trkpt>
      <trkpt lat="38.551399" lon="-6.857133"><ele>1852</ele><speed>52.86</speed><time>2017-07-01T15:09:50Z</time><course>220</course><type>1</type></trkpt>
      <trkpt lat="38.550018" lon="-6.858133"><ele>1850</ele><speed>63.6</speed><time>2017-07-01T15:10:00Z</time><course>196</course><type>1</type></trkpt>
      <trkpt lat="38.549515" lon="-6.858733"><ele>1833</ele><speed>55.13</speed><time>2017-07-01T15:10:05Z</time><course>220</course><type>1</type></trkpt>
      <trkpt lat="38.548916" lon="-6.859400"><ele>1815</ele><speed>63.66</speed><time>2017-07-01T15:10:10Z</time><course>222</course><type>1</type></trkpt>
      <trkpt lat="38.548302" lon="-6.860083"><ele>1808</ele><speed>65.23</speed><time>2017-07-01T15:10:15Z</time><course>220</course><type>1</type></trkpt>
      <trkpt lat="38.547268" lon="-6.861516"><ele>1798</ele><speed>67.9</speed><time>2017-07-01T15:10:24Z</time><course>232</course><type>1</type></trkpt>
      <trkpt lat="38.546783" lon="-6.862300"><ele>1793</ele><speed>62.66</speed><time>2017-07-01T15:10:29Z</time><course>234</course><type>1</type></trkpt>
      <trkpt lat="38.546249" lon="-6.863167"><ele>1789</ele><speed>69.18</speed><time>2017-07-01T15:10:34Z</time><course>228</course><type>1</type></trkpt>
      <trkpt lat="38.545734" lon="-6.863817"><ele>1790</ele><speed>58</speed><time>2017-07-01T15:10:39Z</time><course>226</course><type>1</type></trkpt>
      <trkpt lat="38.545185" lon="-6.864617"><ele>1789</ele><speed>66.72</speed><time>2017-07-01T15:10:44Z</time><course>224</course><type>1</type></trkpt>
      <trkpt lat="38.545033" lon="-6.865417"><ele>1787</ele><speed>51.61</speed><time>2017-07-01T15:10:49Z</time><course>300</course><type>1</type></trkpt>
      <trkpt lat="38.545185" lon="-6.865400"><ele>1791</ele><speed>12.23</speed><time>2017-07-01T15:10:54Z</time><course>108</course><type>1</type></trkpt>
      <trkpt lat="38.544666" lon="-6.865283"><ele>1790</ele><speed>42.24</speed><time>2017-07-01T15:10:59Z</time><course>194</course><type>1</type></trkpt>
      <trkpt lat="38.544018" lon="-6.865750"><ele>1796</ele><speed>59.62</speed><time>2017-07-01T15:11:04Z</time><course>212</course><type>1</type></trkpt>
      <trkpt lat="38.543499" lon="-6.866517"><ele>1806</ele><speed>63.58</speed><time>2017-07-01T15:11:09Z</time><course>220</course><type>1</type></trkpt>
      <trkpt lat="38.543385" lon="-6.867233"><ele>1808</ele><speed>45.81</speed><time>2017-07-01T15:11:14Z</time><course>308</course><type>1</type></trkpt>
      <trkpt lat="38.543335" lon="-6.867116"><ele>1814</ele><speed>8.36</speed><time>2017-07-01T15:11:19Z</time><course>142</course><type>1</type></trkpt>
      <trkpt lat="38.542751" lon="-6.867050"><ele>1816</ele><speed>46.99</speed><time>2017-07-01T15:11:24Z</time><course>182</course><type>1</type></trkpt>
      <trkpt lat="38.542351" lon="-6.867967"><ele>1819</ele><speed>65.82</speed><time>2017-07-01T15:11:29Z</time><course>256</course><type>1</type></trkpt>
      <trkpt lat="38.542133" lon="-6.867900"><ele>1840</ele><speed>8.99</speed><time>2017-07-01T15:11:39Z</time><course>154</course><type>1</type></trkpt>
      <trkpt lat="38.541550" lon="-6.868083"><ele>1850</ele><speed>48.12</speed><time>2017-07-01T15:11:44Z</time><course>220</course><type>1</type></trkpt>
      <trkpt lat="38.541466" lon="-6.868767"><ele>1860</ele><speed>43.41</speed><time>2017-07-01T15:11:49Z</time><course>318</course><type>1</type></trkpt>
      <trkpt lat="38.541283" lon="-6.868516"><ele>1866</ele><speed>21.51</speed><time>2017-07-01T15:11:54Z</time><course>162</course><type>1</type></trkpt>
      <trkpt lat="38.540684" lon="-6.868983"><ele>1877</ele><speed>56.23</speed><time>2017-07-01T15:11:59Z</time><course>246</course><type>1</type></trkpt>
      <trkpt lat="38.540718" lon="-6.869383"><ele>1885</ele><speed>25.22</speed><time>2017-07-01T15:12:04Z</time><course>10</course><type>1</type></trkpt>
      <trkpt lat="38.540268" lon="-6.869167"><ele>1890</ele><speed>38.53</speed><time>2017-07-01T15:12:09Z</time><course>192</course><type>1</type></trkpt>
      <trkpt lat="38.539902" lon="-6.869817"><ele>1903</ele><speed>50.21</speed><time>2017-07-01T15:12:14Z</time><course>276</course><type>1</type></trkpt>
      <trkpt lat="38.539917" lon="-6.869750"><ele>1907</ele><speed>4.37</speed><time>2017-07-01T15:12:19Z</time><course>142</course><type>1</type></trkpt>
      <trkpt lat="38.539268" lon="-6.870083"><ele>1920</ele><speed>56.05</speed><time>2017-07-01T15:12:24Z</time><course>240</course><type>1</type></trkpt>
      <trkpt lat="38.539383" lon="-6.870417"><ele>1927</ele><speed>22.88</speed><time>2017-07-01T15:12:29Z</time><course>60</course><type>1</type></trkpt>
      <trkpt lat="38.538799" lon="-6.870250"><ele>1934</ele><speed>47.96</speed><time>2017-07-01T15:12:34Z</time><course>194</course><type>1</type></trkpt>
      <trkpt lat="38.538601" lon="-6.870883"><ele>1942</ele><speed>42.74</speed><time>2017-07-01T15:12:39Z</time><course>310</course><type>1</type></trkpt>
      <trkpt lat="38.538448" lon="-6.870633"><ele>1951</ele><speed>19.9</speed><time>2017-07-01T15:12:44Z</time><course>168</course><type>1</type></trkpt>
      <trkpt lat="38.537949" lon="-6.871167"><ele>1962</ele><speed>52.16</speed><time>2017-07-01T15:12:49Z</time><course>258</course><type>1</type></trkpt>
      <trkpt lat="38.538067" lon="-6.871200"><ele>1968</ele><speed>9.68</speed><time>2017-07-01T15:12:54Z</time><course>112</course><type>1</type></trkpt>
      <trkpt lat="38.537468" lon="-6.871233"><ele>1975</ele><speed>48.05</speed><time>2017-07-01T15:12:59Z</time><course>214</course><type>1</type></trkpt>
      <trkpt lat="38.537365" lon="-6.871833"><ele>1986</ele><speed>38.51</speed><time>2017-07-01T15:13:04Z</time><course>308</course><type>1</type></trkpt>
      <trkpt lat="38.537350" lon="-6.871550"><ele>1994</ele><speed>17.78</speed><time>2017-07-01T15:13:09Z</time><course>148</course><type>1</type></trkpt>
      <trkpt lat="38.536732" lon="-6.871700"><ele>2002</ele><speed>50.42</speed><time>2017-07-01T15:13:14Z</time><course>218</course><type>1</type></trkpt>
      <trkpt lat="38.536732" lon="-6.872267"><ele>2005</ele><speed>35.55</speed><time>2017-07-01T15:13:19Z</time><course>336</course><type>1</type></trkpt>
      <trkpt lat="38.536617" lon="-6.871917"><ele>2010</ele><speed>23.8</speed><time>2017-07-01T15:13:24Z</time><course>156</course><type>1</type></trkpt>
      <trkpt lat="38.535950" lon="-6.872117"><ele>2022</ele><speed>54.91</speed><time>2017-07-01T15:13:29Z</time><course>224</course><type>1</type></trkpt>
      <trkpt lat="38.535915" lon="-6.872600"><ele>2026</ele><speed>30.41</speed><time>2017-07-01T15:13:34Z</time><course>330</course><type>1</type></trkpt>
      <trkpt lat="38.535950" lon="-6.872317"><ele>2026</ele><speed>17.96</speed><time>2017-07-01T15:13:39Z</time><course>124</course><type>1</type></trkpt>
      <trkpt lat="38.535366" lon="-6.872083"><ele>2034</ele><speed>49.05</speed><time>2017-07-01T15:13:44Z</time><course>172</course><type>1</type></trkpt>
      <trkpt lat="38.535034" lon="-6.872567"><ele>2047</ele><speed>40.36</speed><time>2017-07-01T15:13:49Z</time><course>284</course><type>1</type></trkpt>
      <trkpt lat="38.535149" lon="-6.872334"><ele>2055</ele><speed>17.27</speed><time>2017-07-01T15:13:54Z</time><course>126</course><type>1</type></trkpt>
      <trkpt lat="38.534599" lon="-6.872200"><ele>2056</ele><speed>44.88</speed><time>2017-07-01T15:13:59Z</time><course>194</course><type>1</type></trkpt>
      <trkpt lat="38.534332" lon="-6.872733"><ele>2064</ele><speed>39.68</speed><time>2017-07-01T15:14:04Z</time><course>296</course><type>1</type></trkpt>
      <trkpt lat="38.534599" lon="-6.872750"><ele>2064</ele><speed>21.43</speed><time>2017-07-01T15:14:09Z</time><course>44</course><type>1</type></trkpt>
      <trkpt lat="38.534184" lon="-6.872500"><ele>2064</ele><speed>36.77</speed><time>2017-07-01T15:14:14Z</time><course>186</course><type>1</type></trkpt>
      <trkpt lat="38.533985" lon="-6.872983"><ele>2063</ele><speed>34.23</speed><time>2017-07-01T15:14:19Z</time><course>326</course><type>1</type></trkpt>
      <trkpt lat="38.534168" lon="-6.872783"><ele>2068</ele><speed>19.3</speed><time>2017-07-01T15:14:24Z</time><course>90</course><type>1</type></trkpt>
      <trkpt lat="38.533798" lon="-6.872334"><ele>2057</ele><speed>40.89</speed><time>2017-07-01T15:14:29Z</time><course>162</course><type>1</type></trkpt>
      <trkpt lat="38.532482" lon="-6.872700"><ele>2046</ele><speed>53.97</speed><time>2017-07-01T15:14:39Z</time><course>196</course><type>1</type></trkpt>
      <trkpt lat="38.532150" lon="-6.873183"><ele>2035</ele><speed>40.31</speed><time>2017-07-01T15:14:44Z</time><course>270</course><type>1</type></trkpt>
      <trkpt lat="38.532398" lon="-6.873483"><ele>2037</ele><speed>22.8</speed><time>2017-07-01T15:14:50Z</time><course>322</course><type>1</type></trkpt>
      <trkpt lat="38.532635" lon="-6.873034"><ele>2032</ele><speed>33.96</speed><time>2017-07-01T15:14:55Z</time><course>112</course><type>1</type></trkpt>
      <trkpt lat="38.532635" lon="-6.872733"><ele>2017</ele><speed>18.87</speed><time>2017-07-01T15:15:00Z</time><course>322</course><type>1</type></trkpt>
      <trkpt lat="38.532467" lon="-6.873400"><ele>2010</ele><speed>43.93</speed><time>2017-07-01T15:15:05Z</time><course>224</course><type>1</type></trkpt>
      <trkpt lat="38.532001" lon="-6.873950"><ele>2005</ele><speed>50.83</speed><time>2017-07-01T15:15:10Z</time><course>218</course><type>1</type></trkpt>
      <trkpt lat="38.531300" lon="-6.874750"><ele>2002</ele><speed>53.8</speed><time>2017-07-01T15:15:17Z</time><course>224</course><type>1</type></trkpt>
      <trkpt lat="38.530750" lon="-6.875383"><ele>2001</ele><speed>59.32</speed><time>2017-07-01T15:15:22Z</time><course>222</course><type>1</type></trkpt>
      <trkpt lat="38.530216" lon="-6.875950"><ele>1999</ele><speed>55.64</speed><time>2017-07-01T15:15:27Z</time><course>220</course><type>1</type></trkpt>
      <trkpt lat="38.529598" lon="-6.876483"><ele>1991</ele><speed>59.75</speed><time>2017-07-01T15:15:32Z</time><course>212</course><type>1</type></trkpt>
      <trkpt lat="38.529083" lon="-6.877017"><ele>1975</ele><speed>53.15</speed><time>2017-07-01T15:15:37Z</time><course>222</course><type>1</type></trkpt>
      <trkpt lat="38.528500" lon="-6.877567"><ele>1960</ele><speed>58.08</speed><time>2017-07-01T15:15:42Z</time><course>210</course><type>1</type></trkpt>
      <trkpt lat="38.527832" lon="-6.877967"><ele>1942</ele><speed>59.12</speed><time>2017-07-01T15:15:47Z</time><course>204</course><type>1</type></trkpt>
      <trkpt lat="38.527000" lon="-6.878450"><ele>1942</ele><speed>73.24</speed><time>2017-07-01T15:15:52Z</time><course>202</course><type>1</type></trkpt>
      <trkpt lat="38.526348" lon="-6.878600"><ele>1948</ele><speed>53.1</speed><time>2017-07-01T15:15:57Z</time><course>152</course><type>1</type></trkpt>
      <trkpt lat="38.526218" lon="-6.878383"><ele>1948</ele><speed>17.14</speed><time>2017-07-01T15:16:02Z</time><course>322</course><type>1</type></trkpt>
      <trkpt lat="38.525982" lon="-6.879133"><ele>1951</ele><speed>50.69</speed><time>2017-07-01T15:16:07Z</time><course>226</course><type>1</type></trkpt>
      <trkpt lat="38.525398" lon="-6.879750"><ele>1952</ele><speed>60.73</speed><time>2017-07-01T15:16:12Z</time><course>208</course><type>1</type></trkpt>
      <trkpt lat="38.524700" lon="-6.880300"><ele>1955</ele><speed>65.72</speed><time>2017-07-01T15:16:17Z</time><course>226</course><type>1</type></trkpt>
      <trkpt lat="38.524166" lon="-6.880967"><ele>1955</ele><speed>59.84</speed><time>2017-07-01T15:16:22Z</time><course>212</course><type>1</type></trkpt>
      <trkpt lat="38.523499" lon="-6.881633"><ele>1948</ele><speed>67.84</speed><time>2017-07-01T15:16:27Z</time><course>218</course><type>1</type></trkpt>
      <trkpt lat="38.522785" lon="-6.882267"><ele>1937</ele><speed>69.68</speed><time>2017-07-01T15:16:32Z</time><course>214</course><type>1</type></trkpt>
      <trkpt lat="38.522083" lon="-6.882884"><ele>1922</ele><speed>68.28</speed><time>2017-07-01T15:16:37Z</time><course>216</course><type>1</type></trkpt>
      <trkpt lat="38.521252" lon="-6.883683"><ele>1899</ele><speed>69.45</speed><time>2017-07-01T15:16:43Z</time><course>216</course><type>1</type></trkpt>
      <trkpt lat="38.520535" lon="-6.884233"><ele>1880</ele><speed>67.02</speed><time>2017-07-01T15:16:48Z</time><course>212</course><type>1</type></trkpt>
      <trkpt lat="38.519768" lon="-6.884933"><ele>1868</ele><speed>75.54</speed><time>2017-07-01T15:16:53Z</time><course>216</course><type>1</type></trkpt>
      <trkpt lat="38.518982" lon="-6.885733"><ele>1860</ele><speed>80.53</speed><time>2017-07-01T15:16:58Z</time><course>216</course><type>1</type></trkpt>
      <trkpt lat="38.518517" lon="-6.886350"><ele>1876</ele><speed>53.72</speed><time>2017-07-01T15:17:03Z</time><course>246</course><type>1</type></trkpt>
      <trkpt lat="38.518650" lon="-6.886533"><ele>1870</ele><speed>15.66</speed><time>2017-07-01T15:17:08Z</time><course>90</course><type>1</type></trkpt>
      <trkpt lat="38.518215" lon="-6.886283"><ele>1873</ele><speed>38.23</speed><time>2017-07-01T15:17:13Z</time><course>166</course><type>1</type></trkpt>
      <trkpt lat="38.517418" lon="-6.886384"><ele>1878</ele><speed>64.19</speed><time>2017-07-01T15:17:18Z</time><course>204</course><type>1</type></trkpt>
      <trkpt lat="38.516933" lon="-6.887017"><ele>1875</ele><speed>55.56</speed><time>2017-07-01T15:17:23Z</time><course>226</course><type>1</type></trkpt>
      <trkpt lat="38.516350" lon="-6.887767"><ele>1863</ele><speed>66.3</speed><time>2017-07-01T15:17:28Z</time><course>224</course><type>1</type></trkpt>
      <trkpt lat="38.515717" lon="-6.888517"><ele>1846</ele><speed>69.18</speed><time>2017-07-01T15:17:33Z</time><course>222</course><type>1</type></trkpt>
      <trkpt lat="38.515148" lon="-6.889317"><ele>1834</ele><speed>67.8</speed><time>2017-07-01T15:17:38Z</time><course>228</course><type>1</type></trkpt>
      <trkpt lat="38.514015" lon="-6.890783"><ele>1805</ele><speed>64.61</speed><time>2017-07-01T15:17:48Z</time><course>216</course><type>1</type></trkpt>
      <trkpt lat="38.513432" lon="-6.891433"><ele>1802</ele><speed>62.01</speed><time>2017-07-01T15:17:53Z</time><course>224</course><type>1</type></trkpt>
      <trkpt lat="38.512917" lon="-6.892150"><ele>1787</ele><speed>61.04</speed><time>2017-07-01T15:17:58Z</time><course>226</course><type>1</type></trkpt>
      <trkpt lat="38.512417" lon="-6.892817"><ele>1772</ele><speed>57.93</speed><time>2017-07-01T15:18:03Z</time><course>224</course><type>1</type></trkpt>
      <trkpt lat="38.511868" lon="-6.893617"><ele>1748</ele><speed>66.73</speed><time>2017-07-01T15:18:08Z</time><course>234</course><type>1</type></trkpt>
      <trkpt lat="38.511318" lon="-6.894467"><ele>1733</ele><speed>69.17</speed><time>2017-07-01T15:18:13Z</time><course>230</course><type>1</type></trkpt>
      <trkpt lat="38.510685" lon="-6.895367"><ele>1714</ele><speed>75.9</speed><time>2017-07-01T15:18:18Z</time><course>222</course><type>1</type></trkpt>
      <trkpt lat="38.509983" lon="-6.896183"><ele>1700</ele><speed>76.06</speed><time>2017-07-01T15:18:23Z</time><course>224</course><type>1</type></trkpt>
      <trkpt lat="38.509300" lon="-6.897100"><ele>1686</ele><speed>79.4</speed><time>2017-07-01T15:18:28Z</time><course>224</course><type>1</type></trkpt>
      <trkpt lat="38.508633" lon="-6.897917"><ele>1673</ele><speed>74.05</speed><time>2017-07-01T15:18:33Z</time><course>226</course><type>1</type></trkpt>
      <trkpt lat="38.507965" lon="-6.898716"><ele>1647</ele><speed>73.33</speed><time>2017-07-01T15:18:38Z</time><course>224</course><type>1</type></trkpt>
      <trkpt lat="38.507381" lon="-6.899550"><ele>1628</ele><speed>70.19</speed><time>2017-07-01T15:18:43Z</time><course>230</course><type>1</type></trkpt>
      <trkpt lat="38.506832" lon="-6.900400"><ele>1609</ele><speed>69.13</speed><time>2017-07-01T15:18:48Z</time><course>228</course><type>1</type></trkpt>
      <trkpt lat="38.506168" lon="-6.901233"><ele>1590</ele><speed>74.58</speed><time>2017-07-01T15:18:53Z</time><course>224</course><type>1</type></trkpt>
      <trkpt lat="38.505451" lon="-6.902117"><ele>1576</ele><speed>79.85</speed><time>2017-07-01T15:18:58Z</time><course>226</course><type>1</type></trkpt>
      <trkpt lat="38.504002" lon="-6.903867"><ele>1555</ele><speed>79.9</speed><time>2017-07-01T15:19:08Z</time><course>218</course><type>1</type></trkpt>
      <trkpt lat="38.503300" lon="-6.904550"><ele>1552</ele><speed>70.72</speed><time>2017-07-01T15:19:13Z</time><course>218</course><type>1</type></trkpt>
      <trkpt lat="38.502533" lon="-6.905283"><ele>1543</ele><speed>76.77</speed><time>2017-07-01T15:19:18Z</time><course>216</course><type>1</type></trkpt>
      <trkpt lat="38.502033" lon="-6.906000"><ele>1539</ele><speed>60.24</speed><time>2017-07-01T15:19:23Z</time><course>248</course><type>1</type></trkpt>
      <trkpt lat="38.501617" lon="-6.906983"><ele>1530</ele><speed>70.1</speed><time>2017-07-01T15:19:28Z</time><course>232</course><type>1</type></trkpt>
      <trkpt lat="38.501083" lon="-6.907866"><ele>1523</ele><speed>70</speed><time>2017-07-01T15:19:33Z</time><course>234</course><type>1</type></trkpt>
      <trkpt lat="38.500549" lon="-6.908733"><ele>1515</ele><speed>69.21</speed><time>2017-07-01T15:19:38Z</time><course>232</course><type>1</type></trkpt>
      <trkpt lat="38.499966" lon="-6.909616"><ele>1508</ele><speed>72.46</speed><time>2017-07-01T15:19:43Z</time><course>226</course><type>1</type></trkpt>
      <trkpt lat="38.499367" lon="-6.910383"><ele>1499</ele><speed>67.97</speed><time>2017-07-01T15:19:48Z</time><course>226</course><type>1</type></trkpt>
      <trkpt lat="38.497982" lon="-6.912317"><ele>1481</ele><speed>68.52</speed><time>2017-07-01T15:20:00Z</time><course>224</course><type>1</type></trkpt>
      <trkpt lat="38.497398" lon="-6.913067"><ele>1469</ele><speed>66.36</speed><time>2017-07-01T15:20:05Z</time><course>228</course><type>1</type></trkpt>
      <trkpt lat="38.496819" lon="-6.913833"><ele>1452</ele><speed>66.8</speed><time>2017-07-01T15:20:10Z</time><course>224</course><type>1</type></trkpt>
      <trkpt lat="38.496181" lon="-6.914717"><ele>1444</ele><speed>75.43</speed><time>2017-07-01T15:20:15Z</time><course>228</course><type>1</type></trkpt>
      <trkpt lat="38.495617" lon="-6.915500"><ele>1438</ele><speed>66.75</speed><time>2017-07-01T15:20:20Z</time><course>226</course><type>1</type></trkpt>
      <trkpt lat="38.495049" lon="-6.916367"><ele>1432</ele><speed>70.93</speed><time>2017-07-01T15:20:25Z</time><course>230</course><type>1</type></trkpt>
      <trkpt lat="38.494499" lon="-6.917233"><ele>1420</ele><speed>69.96</speed><time>2017-07-01T15:20:30Z</time><course>234</course><type>1</type></trkpt>
      <trkpt lat="38.493965" lon="-6.918250"><ele>1407</ele><speed>76.82</speed><time>2017-07-01T15:20:35Z</time><course>238</course><type>1</type></trkpt>
      <trkpt lat="38.493515" lon="-6.919267"><ele>1394</ele><speed>73.29</speed><time>2017-07-01T15:20:40Z</time><course>230</course><type>1</type></trkpt>
      <trkpt lat="38.492115" lon="-6.920250"><ele>1375</ele><speed>64.02</speed><time>2017-07-01T15:20:50Z</time><course>204</course><type>1</type></trkpt>
      <trkpt lat="38.491348" lon="-6.920550"><ele>1365</ele><speed>64.29</speed><time>2017-07-01T15:20:55Z</time><course>198</course><type>1</type></trkpt>
      <trkpt lat="38.490734" lon="-6.920800"><ele>1367</ele><speed>51.65</speed><time>2017-07-01T15:21:00Z</time><course>190</course><type>1</type></trkpt>
      <trkpt lat="38.490101" lon="-6.921017"><ele>1365</ele><speed>52.53</speed><time>2017-07-01T15:21:05Z</time><course>198</course><type>1</type></trkpt>
      <trkpt lat="38.489532" lon="-6.921283"><ele>1365</ele><speed>48.56</speed><time>2017-07-01T15:21:10Z</time><course>200</course><type>1</type></trkpt>
      <trkpt lat="38.488949" lon="-6.921817"><ele>1361</ele><speed>57.5</speed><time>2017-07-01T15:21:15Z</time><course>224</course><type>1</type></trkpt>
      <trkpt lat="38.488285" lon="-6.922400"><ele>1360</ele><speed>64.58</speed><time>2017-07-01T15:21:20Z</time><course>212</course><type>1</type></trkpt>
      <trkpt lat="38.487617" lon="-6.922900"><ele>1362</ele><speed>62.05</speed><time>2017-07-01T15:21:25Z</time><course>198</course><type>1</type></trkpt>
      <trkpt lat="38.487232" lon="-6.922767"><ele>1368</ele><speed>31.97</speed><time>2017-07-01T15:21:30Z</time><course>104</course><type>1</type></trkpt>
      <trkpt lat="38.487385" lon="-6.923333"><ele>1368</ele><speed>37.57</speed><time>2017-07-01T15:21:35Z</time><course>258</course><type>1</type></trkpt>
      <trkpt lat="38.486435" lon="-6.924233"><ele>1390</ele><speed>36.46</speed><time>2017-07-01T15:21:48Z</time><course>306</course><type>1</type></trkpt>
      <trkpt lat="38.486332" lon="-6.924933"><ele>1395</ele><speed>44.69</speed><time>2017-07-01T15:21:53Z</time><course>232</course><type>1</type></trkpt>
      <trkpt lat="38.485767" lon="-6.925217"><ele>1398</ele><speed>48.66</speed><time>2017-07-01T15:21:58Z</time><course>176</course><type>1</type></trkpt>
      <trkpt lat="38.485634" lon="-6.925167"><ele>1407</ele><speed>11.11</speed><time>2017-07-01T15:22:03Z</time><course>334</course><type>1</type></trkpt>
      <trkpt lat="38.485634" lon="-6.926017"><ele>1409</ele><speed>53.33</speed><time>2017-07-01T15:22:08Z</time><course>244</course><type>1</type></trkpt>
      <trkpt lat="38.485085" lon="-6.926667"><ele>1419</ele><speed>59.99</speed><time>2017-07-01T15:22:13Z</time><course>208</course><type>1</type></trkpt>
      <trkpt lat="38.484699" lon="-6.926583"><ele>1423</ele><speed>31.38</speed><time>2017-07-01T15:22:18Z</time><course>112</course><type>1</type></trkpt>
      <trkpt lat="38.484852" lon="-6.927067"><ele>1429</ele><speed>32.75</speed><time>2017-07-01T15:22:23Z</time><course>266</course><type>1</type></trkpt>
      <trkpt lat="38.484432" lon="-6.927834"><ele>1439</ele><speed>58.73</speed><time>2017-07-01T15:22:28Z</time><course>210</course><type>1</type></trkpt>
      <trkpt lat="38.484184" lon="-6.928083"><ele>1450</ele><speed>12.64</speed><time>2017-07-01T15:22:38Z</time><course>278</course><type>1</type></trkpt>
      <trkpt lat="38.483501" lon="-6.928967"><ele>1458</ele><speed>43.29</speed><time>2017-07-01T15:22:47Z</time><course>152</course><type>1</type></trkpt>
      <trkpt lat="38.483566" lon="-6.928900"><ele>1472</ele><speed>6.69</speed><time>2017-07-01T15:22:52Z</time><course>290</course><type>1</type></trkpt>
      <trkpt lat="38.483418" lon="-6.929800"><ele>1471</ele><speed>57.7</speed><time>2017-07-01T15:22:57Z</time><course>224</course><type>1</type></trkpt>
      <trkpt lat="38.482899" lon="-6.929817"><ele>1477</ele><speed>41.61</speed><time>2017-07-01T15:23:02Z</time><course>126</course><type>1</type></trkpt>
      <trkpt lat="38.483101" lon="-6.929750"><ele>1487</ele><speed>16.73</speed><time>2017-07-01T15:23:07Z</time><course>324</course><type>1</type></trkpt>
      <trkpt lat="38.483002" lon="-6.930533"><ele>1490</ele><speed>49.76</speed><time>2017-07-01T15:23:12Z</time><course>228</course><type>1</type></trkpt>
      <trkpt lat="38.482533" lon="-6.930533"><ele>1498</ele><speed>37.59</speed><time>2017-07-01T15:23:17Z</time><course>124</course><type>1</type></trkpt>
      <trkpt lat="38.481834" lon="-6.931733"><ele>1520</ele><speed>31.28</speed><time>2017-07-01T15:23:32Z</time><course>160</course><type>1</type></trkpt>
      <trkpt lat="38.481899" lon="-6.931483"><ele>1527</ele><speed>16.53</speed><time>2017-07-01T15:23:37Z</time><course>336</course><type>1</type></trkpt>
      <trkpt lat="38.481998" lon="-6.932083"><ele>1532</ele><speed>38.47</speed><time>2017-07-01T15:23:42Z</time><course>252</course><type>1</type></trkpt>
      <trkpt lat="38.481449" lon="-6.932350"><ele>1536</ele><speed>47.08</speed><time>2017-07-01T15:23:47Z</time><course>144</course><type>1</type></trkpt>
      <trkpt lat="38.481434" lon="-6.932167"><ele>1546</ele><speed>11.54</speed><time>2017-07-01T15:23:52Z</time><course>342</course><type>1</type></trkpt>
      <trkpt lat="38.481617" lon="-6.932833"><ele>1549</ele><speed>44.29</speed><time>2017-07-01T15:23:57Z</time><course>260</course><type>1</type></trkpt>
      <trkpt lat="38.481098" lon="-6.933267"><ele>1557</ele><speed>49.72</speed><time>2017-07-01T15:24:02Z</time><course>170</course><type>1</type></trkpt>
      <trkpt lat="38.481049" lon="-6.933033"><ele>1563</ele><speed>15.2</speed><time>2017-07-01T15:24:07Z</time><course>348</course><type>1</type></trkpt>
      <trkpt lat="38.481232" lon="-6.933700"><ele>1567</ele><speed>44.35</speed><time>2017-07-01T15:24:12Z</time><course>258</course><type>1</type></trkpt>
      <trkpt lat="38.480732" lon="-6.934317"><ele>1576</ele><speed>55.72</speed><time>2017-07-01T15:24:17Z</time><course>204</course><type>1</type></trkpt>
      <trkpt lat="38.480316" lon="-6.934166"><ele>1582</ele><speed>34.66</speed><time>2017-07-01T15:24:22Z</time><course>182</course><type>1</type></trkpt>
      <trkpt lat="38.480518" lon="-6.934033"><ele>1590</ele><speed>18.21</speed><time>2017-07-01T15:24:27Z</time><course>316</course><type>1</type></trkpt>
      <trkpt lat="38.480499" lon="-6.934800"><ele>1591</ele><speed>48.15</speed><time>2017-07-01T15:24:32Z</time><course>226</course><type>1</type></trkpt>
      <trkpt lat="38.480015" lon="-6.934850"><ele>1596</ele><speed>38.92</speed><time>2017-07-01T15:24:37Z</time><course>146</course><type>1</type></trkpt>
      <trkpt lat="38.480099" lon="-6.934667"><ele>1602</ele><speed>13.31</speed><time>2017-07-01T15:24:42Z</time><course>346</course><type>1</type></trkpt>
      <trkpt lat="38.480316" lon="-6.935283"><ele>1600</ele><speed>42.38</speed><time>2017-07-01T15:24:47Z</time><course>270</course><type>1</type></trkpt>
      <trkpt lat="38.480000" lon="-6.936033"><ele>1602</ele><speed>53.44</speed><time>2017-07-01T15:24:52Z</time><course>224</course><type>1</type></trkpt>
      <trkpt lat="38.479450" lon="-6.936300"><ele>1604</ele><speed>47.16</speed><time>2017-07-01T15:24:57Z</time><course>174</course><type>1</type></trkpt>
      <trkpt lat="38.479000" lon="-6.936117"><ele>1608</ele><speed>37.85</speed><time>2017-07-01T15:25:02Z</time><course>166</course><type>1</type></trkpt>
      <trkpt lat="38.478283" lon="-6.937167"><ele>1613</ele><speed>43.71</speed><time>2017-07-01T15:25:12Z</time><course>278</course><type>1</type></trkpt>
      <trkpt lat="38.478416" lon="-6.937883"><ele>1614</ele><speed>46.17</speed><time>2017-07-01T15:25:17Z</time><course>280</course><type>1</type></trkpt>
      <trkpt lat="38.478634" lon="-6.938483"><ele>1618</ele><speed>41.5</speed><time>2017-07-01T15:25:22Z</time><course>304</course><type>1</type></trkpt>
      <trkpt lat="38.478615" lon="-6.938267"><ele>1617</ele><speed>13.64</speed><time>2017-07-01T15:25:27Z</time><course>142</course><type>1</type></trkpt>
      <trkpt lat="38.478115" lon="-6.938467"><ele>1618</ele><speed>41.99</speed><time>2017-07-01T15:25:32Z</time><course>224</course><type>1</type></trkpt>
      <trkpt lat="38.477665" lon="-6.939200"><ele>1619</ele><speed>58.45</speed><time>2017-07-01T15:25:37Z</time><course>230</course><type>1</type></trkpt>
      <trkpt lat="38.477215" lon="-6.939700"><ele>1619</ele><speed>47.8</speed><time>2017-07-01T15:25:42Z</time><course>184</course><type>1</type></trkpt>
      <trkpt lat="38.477066" lon="-6.939466"><ele>1619</ele><speed>18.93</speed><time>2017-07-01T15:25:47Z</time><course>8</course><type>1</type></trkpt>
      <trkpt lat="38.477215" lon="-6.940033"><ele>1620</ele><speed>37.53</speed><time>2017-07-01T15:25:52Z</time><course>260</course><type>1</type></trkpt>
      <trkpt lat="38.476383" lon="-6.941100"><ele>1621</ele><speed>36.34</speed><time>2017-07-01T15:26:05Z</time><course>192</course><type>1</type></trkpt>
      <trkpt lat="38.476265" lon="-6.940733"><ele>1620</ele><speed>24.89</speed><time>2017-07-01T15:26:10Z</time><course>32</course><type>1</type></trkpt>
      <trkpt lat="38.476433" lon="-6.941200"><ele>1614</ele><speed>32.25</speed><time>2017-07-01T15:26:15Z</time><course>276</course><type>1</type></trkpt>
      <trkpt lat="38.476185" lon="-6.942017"><ele>1616</ele><speed>54.98</speed><time>2017-07-01T15:26:20Z</time><course>228</course><type>1</type></trkpt>
      <trkpt lat="38.475685" lon="-6.942266"><ele>1611</ele><speed>43.01</speed><time>2017-07-01T15:26:25Z</time><course>178</course><type>1</type></trkpt>
      <trkpt lat="38.475315" lon="-6.942050"><ele>1608</ele><speed>32.61</speed><time>2017-07-01T15:26:30Z</time><course>126</course><type>1</type></trkpt>
      <trkpt lat="38.475368" lon="-6.941800"><ele>1606</ele><speed>16.25</speed><time>2017-07-01T15:26:35Z</time><course>48</course><type>1</type></trkpt>
      <trkpt lat="38.475716" lon="-6.941983"><ele>1607</ele><speed>30.16</speed><time>2017-07-01T15:26:40Z</time><course>318</course><type>1</type></trkpt>
      <trkpt lat="38.475948" lon="-6.942550"><ele>1614</ele><speed>40.14</speed><time>2017-07-01T15:26:45Z</time><course>274</course><type>1</type></trkpt>
      <trkpt lat="38.475384" lon="-6.943167"><ele>1616</ele><speed>29.76</speed><time>2017-07-01T15:26:55Z</time><course>28</course><type>1</type></trkpt>
      <trkpt lat="38.475716" lon="-6.943450"><ele>1614</ele><speed>31.99</speed><time>2017-07-01T15:27:00Z</time><course>318</course><type>1</type></trkpt>
      <trkpt lat="38.476032" lon="-6.943933"><ele>1613</ele><speed>39.5</speed><time>2017-07-01T15:27:05Z</time><course>292</course><type>1</type></trkpt>
      <trkpt lat="38.475868" lon="-6.944750"><ele>1602</ele><speed>52.92</speed><time>2017-07-01T15:27:10Z</time><course>228</course><type>1</type></trkpt>
      <trkpt lat="38.475349" lon="-6.944933"><ele>1599</ele><speed>43.15</speed><time>2017-07-01T15:27:15Z</time><course>174</course><type>1</type></trkpt>
      <trkpt lat="38.474983" lon="-6.944716"><ele>1602</ele><speed>32.34</speed><time>2017-07-01T15:27:20Z</time><course>144</course><type>1</type></trkpt>
      <trkpt lat="38.474968" lon="-6.944500"><ele>1592</ele><speed>13.61</speed><time>2017-07-01T15:27:25Z</time><course>52</course><type>1</type></trkpt>
      <trkpt lat="38.475166" lon="-6.944500"><ele>1584</ele><speed>15.87</speed><time>2017-07-01T15:27:30Z</time><course>344</course><type>1</type></trkpt>
      <trkpt lat="38.475468" lon="-6.944983"><ele>1571</ele><speed>38.79</speed><time>2017-07-01T15:27:35Z</time><course>294</course><type>1</type></trkpt>
      <trkpt lat="38.475784" lon="-6.945667"><ele>1559</ele><speed>49.84</speed><time>2017-07-01T15:27:40Z</time><course>294</course><type>1</type></trkpt>
      <trkpt lat="38.476215" lon="-6.947300"><ele>1541</ele><speed>54.07</speed><time>2017-07-01T15:27:50Z</time><course>278</course><type>1</type></trkpt>
      <trkpt lat="38.476082" lon="-6.948283"><ele>1523</ele><speed>62.59</speed><time>2017-07-01T15:27:55Z</time><course>240</course><type>1</type></trkpt>
      <trkpt lat="38.475533" lon="-6.948900"><ele>1510</ele><speed>58.61</speed><time>2017-07-01T15:28:00Z</time><course>208</course><type>1</type></trkpt>
      <trkpt lat="38.474815" lon="-6.949350"><ele>1501</ele><speed>64.1</speed><time>2017-07-01T15:28:05Z</time><course>208</course><type>1</type></trkpt>
      <trkpt lat="38.474152" lon="-6.949783"><ele>1486</ele><speed>59.68</speed><time>2017-07-01T15:28:10Z</time><course>204</course><type>1</type></trkpt>
      <trkpt lat="38.473499" lon="-6.950233"><ele>1474</ele><speed>59.47</speed><time>2017-07-01T15:28:15Z</time><course>208</course><type>1</type></trkpt>
      <trkpt lat="38.472332" lon="-6.951250"><ele>1457</ele><speed>62.91</speed><time>2017-07-01T15:28:24Z</time><course>216</course><type>1</type></trkpt>
      <trkpt lat="38.471684" lon="-6.951650"><ele>1449</ele><speed>57.68</speed><time>2017-07-01T15:28:29Z</time><course>194</course><type>1</type></trkpt>
      <trkpt lat="38.471050" lon="-6.951817"><ele>1436</ele><speed>51.88</speed><time>2017-07-01T15:28:34Z</time><course>198</course><type>1</type></trkpt>
      <trkpt lat="38.469051" lon="-6.951967"><ele>1416</ele><speed>50.16</speed><time>2017-07-01T15:28:50Z</time><course>174</course><type>1</type></trkpt>
      <trkpt lat="38.468567" lon="-6.951700"><ele>1395</ele><speed>42.26</speed><time>2017-07-01T15:28:55Z</time><course>160</course><type>1</type></trkpt>
      <trkpt lat="38.467934" lon="-6.951567"><ele>1398</ele><speed>51.42</speed><time>2017-07-01T15:29:00Z</time><course>190</course><type>1</type></trkpt>
      <trkpt lat="38.467667" lon="-6.951467"><ele>1395</ele><speed>22.3</speed><time>2017-07-01T15:29:05Z</time><course>76</course><type>1</type></trkpt>
      <trkpt lat="38.467983" lon="-6.951900"><ele>1400</ele><speed>37.15</speed><time>2017-07-01T15:29:10Z</time><course>300</course><type>1</type></trkpt>
      <trkpt lat="38.468151" lon="-6.952533"><ele>1409</ele><speed>41.94</speed><time>2017-07-01T15:29:15Z</time><course>260</course><type>1</type></trkpt>
      <trkpt lat="38.467583" lon="-6.953067"><ele>1407</ele><speed>56.53</speed><time>2017-07-01T15:29:20Z</time><course>176</course><type>1</type></trkpt>
      <trkpt lat="38.467098" lon="-6.952950"><ele>1413</ele><speed>39.56</speed><time>2017-07-01T15:29:25Z</time><course>180</course><type>1</type></trkpt>
      <trkpt lat="38.467083" lon="-6.952867"><ele>1414</ele><speed>5.35</speed><time>2017-07-01T15:29:30Z</time><course>346</course><type>1</type></trkpt>
      <trkpt lat="38.467201" lon="-6.953600"><ele>1423</ele><speed>46.96</speed><time>2017-07-01T15:29:35Z</time><course>248</course><type>1</type></trkpt>
      <trkpt lat="38.466648" lon="-6.954100"><ele>1426</ele><speed>54.31</speed><time>2017-07-01T15:29:40Z</time><course>178</course><type>1</type></trkpt>
      <trkpt lat="38.466484" lon="-6.953933"><ele>1428</ele><speed>16.81</speed><time>2017-07-01T15:29:45Z</time><course>80</course><type>1</type></trkpt>
      <trkpt lat="38.466782" lon="-6.953933"><ele>1432</ele><speed>23.88</speed><time>2017-07-01T15:29:50Z</time><course>346</course><type>1</type></trkpt>
      <trkpt lat="38.467033" lon="-6.954083"><ele>1443</ele><speed>22.21</speed><time>2017-07-01T15:29:55Z</time><course>344</course><type>1</type></trkpt>
      <trkpt lat="38.466782" lon="-6.954183"><ele>1443</ele><speed>21.07</speed><time>2017-07-01T15:30:00Z</time><course>216</course><type>1</type></trkpt>
      <trkpt lat="38.466717" lon="-6.955117"><ele>1454</ele><speed>58.84</speed><time>2017-07-01T15:30:05Z</time><course>292</course><type>1</type></trkpt>
      <trkpt lat="38.466949" lon="-6.955500"><ele>1461</ele><speed>30.39</speed><time>2017-07-01T15:30:10Z</time><course>350</course><type>1</type></trkpt>
      <trkpt lat="38.466568" lon="-6.955517"><ele>1459</ele><speed>30.56</speed><time>2017-07-01T15:30:15Z</time><course>208</course><type>1</type></trkpt>
      <trkpt lat="38.466015" lon="-6.956117"><ele>1471</ele><speed>58.16</speed><time>2017-07-01T15:30:20Z</time><course>232</course><type>1</type></trkpt>
      <trkpt lat="38.466183" lon="-6.956833"><ele>1475</ele><speed>46.91</speed><time>2017-07-01T15:30:25Z</time><course>348</course><type>1</type></trkpt>
      <trkpt lat="38.465916" lon="-6.956783"><ele>1484</ele><speed>21.63</speed><time>2017-07-01T15:30:30Z</time><course>204</course><type>1</type></trkpt>
      <trkpt lat="38.465668" lon="-6.957684"><ele>1492</ele><speed>59.94</speed><time>2017-07-01T15:30:35Z</time><course>278</course><type>1</type></trkpt>
      <trkpt lat="38.465900" lon="-6.957900"><ele>1497</ele><speed>23.01</speed><time>2017-07-01T15:30:40Z</time><course>54</course><type>1</type></trkpt>
      <trkpt lat="38.465549" lon="-6.957733"><ele>1506</ele><speed>30.02</speed><time>2017-07-01T15:30:45Z</time><course>172</course><type>1</type></trkpt>
      <trkpt lat="38.465065" lon="-6.958150"><ele>1513</ele><speed>46.79</speed><time>2017-07-01T15:30:50Z</time><course>246</course><type>1</type></trkpt>
      <trkpt lat="38.465351" lon="-6.958817"><ele>1517</ele><speed>47.72</speed><time>2017-07-01T15:30:55Z</time><course>352</course><type>1</type></trkpt>
      <trkpt lat="38.465149" lon="-6.958600"><ele>1522</ele><speed>21.16</speed><time>2017-07-01T15:31:00Z</time><course>160</course><type>1</type></trkpt>
      <trkpt lat="38.464966" lon="-6.958450"><ele>1528</ele><speed>17.43</speed><time>2017-07-01T15:31:05Z</time><course>66</course><type>1</type></trkpt>
      <trkpt lat="38.465183" lon="-6.959084"><ele>1529</ele><speed>43.42</speed><time>2017-07-01T15:31:10Z</time><course>266</course><type>1</type></trkpt>
      <trkpt lat="38.464199" lon="-6.960450"><ele>1538</ele><speed>58.24</speed><time>2017-07-01T15:31:20Z</time><course>194</course><type>1</type></trkpt>
      <trkpt lat="38.463665" lon="-6.960484"><ele>1546</ele><speed>42.85</speed><time>2017-07-01T15:31:25Z</time><course>168</course><type>1</type></trkpt>
      <trkpt lat="38.463516" lon="-6.960134"><ele>1542</ele><speed>25</speed><time>2017-07-01T15:31:30Z</time><course>80</course><type>1</type></trkpt>
      <trkpt lat="38.463600" lon="-6.959900"><ele>1543</ele><speed>16.16</speed><time>2017-07-01T15:31:35Z</time><course>56</course><type>1</type></trkpt>
      <trkpt lat="38.463718" lon="-6.959750"><ele>1550</ele><speed>13.34</speed><time>2017-07-01T15:31:40Z</time><course>50</course><type>1</type></trkpt>
      <trkpt lat="38.463902" lon="-6.959816"><ele>1548</ele><speed>15.32</speed><time>2017-07-01T15:31:45Z</time><course>304</course><type>1</type></trkpt>
      <trkpt lat="38.463818" lon="-6.960700"><ele>1537</ele><speed>55.88</speed><time>2017-07-01T15:31:50Z</time><course>236</course><type>1</type></trkpt>
      <trkpt lat="38.463284" lon="-6.961283"><ele>1533</ele><speed>56.31</speed><time>2017-07-01T15:31:55Z</time><course>204</course><type>1</type></trkpt>
      <trkpt lat="38.462734" lon="-6.961317"><ele>1536</ele><speed>44.13</speed><time>2017-07-01T15:32:00Z</time><course>172</course><type>1</type></trkpt>
      <trkpt lat="38.462200" lon="-6.961367"><ele>1535</ele><speed>42.91</speed><time>2017-07-01T15:32:05Z</time><course>176</course><type>1</type></trkpt>
      <trkpt lat="38.461800" lon="-6.961717"><ele>1553</ele><speed>12.95</speed><time>2017-07-01T15:32:20Z</time><course>308</course><type>1</type></trkpt>
      <trkpt lat="38.462051" lon="-6.962584"><ele>1547</ele><speed>58.01</speed><time>2017-07-01T15:32:25Z</time><course>270</course><type>1</type></trkpt>
      <trkpt lat="38.461533" lon="-6.963383"><ele>1544</ele><speed>65.1</speed><time>2017-07-01T15:32:30Z</time><course>202</course><type>1</type></trkpt>
      <trkpt lat="38.460983" lon="-6.963900"><ele>1550</ele><speed>54.74</speed><time>2017-07-01T15:32:35Z</time><course>230</course><type>1</type></trkpt>
      <trkpt lat="38.460384" lon="-6.964300"><ele>1555</ele><speed>54.18</speed><time>2017-07-01T15:32:40Z</time><course>216</course><type>1</type></trkpt>
      <trkpt lat="38.460167" lon="-6.965083"><ele>1564</ele><speed>52.13</speed><time>2017-07-01T15:32:45Z</time><course>260</course><type>1</type></trkpt>
      <trkpt lat="38.460400" lon="-6.965816"><ele>1563</ele><speed>49.65</speed><time>2017-07-01T15:32:50Z</time><course>310</course><type>1</type></trkpt>
      <trkpt lat="38.460682" lon="-6.965850"><ele>1568</ele><speed>22.7</speed><time>2017-07-01T15:32:55Z</time><course>8</course><type>1</type></trkpt>
      <trkpt lat="38.460583" lon="-6.965816"><ele>1573</ele><speed>8.22</speed><time>2017-07-01T15:33:00Z</time><course>168</course><type>1</type></trkpt>
      <trkpt lat="38.460117" lon="-6.966500"><ele>1578</ele><speed>56.9</speed><time>2017-07-01T15:33:05Z</time><course>268</course><type>1</type></trkpt>
      <trkpt lat="38.460415" lon="-6.966866"><ele>1577</ele><speed>33.14</speed><time>2017-07-01T15:33:10Z</time><course>14</course><type>1</type></trkpt>
      <trkpt lat="38.460350" lon="-6.966817"><ele>1582</ele><speed>6.05</speed><time>2017-07-01T15:33:15Z</time><course>170</course><type>1</type></trkpt>
      <trkpt lat="38.459816" lon="-6.967083"><ele>1577</ele><speed>45.94</speed><time>2017-07-01T15:33:20Z</time><course>220</course><type>1</type></trkpt>
      <trkpt lat="38.459465" lon="-6.967817"><ele>1582</ele><speed>53.98</speed><time>2017-07-01T15:33:25Z</time><course>256</course><type>1</type></trkpt>
      <trkpt lat="38.459682" lon="-6.968583"><ele>1576</ele><speed>51.12</speed><time>2017-07-01T15:33:30Z</time><course>326</course><type>1</type></trkpt>
      <trkpt lat="38.459915" lon="-6.968767"><ele>1583</ele><speed>21.96</speed><time>2017-07-01T15:33:35Z</time><course>348</course><type>1</type></trkpt>
      <trkpt lat="38.459900" lon="-6.968550"><ele>1580</ele><speed>13.67</speed><time>2017-07-01T15:33:40Z</time><course>154</course><type>1</type></trkpt>
      <trkpt lat="38.459599" lon="-6.968583"><ele>1573</ele><speed>24.21</speed><time>2017-07-01T15:33:45Z</time><course>184</course><type>1</type></trkpt>
      <trkpt lat="38.459217" lon="-6.968683"><ele>1562</ele><speed>31.25</speed><time>2017-07-01T15:33:50Z</time><course>192</course><type>1</type></trkpt>
      <trkpt lat="38.458717" lon="-6.968633"><ele>1536</ele><speed>40.2</speed><time>2017-07-01T15:33:55Z</time><course>170</course><type>1</type></trkpt>
      <trkpt lat="38.458134" lon="-6.968534"><ele>1525</ele><speed>47.14</speed><time>2017-07-01T15:34:00Z</time><course>174</course><type>1</type></trkpt>
      <trkpt lat="38.457466" lon="-6.968450"><ele>1518</ele><speed>53.8</speed><time>2017-07-01T15:34:05Z</time><course>172</course><type>1</type></trkpt>
      <trkpt lat="38.456799" lon="-6.968400"><ele>1508</ele><speed>53.55</speed><time>2017-07-01T15:34:10Z</time><course>178</course><type>1</type></trkpt>
      <trkpt lat="38.456066" lon="-6.968383"><ele>1499</ele><speed>58.76</speed><time>2017-07-01T15:34:15Z</time><course>174</course><type>1</type></trkpt>
      <trkpt lat="38.455433" lon="-6.968266"><ele>1510</ele><speed>51.26</speed><time>2017-07-01T15:34:20Z</time><course>174</course><type>1</type></trkpt>
      <trkpt lat="38.455151" lon="-6.968217"><ele>1513</ele><speed>22.81</speed><time>2017-07-01T15:34:25Z</time><course>146</course><type>1</type></trkpt>
      <trkpt lat="38.455215" lon="-6.968733"><ele>1510</ele><speed>32.79</speed><time>2017-07-01T15:34:30Z</time><course>266</course><type>1</type></trkpt>
      <trkpt lat="38.454868" lon="-6.969666"><ele>1519</ele><speed>64.83</speed><time>2017-07-01T15:34:35Z</time><course>232</course><type>1</type></trkpt>
      <trkpt lat="38.454849" lon="-6.970350"><ele>1522</ele><speed>42.96</speed><time>2017-07-01T15:34:40Z</time><course>316</course><type>1</type></trkpt>
      <trkpt lat="38.454716" lon="-6.970083"><ele>1522</ele><speed>19.86</speed><time>2017-07-01T15:34:45Z</time><course>178</course><type>1</type></trkpt>
      <trkpt lat="38.454033" lon="-6.970667"><ele>1535</ele><speed>65.88</speed><time>2017-07-01T15:34:50Z</time><course>222</course><type>1</type></trkpt>
      <trkpt lat="38.454033" lon="-6.971567"><ele>1532</ele><speed>56.49</speed><time>2017-07-01T15:34:55Z</time><course>338</course><type>1</type></trkpt>
      <trkpt lat="38.453785" lon="-6.971450"><ele>1552</ele><speed>21.19</speed><time>2017-07-01T15:35:00Z</time><course>200</course><type>1</type></trkpt>
      <trkpt lat="38.453167" lon="-6.972317"><ele>1554</ele><speed>73.59</speed><time>2017-07-01T15:35:05Z</time><course>250</course><type>1</type></trkpt>
      <trkpt lat="38.453400" lon="-6.973100"><ele>1544</ele><speed>52.57</speed><time>2017-07-01T15:35:10Z</time><course>336</course><type>1</type></trkpt>
      <trkpt lat="38.453335" lon="-6.972733"><ele>1549</ele><speed>11.81</speed><time>2017-07-01T15:35:20Z</time><course>168</course><type>1</type></trkpt>
      <trkpt lat="38.452850" lon="-6.972850"><ele>1542</ele><speed>39.56</speed><time>2017-07-01T15:35:25Z</time><course>204</course><type>1</type></trkpt>
      <trkpt lat="38.452499" lon="-6.973817"><ele>1533</ele><speed>66.9</speed><time>2017-07-01T15:35:30Z</time><course>270</course><type>1</type></trkpt>
      <trkpt lat="38.452732" lon="-6.974867"><ele>1544</ele><speed>34.25</speed><time>2017-07-01T15:35:40Z</time><course>16</course><type>1</type></trkpt>
      <trkpt lat="38.452415" lon="-6.974850"><ele>1547</ele><speed>25.43</speed><time>2017-07-01T15:35:45Z</time><course>200</course><type>1</type></trkpt>
      <trkpt lat="38.451801" lon="-6.975500"><ele>1546</ele><speed>63.92</speed><time>2017-07-01T15:35:50Z</time><course>234</course><type>1</type></trkpt>
      <trkpt lat="38.451668" lon="-6.976533"><ele>1548</ele><speed>65.71</speed><time>2017-07-01T15:35:55Z</time><course>284</course><type>1</type></trkpt>
      <trkpt lat="38.451916" lon="-6.977200"><ele>1542</ele><speed>46.35</speed><time>2017-07-01T15:36:00Z</time><course>298</course><type>1</type></trkpt>
      <trkpt lat="38.452133" lon="-6.977283"><ele>1520</ele><speed>18.16</speed><time>2017-07-01T15:36:05Z</time><course>114</course><type>1</type></trkpt>
      <trkpt lat="38.451733" lon="-6.977200"><ele>1513</ele><speed>32.48</speed><time>2017-07-01T15:36:10Z</time><course>180</course><type>1</type></trkpt>
      <trkpt lat="38.451302" lon="-6.977117"><ele>1515</ele><speed>34.94</speed><time>2017-07-01T15:36:15Z</time><course>136</course><type>1</type></trkpt>
      <trkpt lat="38.450733" lon="-6.977133"><ele>1504</ele><speed>45.62</speed><time>2017-07-01T15:36:20Z</time><course>200</course><type>1</type></trkpt>
      <trkpt lat="38.450085" lon="-6.977450"><ele>1500</ele><speed>55.62</speed><time>2017-07-01T15:36:25Z</time><course>200</course><type>1</type></trkpt>
      <trkpt lat="38.449432" lon="-6.977817"><ele>1489</ele><speed>57.18</speed><time>2017-07-01T15:36:30Z</time><course>202</course><type>1</type></trkpt>
      <trkpt lat="38.448784" lon="-6.978217"><ele>1483</ele><speed>57.69</speed><time>2017-07-01T15:36:35Z</time><course>220</course><type>1</type></trkpt>
      <trkpt lat="38.448215" lon="-6.978850"><ele>1473</ele><speed>60.49</speed><time>2017-07-01T15:36:40Z</time><course>214</course><type>1</type></trkpt>
      <trkpt lat="38.447533" lon="-6.979367"><ele>1467</ele><speed>63.57</speed><time>2017-07-01T15:36:45Z</time><course>208</course><type>1</type></trkpt>
      <trkpt lat="38.446815" lon="-6.979900"><ele>1464</ele><speed>66.57</speed><time>2017-07-01T15:36:50Z</time><course>212</course><type>1</type></trkpt>
      <trkpt lat="38.446201" lon="-6.980450"><ele>1467</ele><speed>60.11</speed><time>2017-07-01T15:36:55Z</time><course>222</course><type>1</type></trkpt>
      <trkpt lat="38.445999" lon="-6.981317"><ele>1468</ele><speed>56.78</speed><time>2017-07-01T15:37:00Z</time><course>254</course><type>1</type></trkpt>
      <trkpt lat="38.446152" lon="-6.981667"><ele>1460</ele><speed>25.16</speed><time>2017-07-01T15:37:05Z</time><course>20</course><type>1</type></trkpt>
      <trkpt lat="38.445965" lon="-6.981616"><ele>1463</ele><speed>15.33</speed><time>2017-07-01T15:37:10Z</time><course>192</course><type>1</type></trkpt>
      <trkpt lat="38.445400" lon="-6.982000"><ele>1460</ele><speed>51.3</speed><time>2017-07-01T15:37:15Z</time><course>220</course><type>1</type></trkpt>
      <trkpt lat="38.445084" lon="-6.982750"><ele>1459</ele><speed>53.46</speed><time>2017-07-01T15:37:20Z</time><course>270</course><type>1</type></trkpt>
      <trkpt lat="38.445332" lon="-6.983083"><ele>1453</ele><speed>28.85</speed><time>2017-07-01T15:37:25Z</time><course>342</course><type>1</type></trkpt>
      <trkpt lat="38.445435" lon="-6.983133"><ele>1456</ele><speed>8.83</speed><time>2017-07-01T15:37:30Z</time><course>324</course><type>1</type></trkpt>
      <trkpt lat="38.445385" lon="-6.983067"><ele>1455</ele><speed>5.76</speed><time>2017-07-01T15:37:35Z</time><course>92</course><type>1</type></trkpt>
      <trkpt lat="38.444351" lon="-6.983167"><ele>1449</ele><speed>41.56</speed><time>2017-07-01T15:37:45Z</time><course>198</course><type>1</type></trkpt>
      <trkpt lat="38.443733" lon="-6.983433"><ele>1439</ele><speed>52.27</speed><time>2017-07-01T15:37:50Z</time><course>198</course><type>1</type></trkpt>
      <trkpt lat="38.443134" lon="-6.983733"><ele>1427</ele><speed>51.57</speed><time>2017-07-01T15:37:55Z</time><course>200</course><type>1</type></trkpt>
      <trkpt lat="38.442482" lon="-6.984066"><ele>1414</ele><speed>56.28</speed><time>2017-07-01T15:38:00Z</time><course>204</course><type>1</type></trkpt>
      <trkpt lat="38.441833" lon="-6.984450"><ele>1402</ele><speed>57.33</speed><time>2017-07-01T15:38:05Z</time><course>206</course><type>1</type></trkpt>
      <trkpt lat="38.441235" lon="-6.984750"><ele>1396</ele><speed>51.5</speed><time>2017-07-01T15:38:10Z</time><course>198</course><type>1</type></trkpt>
      <trkpt lat="38.440601" lon="-6.985000"><ele>1388</ele><speed>53.18</speed><time>2017-07-01T15:38:15Z</time><course>198</course><type>1</type></trkpt>
      <trkpt lat="38.439949" lon="-6.985250"><ele>1378</ele><speed>54.56</speed><time>2017-07-01T15:38:20Z</time><course>194</course><type>1</type></trkpt>
      <trkpt lat="38.439281" lon="-6.985517"><ele>1370</ele><speed>56.1</speed><time>2017-07-01T15:38:25Z</time><course>198</course><type>1</type></trkpt>
      <trkpt lat="38.438568" lon="-6.985833"><ele>1365</ele><speed>60.49</speed><time>2017-07-01T15:38:30Z</time><course>196</course><type>1</type></trkpt>
      <trkpt lat="38.437832" lon="-6.986100"><ele>1361</ele><speed>61.33</speed><time>2017-07-01T15:38:35Z</time><course>192</course><type>1</type></trkpt>
      <trkpt lat="38.436565" lon="-6.986516"><ele>1349</ele><speed>52.43</speed><time>2017-07-01T15:38:45Z</time><course>188</course><type>1</type></trkpt>
      <trkpt lat="38.435883" lon="-6.986700"><ele>1343</ele><speed>55.87</speed><time>2017-07-01T15:38:50Z</time><course>192</course><type>1</type></trkpt>
      <trkpt lat="38.435234" lon="-6.986866"><ele>1336</ele><speed>53.05</speed><time>2017-07-01T15:38:55Z</time><course>194</course><type>1</type></trkpt>
      <trkpt lat="38.434551" lon="-6.987067"><ele>1325</ele><speed>56.18</speed><time>2017-07-01T15:39:00Z</time><course>188</course><type>1</type></trkpt>
      <trkpt lat="38.433834" lon="-6.987283"><ele>1310</ele><speed>59.05</speed><time>2017-07-01T15:39:05Z</time><course>194</course><type>1</type></trkpt>
      <trkpt lat="38.433083" lon="-6.987566"><ele>1303</ele><speed>62.76</speed><time>2017-07-01T15:39:10Z</time><course>196</course><type>1</type></trkpt>
      <trkpt lat="38.432281" lon="-6.987833"><ele>1285</ele><speed>66.43</speed><time>2017-07-01T15:39:15Z</time><course>194</course><type>1</type></trkpt>
      <trkpt lat="38.431499" lon="-6.988083"><ele>1273</ele><speed>64.61</speed><time>2017-07-01T15:39:20Z</time><course>192</course><type>1</type></trkpt>
      <trkpt lat="38.430717" lon="-6.988333"><ele>1259</ele><speed>64.61</speed><time>2017-07-01T15:39:25Z</time><course>194</course><type>1</type></trkpt>
      <trkpt lat="38.429134" lon="-6.988767"><ele>1230</ele><speed>64.89</speed><time>2017-07-01T15:39:35Z</time><course>190</course><type>1</type></trkpt>
      <trkpt lat="38.428299" lon="-6.988983"><ele>1219</ele><speed>68.29</speed><time>2017-07-01T15:39:40Z</time><course>188</course><type>1</type></trkpt>
      <trkpt lat="38.427502" lon="-6.989183"><ele>1207</ele><speed>65.1</speed><time>2017-07-01T15:39:45Z</time><course>190</course><type>1</type></trkpt>
      <trkpt lat="38.426666" lon="-6.989383"><ele>1196</ele><speed>68.17</speed><time>2017-07-01T15:39:50Z</time><course>188</course><type>1</type></trkpt>
      <trkpt lat="38.425800" lon="-6.989567"><ele>1188</ele><speed>70.36</speed><time>2017-07-01T15:39:55Z</time><course>186</course><type>1</type></trkpt>
      <trkpt lat="38.425068" lon="-6.989650"><ele>1183</ele><speed>58.9</speed><time>2017-07-01T15:40:00Z</time><course>184</course><type>1</type></trkpt>
      <trkpt lat="38.424366" lon="-6.989700"><ele>1165</ele><speed>56.35</speed><time>2017-07-01T15:40:05Z</time><course>182</course><type>1</type></trkpt>
      <trkpt lat="38.423599" lon="-6.989817"><ele>1157</ele><speed>61.91</speed><time>2017-07-01T15:40:10Z</time><course>184</course><type>1</type></trkpt>
      <trkpt lat="38.422749" lon="-6.989967"><ele>1145</ele><speed>68.78</speed><time>2017-07-01T15:40:15Z</time><course>184</course><type>1</type></trkpt>
      <trkpt lat="38.421917" lon="-6.990100"><ele>1136</ele><speed>67.21</speed><time>2017-07-01T15:40:20Z</time><course>188</course><type>1</type></trkpt>
      <trkpt lat="38.420185" lon="-6.990417"><ele>1112</ele><speed>70.12</speed><time>2017-07-01T15:40:30Z</time><course>188</course><type>1</type></trkpt>
      <trkpt lat="38.419285" lon="-6.990567"><ele>1103</ele><speed>72.75</speed><time>2017-07-01T15:40:35Z</time><course>186</course><type>1</type></trkpt>
      <trkpt lat="38.418568" lon="-6.990617"><ele>1097</ele><speed>57.55</speed><time>2017-07-01T15:40:40Z</time><course>182</course><type>1</type></trkpt>
      <trkpt lat="38.417767" lon="-6.990667"><ele>1092</ele><speed>64.28</speed><time>2017-07-01T15:40:45Z</time><course>186</course><type>1</type></trkpt>
      <trkpt lat="38.417000" lon="-6.990633"><ele>1081</ele><speed>61.51</speed><time>2017-07-01T15:40:50Z</time><course>176</course><type>1</type></trkpt>
      <trkpt lat="38.416248" lon="-6.990650"><ele>1071</ele><speed>60.28</speed><time>2017-07-01T15:40:55Z</time><course>176</course><type>1</type></trkpt>
      <trkpt lat="38.415482" lon="-6.990667"><ele>1059</ele><speed>61.4</speed><time>2017-07-01T15:41:00Z</time><course>180</course><type>1</type></trkpt>
      <trkpt lat="38.414684" lon="-6.990733"><ele>1045</ele><speed>64.09</speed><time>2017-07-01T15:41:05Z</time><course>184</course><type>1</type></trkpt>
      <trkpt lat="38.413883" lon="-6.990850"><ele>1034</ele><speed>64.62</speed><time>2017-07-01T15:41:10Z</time><course>184</course><type>1</type></trkpt>
      <trkpt lat="38.412334" lon="-6.990950"><ele>1016</ele><speed>62.16</speed><time>2017-07-01T15:41:20Z</time><course>178</course><type>1</type></trkpt>
      <trkpt lat="38.411568" lon="-6.990933"><ele>1006</ele><speed>61.4</speed><time>2017-07-01T15:41:25Z</time><course>174</course><type>1</type></trkpt>
      <trkpt lat="38.410816" lon="-6.990867"><ele>991</ele><speed>60.42</speed><time>2017-07-01T15:41:30Z</time><course>176</course><type>1</type></trkpt>
      <trkpt lat="38.410000" lon="-6.990933"><ele>979</ele><speed>65.53</speed><time>2017-07-01T15:41:35Z</time><course>188</course><type>1</type></trkpt>
      <trkpt lat="38.409168" lon="-6.990983"><ele>968</ele><speed>66.76</speed><time>2017-07-01T15:41:40Z</time><course>184</course><type>1</type></trkpt>
      <trkpt lat="38.408401" lon="-6.991034"><ele>958</ele><speed>61.56</speed><time>2017-07-01T15:41:45Z</time><course>178</course><type>1</type></trkpt>
      <trkpt lat="38.407600" lon="-6.990983"><ele>943</ele><speed>64.28</speed><time>2017-07-01T15:41:50Z</time><course>174</course><type>1</type></trkpt>
      <trkpt lat="38.406799" lon="-6.990983"><ele>933</ele><speed>64.2</speed><time>2017-07-01T15:41:55Z</time><course>178</course><type>1</type></trkpt>
      <trkpt lat="38.405983" lon="-6.990833"><ele>911</ele><speed>66.08</speed><time>2017-07-01T15:42:00Z</time><course>166</course><type>1</type></trkpt>
      <trkpt lat="38.405350" lon="-6.990667"><ele>903</ele><speed>51.8</speed><time>2017-07-01T15:42:05Z</time><course>164</course><type>1</type></trkpt>
      <trkpt lat="38.404232" lon="-6.990150"><ele>882</ele><speed>47.65</speed><time>2017-07-01T15:42:15Z</time><course>166</course><type>1</type></trkpt>
      <trkpt lat="38.403702" lon="-6.989900"><ele>869</ele><speed>45.29</speed><time>2017-07-01T15:42:20Z</time><course>148</course><type>1</type></trkpt>
      <trkpt lat="38.403233" lon="-6.989533"><ele>859</ele><speed>44.1</speed><time>2017-07-01T15:42:25Z</time><course>148</course><type>1</type></trkpt>
      <trkpt lat="38.402767" lon="-6.989233"><ele>855</ele><speed>41.83</speed><time>2017-07-01T15:42:30Z</time><course>154</course><type>1</type></trkpt>
      <trkpt lat="38.402668" lon="-6.989000"><ele>849</ele><speed>16.65</speed><time>2017-07-01T15:42:35Z</time><course>94</course><type>1</type></trkpt>
      <trkpt lat="38.402599" lon="-6.988950"><ele>845</ele><speed>6.36</speed><time>2017-07-01T15:42:40Z</time><course>164</course><type>1</type></trkpt>
      <trkpt lat="38.402634" lon="-6.988934"><ele>837</ele><speed>2.98</speed><time>2017-07-01T15:42:45Z</time><course>346</course><type>1</type></trkpt>
      <trkpt lat="38.402649" lon="-6.989033"><ele>839</ele><speed>6.33</speed><time>2017-07-01T15:42:50Z</time><course>250</course><type>1</type></trkpt>
      <trkpt lat="38.402618" lon="-6.989017"><ele>837</ele><speed>2.68</speed><time>2017-07-01T15:42:55Z</time><course>18</course><type>1</type></trkpt>
      <trkpt lat="38.402668" lon="-6.989817"><ele>834</ele><speed>25.2</speed><time>2017-07-01T15:43:05Z</time><course>234</course><type>1</type></trkpt>
      <trkpt lat="38.401932" lon="-6.990200"><ele>831</ele><speed>63.71</speed><time>2017-07-01T15:43:10Z</time><course>178</course><type>1</type></trkpt>
      <trkpt lat="38.401550" lon="-6.989917"><ele>823</ele><speed>35.4</speed><time>2017-07-01T15:43:15Z</time><course>134</course><type>1</type></trkpt>
      <trkpt lat="38.401367" lon="-6.989600"><ele>820</ele><speed>24.73</speed><time>2017-07-01T15:43:20Z</time><course>114</course><type>1</type></trkpt>
      <trkpt lat="38.401333" lon="-6.989450"><ele>820</ele><speed>9.81</speed><time>2017-07-01T15:43:25Z</time><course>102</course><type>1</type></trkpt>
      <trkpt lat="38.401333" lon="-6.989350"><ele>822</ele><speed>6.28</speed><time>2017-07-01T15:43:30Z</time><course>82</course><type>1</type></trkpt>
      <trkpt lat="38.401417" lon="-6.989284"><ele>822</ele><speed>7.91</speed><time>2017-07-01T15:43:35Z</time><course>0</course><type>1</type></trkpt>
      <trkpt lat="38.401432" lon="-6.989316"><ele>825</ele><speed>2.34</speed><time>2017-07-01T15:43:40Z</time><course>340</course><type>1</type></trkpt>
      <trkpt lat="38.401451" lon="-6.989217"><ele>826</ele><speed>6.4</speed><time>2017-07-01T15:43:45Z</time><course>92</course><type>1</type></trkpt>
      <trkpt lat="38.401417" lon="-6.989150"><ele>829</ele><speed>5.01</speed><time>2017-07-01T15:43:50Z</time><course>114</course><type>1</type></trkpt>
      <trkpt lat="38.400433" lon="-6.989767"><ele>827</ele><speed>43.94</speed><time>2017-07-01T15:44:00Z</time><course>148</course><type>1</type></trkpt>
      <trkpt lat="38.400368" lon="-6.989533"><ele>826</ele><speed>15.59</speed><time>2017-07-01T15:44:05Z</time><course>16</course><type>1</type></trkpt>
      <trkpt lat="38.400452" lon="-6.989467"><ele>832</ele><speed>4.39</speed><time>2017-07-01T15:44:14Z</time><course>42</course><type>1</type></trkpt>
      <trkpt lat="38.400482" lon="-6.989517"><ele>847</ele><speed>3.96</speed><time>2017-07-01T15:44:19Z</time><course>202</course><type>1</type></trkpt>
      <trkpt lat="38.400482" lon="-6.989517"><ele>849</ele><speed>0</speed><time>2017-07-01T15:44:24Z</time><course>172</course><type>1</type></trkpt>
      <trkpt lat="38.400452" lon="-6.989583"><ele>855</ele><speed>4.79</speed><time>2017-07-01T15:44:29Z</time><course>268</course><type>1</type></trkpt>
      <trkpt lat="38.399933" lon="-6.990383"><ele>856</ele><speed>65.23</speed><time>2017-07-01T15:44:34Z</time><course>196</course><type>1</type></trkpt>
      <trkpt lat="38.399300" lon="-6.990500"><ele>868</ele><speed>51.26</speed><time>2017-07-01T15:44:39Z</time><course>152</course><type>1</type></trkpt>
      <trkpt lat="38.398548" lon="-6.991267"><ele>871</ele><speed>38.58</speed><time>2017-07-01T15:44:49Z</time><course>170</course><type>1</type></trkpt>
      <trkpt lat="38.398315" lon="-6.991034"><ele>881</ele><speed>23.73</speed><time>2017-07-01T15:44:54Z</time><course>118</course><type>1</type></trkpt>
      <trkpt lat="38.398285" lon="-6.990883"><ele>885</ele><speed>9.79</speed><time>2017-07-01T15:44:59Z</time><course>100</course><type>1</type></trkpt>
      <trkpt lat="38.397850" lon="-6.990667"><ele>894</ele><speed>37.41</speed><time>2017-07-01T15:45:04Z</time><course>178</course><type>1</type></trkpt>
      <trkpt lat="38.397316" lon="-6.991350"><ele>907</ele><speed>60.6</speed><time>2017-07-01T15:45:09Z</time><course>274</course><type>1</type></trkpt>
      <trkpt lat="38.397251" lon="-6.991367"><ele>911</ele><speed>5.32</speed><time>2017-07-01T15:45:14Z</time><course>160</course><type>1</type></trkpt>
      <trkpt lat="38.396568" lon="-6.991617"><ele>924</ele><speed>56.95</speed><time>2017-07-01T15:45:19Z</time><course>224</course><type>1</type></trkpt>
      <trkpt lat="38.396549" lon="-6.992133"><ele>944</ele><speed>32.45</speed><time>2017-07-01T15:45:24Z</time><course>356</course><type>1</type></trkpt>
      <trkpt lat="38.396198" lon="-6.991917"><ele>960</ele><speed>31.23</speed><time>2017-07-01T15:45:29Z</time><course>172</course><type>1</type></trkpt>
      <trkpt lat="38.395618" lon="-6.992450"><ele>969</ele><speed>57.29</speed><time>2017-07-01T15:45:34Z</time><course>264</course><type>1</type></trkpt>
      <trkpt lat="38.395100" lon="-6.992517"><ele>999</ele><speed>20.87</speed><time>2017-07-01T15:45:44Z</time><course>192</course><type>1</type></trkpt>
      <trkpt lat="38.394783" lon="-6.993217"><ele>1010</ele><speed>50.78</speed><time>2017-07-01T15:45:49Z</time><course>284</course><type>1</type></trkpt>
      <trkpt lat="38.394768" lon="-6.993117"><ele>1023</ele><speed>6.4</speed><time>2017-07-01T15:45:54Z</time><course>146</course><type>1</type></trkpt>
      <trkpt lat="38.394066" lon="-6.993166"><ele>1034</ele><speed>56.35</speed><time>2017-07-01T15:45:59Z</time><course>194</course><type>1</type></trkpt>
      <trkpt lat="38.393951" lon="-6.993950"><ele>1036</ele><speed>50.1</speed><time>2017-07-01T15:46:04Z</time><course>282</course><type>1</type></trkpt>
      <trkpt lat="38.394051" lon="-6.994133"><ele>1061</ele><speed>14.01</speed><time>2017-07-01T15:46:09Z</time><course>300</course><type>1</type></trkpt>
      <trkpt lat="38.393452" lon="-6.994367"><ele>1061</ele><speed>41.84</speed><time>2017-07-01T15:46:15Z</time><course>226</course><type>1</type></trkpt>
      <trkpt lat="38.393333" lon="-6.995100"><ele>1081</ele><speed>47.02</speed><time>2017-07-01T15:46:20Z</time><course>268</course><type>1</type></trkpt>
      <trkpt lat="38.393215" lon="-6.995100"><ele>1094</ele><speed>9.46</speed><time>2017-07-01T15:46:25Z</time><course>158</course><type>1</type></trkpt>
      <trkpt lat="38.392651" lon="-6.996284"><ele>1112</ele><speed>43.52</speed><time>2017-07-01T15:46:35Z</time><course>306</course><type>1</type></trkpt>
      <trkpt lat="38.392551" lon="-6.997033"><ele>1122</ele><speed>47.73</speed><time>2017-07-01T15:46:40Z</time><course>236</course><type>1</type></trkpt>
      <trkpt lat="38.391918" lon="-6.997167"><ele>1130</ele><speed>51.43</speed><time>2017-07-01T15:46:45Z</time><course>136</course><type>1</type></trkpt>
      <trkpt lat="38.392033" lon="-6.997300"><ele>1143</ele><speed>12.44</speed><time>2017-07-01T15:46:50Z</time><course>286</course><type>1</type></trkpt>
      <trkpt lat="38.392033" lon="-6.997967"><ele>1160</ele><speed>41.9</speed><time>2017-07-01T15:46:55Z</time><course>248</course><type>1</type></trkpt>
      <trkpt lat="38.391350" lon="-6.998367"><ele>1165</ele><speed>60.23</speed><time>2017-07-01T15:47:00Z</time><course>158</course><type>1</type></trkpt>
      <trkpt lat="38.391350" lon="-6.998417"><ele>1181</ele><speed>3.14</speed><time>2017-07-01T15:47:05Z</time><course>288</course><type>1</type></trkpt>
      <trkpt lat="38.391167" lon="-6.999200"><ele>1194</ele><speed>51.33</speed><time>2017-07-01T15:47:10Z</time><course>228</course><type>1</type></trkpt>
      <trkpt lat="38.390549" lon="-6.999233"><ele>1199</ele><speed>49.58</speed><time>2017-07-01T15:47:15Z</time><course>140</course><type>1</type></trkpt>
      <trkpt lat="38.390266" lon="-7.000017"><ele>1221</ele><speed>27.11</speed><time>2017-07-01T15:47:25Z</time><course>210</course><type>1</type></trkpt>
      <trkpt lat="38.389732" lon="-6.999950"><ele>1236</ele><speed>43.01</speed><time>2017-07-01T15:47:30Z</time><course>138</course><type>1</type></trkpt>
      <trkpt lat="38.389801" lon="-7.000067"><ele>1247</ele><speed>9.2</speed><time>2017-07-01T15:47:35Z</time><course>306</course><type>1</type></trkpt>
      <trkpt lat="38.389599" lon="-7.000850"><ele>1257</ele><speed>51.79</speed><time>2017-07-01T15:47:40Z</time><course>222</course><type>1</type></trkpt>
      <trkpt lat="38.389000" lon="-7.000916"><ele>1271</ele><speed>48.19</speed><time>2017-07-01T15:47:45Z</time><course>142</course><type>1</type></trkpt>
      <trkpt lat="38.389099" lon="-7.001000"><ele>1285</ele><speed>9.53</speed><time>2017-07-01T15:47:50Z</time><course>310</course><type>1</type></trkpt>
      <trkpt lat="38.389000" lon="-7.001717"><ele>1297</ele><speed>45.74</speed><time>2017-07-01T15:47:55Z</time><course>226</course><type>1</type></trkpt>
      <trkpt lat="38.388382" lon="-7.001800"><ele>1308</ele><speed>49.81</speed><time>2017-07-01T15:48:00Z</time><course>162</course><type>1</type></trkpt>
      <trkpt lat="38.388466" lon="-7.001750"><ele>1307</ele><speed>7.43</speed><time>2017-07-01T15:48:05Z</time><course>318</course><type>1</type></trkpt>
      <trkpt lat="38.387882" lon="-7.002483"><ele>1334</ele><speed>32.83</speed><time>2017-07-01T15:48:15Z</time><course>134</course><type>1</type></trkpt>
      <trkpt lat="38.387966" lon="-7.002483"><ele>1330</ele><speed>6.73</speed><time>2017-07-01T15:48:20Z</time><course>308</course><type>1</type></trkpt>
      <trkpt lat="38.387966" lon="-7.003417"><ele>1350</ele><speed>58.68</speed><time>2017-07-01T15:48:25Z</time><course>220</course><type>1</type></trkpt>
      <trkpt lat="38.387466" lon="-7.003500"><ele>1371</ele><speed>40.41</speed><time>2017-07-01T15:48:30Z</time><course>140</course><type>1</type></trkpt>
      <trkpt lat="38.387585" lon="-7.003483"><ele>1388</ele><speed>9.6</speed><time>2017-07-01T15:48:35Z</time><course>336</course><type>1</type></trkpt>
      <trkpt lat="38.387684" lon="-7.004267"><ele>1392</ele><speed>49.89</speed><time>2017-07-01T15:48:40Z</time><course>254</course><type>1</type></trkpt>
      <trkpt lat="38.387135" lon="-7.004883"><ele>1408</ele><speed>58.6</speed><time>2017-07-01T15:48:45Z</time><course>186</course><type>1</type></trkpt>
      <trkpt lat="38.387199" lon="-7.004850"><ele>1413</ele><speed>5.53</speed><time>2017-07-01T15:48:50Z</time><course>314</course><type>1</type></trkpt>
      <trkpt lat="38.387199" lon="-7.005800"><ele>1423</ele><speed>59.68</speed><time>2017-07-01T15:48:55Z</time><course>248</course><type>1</type></trkpt>
      <trkpt lat="38.386635" lon="-7.006333"><ele>1432</ele><speed>56.26</speed><time>2017-07-01T15:49:00Z</time><course>178</course><type>1</type></trkpt>
      <trkpt lat="38.386684" lon="-7.007400"><ele>1449</ele><speed>33.57</speed><time>2017-07-01T15:49:10Z</time><course>246</course><type>1</type></trkpt>
      <trkpt lat="38.386101" lon="-7.008050"><ele>1457</ele><speed>62.06</speed><time>2017-07-01T15:49:15Z</time><course>198</course><type>1</type></trkpt>
      <trkpt lat="38.385983" lon="-7.007983"><ele>1458</ele><speed>10.35</speed><time>2017-07-01T15:49:20Z</time><course>344</course><type>1</type></trkpt>
      <trkpt lat="38.386166" lon="-7.008266"><ele>1470</ele><speed>23.05</speed><time>2017-07-01T15:49:25Z</time><course>296</course><type>1</type></trkpt>
      <trkpt lat="38.386051" lon="-7.009333"><ele>1469</ele><speed>67.67</speed><time>2017-07-01T15:49:30Z</time><course>234</course><type>1</type></trkpt>
      <trkpt lat="38.385517" lon="-7.009683"><ele>1469</ele><speed>48.12</speed><time>2017-07-01T15:49:35Z</time><course>192</course><type>1</type></trkpt>
      <trkpt lat="38.385715" lon="-7.009867"><ele>1469</ele><speed>19.63</speed><time>2017-07-01T15:49:40Z</time><course>308</course><type>1</type></trkpt>
      <trkpt lat="38.385799" lon="-7.010767"><ele>1471</ele><speed>56.94</speed><time>2017-07-01T15:49:45Z</time><course>260</course><type>1</type></trkpt>
      <trkpt lat="38.385216" lon="-7.011667"><ele>1478</ele><speed>73.35</speed><time>2017-07-01T15:49:50Z</time><course>210</course><type>1</type></trkpt>
      <trkpt lat="38.384583" lon="-7.011883"><ele>1483</ele><speed>52.52</speed><time>2017-07-01T15:49:55Z</time><course>172</course><type>1</type></trkpt>
      <trkpt lat="38.384602" lon="-7.012633"><ele>1495</ele><speed>23.57</speed><time>2017-07-01T15:50:05Z</time><course>266</course><type>1</type></trkpt>
      <trkpt lat="38.383999" lon="-7.013484"><ele>1497</ele><speed>72.07</speed><time>2017-07-01T15:50:10Z</time><course>204</course><type>1</type></trkpt>
      <trkpt lat="38.383484" lon="-7.013667"><ele>1503</ele><speed>42.85</speed><time>2017-07-01T15:50:15Z</time><course>196</course><type>1</type></trkpt>
      <trkpt lat="38.383652" lon="-7.013983"><ele>1505</ele><speed>23.99</speed><time>2017-07-01T15:50:20Z</time><course>284</course><type>1</type></trkpt>
      <trkpt lat="38.383385" lon="-7.015067"><ele>1514</ele><speed>71.39</speed><time>2017-07-01T15:50:25Z</time><course>232</course><type>1</type></trkpt>
      <trkpt lat="38.382633" lon="-7.015666"><ele>1516</ele><speed>71.06</speed><time>2017-07-01T15:50:30Z</time><course>196</course><type>1</type></trkpt>
      <trkpt lat="38.382183" lon="-7.015683"><ele>1512</ele><speed>36.08</speed><time>2017-07-01T15:50:35Z</time><course>144</course><type>1</type></trkpt>
      <trkpt lat="38.382332" lon="-7.016150"><ele>1510</ele><speed>31.68</speed><time>2017-07-01T15:50:40Z</time><course>280</course><type>1</type></trkpt>
      <trkpt lat="38.382401" lon="-7.017083"><ele>1516</ele><speed>58.88</speed><time>2017-07-01T15:50:45Z</time><course>272</course><type>1</type></trkpt>
      <trkpt lat="38.382149" lon="-7.018034"><ele>1519</ele><speed>63.07</speed><time>2017-07-01T15:50:50Z</time><course>234</course><type>1</type></trkpt>
      <trkpt lat="38.381283" lon="-7.018283"><ele>1508</ele><speed>35.58</speed><time>2017-07-01T15:51:00Z</time><course>190</course><type>1</type></trkpt>
      <trkpt lat="38.381382" lon="-7.018533"><ele>1510</ele><speed>17.6</speed><time>2017-07-01T15:51:05Z</time><course>292</course><type>1</type></trkpt>
      <trkpt lat="38.381367" lon="-7.019300"><ele>1509</ele><speed>48.21</speed><time>2017-07-01T15:51:10Z</time><course>246</course><type>1</type></trkpt>
      <trkpt lat="38.380733" lon="-7.020067"><ele>1508</ele><speed>70.03</speed><time>2017-07-01T15:51:15Z</time><course>210</course><type>1</type></trkpt>
      <trkpt lat="38.380116" lon="-7.020133"><ele>1502</ele><speed>49.63</speed><time>2017-07-01T15:51:20Z</time><course>154</course><type>1</type></trkpt>
      <trkpt lat="38.380135" lon="-7.020250"><ele>1508</ele><speed>7.51</speed><time>2017-07-01T15:51:25Z</time><course>290</course><type>1</type></trkpt>
      <trkpt lat="38.379982" lon="-7.021150"><ele>1501</ele><speed>57.86</speed><time>2017-07-01T15:51:30Z</time><course>234</course><type>1</type></trkpt>
      <trkpt lat="38.379318" lon="-7.021966"><ele>1498</ele><speed>73.9</speed><time>2017-07-01T15:51:35Z</time><course>222</course><type>1</type></trkpt>
      <trkpt lat="38.378551" lon="-7.022767"><ele>1497</ele><speed>79.45</speed><time>2017-07-01T15:51:40Z</time><course>210</course><type>1</type></trkpt>
      <trkpt lat="38.378082" lon="-7.023483"><ele>1496</ele><speed>58.63</speed><time>2017-07-01T15:51:45Z</time><course>264</course><type>1</type></trkpt>
      <trkpt lat="38.378033" lon="-7.023467"><ele>1490</ele><speed>4.05</speed><time>2017-07-01T15:51:50Z</time><course>152</course><type>1</type></trkpt>
      <trkpt lat="38.377251" lon="-7.023733"><ele>1489</ele><speed>64.87</speed><time>2017-07-01T15:51:55Z</time><course>210</course><type>1</type></trkpt>
      <trkpt lat="38.376484" lon="-7.024317"><ele>1488</ele><speed>71.59</speed><time>2017-07-01T15:52:00Z</time><course>210</course><type>1</type></trkpt>
      <trkpt lat="38.375732" lon="-7.024933"><ele>1483</ele><speed>71.63</speed><time>2017-07-01T15:52:05Z</time><course>212</course><type>1</type></trkpt>
      <trkpt lat="38.375000" lon="-7.025583"><ele>1480</ele><speed>71.49</speed><time>2017-07-01T15:52:10Z</time><course>216</course><type>1</type></trkpt>
      <trkpt lat="38.374184" lon="-7.026283"><ele>1479</ele><speed>78.82</speed><time>2017-07-01T15:52:15Z</time><course>208</course><type>1</type></trkpt>
      <trkpt lat="38.373451" lon="-7.026567"><ele>1477</ele><speed>61.4</speed><time>2017-07-01T15:52:20Z</time><course>166</course><type>1</type></trkpt>
      <trkpt lat="38.373032" lon="-7.026200"><ele>1477</ele><speed>40.74</speed><time>2017-07-01T15:52:25Z</time><course>144</course><type>1</type></trkpt>
      <trkpt lat="38.373051" lon="-7.026300"><ele>1475</ele><speed>6.47</speed><time>2017-07-01T15:52:30Z</time><course>294</course><type>1</type></trkpt>
      <trkpt lat="38.373016" lon="-7.026866"><ele>1476</ele><speed>35.68</speed><time>2017-07-01T15:52:35Z</time><course>256</course><type>1</type></trkpt>
      <trkpt lat="38.372616" lon="-7.027767"><ele>1470</ele><speed>65.06</speed><time>2017-07-01T15:52:40Z</time><course>220</course><type>1</type></trkpt>
      <trkpt lat="38.371849" lon="-7.028217"><ele>1470</ele><speed>67.67</speed><time>2017-07-01T15:52:45Z</time><course>190</course><type>1</type></trkpt>
      <trkpt lat="38.371082" lon="-7.028167"><ele>1464</ele><speed>61.56</speed><time>2017-07-01T15:52:50Z</time><course>154</course><type>1</type></trkpt>
      <trkpt lat="38.370884" lon="-7.027850"><ele>1460</ele><speed>25.47</speed><time>2017-07-01T15:52:55Z</time><course>120</course><type>1</type></trkpt>
      <trkpt lat="38.370865" lon="-7.027800"><ele>1461</ele><speed>3.49</speed><time>2017-07-01T15:53:00Z</time><course>320</course><type>1</type></trkpt>
      <trkpt lat="38.370602" lon="-7.028650"><ele>1452</ele><speed>57.42</speed><time>2017-07-01T15:53:05Z</time><course>222</course><type>1</type></trkpt>
      <trkpt lat="38.369934" lon="-7.029284"><ele>1449</ele><speed>66.74</speed><time>2017-07-01T15:53:10Z</time><course>214</course><type>1</type></trkpt>
      <trkpt lat="38.369148" lon="-7.029883"><ele>1446</ele><speed>73.39</speed><time>2017-07-01T15:53:15Z</time><course>210</course><type>1</type></trkpt>
      <trkpt lat="38.368332" lon="-7.030500"><ele>1438</ele><speed>76.03</speed><time>2017-07-01T15:53:20Z</time><course>214</course><type>1</type></trkpt>
      <trkpt lat="38.367599" lon="-7.031250"><ele>1425</ele><speed>75.32</speed><time>2017-07-01T15:53:25Z</time><course>220</course><type>1</type></trkpt>
      <trkpt lat="38.366882" lon="-7.031967"><ele>1416</ele><speed>73.03</speed><time>2017-07-01T15:53:30Z</time><course>218</course><type>1</type></trkpt>
      <trkpt lat="38.366165" lon="-7.032767"><ele>1407</ele><speed>76.35</speed><time>2017-07-01T15:53:35Z</time><course>220</course><type>1</type></trkpt>
      <trkpt lat="38.365501" lon="-7.033550"><ele>1401</ele><speed>72.48</speed><time>2017-07-01T15:53:40Z</time><course>224</course><type>1</type></trkpt>
      <trkpt lat="38.364819" lon="-7.034383"><ele>1394</ele><speed>75.69</speed><time>2017-07-01T15:53:45Z</time><course>222</course><type>1</type></trkpt>
      <trkpt lat="38.364182" lon="-7.035233"><ele>1384</ele><speed>73.89</speed><time>2017-07-01T15:53:50Z</time><course>228</course><type>1</type></trkpt>
      <trkpt lat="38.363548" lon="-7.036067"><ele>1378</ele><speed>73</speed><time>2017-07-01T15:53:55Z</time><course>224</course><type>1</type></trkpt>
      <trkpt lat="38.362267" lon="-7.037467"><ele>1361</ele><speed>67.61</speed><time>2017-07-01T15:54:05Z</time><course>216</course><type>1</type></trkpt>
      <trkpt lat="38.361649" lon="-7.038084"><ele>1353</ele><speed>62.91</speed><time>2017-07-01T15:54:10Z</time><course>210</course><type>1</type></trkpt>
      <trkpt lat="38.360950" lon="-7.038750"><ele>1328</ele><speed>69.93</speed><time>2017-07-01T15:54:15Z</time><course>216</course><type>1</type></trkpt>
      <trkpt lat="38.360249" lon="-7.039467"><ele>1312</ele><speed>72.02</speed><time>2017-07-01T15:54:20Z</time><course>220</course><type>1</type></trkpt>
      <trkpt lat="38.359535" lon="-7.040184"><ele>1304</ele><speed>72.84</speed><time>2017-07-01T15:54:25Z</time><course>214</course><type>1</type></trkpt>
      <trkpt lat="38.358932" lon="-7.040867"><ele>1289</ele><speed>64.64</speed><time>2017-07-01T15:54:30Z</time><course>224</course><type>1</type></trkpt>
      <trkpt lat="38.358398" lon="-7.041550"><ele>1283</ele><speed>60.62</speed><time>2017-07-01T15:54:35Z</time><course>222</course><type>1</type></trkpt>
      <trkpt lat="38.357800" lon="-7.042150"><ele>1272</ele><speed>60.99</speed><time>2017-07-01T15:54:40Z</time><course>216</course><type>1</type></trkpt>
      <trkpt lat="38.357182" lon="-7.042867"><ele>1267</ele><speed>66.96</speed><time>2017-07-01T15:54:45Z</time><course>224</course><type>1</type></trkpt>
      <trkpt lat="38.356583" lon="-7.043533"><ele>1252</ele><speed>63.7</speed><time>2017-07-01T15:54:50Z</time><course>222</course><type>1</type></trkpt>
      <trkpt lat="38.355999" lon="-7.044200"><ele>1251</ele><speed>62.84</speed><time>2017-07-01T15:54:55Z</time><course>212</course><type>1</type></trkpt>
      <trkpt lat="38.355465" lon="-7.044066"><ele>1241</ele><speed>43.62</speed><time>2017-07-01T15:55:00Z</time><course>130</course><type>1</type></trkpt>
      <trkpt lat="38.355598" lon="-7.044167"><ele>1239</ele><speed>12.41</speed><time>2017-07-01T15:55:05Z</time><course>328</course><type>1</type></trkpt>
      <trkpt lat="38.355598" lon="-7.044900"><ele>1235</ele><speed>46.07</speed><time>2017-07-01T15:55:10Z</time><course>242</course><type>1</type></trkpt>
      <trkpt lat="38.355183" lon="-7.045683"><ele>1227</ele><speed>59.4</speed><time>2017-07-01T15:55:15Z</time><course>238</course><type>1</type></trkpt>
      <trkpt lat="38.354649" lon="-7.046484"><ele>1225</ele><speed>66.08</speed><time>2017-07-01T15:55:20Z</time><course>224</course><type>1</type></trkpt>
      <trkpt lat="38.354584" lon="-7.047117"><ele>1215</ele><speed>40.13</speed><time>2017-07-01T15:55:25Z</time><course>310</course><type>1</type></trkpt>
      <trkpt lat="38.354515" lon="-7.046834"><ele>1209</ele><speed>18.63</speed><time>2017-07-01T15:55:30Z</time><course>148</course><type>1</type></trkpt>
      <trkpt lat="38.353901" lon="-7.046750"><ele>1208</ele><speed>49.49</speed><time>2017-07-01T15:55:35Z</time><course>184</course><type>1</type></trkpt>
      <trkpt lat="38.353268" lon="-7.047333"><ele>1203</ele><speed>62.58</speed><time>2017-07-01T15:55:40Z</time><course>226</course><type>1</type></trkpt>
      <trkpt lat="38.352749" lon="-7.048150"><ele>1196</ele><speed>66.09</speed><time>2017-07-01T15:55:45Z</time><course>236</course><type>1</type></trkpt>
      <trkpt lat="38.352318" lon="-7.048950"><ele>1190</ele><speed>61.01</speed><time>2017-07-01T15:55:50Z</time><course>230</course><type>1</type></trkpt>
      <trkpt lat="38.351799" lon="-7.049817"><ele>1184</ele><speed>68.56</speed><time>2017-07-01T15:55:55Z</time><course>230</course><type>1</type></trkpt>
      <trkpt lat="38.351334" lon="-7.050683"><ele>1180</ele><speed>65.97</speed><time>2017-07-01T15:56:00Z</time><course>230</course><type>1</type></trkpt>
      <trkpt lat="38.350834" lon="-7.051533"><ele>1171</ele><speed>66.79</speed><time>2017-07-01T15:56:05Z</time><course>230</course><type>1</type></trkpt>
      <trkpt lat="38.350616" lon="-7.052317"><ele>1180</ele><speed>52.28</speed><time>2017-07-01T15:56:10Z</time><course>274</course><type>1</type></trkpt>
      <trkpt lat="38.350552" lon="-7.052300"><ele>1178</ele><speed>5.24</speed><time>2017-07-01T15:56:15Z</time><course>168</course><type>1</type></trkpt>
      <trkpt lat="38.349934" lon="-7.052900"><ele>1190</ele><speed>62.26</speed><time>2017-07-01T15:56:20Z</time><course>248</course><type>1</type></trkpt>
      <trkpt lat="38.350018" lon="-7.053300"><ele>1195</ele><speed>26.03</speed><time>2017-07-01T15:56:25Z</time><course>82</course><type>1</type></trkpt>
      <trkpt lat="38.349400" lon="-7.053417"><ele>1199</ele><speed>50.08</speed><time>2017-07-01T15:56:30Z</time><course>226</course><type>1</type></trkpt>
      <trkpt lat="38.349400" lon="-7.054150"><ele>1209</ele><speed>46.07</speed><time>2017-07-01T15:56:35Z</time><course>308</course><type>1</type></trkpt>
      <trkpt lat="38.349216" lon="-7.054033"><ele>1208</ele><speed>16.48</speed><time>2017-07-01T15:56:40Z</time><course>166</course><type>1</type></trkpt>
      <trkpt lat="38.348518" lon="-7.054400"><ele>1217</ele><speed>60.51</speed><time>2017-07-01T15:56:45Z</time><course>230</course><type>1</type></trkpt>
      <trkpt lat="38.348465" lon="-7.055150"><ele>1230</ele><speed>47.33</speed><time>2017-07-01T15:56:50Z</time><course>306</course><type>1</type></trkpt>
      <trkpt lat="38.348202" lon="-7.055017"><ele>1242</ele><speed>22.68</speed><time>2017-07-01T15:56:55Z</time><course>182</course><type>1</type></trkpt>
      <trkpt lat="38.347668" lon="-7.055767"><ele>1251</ele><speed>63.67</speed><time>2017-07-01T15:57:00Z</time><course>262</course><type>1</type></trkpt>
      <trkpt lat="38.347366" lon="-7.056200"><ele>1270</ele><speed>18.21</speed><time>2017-07-01T15:57:10Z</time><course>194</course><type>1</type></trkpt>
      <trkpt lat="38.346931" lon="-7.057050"><ele>1281</ele><speed>63.8</speed><time>2017-07-01T15:57:15Z</time><course>266</course><type>1</type></trkpt>
      <trkpt lat="38.347050" lon="-7.057567"><ele>1291</ele><speed>33.87</speed><time>2017-07-01T15:57:20Z</time><course>324</course><type>1</type></trkpt>
      <trkpt lat="38.346600" lon="-7.057500"><ele>1297</ele><speed>36.31</speed><time>2017-07-01T15:57:25Z</time><course>198</course><type>1</type></trkpt>
      <trkpt lat="38.346233" lon="-7.058417"><ele>1304</ele><speed>64.71</speed><time>2017-07-01T15:57:30Z</time><course>276</course><type>1</type></trkpt>
      <trkpt lat="38.346333" lon="-7.058667"><ele>1311</ele><speed>17.64</speed><time>2017-07-01T15:57:35Z</time><course>16</course><type>1</type></trkpt>
      <trkpt lat="38.345718" lon="-7.058767"><ele>1311</ele><speed>49.69</speed><time>2017-07-01T15:57:40Z</time><course>212</course><type>1</type></trkpt>
      <trkpt lat="38.345284" lon="-7.059566"><ele>1322</ele><speed>61.1</speed><time>2017-07-01T15:57:45Z</time><course>260</course><type>1</type></trkpt>
      <trkpt lat="38.345417" lon="-7.059916"><ele>1325</ele><speed>24.45</speed><time>2017-07-01T15:57:50Z</time><course>96</course><type>1</type></trkpt>
      <trkpt lat="38.344898" lon="-7.059850"><ele>1337</ele><speed>41.8</speed><time>2017-07-01T15:57:55Z</time><course>188</course><type>1</type></trkpt>
      <trkpt lat="38.344349" lon="-7.060633"><ele>1342</ele><speed>66.02</speed><time>2017-07-01T15:58:00Z</time><course>256</course><type>1</type></trkpt>
      <trkpt lat="38.344452" lon="-7.061200"><ele>1344</ele><speed>36.59</speed><time>2017-07-01T15:58:05Z</time><course>306</course><type>1</type></trkpt>
      <trkpt lat="38.344334" lon="-7.060933"><ele>1345</ele><speed>19.27</speed><time>2017-07-01T15:58:10Z</time><course>126</course><type>1</type></trkpt>
      <trkpt lat="38.344082" lon="-7.060800"><ele>1353</ele><speed>21.86</speed><time>2017-07-01T15:58:15Z</time><course>176</course><type>1</type></trkpt>
      <trkpt lat="38.343533" lon="-7.061550"><ele>1357</ele><speed>64.49</speed><time>2017-07-01T15:58:20Z</time><course>266</course><type>1</type></trkpt>
      <trkpt lat="38.343750" lon="-7.061967"><ele>1365</ele><speed>31.46</speed><time>2017-07-01T15:58:25Z</time><course>320</course><type>1</type></trkpt>
      <trkpt lat="38.343716" lon="-7.061934"><ele>1374</ele><speed>3.42</speed><time>2017-07-01T15:58:30Z</time><course>142</course><type>1</type></trkpt>
      <trkpt lat="38.343067" lon="-7.062267"><ele>1380</ele><speed>56.07</speed><time>2017-07-01T15:58:35Z</time><course>234</course><type>1</type></trkpt>
      <trkpt lat="38.343102" lon="-7.062984"><ele>1386</ele><speed>45.16</speed><time>2017-07-01T15:58:40Z</time><course>312</course><type>1</type></trkpt>
      <trkpt lat="38.343067" lon="-7.062967"><ele>1399</ele><speed>3</speed><time>2017-07-01T15:58:45Z</time><course>154</course><type>1</type></trkpt>
      <trkpt lat="38.342415" lon="-7.063217"><ele>1402</ele><speed>54.57</speed><time>2017-07-01T15:58:50Z</time><course>222</course><type>1</type></trkpt>
      <trkpt lat="38.342335" lon="-7.064067"><ele>1409</ele><speed>53.82</speed><time>2017-07-01T15:58:55Z</time><course>306</course><type>1</type></trkpt>
      <trkpt lat="38.342518" lon="-7.064300"><ele>1421</ele><speed>20.73</speed><time>2017-07-01T15:59:00Z</time><course>304</course><type>1</type></trkpt>
      <trkpt lat="38.342098" lon="-7.064300"><ele>1430</ele><speed>33.66</speed><time>2017-07-01T15:59:05Z</time><course>192</course><type>1</type></trkpt>
      <trkpt lat="38.341633" lon="-7.065150"><ele>1435</ele><speed>65.15</speed><time>2017-07-01T15:59:10Z</time><course>266</course><type>1</type></trkpt>
      <trkpt lat="38.341801" lon="-7.065784"><ele>1445</ele><speed>42.07</speed><time>2017-07-01T15:59:15Z</time><course>292</course><type>1</type></trkpt>
      <trkpt lat="38.341618" lon="-7.065784"><ele>1440</ele><speed>14.67</speed><time>2017-07-01T15:59:20Z</time><course>178</course><type>1</type></trkpt>
      <trkpt lat="38.340900" lon="-7.065983"><ele>1449</ele><speed>58.89</speed><time>2017-07-01T15:59:25Z</time><course>196</course><type>1</type></trkpt>
      <trkpt lat="38.340767" lon="-7.066017"><ele>1452</ele><speed>10.87</speed><time>2017-07-01T15:59:30Z</time><course>296</course><type>1</type></trkpt>
      <trkpt lat="38.340534" lon="-7.066950"><ele>1459</ele><speed>61.55</speed><time>2017-07-01T15:59:35Z</time><course>216</course><type>1</type></trkpt>
      <trkpt lat="38.339916" lon="-7.067133"><ele>1466</ele><speed>50.85</speed><time>2017-07-01T15:59:40Z</time><course>154</course><type>1</type></trkpt>
      <trkpt lat="38.339851" lon="-7.066967"><ele>1470</ele><speed>11.66</speed><time>2017-07-01T15:59:45Z</time><course>92</course><type>1</type></trkpt>
      <trkpt lat="38.339832" lon="-7.066950"><ele>1481</ele><speed>1.86</speed><time>2017-07-01T15:59:50Z</time><course>286</course><type>1</type></trkpt>
      <trkpt lat="38.339851" lon="-7.067767"><ele>1477</ele><speed>51.38</speed><time>2017-07-01T15:59:55Z</time><course>252</course><type>1</type></trkpt>
      <trkpt lat="38.339134" lon="-7.068217"><ele>1481</ele><speed>64.05</speed><time>2017-07-01T16:00:00Z</time><course>184</course><type>1</type></trkpt>
      <trkpt lat="38.338867" lon="-7.068967"><ele>1493</ele><speed>25.89</speed><time>2017-07-01T16:00:10Z</time><course>240</course><type>1</type></trkpt>
      <trkpt lat="38.338200" lon="-7.069433"><ele>1506</ele><speed>60.96</speed><time>2017-07-01T16:00:15Z</time><course>174</course><type>1</type></trkpt>
      <trkpt lat="38.338100" lon="-7.069350"><ele>1508</ele><speed>9.56</speed><time>2017-07-01T16:00:20Z</time><course>340</course><type>1</type></trkpt>
      <trkpt lat="38.338116" lon="-7.070034"><ele>1516</ele><speed>43.02</speed><time>2017-07-01T16:00:25Z</time><course>248</course><type>1</type></trkpt>
      <trkpt lat="38.337482" lon="-7.070717"><ele>1526</ele><speed>66.53</speed><time>2017-07-01T16:00:30Z</time><course>198</course><type>1</type></trkpt>
      <trkpt lat="38.337200" lon="-7.070617"><ele>1527</ele><speed>23.46</speed><time>2017-07-01T16:00:35Z</time><course>110</course><type>1</type></trkpt>
      <trkpt lat="38.337368" lon="-7.071100"><ele>1534</ele><speed>33.22</speed><time>2017-07-01T16:00:40Z</time><course>280</course><type>1</type></trkpt>
      <trkpt lat="38.336933" lon="-7.072050"><ele>1537</ele><speed>69.16</speed><time>2017-07-01T16:00:45Z</time><course>220</course><type>1</type></trkpt>
      <trkpt lat="38.336235" lon="-7.072350"><ele>1537</ele><speed>59.04</speed><time>2017-07-01T16:00:50Z</time><course>178</course><type>1</type></trkpt>
      <trkpt lat="38.335934" lon="-7.072150"><ele>1539</ele><speed>27.21</speed><time>2017-07-01T16:00:55Z</time><course>98</course><type>1</type></trkpt>
      <trkpt lat="38.335999" lon="-7.072117"><ele>1543</ele><speed>5.61</speed><time>2017-07-01T16:01:00Z</time><course>10</course><type>1</type></trkpt>
      <trkpt lat="38.336132" lon="-7.072183"><ele>1551</ele><speed>11.44</speed><time>2017-07-01T16:01:05Z</time><course>316</course><type>1</type></trkpt>
      <trkpt lat="38.336182" lon="-7.072834"><ele>1543</ele><speed>41.12</speed><time>2017-07-01T16:01:10Z</time><course>260</course><type>1</type></trkpt>
      <trkpt lat="38.335602" lon="-7.073383"><ele>1536</ele><speed>57.9</speed><time>2017-07-01T16:01:15Z</time><course>176</course><type>1</type></trkpt>
      <trkpt lat="38.335365" lon="-7.073350"><ele>1544</ele><speed>19.11</speed><time>2017-07-01T16:01:20Z</time><course>18</course><type>1</type></trkpt>
      <trkpt lat="38.335468" lon="-7.074133"><ele>1550</ele><speed>49.91</speed><time>2017-07-01T16:01:25Z</time><course>268</course><type>1</type></trkpt>
      <trkpt lat="38.334984" lon="-7.075016"><ele>1554</ele><speed>67.72</speed><time>2017-07-01T16:01:30Z</time><course>224</course><type>1</type></trkpt>
      <trkpt lat="38.334385" lon="-7.075250"><ele>1556</ele><speed>50.21</speed><time>2017-07-01T16:01:35Z</time><course>166</course><type>1</type></trkpt>
      <trkpt lat="38.334251" lon="-7.075100"><ele>1557</ele><speed>14.29</speed><time>2017-07-01T16:01:40Z</time><course>72</course><type>1</type></trkpt>
      <trkpt lat="38.334499" lon="-7.075333"><ele>1560</ele><speed>24.69</speed><time>2017-07-01T16:01:45Z</time><course>310</course><type>1</type></trkpt>
      <trkpt lat="38.334633" lon="-7.075933"><ele>1566</ele><speed>39.22</speed><time>2017-07-01T16:01:50Z</time><course>260</course><type>1</type></trkpt>
      <trkpt lat="38.334118" lon="-7.076700"><ele>1564</ele><speed>63.48</speed><time>2017-07-01T16:01:55Z</time><course>192</course><type>1</type></trkpt>
      <trkpt lat="38.333851" lon="-7.076483"><ele>1563</ele><speed>25.38</speed><time>2017-07-01T16:02:00Z</time><course>80</course><type>1</type></trkpt>
      <trkpt lat="38.334000" lon="-7.076750"><ele>1569</ele><speed>20.6</speed><time>2017-07-01T16:02:05Z</time><course>280</course><type>1</type></trkpt>
      <trkpt lat="38.334015" lon="-7.077650"><ele>1563</ele><speed>56.6</speed><time>2017-07-01T16:02:10Z</time><course>258</course><type>1</type></trkpt>
      <trkpt lat="38.333534" lon="-7.078450"><ele>1562</ele><speed>63.37</speed><time>2017-07-01T16:02:15Z</time><course>220</course><type>1</type></trkpt>
      <trkpt lat="38.332932" lon="-7.078784"><ele>1563</ele><speed>52.62</speed><time>2017-07-01T16:02:20Z</time><course>182</course><type>1</type></trkpt>
      <trkpt lat="38.332767" lon="-7.078450"><ele>1561</ele><speed>24.82</speed><time>2017-07-01T16:02:25Z</time><course>98</course><type>1</type></trkpt>
      <trkpt lat="38.332951" lon="-7.078400"><ele>1557</ele><speed>15.08</speed><time>2017-07-01T16:02:30Z</time><course>334</course><type>1</type></trkpt>
      <trkpt lat="38.333149" lon="-7.079033"><ele>1557</ele><speed>42.84</speed><time>2017-07-01T16:02:35Z</time><course>274</course><type>1</type></trkpt>
      <trkpt lat="38.333168" lon="-7.079900"><ele>1559</ele><speed>54.53</speed><time>2017-07-01T16:02:40Z</time><course>274</course><type>1</type></trkpt>
      <trkpt lat="38.333168" lon="-7.080683"><ele>1560</ele><speed>49.23</speed><time>2017-07-01T16:02:45Z</time><course>260</course><type>1</type></trkpt>
      <trkpt lat="38.333000" lon="-7.081500"><ele>1549</ele><speed>53.1</speed><time>2017-07-01T16:02:50Z</time><course>242</course><type>1</type></trkpt>
      <trkpt lat="38.332615" lon="-7.082233"><ele>1541</ele><speed>55.46</speed><time>2017-07-01T16:02:55Z</time><course>234</course><type>1</type></trkpt>
      <trkpt lat="38.332233" lon="-7.082833"><ele>1534</ele><speed>48.58</speed><time>2017-07-01T16:03:00Z</time><course>238</course><type>1</type></trkpt>
      <trkpt lat="38.316833" lon="-7.095817"><ele>1255</ele><speed>37.95</speed><time>2017-07-01T16:06:15Z</time><course>212</course><type>1</type></trkpt>
      <trkpt lat="38.316017" lon="-7.096416"><ele>1236</ele><speed>75.47</speed><time>2017-07-01T16:06:20Z</time><course>208</course><type>1</type></trkpt>
      <trkpt lat="38.315250" lon="-7.097000"><ele>1221</ele><speed>71.61</speed><time>2017-07-01T16:06:25Z</time><course>210</course><type>1</type></trkpt>
      <trkpt lat="38.314434" lon="-7.097567"><ele>1205</ele><speed>74.49</speed><time>2017-07-01T16:06:30Z</time><course>208</course><type>1</type></trkpt>
      <trkpt lat="38.313633" lon="-7.098134"><ele>1192</ele><speed>73.44</speed><time>2017-07-01T16:06:35Z</time><course>208</course><type>1</type></trkpt>
      <trkpt lat="38.312866" lon="-7.098683"><ele>1177</ele><speed>70.51</speed><time>2017-07-01T16:06:40Z</time><course>208</course><type>1</type></trkpt>
      <trkpt lat="38.312050" lon="-7.099267"><ele>1161</ele><speed>75.01</speed><time>2017-07-01T16:06:45Z</time><course>208</course><type>1</type></trkpt>
      <trkpt lat="38.311283" lon="-7.099900"><ele>1155</ele><speed>73.24</speed><time>2017-07-01T16:06:50Z</time><course>212</course><type>1</type></trkpt>
      <trkpt lat="38.310532" lon="-7.100533"><ele>1140</ele><speed>72.17</speed><time>2017-07-01T16:06:55Z</time><course>212</course><type>1</type></trkpt>
      <trkpt lat="38.309784" lon="-7.101117"><ele>1127</ele><speed>70.31</speed><time>2017-07-01T16:07:00Z</time><course>212</course><type>1</type></trkpt>
      <trkpt lat="38.309017" lon="-7.101666"><ele>1123</ele><speed>70.51</speed><time>2017-07-01T16:07:05Z</time><course>208</course><type>1</type></trkpt>
      <trkpt lat="38.308250" lon="-7.102267"><ele>1116</ele><speed>72.17</speed><time>2017-07-01T16:07:10Z</time><course>210</course><type>1</type></trkpt>
      <trkpt lat="38.307468" lon="-7.102850"><ele>1098</ele><speed>72.61</speed><time>2017-07-01T16:07:15Z</time><course>204</course><type>1</type></trkpt>
      <trkpt lat="38.306702" lon="-7.103384"><ele>1087</ele><speed>69.98</speed><time>2017-07-01T16:07:20Z</time><course>206</course><type>1</type></trkpt>
      <trkpt lat="38.305901" lon="-7.103867"><ele>1074</ele><speed>71.02</speed><time>2017-07-01T16:07:25Z</time><course>206</course><type>1</type></trkpt>
      <trkpt lat="38.305218" lon="-7.104383"><ele>1067</ele><speed>63.64</speed><time>2017-07-01T16:07:30Z</time><course>212</course><type>1</type></trkpt>
      <trkpt lat="38.304550" lon="-7.104917"><ele>1058</ele><speed>63.2</speed><time>2017-07-01T16:07:35Z</time><course>212</course><type>1</type></trkpt>
      <trkpt lat="38.303833" lon="-7.105433"><ele>1053</ele><speed>66</speed><time>2017-07-01T16:07:40Z</time><course>210</course><type>1</type></trkpt>
      <trkpt lat="38.303116" lon="-7.106050"><ele>1049</ele><speed>69.34</speed><time>2017-07-01T16:07:45Z</time><course>212</course><type>1</type></trkpt>
      <trkpt lat="38.302399" lon="-7.106633"><ele>1049</ele><speed>68.17</speed><time>2017-07-01T16:07:50Z</time><course>212</course><type>1</type></trkpt>
      <trkpt lat="38.301682" lon="-7.107100"><ele>1045</ele><speed>64.54</speed><time>2017-07-01T16:07:55Z</time><course>202</course><type>1</type></trkpt>
      <trkpt lat="38.300915" lon="-7.107500"><ele>1036</ele><speed>66.42</speed><time>2017-07-01T16:08:00Z</time><course>204</course><type>1</type></trkpt>
      <trkpt lat="38.300201" lon="-7.107967"><ele>1034</ele><speed>64.33</speed><time>2017-07-01T16:08:05Z</time><course>206</course><type>1</type></trkpt>
      <trkpt lat="38.299599" lon="-7.108250"><ele>1033</ele><speed>51.43</speed><time>2017-07-01T16:08:10Z</time><course>172</course><type>1</type></trkpt>
      <trkpt lat="38.299633" lon="-7.108167"><ele>1026</ele><speed>5.89</speed><time>2017-07-01T16:08:15Z</time><course>334</course><type>1</type></trkpt>
      <trkpt lat="38.299583" lon="-7.109050"><ele>1025</ele><speed>55.69</speed><time>2017-07-01T16:08:20Z</time><course>248</course><type>1</type></trkpt>
      <trkpt lat="38.298935" lon="-7.109550"><ele>1018</ele><speed>60.72</speed><time>2017-07-01T16:08:25Z</time><course>206</course><type>1</type></trkpt>
      <trkpt lat="38.298248" lon="-7.109950"><ele>1009</ele><speed>60.54</speed><time>2017-07-01T16:08:30Z</time><course>204</course><type>1</type></trkpt>
      <trkpt lat="38.297585" lon="-7.110317"><ele>999</ele><speed>57.94</speed><time>2017-07-01T16:08:35Z</time><course>202</course><type>1</type></trkpt>
      <trkpt lat="38.296917" lon="-7.110767"><ele>998</ele><speed>60.56</speed><time>2017-07-01T16:08:40Z</time><course>210</course><type>1</type></trkpt>
      <trkpt lat="38.296249" lon="-7.111200"><ele>990</ele><speed>60.07</speed><time>2017-07-01T16:08:45Z</time><course>204</course><type>1</type></trkpt>
      <trkpt lat="38.295666" lon="-7.111567"><ele>977</ele><speed>52.12</speed><time>2017-07-01T16:08:50Z</time><course>204</course><type>1</type></trkpt>
      <trkpt lat="38.295017" lon="-7.111917"><ele>957</ele><speed>56.48</speed><time>2017-07-01T16:08:55Z</time><course>204</course><type>1</type></trkpt>
      <trkpt lat="38.294315" lon="-7.112283"><ele>942</ele><speed>60.79</speed><time>2017-07-01T16:09:00Z</time><course>196</course><type>1</type></trkpt>
      <trkpt lat="38.293732" lon="-7.112600"><ele>949</ele><speed>50.8</speed><time>2017-07-01T16:09:05Z</time><course>192</course><type>1</type></trkpt>
      <trkpt lat="38.293598" lon="-7.113200"><ele>942</ele><speed>19.62</speed><time>2017-07-01T16:09:15Z</time><course>256</course><type>1</type></trkpt>
      <trkpt lat="38.293034" lon="-7.113767"><ele>939</ele><speed>57.58</speed><time>2017-07-01T16:09:20Z</time><course>192</course><type>1</type></trkpt>
      <trkpt lat="38.292484" lon="-7.113817"><ele>941</ele><speed>44.19</speed><time>2017-07-01T16:09:25Z</time><course>174</course><type>1</type></trkpt>
      <trkpt lat="38.292000" lon="-7.113767"><ele>948</ele><speed>38.92</speed><time>2017-07-01T16:09:30Z</time><course>174</course><type>1</type></trkpt>
      <trkpt lat="38.291733" lon="-7.113767"><ele>958</ele><speed>21.4</speed><time>2017-07-01T16:09:35Z</time><course>166</course><type>1</type></trkpt>
      <trkpt lat="38.291950" lon="-7.114300"><ele>959</ele><speed>37.77</speed><time>2017-07-01T16:09:40Z</time><course>262</course><type>1</type></trkpt>
      <trkpt lat="38.291401" lon="-7.115050"><ele>964</ele><speed>64.52</speed><time>2017-07-01T16:09:45Z</time><course>194</course><type>1</type></trkpt>
      <trkpt lat="38.290901" lon="-7.114984"><ele>974</ele><speed>40.29</speed><time>2017-07-01T16:09:50Z</time><course>168</course><type>1</type></trkpt>
      <trkpt lat="38.290852" lon="-7.115000"><ele>978</ele><speed>4.05</speed><time>2017-07-01T16:09:55Z</time><course>304</course><type>1</type></trkpt>
      <trkpt lat="38.290733" lon="-7.115833"><ele>982</ele><speed>53.26</speed><time>2017-07-01T16:10:00Z</time><course>218</course><type>1</type></trkpt>
      <trkpt lat="38.290165" lon="-7.116083"><ele>999</ele><speed>48.17</speed><time>2017-07-01T16:10:05Z</time><course>170</course><type>1</type></trkpt>
      <trkpt lat="38.289818" lon="-7.116100"><ele>1007</ele><speed>27.83</speed><time>2017-07-01T16:10:10Z</time><course>200</course><type>1</type></trkpt>
      <trkpt lat="38.289585" lon="-7.116950"><ele>1012</ele><speed>56.64</speed><time>2017-07-01T16:10:15Z</time><course>302</course><type>1</type></trkpt>
      <trkpt lat="38.289532" lon="-7.116900"><ele>1021</ele><speed>5.29</speed><time>2017-07-01T16:10:20Z</time><course>172</course><type>1</type></trkpt>
      <trkpt lat="38.288967" lon="-7.117267"><ele>1028</ele><speed>50.83</speed><time>2017-07-01T16:10:25Z</time><course>230</course><type>1</type></trkpt>
      <trkpt lat="38.288967" lon="-7.118050"><ele>1040</ele><speed>49.26</speed><time>2017-07-01T16:10:30Z</time><course>306</course><type>1</type></trkpt>
      <trkpt lat="38.288967" lon="-7.118033"><ele>1045</ele><speed>1.07</speed><time>2017-07-01T16:10:35Z</time><course>158</course><type>1</type></trkpt>
      <trkpt lat="38.288300" lon="-7.118317"><ele>1053</ele><speed>56.37</speed><time>2017-07-01T16:10:40Z</time><course>226</course><type>1</type></trkpt>
      <trkpt lat="38.288334" lon="-7.119000"><ele>1057</ele><speed>43.05</speed><time>2017-07-01T16:10:45Z</time><course>338</course><type>1</type></trkpt>
      <trkpt lat="38.287998" lon="-7.118933"><ele>1067</ele><speed>27.26</speed><time>2017-07-01T16:10:50Z</time><course>204</course><type>1</type></trkpt>
      <trkpt lat="38.287632" lon="-7.119750"><ele>1076</ele><speed>59.18</speed><time>2017-07-01T16:10:55Z</time><course>262</course><type>1</type></trkpt>
      <trkpt lat="38.287815" lon="-7.120067"><ele>1077</ele><speed>24.76</speed><time>2017-07-01T16:11:00Z</time><course>48</course><type>1</type></trkpt>
      <trkpt lat="38.287552" lon="-7.120000"><ele>1085</ele><speed>21.5</speed><time>2017-07-01T16:11:05Z</time><course>188</course><type>1</type></trkpt>
      <trkpt lat="38.287102" lon="-7.120700"><ele>1090</ele><speed>56.92</speed><time>2017-07-01T16:11:10Z</time><course>268</course><type>1</type></trkpt>
      <trkpt lat="38.287251" lon="-7.121267"><ele>1089</ele><speed>20.9</speed><time>2017-07-01T16:11:19Z</time><course>268</course><type>1</type></trkpt>
      <trkpt lat="38.286499" lon="-7.120934"><ele>1104</ele><speed>63.81</speed><time>2017-07-01T16:11:24Z</time><course>212</course><type>1</type></trkpt>
      <trkpt lat="38.286301" lon="-7.121800"><ele>1111</ele><speed>56.75</speed><time>2017-07-01T16:11:29Z</time><course>302</course><type>1</type></trkpt>
      <trkpt lat="38.286415" lon="-7.121767"><ele>1121</ele><speed>9.37</speed><time>2017-07-01T16:11:34Z</time><course>112</course><type>1</type></trkpt>
      <trkpt lat="38.286083" lon="-7.121800"><ele>1124</ele><speed>26.69</speed><time>2017-07-01T16:11:39Z</time><course>202</course><type>1</type></trkpt>
      <trkpt lat="38.285717" lon="-7.122617"><ele>1125</ele><speed>59.18</speed><time>2017-07-01T16:11:44Z</time><course>272</course><type>1</type></trkpt>
      <trkpt lat="38.286034" lon="-7.123100"><ele>1133</ele><speed>39.61</speed><time>2017-07-01T16:11:49Z</time><course>314</course><type>1</type></trkpt>
      <trkpt lat="38.286118" lon="-7.123150"><ele>1132</ele><speed>7.43</speed><time>2017-07-01T16:11:54Z</time><course>126</course><type>1</type></trkpt>
      <trkpt lat="38.285549" lon="-7.123500"><ele>1138</ele><speed>50.64</speed><time>2017-07-01T16:11:59Z</time><course>234</course><type>1</type></trkpt>
      <trkpt lat="38.285500" lon="-7.124267"><ele>1140</ele><speed>48.41</speed><time>2017-07-01T16:12:04Z</time><course>276</course><type>1</type></trkpt>
      <trkpt lat="38.285885" lon="-7.124383"><ele>1133</ele><speed>31.71</speed><time>2017-07-01T16:12:09Z</time><course>332</course><type>1</type></trkpt>
      <trkpt lat="38.285366" lon="-7.123983"><ele>1117</ele><speed>24.31</speed><time>2017-07-01T16:12:19Z</time><course>192</course><type>1</type></trkpt>
      <trkpt lat="38.284733" lon="-7.124434"><ele>1112</ele><speed>58.13</speed><time>2017-07-01T16:12:24Z</time><course>212</course><type>1</type></trkpt>
      <trkpt lat="38.284184" lon="-7.125150"><ele>1107</ele><speed>62.97</speed><time>2017-07-01T16:12:29Z</time><course>232</course><type>1</type></trkpt>
      <trkpt lat="38.283783" lon="-7.126017"><ele>1103</ele><speed>63.31</speed><time>2017-07-01T16:12:34Z</time><course>238</course><type>1</type></trkpt>
      <trkpt lat="38.283234" lon="-7.126783"><ele>1093</ele><speed>65.26</speed><time>2017-07-01T16:12:39Z</time><course>224</course><type>1</type></trkpt>
      <trkpt lat="38.282616" lon="-7.127100"><ele>1091</ele><speed>53.4</speed><time>2017-07-01T16:12:44Z</time><course>182</course><type>1</type></trkpt>
      <trkpt lat="38.282001" lon="-7.127167"><ele>1094</ele><speed>49.47</speed><time>2017-07-01T16:12:49Z</time><course>176</course><type>1</type></trkpt>
      <trkpt lat="38.281918" lon="-7.127133"><ele>1093</ele><speed>6.99</speed><time>2017-07-01T16:12:54Z</time><course>326</course><type>1</type></trkpt>
      <trkpt lat="38.281952" lon="-7.127917"><ele>1094</ele><speed>49.4</speed><time>2017-07-01T16:12:59Z</time><course>248</course><type>1</type></trkpt>
      <trkpt lat="38.281483" lon="-7.128517"><ele>1098</ele><speed>53.27</speed><time>2017-07-01T16:13:04Z</time><course>200</course><type>1</type></trkpt>
      <trkpt lat="38.280933" lon="-7.128433"><ele>1098</ele><speed>44.4</speed><time>2017-07-01T16:13:09Z</time><course>162</course><type>1</type></trkpt>
      <trkpt lat="38.281033" lon="-7.128533"><ele>1091</ele><speed>10.19</speed><time>2017-07-01T16:13:14Z</time><course>306</course><type>1</type></trkpt>
      <trkpt lat="38.280933" lon="-7.129367"><ele>1092</ele><speed>53.08</speed><time>2017-07-01T16:13:19Z</time><course>236</course><type>1</type></trkpt>
      <trkpt lat="38.280449" lon="-7.130033"><ele>1094</ele><speed>57.1</speed><time>2017-07-01T16:13:24Z</time><course>228</course><type>1</type></trkpt>
      <trkpt lat="38.279732" lon="-7.129983"><ele>1096</ele><speed>57.55</speed><time>2017-07-01T16:13:29Z</time><course>186</course><type>1</type></trkpt>
      <trkpt lat="38.279533" lon="-7.129867"><ele>1090</ele><speed>17.54</speed><time>2017-07-01T16:13:34Z</time><course>24</course><type>1</type></trkpt>
      <trkpt lat="38.279533" lon="-7.130583"><ele>1083</ele><speed>45.05</speed><time>2017-07-01T16:13:39Z</time><course>240</course><type>1</type></trkpt>
      <trkpt lat="38.278934" lon="-7.131250"><ele>1079</ele><speed>63.77</speed><time>2017-07-01T16:13:44Z</time><course>206</course><type>1</type></trkpt>
      <trkpt lat="38.278267" lon="-7.131317"><ele>1075</ele><speed>53.63</speed><time>2017-07-01T16:13:49Z</time><course>164</course><type>1</type></trkpt>
      <trkpt lat="38.277966" lon="-7.131150"><ele>1067</ele><speed>26.31</speed><time>2017-07-01T16:13:54Z</time><course>120</course><type>1</type></trkpt>
      <trkpt lat="38.277966" lon="-7.130983"><ele>1069</ele><speed>10.51</speed><time>2017-07-01T16:13:59Z</time><course>90</course><type>1</type></trkpt>
      <trkpt lat="38.278000" lon="-7.130950"><ele>1070</ele><speed>3.43</speed><time>2017-07-01T16:14:04Z</time><course>2</course><type>1</type></trkpt>
      <trkpt lat="38.278000" lon="-7.131700"><ele>1065</ele><speed>47.19</speed><time>2017-07-01T16:14:09Z</time><course>244</course><type>1</type></trkpt>
      <trkpt lat="38.277382" lon="-7.132167"><ele>1065</ele><speed>57.59</speed><time>2017-07-01T16:14:14Z</time><course>186</course><type>1</type></trkpt>
      <trkpt lat="38.276985" lon="-7.132050"><ele>1061</ele><speed>32.66</speed><time>2017-07-01T16:14:19Z</time><course>118</course><type>1</type></trkpt>
      <trkpt lat="38.277134" lon="-7.132467"><ele>1060</ele><speed>28.83</speed><time>2017-07-01T16:14:24Z</time><course>282</course><type>1</type></trkpt>
      <trkpt lat="38.277134" lon="-7.133133"><ele>1055</ele><speed>41.9</speed><time>2017-07-01T16:14:29Z</time><course>254</course><type>1</type></trkpt>
      <trkpt lat="38.276798" lon="-7.134017"><ele>1050</ele><speed>61.8</speed><time>2017-07-01T16:14:34Z</time><course>238</course><type>1</type></trkpt>
      <trkpt lat="38.276833" lon="-7.134316"><ele>1049</ele><speed>19.02</speed><time>2017-07-01T16:14:39Z</time><course>64</course><type>1</type></trkpt>
      <trkpt lat="38.276249" lon="-7.134200"><ele>1050</ele><speed>47.37</speed><time>2017-07-01T16:14:44Z</time><course>198</course><type>1</type></trkpt>
      <trkpt lat="38.275665" lon="-7.134634"><ele>1045</ele><speed>54.19</speed><time>2017-07-01T16:14:49Z</time><course>228</course><type>1</type></trkpt>
      <trkpt lat="38.275349" lon="-7.135417"><ele>1048</ele><speed>55.4</speed><time>2017-07-01T16:14:54Z</time><course>252</course><type>1</type></trkpt>
      <trkpt lat="38.275433" lon="-7.135550"><ele>1044</ele><speed>10.74</speed><time>2017-07-01T16:14:59Z</time><course>104</course><type>1</type></trkpt>
      <trkpt lat="38.274765" lon="-7.135500"><ele>1040</ele><speed>53.63</speed><time>2017-07-01T16:15:04Z</time><course>208</course><type>1</type></trkpt>
      <trkpt lat="38.274200" lon="-7.136217"><ele>1035</ele><speed>63.92</speed><time>2017-07-01T16:15:09Z</time><course>240</course><type>1</type></trkpt>
      <trkpt lat="38.272518" lon="-7.138333"><ele>1024</ele><speed>63.16</speed><time>2017-07-01T16:15:24Z</time><course>230</course><type>1</type></trkpt>
      <trkpt lat="38.272484" lon="-7.138900"><ele>1028</ele><speed>35.78</speed><time>2017-07-01T16:15:29Z</time><course>336</course><type>1</type></trkpt>
      <trkpt lat="38.272118" lon="-7.138517"><ele>1028</ele><speed>37.96</speed><time>2017-07-01T16:15:34Z</time><course>180</course><type>1</type></trkpt>
      <trkpt lat="38.271549" lon="-7.139100"><ele>1037</ele><speed>58.53</speed><time>2017-07-01T16:15:39Z</time><course>248</course><type>1</type></trkpt>
      <trkpt lat="38.271568" lon="-7.139200"><ele>1038</ele><speed>6.47</speed><time>2017-07-01T16:15:44Z</time><course>116</course><type>1</type></trkpt>
      <trkpt lat="38.270832" lon="-7.139283"><ele>1044</ele><speed>59.22</speed><time>2017-07-01T16:15:49Z</time><course>224</course><type>1</type></trkpt>
      <trkpt lat="38.270699" lon="-7.140067"><ele>1050</ele><speed>50.47</speed><time>2017-07-01T16:15:54Z</time><course>270</course><type>1</type></trkpt>
      <trkpt lat="38.270802" lon="-7.140033"><ele>1051</ele><speed>8.53</speed><time>2017-07-01T16:15:59Z</time><course>96</course><type>1</type></trkpt>
      <trkpt lat="38.270115" lon="-7.139800"><ele>1051</ele><speed>56.98</speed><time>2017-07-01T16:16:04Z</time><course>196</course><type>1</type></trkpt>
      <trkpt lat="38.269650" lon="-7.140383"><ele>1058</ele><speed>52.3</speed><time>2017-07-01T16:16:09Z</time><course>254</course><type>1</type></trkpt>
      <trkpt lat="38.269783" lon="-7.140550"><ele>1063</ele><speed>14.97</speed><time>2017-07-01T16:16:14Z</time><course>106</course><type>1</type></trkpt>
      <trkpt lat="38.269283" lon="-7.140283"><ele>1063</ele><speed>43.45</speed><time>2017-07-01T16:16:19Z</time><course>176</course><type>1</type></trkpt>
      <trkpt lat="38.268650" lon="-7.140950"><ele>1055</ele><speed>65.85</speed><time>2017-07-01T16:16:24Z</time><course>250</course><type>1</type></trkpt>
      <trkpt lat="38.268616" lon="-7.141500"><ele>1065</ele><speed>34.72</speed><time>2017-07-01T16:16:29Z</time><course>262</course><type>1</type></trkpt>
      <trkpt lat="38.268532" lon="-7.141200"><ele>1058</ele><speed>20.04</speed><time>2017-07-01T16:16:34Z</time><course>144</course><type>1</type></trkpt>
      <trkpt lat="38.267784" lon="-7.141317"><ele>1063</ele><speed>60.4</speed><time>2017-07-01T16:16:39Z</time><course>222</course><type>1</type></trkpt>
      <trkpt lat="38.267700" lon="-7.141917"><ele>1065</ele><speed>38.35</speed><time>2017-07-01T16:16:44Z</time><course>320</course><type>1</type></trkpt>
      <trkpt lat="38.267433" lon="-7.141583"><ele>1059</ele><speed>30</speed><time>2017-07-01T16:16:49Z</time><course>160</course><type>1</type></trkpt>
      <trkpt lat="38.266716" lon="-7.141850"><ele>1054</ele><speed>59.87</speed><time>2017-07-01T16:16:54Z</time><course>230</course><type>1</type></trkpt>
      <trkpt lat="38.266315" lon="-7.142700"><ele>1059</ele><speed>62.4</speed><time>2017-07-01T16:16:59Z</time><course>242</course><type>1</type></trkpt>
      <trkpt lat="38.266399" lon="-7.142967"><ele>1056</ele><speed>18.1</speed><time>2017-07-01T16:17:04Z</time><course>66</course><type>1</type></trkpt>
      <trkpt lat="38.265751" lon="-7.142917"><ele>1053</ele><speed>52.03</speed><time>2017-07-01T16:17:09Z</time><course>214</course><type>1</type></trkpt>
      <trkpt lat="38.265415" lon="-7.143633"><ele>1055</ele><speed>52.49</speed><time>2017-07-01T16:17:14Z</time><course>248</course><type>1</type></trkpt>
      <trkpt lat="38.265518" lon="-7.143883"><ele>1054</ele><speed>17.77</speed><time>2017-07-01T16:17:19Z</time><course>348</course><type>1</type></trkpt>
      <trkpt lat="38.265133" lon="-7.143600"><ele>1053</ele><speed>35.63</speed><time>2017-07-01T16:17:24Z</time><course>174</course><type>1</type></trkpt>
      <trkpt lat="38.264450" lon="-7.144117"><ele>1051</ele><speed>63.68</speed><time>2017-07-01T16:17:29Z</time><course>232</course><type>1</type></trkpt>
      <trkpt lat="38.264099" lon="-7.144800"><ele>1054</ele><speed>51.37</speed><time>2017-07-01T16:17:34Z</time><course>244</course><type>1</type></trkpt>
      <trkpt lat="38.264252" lon="-7.145067"><ele>1049</ele><speed>20.8</speed><time>2017-07-01T16:17:39Z</time><course>36</course><type>1</type></trkpt>
      <trkpt lat="38.264233" lon="-7.145050"><ele>1048</ele><speed>1.86</speed><time>2017-07-01T16:17:44Z</time><course>56</course><type>1</type></trkpt>
      <trkpt lat="38.263618" lon="-7.144850"><ele>1037</ele><speed>50.87</speed><time>2017-07-01T16:17:49Z</time><course>198</course><type>1</type></trkpt>
      <trkpt lat="38.263035" lon="-7.145467"><ele>1037</ele><speed>60.75</speed><time>2017-07-01T16:17:54Z</time><course>226</course><type>1</type></trkpt>
      <trkpt lat="38.262501" lon="-7.146283"><ele>1030</ele><speed>66.85</speed><time>2017-07-01T16:17:59Z</time><course>226</course><type>1</type></trkpt>
      <trkpt lat="38.261967" lon="-7.147083"><ele>1036</ele><speed>66.08</speed><time>2017-07-01T16:18:04Z</time><course>238</course><type>1</type></trkpt>
      <trkpt lat="38.261185" lon="-7.147383"><ele>1037</ele><speed>32.73</speed><time>2017-07-01T16:18:14Z</time><course>214</course><type>1</type></trkpt>
      <trkpt lat="38.260750" lon="-7.148117"><ele>1042</ele><speed>57.87</speed><time>2017-07-01T16:18:19Z</time><course>244</course><type>1</type></trkpt>
      <trkpt lat="38.260784" lon="-7.148283"><ele>1044</ele><speed>10.8</speed><time>2017-07-01T16:18:24Z</time><course>56</course><type>1</type></trkpt>
      <trkpt lat="38.260368" lon="-7.148033"><ele>1045</ele><speed>36.87</speed><time>2017-07-01T16:18:29Z</time><course>174</course><type>1</type></trkpt>
      <trkpt lat="38.259632" lon="-7.148567"><ele>1046</ele><speed>67.89</speed><time>2017-07-01T16:18:34Z</time><course>222</course><type>1</type></trkpt>
      <trkpt lat="38.259468" lon="-7.149200"><ele>1048</ele><speed>41.95</speed><time>2017-07-01T16:18:39Z</time><course>304</course><type>1</type></trkpt>
      <trkpt lat="38.259350" lon="-7.148983"><ele>1056</ele><speed>16.61</speed><time>2017-07-01T16:18:44Z</time><course>154</course><type>1</type></trkpt>
      <trkpt lat="38.258652" lon="-7.149167"><ele>1053</ele><speed>57.13</speed><time>2017-07-01T16:18:49Z</time><course>216</course><type>1</type></trkpt>
      <trkpt lat="38.258400" lon="-7.149867"><ele>1060</ele><speed>48.46</speed><time>2017-07-01T16:18:54Z</time><course>278</course><type>1</type></trkpt>
      <trkpt lat="38.258266" lon="-7.149633"><ele>1060</ele><speed>18.23</speed><time>2017-07-01T16:18:59Z</time><course>156</course><type>1</type></trkpt>
      <trkpt lat="38.257515" lon="-7.149883"><ele>1064</ele><speed>62.22</speed><time>2017-07-01T16:19:04Z</time><course>216</course><type>1</type></trkpt>
      <trkpt lat="38.256935" lon="-7.150583"><ele>1067</ele><speed>64.05</speed><time>2017-07-01T16:19:09Z</time><course>240</course><type>1</type></trkpt>
      <trkpt lat="38.257015" lon="-7.150883"><ele>1066</ele><speed>19.94</speed><time>2017-07-01T16:19:14Z</time><course>68</course><type>1</type></trkpt>
      <trkpt lat="38.256485" lon="-7.150667"><ele>1065</ele><speed>44.6</speed><time>2017-07-01T16:19:19Z</time><course>198</course><type>1</type></trkpt>
      <trkpt lat="38.255901" lon="-7.151317"><ele>1069</ele><speed>62.17</speed><time>2017-07-01T16:19:24Z</time><course>232</course><type>1</type></trkpt>
      <trkpt lat="38.255932" lon="-7.151783"><ele>1066</ele><speed>29.43</speed><time>2017-07-01T16:19:29Z</time><course>336</course><type>1</type></trkpt>
      <trkpt lat="38.256084" lon="-7.151850"><ele>1070</ele><speed>12.89</speed><time>2017-07-01T16:19:34Z</time><course>332</course><type>1</type></trkpt>
      <trkpt lat="38.255768" lon="-7.151533"><ele>1065</ele><speed>32.24</speed><time>2017-07-01T16:19:39Z</time><course>168</course><type>1</type></trkpt>
      <trkpt lat="38.255066" lon="-7.151967"><ele>1065</ele><speed>62.55</speed><time>2017-07-01T16:19:44Z</time><course>224</course><type>1</type></trkpt>
      <trkpt lat="38.254581" lon="-7.152633"><ele>1067</ele><speed>57.17</speed><time>2017-07-01T16:19:49Z</time><course>232</course><type>1</type></trkpt>
      <trkpt lat="38.254665" lon="-7.152950"><ele>1062</ele><speed>21.06</speed><time>2017-07-01T16:19:54Z</time><course>46</course><type>1</type></trkpt>
      <trkpt lat="38.254250" lon="-7.152650"><ele>1061</ele><speed>38.25</speed><time>2017-07-01T16:19:59Z</time><course>178</course><type>1</type></trkpt>
      <trkpt lat="38.253616" lon="-7.153150"><ele>1053</ele><speed>59.77</speed><time>2017-07-01T16:20:04Z</time><course>226</course><type>1</type></trkpt>
      <trkpt lat="38.253166" lon="-7.153900"><ele>1057</ele><speed>59.41</speed><time>2017-07-01T16:20:09Z</time><course>236</course><type>1</type></trkpt>
      <trkpt lat="38.253017" lon="-7.154450"><ele>1057</ele><speed>36.62</speed><time>2017-07-01T16:20:14Z</time><course>280</course><type>1</type></trkpt>
      <trkpt lat="38.252865" lon="-7.154267"><ele>1059</ele><speed>16.77</speed><time>2017-07-01T16:20:19Z</time><course>162</course><type>1</type></trkpt>
      <trkpt lat="38.252182" lon="-7.154617"><ele>1064</ele><speed>59.01</speed><time>2017-07-01T16:20:24Z</time><course>224</course><type>1</type></trkpt>
      <trkpt lat="38.251934" lon="-7.155317"><ele>1059</ele><speed>48.34</speed><time>2017-07-01T16:20:29Z</time><course>258</course><type>1</type></trkpt>
      <trkpt lat="38.251949" lon="-7.155900"><ele>1059</ele><speed>36.71</speed><time>2017-07-01T16:20:34Z</time><course>286</course><type>1</type></trkpt>
      <trkpt lat="38.252048" lon="-7.156034"><ele>1059</ele><speed>11.58</speed><time>2017-07-01T16:20:39Z</time><course>316</course><type>1</type></trkpt>
      <trkpt lat="38.252132" lon="-7.156116"><ele>1064</ele><speed>8.48</speed><time>2017-07-01T16:20:44Z</time><course>314</course><type>1</type></trkpt>
      <trkpt lat="38.252151" lon="-7.156133"><ele>1066</ele><speed>1.86</speed><time>2017-07-01T16:20:49Z</time><course>64</course><type>1</type></trkpt>
      <trkpt lat="38.251549" lon="-7.155950"><ele>1060</ele><speed>49.61</speed><time>2017-07-01T16:20:54Z</time><course>198</course><type>1</type></trkpt>
      <trkpt lat="38.250900" lon="-7.156550"><ele>1057</ele><speed>64.28</speed><time>2017-07-01T16:20:59Z</time><course>218</course><type>1</type></trkpt>
      <trkpt lat="38.250767" lon="-7.157133"><ele>1056</ele><speed>38.21</speed><time>2017-07-01T16:21:04Z</time><course>320</course><type>1</type></trkpt>
      <trkpt lat="38.250034" lon="-7.156717"><ele>1069</ele><speed>32.16</speed><time>2017-07-01T16:21:14Z</time><course>188</course><type>1</type></trkpt>
      <trkpt lat="38.249233" lon="-7.157100"><ele>1075</ele><speed>68.58</speed><time>2017-07-01T16:21:19Z</time><course>194</course><type>1</type></trkpt>
      <trkpt lat="38.249001" lon="-7.156783"><ele>1083</ele><speed>27.27</speed><time>2017-07-01T16:21:24Z</time><course>24</course><type>1</type></trkpt>
      <trkpt lat="38.248901" lon="-7.157233"><ele>1083</ele><speed>29.44</speed><time>2017-07-01T16:21:29Z</time><course>228</course><type>1</type></trkpt>
      <trkpt lat="38.248184" lon="-7.157583"><ele>1090</ele><speed>61.55</speed><time>2017-07-01T16:21:34Z</time><course>164</course><type>1</type></trkpt>
      <trkpt lat="38.248032" lon="-7.157217"><ele>1087</ele><speed>26.06</speed><time>2017-07-01T16:21:39Z</time><course>22</course><type>1</type></trkpt>
      <trkpt lat="38.248016" lon="-7.157467"><ele>1083</ele><speed>15.79</speed><time>2017-07-01T16:21:44Z</time><course>254</course><type>1</type></trkpt>
      <trkpt lat="38.248085" lon="-7.157700"><ele>1064</ele><speed>15.67</speed><time>2017-07-01T16:21:49Z</time><course>264</course><type>1</type></trkpt>
      <trkpt lat="38.247818" lon="-7.158367"><ele>1046</ele><speed>47.12</speed><time>2017-07-01T16:21:54Z</time><course>236</course><type>1</type></trkpt>
      <trkpt lat="38.247116" lon="-7.158800"><ele>1038</ele><speed>62.52</speed><time>2017-07-01T16:21:59Z</time><course>200</course><type>1</type></trkpt>
      <trkpt lat="38.246399" lon="-7.158817"><ele>1040</ele><speed>57.48</speed><time>2017-07-01T16:22:04Z</time><course>152</course><type>1</type></trkpt>
      <trkpt lat="38.245701" lon="-7.158817"><ele>1040</ele><speed>55.94</speed><time>2017-07-01T16:22:09Z</time><course>206</course><type>1</type></trkpt>
      <trkpt lat="38.245468" lon="-7.159367"><ele>1041</ele><speed>39.34</speed><time>2017-07-01T16:22:14Z</time><course>284</course><type>1</type></trkpt>
      <trkpt lat="38.245449" lon="-7.159200"><ele>1043</ele><speed>10.62</speed><time>2017-07-01T16:22:19Z</time><course>124</course><type>1</type></trkpt>
      <trkpt lat="38.244766" lon="-7.159100"><ele>1038</ele><speed>55.1</speed><time>2017-07-01T16:22:24Z</time><course>202</course><type>1</type></trkpt>
      <trkpt lat="38.244232" lon="-7.159633"><ele>1036</ele><speed>54.38</speed><time>2017-07-01T16:22:29Z</time><course>224</course><type>1</type></trkpt>
      <trkpt lat="38.243698" lon="-7.160117"><ele>1041</ele><speed>52.54</speed><time>2017-07-01T16:22:34Z</time><course>188</course><type>1</type></trkpt>
      <trkpt lat="38.243366" lon="-7.159800"><ele>1033</ele><speed>33.26</speed><time>2017-07-01T16:22:39Z</time><course>48</course><type>1</type></trkpt>
      <trkpt lat="38.243450" lon="-7.160033"><ele>1036</ele><speed>16.14</speed><time>2017-07-01T16:22:44Z</time><course>264</course><type>1</type></trkpt>
      <trkpt lat="38.243198" lon="-7.160833"><ele>1036</ele><speed>54.26</speed><time>2017-07-01T16:22:49Z</time><course>234</course><type>1</type></trkpt>
      <trkpt lat="38.243034" lon="-7.161317"><ele>1040</ele><speed>33.18</speed><time>2017-07-01T16:22:54Z</time><course>316</course><type>1</type></trkpt>
      <trkpt lat="38.242599" lon="-7.161033"><ele>1044</ele><speed>39.18</speed><time>2017-07-01T16:22:59Z</time><course>182</course><type>1</type></trkpt>
      <trkpt lat="38.241917" lon="-7.161433"><ele>1050</ele><speed>60.18</speed><time>2017-07-01T16:23:04Z</time><course>222</course><type>1</type></trkpt>
      <trkpt lat="38.241665" lon="-7.162183"><ele>1050</ele><speed>51.35</speed><time>2017-07-01T16:23:09Z</time><course>256</course><type>1</type></trkpt>
      <trkpt lat="38.241665" lon="-7.162400"><ele>1053</ele><speed>13.66</speed><time>2017-07-01T16:23:14Z</time><course>102</course><type>1</type></trkpt>
      <trkpt lat="38.240982" lon="-7.162300"><ele>1057</ele><speed>55.1</speed><time>2017-07-01T16:23:19Z</time><course>206</course><type>1</type></trkpt>
      <trkpt lat="38.240582" lon="-7.163084"><ele>1064</ele><speed>58.85</speed><time>2017-07-01T16:23:24Z</time><course>252</course><type>1</type></trkpt>
      <trkpt lat="38.240582" lon="-7.163350"><ele>1065</ele><speed>16.75</speed><time>2017-07-01T16:23:29Z</time><course>68</course><type>1</type></trkpt>
      <trkpt lat="38.239967" lon="-7.163084"><ele>1065</ele><speed>52.06</speed><time>2017-07-01T16:23:34Z</time><course>182</course><type>1</type></trkpt>
      <trkpt lat="38.239285" lon="-7.163483"><ele>1071</ele><speed>60.16</speed><time>2017-07-01T16:23:39Z</time><course>228</course><type>1</type></trkpt>
      <trkpt lat="38.239250" lon="-7.164083"><ele>1070</ele><speed>37.88</speed><time>2017-07-01T16:23:44Z</time><course>334</course><type>1</type></trkpt>
      <trkpt lat="38.238682" lon="-7.163883"><ele>1072</ele><speed>47.23</speed><time>2017-07-01T16:23:49Z</time><course>192</course><type>1</type></trkpt>
      <trkpt lat="38.238033" lon="-7.164417"><ele>1073</ele><speed>61.93</speed><time>2017-07-01T16:23:54Z</time><course>228</course><type>1</type></trkpt>
      <trkpt lat="38.237835" lon="-7.165117"><ele>1061</ele><speed>46.84</speed><time>2017-07-01T16:23:59Z</time><course>282</course><type>1</type></trkpt>
      <trkpt lat="38.237949" lon="-7.165400"><ele>1060</ele><speed>20.02</speed><time>2017-07-01T16:24:04Z</time><course>276</course><type>1</type></trkpt>
      <trkpt lat="38.237934" lon="-7.165633"><ele>1067</ele><speed>7.36</speed><time>2017-07-01T16:24:14Z</time><course>160</course><type>1</type></trkpt>
      <trkpt lat="38.237434" lon="-7.165317"><ele>1057</ele><speed>44.74</speed><time>2017-07-01T16:24:19Z</time><course>170</course><type>1</type></trkpt>
      <trkpt lat="38.236649" lon="-7.165683"><ele>1062</ele><speed>67</speed><time>2017-07-01T16:24:24Z</time><course>228</course><type>1</type></trkpt>
      <trkpt lat="38.236649" lon="-7.166167"><ele>1062</ele><speed>30.47</speed><time>2017-07-01T16:24:29Z</time><course>346</course><type>1</type></trkpt>
      <trkpt lat="38.236198" lon="-7.165833"><ele>1059</ele><speed>41.82</speed><time>2017-07-01T16:24:34Z</time><course>170</course><type>1</type></trkpt>
      <trkpt lat="38.235352" lon="-7.166217"><ele>1060</ele><speed>71.99</speed><time>2017-07-01T16:24:39Z</time><course>218</course><type>1</type></trkpt>
      <trkpt lat="38.235115" lon="-7.166883"><ele>1058</ele><speed>46.03</speed><time>2017-07-01T16:24:44Z</time><course>280</course><type>1</type></trkpt>
      <trkpt lat="38.235085" lon="-7.166883"><ele>1060</ele><speed>2.4</speed><time>2017-07-01T16:24:49Z</time><course>146</course><type>1</type></trkpt>
      <trkpt lat="38.234333" lon="-7.166783"><ele>1057</ele><speed>60.6</speed><time>2017-07-01T16:24:54Z</time><course>200</course><type>1</type></trkpt>
      <trkpt lat="38.233749" lon="-7.167467"><ele>1057</ele><speed>63.6</speed><time>2017-07-01T16:24:59Z</time><course>240</course><type>1</type></trkpt>
      <trkpt lat="38.233715" lon="-7.167984"><ele>1051</ele><speed>32.66</speed><time>2017-07-01T16:25:04Z</time><course>288</course><type>1</type></trkpt>
      <trkpt lat="38.233734" lon="-7.168200"><ele>1054</ele><speed>13.68</speed><time>2017-07-01T16:25:09Z</time><course>264</course><type>1</type></trkpt>
      <trkpt lat="38.233665" lon="-7.168267"><ele>1055</ele><speed>6.96</speed><time>2017-07-01T16:25:14Z</time><course>222</course><type>1</type></trkpt>
      <trkpt lat="38.233482" lon="-7.168950"><ele>1047</ele><speed>45.43</speed><time>2017-07-01T16:25:19Z</time><course>224</course><type>1</type></trkpt>
      <trkpt lat="38.232735" lon="-7.169567"><ele>1044</ele><speed>71.37</speed><time>2017-07-01T16:25:24Z</time><course>210</course><type>1</type></trkpt>
      <trkpt lat="38.232101" lon="-7.169450"><ele>1039</ele><speed>51.35</speed><time>2017-07-01T16:25:29Z</time><course>120</course><type>1</type></trkpt>
      <trkpt lat="38.231998" lon="-7.169850"><ele>1035</ele><speed>26.5</speed><time>2017-07-01T16:25:34Z</time><course>244</course><type>1</type></trkpt>
      <trkpt lat="38.231350" lon="-7.170533"><ele>1031</ele><speed>67.43</speed><time>2017-07-01T16:25:39Z</time><course>208</course><type>1</type></trkpt>
      <trkpt lat="38.230618" lon="-7.171050"><ele>1026</ele><speed>67.09</speed><time>2017-07-01T16:25:44Z</time><course>208</course><type>1</type></trkpt>
      <trkpt lat="38.229866" lon="-7.171583"><ele>1014</ele><speed>68.99</speed><time>2017-07-01T16:25:49Z</time><course>206</course><type>1</type></trkpt>
      <trkpt lat="38.229198" lon="-7.172150"><ele>1005</ele><speed>64.35</speed><time>2017-07-01T16:25:54Z</time><course>214</course><type>1</type></trkpt>
      <trkpt lat="38.228466" lon="-7.172717"><ele>987</ele><speed>68.68</speed><time>2017-07-01T16:25:59Z</time><course>212</course><type>1</type></trkpt>
      <trkpt lat="38.227734" lon="-7.173367"><ele>972</ele><speed>71.53</speed><time>2017-07-01T16:26:04Z</time><course>212</course><type>1</type></trkpt>
      <trkpt lat="38.226982" lon="-7.174083"><ele>956</ele><speed>75.27</speed><time>2017-07-01T16:26:09Z</time><course>220</course><type>1</type></trkpt>
      <trkpt lat="38.226185" lon="-7.174817"><ele>943</ele><speed>78.84</speed><time>2017-07-01T16:26:14Z</time><course>214</course><type>1</type></trkpt>
      <trkpt lat="38.225498" lon="-7.175450"><ele>939</ele><speed>67.97</speed><time>2017-07-01T16:26:19Z</time><course>210</course><type>1</type></trkpt>
      <trkpt lat="38.224731" lon="-7.176050"><ele>929</ele><speed>72.16</speed><time>2017-07-01T16:26:24Z</time><course>214</course><type>1</type></trkpt>
      <trkpt lat="38.223999" lon="-7.176633"><ele>927</ele><speed>69.21</speed><time>2017-07-01T16:26:29Z</time><course>212</course><type>1</type></trkpt>
      <trkpt lat="38.223351" lon="-7.177300"><ele>924</ele><speed>66.79</speed><time>2017-07-01T16:26:34Z</time><course>216</course><type>1</type></trkpt>
      <trkpt lat="38.222733" lon="-7.177967"><ele>923</ele><speed>64.94</speed><time>2017-07-01T16:26:39Z</time><course>216</course><type>1</type></trkpt>
      <trkpt lat="38.222084" lon="-7.178650"><ele>913</ele><speed>67.49</speed><time>2017-07-01T16:26:44Z</time><course>218</course><type>1</type></trkpt>
      <trkpt lat="38.220734" lon="-7.180117"><ele>885</ele><speed>71.13</speed><time>2017-07-01T16:26:54Z</time><course>226</course><type>1</type></trkpt>
      <trkpt lat="38.220116" lon="-7.180950"><ele>872</ele><speed>72.14</speed><time>2017-07-01T16:26:59Z</time><course>228</course><type>1</type></trkpt>
      <trkpt lat="38.219532" lon="-7.181867"><ele>859</ele><speed>74.33</speed><time>2017-07-01T16:27:04Z</time><course>230</course><type>1</type></trkpt>
      <trkpt lat="38.218918" lon="-7.182800"><ele>840</ele><speed>76.64</speed><time>2017-07-01T16:27:09Z</time><course>226</course><type>1</type></trkpt>
      <trkpt lat="38.218399" lon="-7.183717"><ele>827</ele><speed>71.17</speed><time>2017-07-01T16:27:14Z</time><course>228</course><type>1</type></trkpt>
      <trkpt lat="38.217934" lon="-7.184550"><ele>816</ele><speed>64.35</speed><time>2017-07-01T16:27:19Z</time><course>236</course><type>1</type></trkpt>
      <trkpt lat="38.217499" lon="-7.185367"><ele>805</ele><speed>62.15</speed><time>2017-07-01T16:27:24Z</time><course>232</course><type>1</type></trkpt>
      <trkpt lat="38.217068" lon="-7.186267"><ele>788</ele><speed>66.37</speed><time>2017-07-01T16:27:29Z</time><course>234</course><type>1</type></trkpt>
      <trkpt lat="38.216583" lon="-7.187100"><ele>773</ele><speed>65.29</speed><time>2017-07-01T16:27:34Z</time><course>232</course><type>1</type></trkpt>
      <trkpt lat="38.216084" lon="-7.188033"><ele>760</ele><speed>71.07</speed><time>2017-07-01T16:27:39Z</time><course>234</course><type>1</type></trkpt>
      <trkpt lat="38.215118" lon="-7.189883"><ele>738</ele><speed>69.94</speed><time>2017-07-01T16:27:49Z</time><course>236</course><type>1</type></trkpt>
      <trkpt lat="38.214600" lon="-7.190883"><ele>728</ele><speed>75.43</speed><time>2017-07-01T16:27:54Z</time><course>234</course><type>1</type></trkpt>
      <trkpt lat="38.214066" lon="-7.191900"><ele>720</ele><speed>77.03</speed><time>2017-07-01T16:27:59Z</time><course>240</course><type>1</type></trkpt>
      <trkpt lat="38.213585" lon="-7.192917"><ele>717</ele><speed>74.75</speed><time>2017-07-01T16:28:04Z</time><course>236</course><type>1</type></trkpt>
      <trkpt lat="38.213066" lon="-7.193883"><ele>713</ele><speed>73.7</speed><time>2017-07-01T16:28:09Z</time><course>236</course><type>1</type></trkpt>
      <trkpt lat="38.212551" lon="-7.194817"><ele>712</ele><speed>71.86</speed><time>2017-07-01T16:28:14Z</time><course>234</course><type>1</type></trkpt>
      <trkpt lat="38.212017" lon="-7.195783"><ele>709</ele><speed>74.38</speed><time>2017-07-01T16:28:19Z</time><course>232</course><type>1</type></trkpt>
      <trkpt lat="38.211418" lon="-7.196466"><ele>708</ele><speed>64.46</speed><time>2017-07-01T16:28:24Z</time><course>198</course><type>1</type></trkpt>
      <trkpt lat="38.210934" lon="-7.196333"><ele>704</ele><speed>39.69</speed><time>2017-07-01T16:28:29Z</time><course>138</course><type>1</type></trkpt>
      <trkpt lat="38.211018" lon="-7.196833"><ele>695</ele><speed>32.2</speed><time>2017-07-01T16:28:34Z</time><course>262</course><type>1</type></trkpt>
      <trkpt lat="38.209866" lon="-7.198333"><ele>688</ele><speed>66.05</speed><time>2017-07-01T16:28:44Z</time><course>222</course><type>1</type></trkpt>
      <trkpt lat="38.209732" lon="-7.199150"><ele>683</ele><speed>52.56</speed><time>2017-07-01T16:28:49Z</time><course>276</course><type>1</type></trkpt>
      <trkpt lat="38.209568" lon="-7.199950"><ele>681</ele><speed>52.07</speed><time>2017-07-01T16:28:54Z</time><course>252</course><type>1</type></trkpt>
      <trkpt lat="38.209465" lon="-7.200150"><ele>683</ele><speed>15.06</speed><time>2017-07-01T16:28:59Z</time><course>138</course><type>1</type></trkpt>
      <trkpt lat="38.208717" lon="-7.200267"><ele>680</ele><speed>60.4</speed><time>2017-07-01T16:29:04Z</time><course>222</course><type>1</type></trkpt>
      <trkpt lat="38.208435" lon="-7.201083"><ele>681</ele><speed>56.14</speed><time>2017-07-01T16:29:09Z</time><course>252</course><type>1</type></trkpt>
      <trkpt lat="38.208435" lon="-7.201317"><ele>683</ele><speed>14.74</speed><time>2017-07-01T16:29:14Z</time><course>94</course><type>1</type></trkpt>
      <trkpt lat="38.207748" lon="-7.201533"><ele>682</ele><speed>56.72</speed><time>2017-07-01T16:29:19Z</time><course>236</course><type>1</type></trkpt>
      <trkpt lat="38.207718" lon="-7.202067"><ele>689</ele><speed>33.72</speed><time>2017-07-01T16:29:24Z</time><course>300</course><type>1</type></trkpt>
      <trkpt lat="38.206867" lon="-7.202450"><ele>699</ele><speed>36.17</speed><time>2017-07-01T16:29:34Z</time><course>262</course><type>1</type></trkpt>
      <trkpt lat="38.206867" lon="-7.202433"><ele>706</ele><speed>1.07</speed><time>2017-07-01T16:29:39Z</time><course>140</course><type>1</type></trkpt>
      <trkpt lat="38.206482" lon="-7.202250"><ele>708</ele><speed>32.94</speed><time>2017-07-01T16:29:44Z</time><course>164</course><type>1</type></trkpt>
      <trkpt lat="38.205898" lon="-7.202917"><ele>697</ele><speed>62.89</speed><time>2017-07-01T16:29:49Z</time><course>266</course><type>1</type></trkpt>
      <trkpt lat="38.205917" lon="-7.203250"><ele>702</ele><speed>21.03</speed><time>2017-07-01T16:29:54Z</time><course>300</course><type>1</type></trkpt>
      <trkpt lat="38.206001" lon="-7.203400"><ele>703</ele><speed>11.6</speed><time>2017-07-01T16:29:59Z</time><course>312</course><type>1</type></trkpt>
      <trkpt lat="38.206085" lon="-7.203467"><ele>709</ele><speed>7.95</speed><time>2017-07-01T16:30:04Z</time><course>318</course><type>1</type></trkpt>
      <trkpt lat="38.206032" lon="-7.203450"><ele>715</ele><speed>4.38</speed><time>2017-07-01T16:30:09Z</time><course>128</course><type>1</type></trkpt>
      <trkpt lat="38.205383" lon="-7.203533"><ele>713</ele><speed>52.28</speed><time>2017-07-01T16:30:14Z</time><course>222</course><type>1</type></trkpt>
      <trkpt lat="38.205299" lon="-7.204100"><ele>715</ele><speed>36.34</speed><time>2017-07-01T16:30:19Z</time><course>320</course><type>1</type></trkpt>
      <trkpt lat="38.204102" lon="-7.204916"><ele>718</ele><speed>36.28</speed><time>2017-07-01T16:30:34Z</time><course>258</course><type>1</type></trkpt>
      <trkpt lat="38.204235" lon="-7.204834"><ele>719</ele><speed>11.85</speed><time>2017-07-01T16:30:39Z</time><course>106</course><type>1</type></trkpt>
      <trkpt lat="38.203815" lon="-7.204633"><ele>722</ele><speed>35.96</speed><time>2017-07-01T16:30:44Z</time><course>180</course><type>1</type></trkpt>
      <trkpt lat="38.203365" lon="-7.205300"><ele>718</ele><speed>55.37</speed><time>2017-07-01T16:30:49Z</time><course>276</course><type>1</type></trkpt>
      <trkpt lat="38.203365" lon="-7.205167"><ele>722</ele><speed>8.38</speed><time>2017-07-01T16:30:54Z</time><course>136</course><type>1</type></trkpt>
      <trkpt lat="38.202751" lon="-7.205133"><ele>726</ele><speed>49.26</speed><time>2017-07-01T16:30:59Z</time><course>190</course><type>1</type></trkpt>
      <trkpt lat="38.202499" lon="-7.205833"><ele>727</ele><speed>48.5</speed><time>2017-07-01T16:31:04Z</time><course>284</course><type>1</type></trkpt>
      <trkpt lat="38.202568" lon="-7.205767"><ele>735</ele><speed>6.92</speed><time>2017-07-01T16:31:09Z</time><course>96</course><type>1</type></trkpt>
      <trkpt lat="38.202084" lon="-7.205500"><ele>740</ele><speed>42.28</speed><time>2017-07-01T16:31:14Z</time><course>186</course><type>1</type></trkpt>
      <trkpt lat="38.201633" lon="-7.206133"><ele>743</ele><speed>53.82</speed><time>2017-07-01T16:31:19Z</time><course>264</course><type>1</type></trkpt>
      <trkpt lat="38.201733" lon="-7.206234"><ele>747</ele><speed>10.23</speed><time>2017-07-01T16:31:24Z</time><course>22</course><type>1</type></trkpt>
      <trkpt lat="38.201218" lon="-7.205983"><ele>748</ele><speed>44.2</speed><time>2017-07-01T16:31:29Z</time><course>186</course><type>1</type></trkpt>
      <trkpt lat="38.200684" lon="-7.206517"><ele>750</ele><speed>54.43</speed><time>2017-07-01T16:31:34Z</time><course>246</course><type>1</type></trkpt>
      <trkpt lat="38.200748" lon="-7.206883"><ele>761</ele><speed>23.62</speed><time>2017-07-01T16:31:39Z</time><course>280</course><type>1</type></trkpt>
      <trkpt lat="38.200466" lon="-7.206717"><ele>766</ele><speed>24.9</speed><time>2017-07-01T16:31:44Z</time><course>164</course><type>1</type></trkpt>
      <trkpt lat="38.199768" lon="-7.207200"><ele>770</ele><speed>63.68</speed><time>2017-07-01T16:31:49Z</time><course>230</course><type>1</type></trkpt>
      <trkpt lat="38.199734" lon="-7.207767"><ele>775</ele><speed>35.82</speed><time>2017-07-01T16:31:54Z</time><course>298</course><type>1</type></trkpt>
      <trkpt lat="38.199585" lon="-7.207433"><ele>775</ele><speed>24.19</speed><time>2017-07-01T16:31:59Z</time><course>154</course><type>1</type></trkpt>
      <trkpt lat="38.198868" lon="-7.207783"><ele>777</ele><speed>61.55</speed><time>2017-07-01T16:32:04Z</time><course>236</course><type>1</type></trkpt>
      <trkpt lat="38.198849" lon="-7.208283"><ele>784</ele><speed>31.53</speed><time>2017-07-01T16:32:09Z</time><course>308</course><type>1</type></trkpt>
      <trkpt lat="38.198582" lon="-7.207933"><ele>782</ele><speed>30.72</speed><time>2017-07-01T16:32:14Z</time><course>166</course><type>1</type></trkpt>
      <trkpt lat="38.197884" lon="-7.208367"><ele>785</ele><speed>62.27</speed><time>2017-07-01T16:32:19Z</time><course>232</course><type>1</type></trkpt>
      <trkpt lat="38.197815" lon="-7.208917"><ele>790</ele><speed>35.08</speed><time>2017-07-01T16:32:24Z</time><course>270</course><type>1</type></trkpt>
      <trkpt lat="38.197681" lon="-7.208683"><ele>789</ele><speed>18.24</speed><time>2017-07-01T16:32:29Z</time><course>154</course><type>1</type></trkpt>
      <trkpt lat="38.196968" lon="-7.209067"><ele>791</ele><speed>62.05</speed><time>2017-07-01T16:32:34Z</time><course>232</course><type>1</type></trkpt>
      <trkpt lat="38.196884" lon="-7.209650"><ele>792</ele><speed>37.33</speed><time>2017-07-01T16:32:39Z</time><course>296</course><type>1</type></trkpt>
      <trkpt lat="38.196751" lon="-7.209417"><ele>793</ele><speed>18.14</speed><time>2017-07-01T16:32:44Z</time><course>162</course><type>1</type></trkpt>
      <trkpt lat="38.196018" lon="-7.209633"><ele>796</ele><speed>60.3</speed><time>2017-07-01T16:32:49Z</time><course>214</course><type>1</type></trkpt>
      <trkpt lat="38.195732" lon="-7.210333"><ele>798</ele><speed>49.7</speed><time>2017-07-01T16:32:54Z</time><course>258</course><type>1</type></trkpt>
      <trkpt lat="38.195732" lon="-7.210550"><ele>797</ele><speed>13.67</speed><time>2017-07-01T16:32:59Z</time><course>54</course><type>1</type></trkpt>
      <trkpt lat="38.195217" lon="-7.210350"><ele>793</ele><speed>43.16</speed><time>2017-07-01T16:33:04Z</time><course>194</course><type>1</type></trkpt>
      <trkpt lat="38.194515" lon="-7.210950"><ele>792</ele><speed>67.78</speed><time>2017-07-01T16:33:09Z</time><course>218</course><type>1</type></trkpt>
      <trkpt lat="38.194183" lon="-7.211617"><ele>793</ele><speed>49.73</speed><time>2017-07-01T16:33:14Z</time><course>270</course><type>1</type></trkpt>
      <trkpt lat="38.194168" lon="-7.211467"><ele>788</ele><speed>9.52</speed><time>2017-07-01T16:33:19Z</time><course>136</course><type>1</type></trkpt>
      <trkpt lat="38.193401" lon="-7.211383"><ele>785</ele><speed>61.7</speed><time>2017-07-01T16:33:24Z</time><course>196</course><type>1</type></trkpt>
      <trkpt lat="38.192719" lon="-7.212317"><ele>780</ele><speed>40.15</speed><time>2017-07-01T16:33:34Z</time><course>36</course><type>1</type></trkpt>
      <trkpt lat="38.192165" lon="-7.212017"><ele>773</ele><speed>48.26</speed><time>2017-07-01T16:33:39Z</time><course>180</course><type>1</type></trkpt>
      <trkpt lat="38.191502" lon="-7.211900"><ele>775</ele><speed>53.65</speed><time>2017-07-01T16:33:44Z</time><course>166</course><type>1</type></trkpt>
      <trkpt lat="38.190948" lon="-7.211583"><ele>779</ele><speed>48.69</speed><time>2017-07-01T16:33:49Z</time><course>156</course><type>1</type></trkpt>
      <trkpt lat="38.190617" lon="-7.211283"><ele>788</ele><speed>32.57</speed><time>2017-07-01T16:33:54Z</time><course>72</course><type>1</type></trkpt>
      <trkpt lat="38.190449" lon="-7.211916"><ele>788</ele><speed>42.09</speed><time>2017-07-01T16:33:59Z</time><course>216</course><type>1</type></trkpt>
      <trkpt lat="38.189785" lon="-7.212050"><ele>799</ele><speed>53.88</speed><time>2017-07-01T16:34:04Z</time><course>162</course><type>1</type></trkpt>
      <trkpt lat="38.189350" lon="-7.211683"><ele>808</ele><speed>41.83</speed><time>2017-07-01T16:34:09Z</time><course>168</course><type>1</type></trkpt>
      <trkpt lat="38.188683" lon="-7.212266"><ele>820</ele><speed>64.86</speed><time>2017-07-01T16:34:14Z</time><course>252</course><type>1</type></trkpt>
      <trkpt lat="38.188782" lon="-7.212467"><ele>827</ele><speed>14.94</speed><time>2017-07-01T16:34:19Z</time><course>124</course><type>1</type></trkpt>
      <trkpt lat="38.188351" lon="-7.212200"><ele>840</ele><speed>38.42</speed><time>2017-07-01T16:34:24Z</time><course>168</course><type>1</type></trkpt>
      <trkpt lat="38.187782" lon="-7.212883"><ele>853</ele><speed>62.7</speed><time>2017-07-01T16:34:29Z</time><course>264</course><type>1</type></trkpt>
      <trkpt lat="38.187782" lon="-7.212917"><ele>866</ele><speed>2.14</speed><time>2017-07-01T16:34:34Z</time><course>130</course><type>1</type></trkpt>
      <trkpt lat="38.187065" lon="-7.213033"><ele>883</ele><speed>57.93</speed><time>2017-07-01T16:34:39Z</time><course>216</course><type>1</type></trkpt>
      <trkpt lat="38.186832" lon="-7.213783"><ele>894</ele><speed>50.81</speed><time>2017-07-01T16:34:44Z</time><course>298</course><type>1</type></trkpt>
      <trkpt lat="38.186699" lon="-7.213650"><ele>909</ele><speed>13.56</speed><time>2017-07-01T16:34:49Z</time><course>154</course><type>1</type></trkpt>
      <trkpt lat="38.185982" lon="-7.213984"><ele>917</ele><speed>61.2</speed><time>2017-07-01T16:34:54Z</time><course>238</course><type>1</type></trkpt>
      <trkpt lat="38.186035" lon="-7.214450"><ele>924</ele><speed>29.66</speed><time>2017-07-01T16:34:59Z</time><course>8</course><type>1</type></trkpt>
      <trkpt lat="38.185818" lon="-7.214183"><ele>937</ele><speed>24.2</speed><time>2017-07-01T16:35:04Z</time><course>152</course><type>1</type></trkpt>
      <trkpt lat="38.185150" lon="-7.214550"><ele>948</ele><speed>58.32</speed><time>2017-07-01T16:35:09Z</time><course>246</course><type>1</type></trkpt>
      <trkpt lat="38.185215" lon="-7.214917"><ele>970</ele><speed>23.7</speed><time>2017-07-01T16:35:14Z</time><course>320</course><type>1</type></trkpt>
      <trkpt lat="38.184898" lon="-7.214684"><ele>981</ele><speed>29.34</speed><time>2017-07-01T16:35:19Z</time><course>174</course><type>1</type></trkpt>
      <trkpt lat="38.184433" lon="-7.215400"><ele>995</ele><speed>58.51</speed><time>2017-07-01T16:35:24Z</time><course>268</course><type>1</type></trkpt>
      <trkpt lat="38.184467" lon="-7.215550"><ele>1013</ele><speed>9.84</speed><time>2017-07-01T16:35:29Z</time><course>100</course><type>1</type></trkpt>
      <trkpt lat="38.183868" lon="-7.215483"><ele>1027</ele><speed>48.2</speed><time>2017-07-01T16:35:34Z</time><course>202</course><type>1</type></trkpt>
      <trkpt lat="38.183483" lon="-7.216166"><ele>1046</ele><speed>52.95</speed><time>2017-07-01T16:35:39Z</time><course>272</course><type>1</type></trkpt>
      <trkpt lat="38.183498" lon="-7.216133"><ele>1062</ele><speed>2.4</speed><time>2017-07-01T16:35:44Z</time><course>138</course><type>1</type></trkpt>
      <trkpt lat="38.182785" lon="-7.216217"><ele>1077</ele><speed>57.39</speed><time>2017-07-01T16:35:49Z</time><course>216</course><type>1</type></trkpt>
      <trkpt lat="38.182632" lon="-7.216850"><ele>1093</ele><speed>41.72</speed><time>2017-07-01T16:35:54Z</time><course>296</course><type>1</type></trkpt>
      <trkpt lat="38.182518" lon="-7.216667"><ele>1110</ele><speed>14.71</speed><time>2017-07-01T16:35:59Z</time><course>158</course><type>1</type></trkpt>
      <trkpt lat="38.181801" lon="-7.216900"><ele>1122</ele><speed>59.31</speed><time>2017-07-01T16:36:04Z</time><course>218</course><type>1</type></trkpt>
      <trkpt lat="38.181568" lon="-7.217667"><ele>1138</ele><speed>51.81</speed><time>2017-07-01T16:36:09Z</time><course>278</course><type>1</type></trkpt>
      <trkpt lat="38.181618" lon="-7.217566"><ele>1150</ele><speed>7.52</speed><time>2017-07-01T16:36:14Z</time><course>90</course><type>1</type></trkpt>
      <trkpt lat="38.181232" lon="-7.217317"><ele>1165</ele><speed>34.69</speed><time>2017-07-01T16:36:19Z</time><course>172</course><type>1</type></trkpt>
      <trkpt lat="38.180668" lon="-7.217967"><ele>1175</ele><speed>61</speed><time>2017-07-01T16:36:24Z</time><course>262</course><type>1</type></trkpt>
      <trkpt lat="38.179867" lon="-7.218683"><ele>1216</ele><speed>26.15</speed><time>2017-07-01T16:36:39Z</time><course>272</course><type>1</type></trkpt>
      <trkpt lat="38.179966" lon="-7.218833"><ele>1234</ele><speed>12.34</speed><time>2017-07-01T16:36:44Z</time><course>82</course><type>1</type></trkpt>
      <trkpt lat="38.179401" lon="-7.218616"><ele>1244</ele><speed>47.3</speed><time>2017-07-01T16:36:49Z</time><course>190</course><type>1</type></trkpt>
      <trkpt lat="38.179035" lon="-7.219333"><ele>1256</ele><speed>53.86</speed><time>2017-07-01T16:36:54Z</time><course>278</course><type>1</type></trkpt>
      <trkpt lat="38.179050" lon="-7.219316"><ele>1270</ele><speed>1.61</speed><time>2017-07-01T16:36:59Z</time><course>128</course><type>1</type></trkpt>
      <trkpt lat="38.178349" lon="-7.219267"><ele>1283</ele><speed>56.27</speed><time>2017-07-01T16:37:04Z</time><course>206</course><type>1</type></trkpt>
      <trkpt lat="38.177967" lon="-7.220000"><ele>1295</ele><speed>55.41</speed><time>2017-07-01T16:37:09Z</time><course>264</course><type>1</type></trkpt>
      <trkpt lat="38.178101" lon="-7.220300"><ele>1307</ele><speed>21.74</speed><time>2017-07-01T16:37:14Z</time><course>28</course><type>1</type></trkpt>
      <trkpt lat="38.177799" lon="-7.219983"><ele>1321</ele><speed>31.38</speed><time>2017-07-01T16:37:19Z</time><course>166</course><type>1</type></trkpt>
      <trkpt lat="38.177151" lon="-7.220433"><ele>1331</ele><speed>59.17</speed><time>2017-07-01T16:37:24Z</time><course>236</course><type>1</type></trkpt>
      <trkpt lat="38.177082" lon="-7.221066"><ele>1342</ele><speed>40.26</speed><time>2017-07-01T16:37:29Z</time><course>294</course><type>1</type></trkpt>
      <trkpt lat="38.177101" lon="-7.221000"><ele>1358</ele><speed>4.43</speed><time>2017-07-01T16:37:34Z</time><course>128</course><type>1</type></trkpt>
      <trkpt lat="38.176483" lon="-7.220950"><ele>1369</ele><speed>49.63</speed><time>2017-07-01T16:37:39Z</time><course>208</course><type>1</type></trkpt>
      <trkpt lat="38.176250" lon="-7.221667"><ele>1381</ele><speed>48.88</speed><time>2017-07-01T16:37:44Z</time><course>280</course><type>1</type></trkpt>
      <trkpt lat="38.176235" lon="-7.221517"><ele>1393</ele><speed>9.53</speed><time>2017-07-01T16:37:49Z</time><course>132</course><type>1</type></trkpt>
      <trkpt lat="38.175652" lon="-7.221400"><ele>1402</ele><speed>47.31</speed><time>2017-07-01T16:37:54Z</time><course>196</course><type>1</type></trkpt>
      <trkpt lat="38.175117" lon="-7.222100"><ele>1407</ele><speed>61.51</speed><time>2017-07-01T16:37:59Z</time><course>252</course><type>1</type></trkpt>
      <trkpt lat="38.175117" lon="-7.222700"><ele>1420</ele><speed>37.8</speed><time>2017-07-01T16:38:04Z</time><course>270</course><type>1</type></trkpt>
      <trkpt lat="38.175117" lon="-7.222750"><ele>1428</ele><speed>3.15</speed><time>2017-07-01T16:38:09Z</time><course>116</course><type>1</type></trkpt>
      <trkpt lat="38.174599" lon="-7.222550"><ele>1435</ele><speed>43.39</speed><time>2017-07-01T16:38:14Z</time><course>182</course><type>1</type></trkpt>
      <trkpt lat="38.173950" lon="-7.223083"><ele>1440</ele><speed>61.92</speed><time>2017-07-01T16:38:19Z</time><course>234</course><type>1</type></trkpt>
      <trkpt lat="38.173817" lon="-7.223883"><ele>1449</ele><speed>51.52</speed><time>2017-07-01T16:38:24Z</time><course>270</course><type>1</type></trkpt>
      <trkpt lat="38.173882" lon="-7.224267"><ele>1459</ele><speed>24.75</speed><time>2017-07-01T16:38:29Z</time><course>324</course><type>1</type></trkpt>
      <trkpt lat="38.173649" lon="-7.224050"><ele>1469</ele><speed>23.15</speed><time>2017-07-01T16:38:34Z</time><course>170</course><type>1</type></trkpt>
      <trkpt lat="38.172916" lon="-7.224617"><ele>1481</ele><speed>68.76</speed><time>2017-07-01T16:38:39Z</time><course>238</course><type>1</type></trkpt>
      <trkpt lat="38.172852" lon="-7.225266"><ele>1488</ele><speed>41.21</speed><time>2017-07-01T16:38:44Z</time><course>276</course><type>1</type></trkpt>
      <trkpt lat="38.172882" lon="-7.225050"><ele>1486</ele><speed>13.82</speed><time>2017-07-01T16:38:49Z</time><course>132</course><type>1</type></trkpt>
      <trkpt lat="38.172249" lon="-7.224916"><ele>1497</ele><speed>51.43</speed><time>2017-07-01T16:38:54Z</time><course>190</course><type>1</type></trkpt>
      <trkpt lat="38.171684" lon="-7.225616"><ele>1500</ele><speed>63.22</speed><time>2017-07-01T16:38:59Z</time><course>254</course><type>1</type></trkpt>
      <trkpt lat="38.171749" lon="-7.225983"><ele>1507</ele><speed>23.7</speed><time>2017-07-01T16:39:04Z</time><course>322</course><type>1</type></trkpt>
      <trkpt lat="38.171650" lon="-7.225616"><ele>1507</ele><speed>24.45</speed><time>2017-07-01T16:39:09Z</time><course>128</course><type>1</type></trkpt>
      <trkpt lat="38.171185" lon="-7.225350"><ele>1511</ele><speed>40.87</speed><time>2017-07-01T16:39:14Z</time><course>170</course><type>1</type></trkpt>
      <trkpt lat="38.170601" lon="-7.225883"><ele>1514</ele><speed>57.61</speed><time>2017-07-01T16:39:19Z</time><course>254</course><type>1</type></trkpt>
      <trkpt lat="38.170650" lon="-7.226133"><ele>1524</ele><speed>16.24</speed><time>2017-07-01T16:39:24Z</time><course>94</course><type>1</type></trkpt>
      <trkpt lat="38.170235" lon="-7.225817"><ele>1525</ele><speed>38.77</speed><time>2017-07-01T16:39:29Z</time><course>174</course><type>1</type></trkpt>
      <trkpt lat="38.169266" lon="-7.226950"><ele>1521</ele><speed>52.75</speed><time>2017-07-01T16:39:39Z</time><course>260</course><type>1</type></trkpt>
      <trkpt lat="38.169201" lon="-7.227617"><ele>1531</ele><speed>42.35</speed><time>2017-07-01T16:39:44Z</time><course>262</course><type>1</type></trkpt>
      <trkpt lat="38.169216" lon="-7.227800"><ele>1533</ele><speed>11.59</speed><time>2017-07-01T16:39:49Z</time><course>80</course><type>1</type></trkpt>
      <trkpt lat="38.168633" lon="-7.227650"><ele>1534</ele><speed>47.67</speed><time>2017-07-01T16:39:54Z</time><course>202</course><type>1</type></trkpt>
      <trkpt lat="38.168217" lon="-7.228350"><ele>1540</ele><speed>55.29</speed><time>2017-07-01T16:39:59Z</time><course>252</course><type>1</type></trkpt>
      <trkpt lat="38.168251" lon="-7.228750"><ele>1547</ele><speed>25.35</speed><time>2017-07-01T16:40:04Z</time><course>340</course><type>1</type></trkpt>
      <trkpt lat="38.168068" lon="-7.228500"><ele>1554</ele><speed>21.52</speed><time>2017-07-01T16:40:09Z</time><course>146</course><type>1</type></trkpt>
      <trkpt lat="38.167301" lon="-7.228717"><ele>1558</ele><speed>62.98</speed><time>2017-07-01T16:40:14Z</time><course>218</course><type>1</type></trkpt>
      <trkpt lat="38.167000" lon="-7.229417"><ele>1565</ele><speed>50.28</speed><time>2017-07-01T16:40:19Z</time><course>266</course><type>1</type></trkpt>
      <trkpt lat="38.167068" lon="-7.229617"><ele>1574</ele><speed>13.73</speed><time>2017-07-01T16:40:24Z</time><course>30</course><type>1</type></trkpt>
      <trkpt lat="38.166718" lon="-7.229250"><ele>1581</ele><speed>36.36</speed><time>2017-07-01T16:40:29Z</time><course>162</course><type>1</type></trkpt>
      <trkpt lat="38.165966" lon="-7.229500"><ele>1587</ele><speed>62.3</speed><time>2017-07-01T16:40:34Z</time><course>220</course><type>1</type></trkpt>
      <trkpt lat="38.165749" lon="-7.230233"><ele>1593</ele><speed>49.36</speed><time>2017-07-01T16:40:39Z</time><course>270</course><type>1</type></trkpt>
      <trkpt lat="38.165817" lon="-7.230333"><ele>1601</ele><speed>8.33</speed><time>2017-07-01T16:40:44Z</time><course>72</course><type>1</type></trkpt>
      <trkpt lat="38.165401" lon="-7.229983"><ele>1612</ele><speed>39.98</speed><time>2017-07-01T16:40:49Z</time><course>168</course><type>1</type></trkpt>
      <trkpt lat="38.164616" lon="-7.230183"><ele>1618</ele><speed>64.17</speed><time>2017-07-01T16:40:54Z</time><course>208</course><type>1</type></trkpt>
      <trkpt lat="38.164249" lon="-7.230900"><ele>1621</ele><speed>53.91</speed><time>2017-07-01T16:40:59Z</time><course>266</course><type>1</type></trkpt>
      <trkpt lat="38.164299" lon="-7.231017"><ele>1629</ele><speed>8.39</speed><time>2017-07-01T16:41:04Z</time><course>86</course><type>1</type></trkpt>
      <trkpt lat="38.164032" lon="-7.230700"><ele>1634</ele><speed>29.27</speed><time>2017-07-01T16:41:09Z</time><course>150</course><type>1</type></trkpt>
      <trkpt lat="38.163349" lon="-7.230617"><ele>1640</ele><speed>54.99</speed><time>2017-07-01T16:41:14Z</time><course>190</course><type>1</type></trkpt>
      <trkpt lat="38.162785" lon="-7.231250"><ele>1645</ele><speed>60.29</speed><time>2017-07-01T16:41:19Z</time><course>244</course><type>1</type></trkpt>
      <trkpt lat="38.162750" lon="-7.231917"><ele>1650</ele><speed>42.13</speed><time>2017-07-01T16:41:24Z</time><course>278</course><type>1</type></trkpt>
      <trkpt lat="38.162849" lon="-7.232234"><ele>1656</ele><speed>21.5</speed><time>2017-07-01T16:41:29Z</time><course>0</course><type>1</type></trkpt>
      <trkpt lat="38.162533" lon="-7.231917"><ele>1660</ele><speed>32.26</speed><time>2017-07-01T16:41:34Z</time><course>162</course><type>1</type></trkpt>
      <trkpt lat="38.161835" lon="-7.232200"><ele>1666</ele><speed>58.72</speed><time>2017-07-01T16:41:39Z</time><course>224</course><type>1</type></trkpt>
      <trkpt lat="38.161549" lon="-7.232950"><ele>1670</ele><speed>52.53</speed><time>2017-07-01T16:41:44Z</time><course>270</course><type>1</type></trkpt>
      <trkpt lat="38.161667" lon="-7.233183"><ele>1677</ele><speed>17.47</speed><time>2017-07-01T16:41:49Z</time><course>66</course><type>1</type></trkpt>
      <trkpt lat="38.161449" lon="-7.232850"><ele>1682</ele><speed>27.31</speed><time>2017-07-01T16:41:54Z</time><course>152</course><type>1</type></trkpt>
      <trkpt lat="38.160732" lon="-7.232717"><ele>1689</ele><speed>58.08</speed><time>2017-07-01T16:41:59Z</time><course>188</course><type>1</type></trkpt>
      <trkpt lat="38.160198" lon="-7.233350"><ele>1692</ele><speed>58.51</speed><time>2017-07-01T16:42:04Z</time><course>252</course><type>1</type></trkpt>
      <trkpt lat="38.160233" lon="-7.233850"><ele>1698</ele><speed>31.64</speed><time>2017-07-01T16:42:09Z</time><course>314</course><type>1</type></trkpt>
      <trkpt lat="38.160034" lon="-7.233550"><ele>1701</ele><speed>24.74</speed><time>2017-07-01T16:42:14Z</time><course>158</course><type>1</type></trkpt>
      <trkpt lat="38.159317" lon="-7.233667"><ele>1707</ele><speed>57.94</speed><time>2017-07-01T16:42:19Z</time><course>202</course><type>1</type></trkpt>
      <trkpt lat="38.158798" lon="-7.234334"><ele>1709</ele><speed>59.14</speed><time>2017-07-01T16:42:24Z</time><course>246</course><type>1</type></trkpt>
      <trkpt lat="38.158798" lon="-7.234933"><ele>1714</ele><speed>37.75</speed><time>2017-07-01T16:42:29Z</time><course>290</course><type>1</type></trkpt>
      <trkpt lat="38.158234" lon="-7.234583"><ele>1720</ele><speed>25.15</speed><time>2017-07-01T16:42:39Z</time><course>180</course><type>1</type></trkpt>
      <trkpt lat="38.157532" lon="-7.234950"><ele>1724</ele><speed>60.83</speed><time>2017-07-01T16:42:44Z</time><course>216</course><type>1</type></trkpt>
      <trkpt lat="38.157135" lon="-7.235734"><ele>1721</ele><speed>58.77</speed><time>2017-07-01T16:42:49Z</time><course>244</course><type>1</type></trkpt>
      <trkpt lat="38.157166" lon="-7.236317"><ele>1714</ele><speed>36.83</speed><time>2017-07-01T16:42:54Z</time><course>292</course><type>1</type></trkpt>
      <trkpt lat="38.157166" lon="-7.236117"><ele>1729</ele><speed>12.6</speed><time>2017-07-01T16:42:59Z</time><course>136</course><type>1</type></trkpt>
      <trkpt lat="38.156582" lon="-7.235950"><ele>1729</ele><speed>47.98</speed><time>2017-07-01T16:43:04Z</time><course>184</course><type>1</type></trkpt>
      <trkpt lat="38.155968" lon="-7.236467"><ele>1729</ele><speed>59.02</speed><time>2017-07-01T16:43:09Z</time><course>232</course><type>1</type></trkpt>
      <trkpt lat="38.155666" lon="-7.237367"><ele>1730</ele><speed>61.67</speed><time>2017-07-01T16:43:14Z</time><course>252</course><type>1</type></trkpt>
      <trkpt lat="38.155716" lon="-7.237916"><ele>1733</ele><speed>34.83</speed><time>2017-07-01T16:43:19Z</time><course>314</course><type>1</type></trkpt>
      <trkpt lat="38.155869" lon="-7.238033"><ele>1741</ele><speed>14.31</speed><time>2017-07-01T16:43:24Z</time><course>338</course><type>1</type></trkpt>
      <trkpt lat="38.155602" lon="-7.237800"><ele>1741</ele><speed>25.95</speed><time>2017-07-01T16:43:29Z</time><course>160</course><type>1</type></trkpt>
      <trkpt lat="38.154850" lon="-7.238100"><ele>1749</ele><speed>63.17</speed><time>2017-07-01T16:43:34Z</time><course>222</course><type>1</type></trkpt>
      <trkpt lat="38.154652" lon="-7.238883"><ele>1753</ele><speed>51.84</speed><time>2017-07-01T16:43:39Z</time><course>268</course><type>1</type></trkpt>
      <trkpt lat="38.154732" lon="-7.239183"><ele>1756</ele><speed>19.97</speed><time>2017-07-01T16:43:44Z</time><course>14</course><type>1</type></trkpt>
      <trkpt lat="38.154415" lon="-7.238900"><ele>1758</ele><speed>31.04</speed><time>2017-07-01T16:43:49Z</time><course>162</course><type>1</type></trkpt>
      <trkpt lat="38.153667" lon="-7.238950"><ele>1763</ele><speed>60.03</speed><time>2017-07-01T16:43:54Z</time><course>198</course><type>1</type></trkpt>
      <trkpt lat="38.153099" lon="-7.239550"><ele>1767</ele><speed>59.18</speed><time>2017-07-01T16:43:59Z</time><course>238</course><type>1</type></trkpt>
      <trkpt lat="38.153034" lon="-7.240250"><ele>1770</ele><speed>44.43</speed><time>2017-07-01T16:44:04Z</time><course>290</course><type>1</type></trkpt>
      <trkpt lat="38.153084" lon="-7.240334"><ele>1772</ele><speed>6.64</speed><time>2017-07-01T16:44:09Z</time><course>114</course><type>1</type></trkpt>
      <trkpt lat="38.152584" lon="-7.240083"><ele>1775</ele><speed>43.08</speed><time>2017-07-01T16:44:14Z</time><course>178</course><type>1</type></trkpt>
      <trkpt lat="38.151817" lon="-7.240383"><ele>1778</ele><speed>64.32</speed><time>2017-07-01T16:44:19Z</time><course>204</course><type>1</type></trkpt>
      <trkpt lat="38.151402" lon="-7.241083"><ele>1773</ele><speed>55.25</speed><time>2017-07-01T16:44:24Z</time><course>254</course><type>1</type></trkpt>
      <trkpt lat="38.151501" lon="-7.241600"><ele>1768</ele><speed>33.54</speed><time>2017-07-01T16:44:29Z</time><course>306</course><type>1</type></trkpt>
      <trkpt lat="38.151684" lon="-7.241833"><ele>1770</ele><speed>20.76</speed><time>2017-07-01T16:44:34Z</time><course>312</course><type>1</type></trkpt>
      <trkpt lat="38.151833" lon="-7.242116"><ele>1778</ele><speed>21.47</speed><time>2017-07-01T16:44:39Z</time><course>294</course><type>1</type></trkpt>
      <trkpt lat="38.151768" lon="-7.242033"><ele>1779</ele><speed>7.38</speed><time>2017-07-01T16:44:44Z</time><course>142</course><type>1</type></trkpt>
      <trkpt lat="38.151085" lon="-7.242133"><ele>1786</ele><speed>55.1</speed><time>2017-07-01T16:44:49Z</time><course>214</course><type>1</type></trkpt>
      <trkpt lat="38.150650" lon="-7.243033"><ele>1788</ele><speed>66.58</speed><time>2017-07-01T16:44:54Z</time><course>248</course><type>1</type></trkpt>
      <trkpt lat="38.150566" lon="-7.243750"><ele>1790</ele><speed>45.69</speed><time>2017-07-01T16:44:59Z</time><course>302</course><type>1</type></trkpt>
      <trkpt lat="38.150482" lon="-7.243617"><ele>1792</ele><speed>10.75</speed><time>2017-07-01T16:45:04Z</time><course>158</course><type>1</type></trkpt>
      <trkpt lat="38.149750" lon="-7.243767"><ele>1793</ele><speed>59.43</speed><time>2017-07-01T16:45:09Z</time><course>202</course><type>1</type></trkpt>
      <trkpt lat="38.149067" lon="-7.244367"><ele>1796</ele><speed>66.54</speed><time>2017-07-01T16:45:14Z</time><course>216</course><type>1</type></trkpt>
      <trkpt lat="38.148315" lon="-7.244800"><ele>1793</ele><speed>66.16</speed><time>2017-07-01T16:45:19Z</time><course>208</course><type>1</type></trkpt>
      <trkpt lat="38.147652" lon="-7.245200"><ele>1792</ele><speed>58.82</speed><time>2017-07-01T16:45:24Z</time><course>208</course><type>1</type></trkpt>
      <trkpt lat="38.146866" lon="-7.245584"><ele>1788</ele><speed>67.49</speed><time>2017-07-01T16:45:29Z</time><course>200</course><type>1</type></trkpt>
      <trkpt lat="38.146500" lon="-7.245833"><ele>1782</ele><speed>16.63</speed><time>2017-07-01T16:45:39Z</time><course>268</course><type>1</type></trkpt>
      <trkpt lat="38.146049" lon="-7.246650"><ele>1784</ele><speed>62.92</speed><time>2017-07-01T16:45:44Z</time><course>224</course><type>1</type></trkpt>
      <trkpt lat="38.145332" lon="-7.247217"><ele>1783</ele><speed>67.67</speed><time>2017-07-01T16:45:49Z</time><course>208</course><type>1</type></trkpt>
      <trkpt lat="38.144566" lon="-7.247750"><ele>1782</ele><speed>69.99</speed><time>2017-07-01T16:45:54Z</time><course>206</course><type>1</type></trkpt>
      <trkpt lat="38.143818" lon="-7.248250"><ele>1778</ele><speed>67.73</speed><time>2017-07-01T16:45:59Z</time><course>204</course><type>1</type></trkpt>
      <trkpt lat="38.143116" lon="-7.248750"><ele>1773</ele><speed>64.49</speed><time>2017-07-01T16:46:04Z</time><course>206</course><type>1</type></trkpt>
      <trkpt lat="38.142334" lon="-7.249183"><ele>1766</ele><speed>68.36</speed><time>2017-07-01T16:46:09Z</time><course>196</course><type>1</type></trkpt>
      <trkpt lat="38.141815" lon="-7.249417"><ele>1771</ele><speed>44.14</speed><time>2017-07-01T16:46:14Z</time><course>182</course><type>1</type></trkpt>
      <trkpt lat="38.141666" lon="-7.249250"><ele>1771</ele><speed>15.92</speed><time>2017-07-01T16:46:19Z</time><course>340</course><type>1</type></trkpt>
      <trkpt lat="38.141834" lon="-7.249850"><ele>1768</ele><speed>40.15</speed><time>2017-07-01T16:46:24Z</time><course>270</course><type>1</type></trkpt>
      <trkpt lat="38.141567" lon="-7.250750"><ele>1771</ele><speed>60.64</speed><time>2017-07-01T16:46:29Z</time><course>232</course><type>1</type></trkpt>
      <trkpt lat="38.140984" lon="-7.251250"><ele>1775</ele><speed>56.36</speed><time>2017-07-01T16:46:34Z</time><course>204</course><type>1</type></trkpt>
      <trkpt lat="38.140583" lon="-7.251150"><ele>1773</ele><speed>32.75</speed><time>2017-07-01T16:46:39Z</time><course>114</course><type>1</type></trkpt>
      <trkpt lat="38.140617" lon="-7.251033"><ele>1775</ele><speed>7.86</speed><time>2017-07-01T16:46:44Z</time><course>18</course><type>1</type></trkpt>
      <trkpt lat="38.140865" lon="-7.251383"><ele>1774</ele><speed>29.7</speed><time>2017-07-01T16:46:49Z</time><course>276</course><type>1</type></trkpt>
      <trkpt lat="38.140568" lon="-7.252267"><ele>1769</ele><speed>60.6</speed><time>2017-07-01T16:46:54Z</time><course>224</course><type>1</type></trkpt>
      <trkpt lat="38.139965" lon="-7.252800"><ele>1767</ele><speed>58.86</speed><time>2017-07-01T16:46:59Z</time><course>208</course><type>1</type></trkpt>
      <trkpt lat="38.139267" lon="-7.253267"><ele>1771</ele><speed>63.22</speed><time>2017-07-01T16:47:04Z</time><course>208</course><type>1</type></trkpt>
      <trkpt lat="38.138584" lon="-7.253716"><ele>1767</ele><speed>61.63</speed><time>2017-07-01T16:47:09Z</time><course>208</course><type>1</type></trkpt>
      <trkpt lat="38.137833" lon="-7.254217"><ele>1759</ele><speed>67.98</speed><time>2017-07-01T16:47:14Z</time><course>208</course><type>1</type></trkpt>
      <trkpt lat="38.137085" lon="-7.254717"><ele>1762</ele><speed>67.73</speed><time>2017-07-01T16:47:19Z</time><course>210</course><type>1</type></trkpt>
      <trkpt lat="38.136551" lon="-7.254850"><ele>1764</ele><speed>43.61</speed><time>2017-07-01T16:47:24Z</time><course>134</course><type>1</type></trkpt>
      <trkpt lat="38.136700" lon="-7.255000"><ele>1770</ele><speed>15.23</speed><time>2017-07-01T16:47:29Z</time><course>286</course><type>1</type></trkpt>
      <trkpt lat="38.136398" lon="-7.255950"><ele>1771</ele><speed>64.6</speed><time>2017-07-01T16:47:34Z</time><course>228</course><type>1</type></trkpt>
      <trkpt lat="38.135750" lon="-7.256650"><ele>1783</ele><speed>68.15</speed><time>2017-07-01T16:47:39Z</time><course>228</course><type>1</type></trkpt>
      <trkpt lat="38.135818" lon="-7.257300"><ele>1786</ele><speed>41.34</speed><time>2017-07-01T16:47:44Z</time><course>0</course><type>1</type></trkpt>
      <trkpt lat="38.135448" lon="-7.257233"><ele>1795</ele><speed>29.95</speed><time>2017-07-01T16:47:49Z</time><course>196</course><type>1</type></trkpt>
      <trkpt lat="38.134899" lon="-7.257967"><ele>1804</ele><speed>63.85</speed><time>2017-07-01T16:47:54Z</time><course>252</course><type>1</type></trkpt>
      <trkpt lat="38.135033" lon="-7.258650"><ele>1811</ele><speed>44.38</speed><time>2017-07-01T16:47:59Z</time><course>336</course><type>1</type></trkpt>
      <trkpt lat="38.134800" lon="-7.258517"><ele>1818</ele><speed>20.47</speed><time>2017-07-01T16:48:04Z</time><course>182</course><type>1</type></trkpt>
      <trkpt lat="38.134151" lon="-7.259000"><ele>1825</ele><speed>60.27</speed><time>2017-07-01T16:48:09Z</time><course>228</course><type>1</type></trkpt>
      <trkpt lat="38.133949" lon="-7.259950"><ele>1827</ele><speed>62.04</speed><time>2017-07-01T16:48:14Z</time><course>278</course><type>1</type></trkpt>
      <trkpt lat="38.134182" lon="-7.260400"><ele>1828</ele><speed>33.96</speed><time>2017-07-01T16:48:19Z</time><course>324</course><type>1</type></trkpt>
      <trkpt lat="38.134335" lon="-7.260633"><ele>1836</ele><speed>19.14</speed><time>2017-07-01T16:48:24Z</time><course>318</course><type>1</type></trkpt>
      <trkpt lat="38.133934" lon="-7.260583"><ele>1841</ele><speed>32.29</speed><time>2017-07-01T16:48:29Z</time><course>196</course><type>1</type></trkpt>
      <trkpt lat="38.133549" lon="-7.262150"><ele>1851</ele><speed>51.75</speed><time>2017-07-01T16:48:39Z</time><course>306</course><type>1</type></trkpt>
      <trkpt lat="38.133533" lon="-7.262084"><ele>1858</ele><speed>4.35</speed><time>2017-07-01T16:48:44Z</time><course>154</course><type>1</type></trkpt>
      <trkpt lat="38.133034" lon="-7.262200"><ele>1861</ele><speed>40.66</speed><time>2017-07-01T16:48:49Z</time><course>202</course><type>1</type></trkpt>
      <trkpt lat="38.132599" lon="-7.263117"><ele>1867</ele><speed>67.51</speed><time>2017-07-01T16:48:54Z</time><course>264</course><type>1</type></trkpt>
      <trkpt lat="38.132683" lon="-7.264000"><ele>1871</ele><speed>56.07</speed><time>2017-07-01T16:48:59Z</time><course>278</course><type>1</type></trkpt>
      <trkpt lat="38.132767" lon="-7.264184"><ele>1876</ele><speed>13.41</speed><time>2017-07-01T16:49:04Z</time><course>138</course><type>1</type></trkpt>
      <trkpt lat="38.132133" lon="-7.264450"><ele>1883</ele><speed>53.51</speed><time>2017-07-01T16:49:09Z</time><course>218</course><type>1</type></trkpt>
      <trkpt lat="38.131699" lon="-7.265467"><ele>1886</ele><speed>72.95</speed><time>2017-07-01T16:49:14Z</time><course>256</course><type>1</type></trkpt>
      <trkpt lat="38.131832" lon="-7.266233"><ele>1882</ele><speed>49.46</speed><time>2017-07-01T16:49:19Z</time><course>310</course><type>1</type></trkpt>
      <trkpt lat="38.132000" lon="-7.266383"><ele>1883</ele><speed>16.45</speed><time>2017-07-01T16:49:24Z</time><course>352</course><type>1</type></trkpt>
      <trkpt lat="38.132133" lon="-7.266467"><ele>1892</ele><speed>11.9</speed><time>2017-07-01T16:49:29Z</time><course>304</course><type>1</type></trkpt>
      <trkpt lat="38.132099" lon="-7.267416"><ele>1891</ele><speed>59.89</speed><time>2017-07-01T16:49:34Z</time><course>246</course><type>1</type></trkpt>
      <trkpt lat="38.131516" lon="-7.267833"><ele>1900</ele><speed>53.62</speed><time>2017-07-01T16:49:39Z</time><course>174</course><type>1</type></trkpt>
      <trkpt lat="38.131500" lon="-7.267850"><ele>1907</ele><speed>1.67</speed><time>2017-07-01T16:49:44Z</time><course>308</course><type>1</type></trkpt>
      <trkpt lat="38.131535" lon="-7.268750"><ele>1912</ele><speed>56.81</speed><time>2017-07-01T16:49:49Z</time><course>252</course><type>1</type></trkpt>
      <trkpt lat="38.130966" lon="-7.269433"><ele>1919</ele><speed>62.72</speed><time>2017-07-01T16:49:54Z</time><course>194</course><type>1</type></trkpt>
      <trkpt lat="38.130733" lon="-7.269350"><ele>1921</ele><speed>19.39</speed><time>2017-07-01T16:49:59Z</time><course>124</course><type>1</type></trkpt>
      <trkpt lat="38.130798" lon="-7.269450"><ele>1926</ele><speed>8.18</speed><time>2017-07-01T16:50:04Z</time><course>304</course><type>1</type></trkpt>
      <trkpt lat="38.130867" lon="-7.270350"><ele>1926</ele><speed>57.01</speed><time>2017-07-01T16:50:09Z</time><course>252</course><type>1</type></trkpt>
      <trkpt lat="38.130333" lon="-7.271100"><ele>1933</ele><speed>63.78</speed><time>2017-07-01T16:50:14Z</time><course>200</course><type>1</type></trkpt>
      <trkpt lat="38.130066" lon="-7.271067"><ele>1933</ele><speed>21.5</speed><time>2017-07-01T16:50:19Z</time><course>250</course><type>1</type></trkpt>
      <trkpt lat="38.130299" lon="-7.271633"><ele>1934</ele><speed>40.28</speed><time>2017-07-01T16:50:24Z</time><course>270</course><type>1</type></trkpt>
      <trkpt lat="38.129902" lon="-7.272533"><ele>1940</ele><speed>65.06</speed><time>2017-07-01T16:50:29Z</time><course>214</course><type>1</type></trkpt>
      <trkpt lat="38.129398" lon="-7.272733"><ele>1940</ele><speed>42.32</speed><time>2017-07-01T16:50:34Z</time><course>172</course><type>1</type></trkpt>
      <trkpt lat="38.129467" lon="-7.272650"><ele>1938</ele><speed>7.61</speed><time>2017-07-01T16:50:39Z</time><course>344</course><type>1</type></trkpt>
      <trkpt lat="38.129684" lon="-7.272800"><ele>1944</ele><speed>19.8</speed><time>2017-07-01T16:50:44Z</time><course>316</course><type>1</type></trkpt>
      <trkpt lat="38.129734" lon="-7.273700"><ele>1941</ele><speed>56.88</speed><time>2017-07-01T16:50:49Z</time><course>246</course><type>1</type></trkpt>
      <trkpt lat="38.129185" lon="-7.274167"><ele>1944</ele><speed>52.94</speed><time>2017-07-01T16:50:54Z</time><course>184</course><type>1</type></trkpt>
      <trkpt lat="38.129002" lon="-7.273967"><ele>1949</ele><speed>19.34</speed><time>2017-07-01T16:50:59Z</time><course>140</course><type>1</type></trkpt>
      <trkpt lat="38.129082" lon="-7.273933"><ele>1947</ele><speed>6.76</speed><time>2017-07-01T16:51:04Z</time><course>332</course><type>1</type></trkpt>
      <trkpt lat="38.129101" lon="-7.274833"><ele>1941</ele><speed>56.76</speed><time>2017-07-01T16:51:09Z</time><course>242</course><type>1</type></trkpt>
      <trkpt lat="38.128551" lon="-7.275483"><ele>1939</ele><speed>60.19</speed><time>2017-07-01T16:51:14Z</time><course>208</course><type>1</type></trkpt>
      <trkpt lat="38.127983" lon="-7.275567"><ele>1942</ele><speed>45.83</speed><time>2017-07-01T16:51:19Z</time><course>166</course><type>1</type></trkpt>
      <trkpt lat="38.127533" lon="-7.275617"><ele>1947</ele><speed>36.21</speed><time>2017-07-01T16:51:24Z</time><course>200</course><type>1</type></trkpt>
      <trkpt lat="38.127216" lon="-7.276550"><ele>1943</ele><speed>64.08</speed><time>2017-07-01T16:51:29Z</time><course>282</course><type>1</type></trkpt>
      <trkpt lat="38.127102" lon="-7.276683"><ele>1942</ele><speed>6.2</speed><time>2017-07-01T16:51:39Z</time><course>168</course><type>1</type></trkpt>
      <trkpt lat="38.126701" lon="-7.276633"><ele>1945</ele><speed>32.29</speed><time>2017-07-01T16:51:44Z</time><course>176</course><type>1</type></trkpt>
      <trkpt lat="38.126083" lon="-7.276800"><ele>1940</ele><speed>50.64</speed><time>2017-07-01T16:51:49Z</time><course>200</course><type>1</type></trkpt>
      <trkpt lat="38.125332" lon="-7.277233"><ele>1934</ele><speed>66.09</speed><time>2017-07-01T16:51:54Z</time><course>202</course><type>1</type></trkpt>
      <trkpt lat="38.124599" lon="-7.277683"><ele>1937</ele><speed>65.24</speed><time>2017-07-01T16:51:59Z</time><course>206</course><type>1</type></trkpt>
      <trkpt lat="38.123882" lon="-7.278183"><ele>1932</ele><speed>65.55</speed><time>2017-07-01T16:52:04Z</time><course>204</course><type>1</type></trkpt>
      <trkpt lat="38.123199" lon="-7.278666"><ele>1927</ele><speed>62.64</speed><time>2017-07-01T16:52:09Z</time><course>206</course><type>1</type></trkpt>
      <trkpt lat="38.122532" lon="-7.279167"><ele>1919</ele><speed>62.1</speed><time>2017-07-01T16:52:14Z</time><course>216</course><type>1</type></trkpt>
      <trkpt lat="38.121883" lon="-7.279800"><ele>1912</ele><speed>65.57</speed><time>2017-07-01T16:52:19Z</time><course>214</course><type>1</type></trkpt>
      <trkpt lat="38.121250" lon="-7.280433"><ele>1904</ele><speed>64.55</speed><time>2017-07-01T16:52:24Z</time><course>216</course><type>1</type></trkpt>
      <trkpt lat="38.120567" lon="-7.281034"><ele>1896</ele><speed>66.58</speed><time>2017-07-01T16:52:29Z</time><course>216</course><type>1</type></trkpt>
      <trkpt lat="38.119934" lon="-7.281667"><ele>1892</ele><speed>64.55</speed><time>2017-07-01T16:52:34Z</time><course>222</course><type>1</type></trkpt>
      <trkpt lat="38.119301" lon="-7.282350"><ele>1881</ele><speed>66.55</speed><time>2017-07-01T16:52:39Z</time><course>218</course><type>1</type></trkpt>
      <trkpt lat="38.118668" lon="-7.282967"><ele>1874</ele><speed>63.94</speed><time>2017-07-01T16:52:44Z</time><course>216</course><type>1</type></trkpt>
      <trkpt lat="38.118034" lon="-7.283517"><ele>1867</ele><speed>61.52</speed><time>2017-07-01T16:52:49Z</time><course>214</course><type>1</type></trkpt>
      <trkpt lat="38.117432" lon="-7.284033"><ele>1859</ele><speed>58.2</speed><time>2017-07-01T16:52:54Z</time><course>212</course><type>1</type></trkpt>
      <trkpt lat="38.116783" lon="-7.284567"><ele>1853</ele><speed>61.97</speed><time>2017-07-01T16:52:59Z</time><course>214</course><type>1</type></trkpt>
      <trkpt lat="38.116135" lon="-7.285067"><ele>1843</ele><speed>60.76</speed><time>2017-07-01T16:53:04Z</time><course>210</course><type>1</type></trkpt>
      <trkpt lat="38.115452" lon="-7.285583"><ele>1833</ele><speed>63.68</speed><time>2017-07-01T16:53:09Z</time><course>210</course><type>1</type></trkpt>
      <trkpt lat="38.114735" lon="-7.286033"><ele>1825</ele><speed>64.09</speed><time>2017-07-01T16:53:14Z</time><course>208</course><type>1</type></trkpt>
      <trkpt lat="38.114033" lon="-7.286483"><ele>1818</ele><speed>63.02</speed><time>2017-07-01T16:53:19Z</time><course>200</course><type>1</type></trkpt>
      <trkpt lat="38.113335" lon="-7.286850"><ele>1810</ele><speed>60.54</speed><time>2017-07-01T16:53:24Z</time><course>200</course><type>1</type></trkpt>
      <trkpt lat="38.112633" lon="-7.287183"><ele>1801</ele><speed>60.06</speed><time>2017-07-01T16:53:29Z</time><course>200</course><type>1</type></trkpt>
      <trkpt lat="38.111900" lon="-7.287500"><ele>1795</ele><speed>62.06</speed><time>2017-07-01T16:53:34Z</time><course>194</course><type>1</type></trkpt>
      <trkpt lat="38.111267" lon="-7.287867"><ele>1791</ele><speed>55.76</speed><time>2017-07-01T16:53:39Z</time><course>208</course><type>1</type></trkpt>
      <trkpt lat="38.109982" lon="-7.288466"><ele>1778</ele><speed>54.85</speed><time>2017-07-01T16:53:49Z</time><course>198</course><type>1</type></trkpt>
      <trkpt lat="38.109417" lon="-7.288784"><ele>1769</ele><speed>49.53</speed><time>2017-07-01T16:53:54Z</time><course>200</course><type>1</type></trkpt>
      <trkpt lat="38.108849" lon="-7.288900"><ele>1759</ele><speed>46.11</speed><time>2017-07-01T16:53:59Z</time><course>190</course><type>1</type></trkpt>
      <trkpt lat="38.108265" lon="-7.289000"><ele>1753</ele><speed>47.23</speed><time>2017-07-01T16:54:04Z</time><course>188</course><type>1</type></trkpt>
      <trkpt lat="38.107685" lon="-7.289166"><ele>1745</ele><speed>47.65</speed><time>2017-07-01T16:54:09Z</time><course>192</course><type>1</type></trkpt>
      <trkpt lat="38.107117" lon="-7.289383"><ele>1742</ele><speed>47.54</speed><time>2017-07-01T16:54:14Z</time><course>192</course><type>1</type></trkpt>
      <trkpt lat="38.106518" lon="-7.289533"><ele>1734</ele><speed>48.93</speed><time>2017-07-01T16:54:19Z</time><course>190</course><type>1</type></trkpt>
      <trkpt lat="38.105865" lon="-7.289700"><ele>1726</ele><speed>53.39</speed><time>2017-07-01T16:54:24Z</time><course>192</course><type>1</type></trkpt>
      <trkpt lat="38.105183" lon="-7.289983"><ele>1715</ele><speed>57.5</speed><time>2017-07-01T16:54:29Z</time><course>196</course><type>1</type></trkpt>
      <trkpt lat="38.104485" lon="-7.290250"><ele>1711</ele><speed>58.42</speed><time>2017-07-01T16:54:34Z</time><course>196</course><type>1</type></trkpt>
      <trkpt lat="38.103249" lon="-7.290767"><ele>1698</ele><speed>52.15</speed><time>2017-07-01T16:54:44Z</time><course>204</course><type>1</type></trkpt>
      <trkpt lat="38.102650" lon="-7.291217"><ele>1689</ele><speed>55.77</speed><time>2017-07-01T16:54:49Z</time><course>214</course><type>1</type></trkpt>
      <trkpt lat="38.102016" lon="-7.291483"><ele>1677</ele><speed>53.51</speed><time>2017-07-01T16:54:54Z</time><course>192</course><type>1</type></trkpt>
      <trkpt lat="38.101368" lon="-7.291683"><ele>1666</ele><speed>53.45</speed><time>2017-07-01T16:54:59Z</time><course>186</course><type>1</type></trkpt>
      <trkpt lat="38.100750" lon="-7.291700"><ele>1660</ele><speed>49.54</speed><time>2017-07-01T16:55:04Z</time><course>178</course><type>1</type></trkpt>
      <trkpt lat="38.100117" lon="-7.291767"><ele>1655</ele><speed>50.91</speed><time>2017-07-01T16:55:09Z</time><course>184</course><type>1</type></trkpt>
      <trkpt lat="38.099400" lon="-7.291966"><ele>1649</ele><speed>58.82</speed><time>2017-07-01T16:55:14Z</time><course>204</course><type>1</type></trkpt>
      <trkpt lat="38.098850" lon="-7.292750"><ele>1649</ele><speed>66.25</speed><time>2017-07-01T16:55:19Z</time><course>234</course><type>1</type></trkpt>
      <trkpt lat="38.098598" lon="-7.293600"><ele>1646</ele><speed>57.29</speed><time>2017-07-01T16:55:24Z</time><course>280</course><type>1</type></trkpt>
      <trkpt lat="38.099018" lon="-7.293917"><ele>1644</ele><speed>19.58</speed><time>2017-07-01T16:55:34Z</time><course>124</course><type>1</type></trkpt>
      <trkpt lat="38.098633" lon="-7.293833"><ele>1641</ele><speed>31.31</speed><time>2017-07-01T16:55:39Z</time><course>172</course><type>1</type></trkpt>
      <trkpt lat="38.098049" lon="-7.294017"><ele>1640</ele><speed>48.22</speed><time>2017-07-01T16:55:44Z</time><course>212</course><type>1</type></trkpt>
      <trkpt lat="38.097485" lon="-7.294583"><ele>1636</ele><speed>57.6</speed><time>2017-07-01T16:55:49Z</time><course>236</course><type>1</type></trkpt>
      <trkpt lat="38.097382" lon="-7.295516"><ele>1632</ele><speed>59.43</speed><time>2017-07-01T16:55:54Z</time><course>274</course><type>1</type></trkpt>
      <trkpt lat="38.097416" lon="-7.296417"><ele>1628</ele><speed>56.9</speed><time>2017-07-01T16:55:59Z</time><course>258</course><type>1</type></trkpt>
      <trkpt lat="38.096985" lon="-7.297266"><ele>1623</ele><speed>63.73</speed><time>2017-07-01T16:56:04Z</time><course>236</course><type>1</type></trkpt>
      <trkpt lat="38.096401" lon="-7.298017"><ele>1617</ele><speed>66.59</speed><time>2017-07-01T16:56:09Z</time><course>218</course><type>1</type></trkpt>
      <trkpt lat="38.095901" lon="-7.298517"><ele>1618</ele><speed>51</speed><time>2017-07-01T16:56:14Z</time><course>224</course><type>1</type></trkpt>
      <trkpt lat="38.095917" lon="-7.299250"><ele>1610</ele><speed>46.25</speed><time>2017-07-01T16:56:19Z</time><course>318</course><type>1</type></trkpt>
      <trkpt lat="38.095501" lon="-7.299233"><ele>1594</ele><speed>16.68</speed><time>2017-07-01T16:56:29Z</time><course>208</course><type>1</type></trkpt>
      <trkpt lat="38.094849" lon="-7.299833"><ele>1590</ele><speed>64.52</speed><time>2017-07-01T16:56:34Z</time><course>214</course><type>1</type></trkpt>
      <trkpt lat="38.094250" lon="-7.300550"><ele>1594</ele><speed>65.96</speed><time>2017-07-01T16:56:39Z</time><course>230</course><type>1</type></trkpt>
      <trkpt lat="38.094101" lon="-7.301400"><ele>1594</ele><speed>54.93</speed><time>2017-07-01T16:56:44Z</time><course>298</course><type>1</type></trkpt>
      <trkpt lat="38.094368" lon="-7.301533"><ele>1595</ele><speed>22.99</speed><time>2017-07-01T16:56:49Z</time><course>352</course><type>1</type></trkpt>
      <trkpt lat="38.094166" lon="-7.301350"><ele>1589</ele><speed>19.88</speed><time>2017-07-01T16:56:54Z</time><course>172</course><type>1</type></trkpt>
      <trkpt lat="38.093517" lon="-7.301850"><ele>1589</ele><speed>60.83</speed><time>2017-07-01T16:56:59Z</time><course>228</course><type>1</type></trkpt>
      <trkpt lat="38.093216" lon="-7.302733"><ele>1591</ele><speed>60.7</speed><time>2017-07-01T16:57:04Z</time><course>278</course><type>1</type></trkpt>
      <trkpt lat="38.093449" lon="-7.302866"><ele>1583</ele><speed>20.47</speed><time>2017-07-01T16:57:09Z</time><course>106</course><type>1</type></trkpt>
      <trkpt lat="38.092949" lon="-7.302850"><ele>1586</ele><speed>40.09</speed><time>2017-07-01T16:57:14Z</time><course>202</course><type>1</type></trkpt>
      <trkpt lat="38.092468" lon="-7.303566"><ele>1589</ele><speed>59.38</speed><time>2017-07-01T16:57:19Z</time><course>252</course><type>1</type></trkpt>
      <trkpt lat="38.092602" lon="-7.304250"><ele>1582</ele><speed>44.46</speed><time>2017-07-01T16:57:24Z</time><course>318</course><type>1</type></trkpt>
      <trkpt lat="38.092651" lon="-7.304033"><ele>1582</ele><speed>14.24</speed><time>2017-07-01T16:57:29Z</time><course>128</course><type>1</type></trkpt>
      <trkpt lat="38.092335" lon="-7.303833"><ele>1584</ele><speed>28.3</speed><time>2017-07-01T16:57:34Z</time><course>174</course><type>1</type></trkpt>
      <trkpt lat="38.091866" lon="-7.304417"><ele>1581</ele><speed>52.63</speed><time>2017-07-01T16:57:39Z</time><course>260</course><type>1</type></trkpt>
      <trkpt lat="38.092068" lon="-7.304900"><ele>1578</ele><speed>34.5</speed><time>2017-07-01T16:57:44Z</time><course>354</course><type>1</type></trkpt>
      <trkpt lat="38.091816" lon="-7.304733"><ele>1577</ele><speed>22.78</speed><time>2017-07-01T16:57:49Z</time><course>188</course><type>1</type></trkpt>
      <trkpt lat="38.091217" lon="-7.305167"><ele>1576</ele><speed>55.27</speed><time>2017-07-01T16:57:54Z</time><course>216</course><type>1</type></trkpt>
      <trkpt lat="38.090717" lon="-7.305900"><ele>1571</ele><speed>61.19</speed><time>2017-07-01T16:57:59Z</time><course>232</course><type>1</type></trkpt>
      <trkpt lat="38.090168" lon="-7.306684"><ele>1568</ele><speed>66.2</speed><time>2017-07-01T16:58:04Z</time><course>226</course><type>1</type></trkpt>
      <trkpt lat="38.089615" lon="-7.307467"><ele>1568</ele><speed>66.36</speed><time>2017-07-01T16:58:09Z</time><course>226</course><type>1</type></trkpt>
      <trkpt lat="38.089100" lon="-7.308267"><ele>1568</ele><speed>65.2</speed><time>2017-07-01T16:58:14Z</time><course>230</course><type>1</type></trkpt>
      <trkpt lat="38.088566" lon="-7.309117"><ele>1568</ele><speed>68.61</speed><time>2017-07-01T16:58:19Z</time><course>228</course><type>1</type></trkpt>
      <trkpt lat="38.088017" lon="-7.309950"><ele>1567</ele><speed>68.54</speed><time>2017-07-01T16:58:24Z</time><course>228</course><type>1</type></trkpt>
      <trkpt lat="38.087467" lon="-7.310833"><ele>1565</ele><speed>71.04</speed><time>2017-07-01T16:58:29Z</time><course>232</course><type>1</type></trkpt>
      <trkpt lat="38.086918" lon="-7.311683"><ele>1563</ele><speed>69.36</speed><time>2017-07-01T16:58:34Z</time><course>230</course><type>1</type></trkpt>
      <trkpt lat="38.086315" lon="-7.312467"><ele>1556</ele><speed>69.15</speed><time>2017-07-01T16:58:39Z</time><course>222</course><type>1</type></trkpt>
      <trkpt lat="38.085766" lon="-7.313217"><ele>1553</ele><speed>64.61</speed><time>2017-07-01T16:58:44Z</time><course>228</course><type>1</type></trkpt>
      <trkpt lat="38.085217" lon="-7.314050"><ele>1549</ele><speed>68.54</speed><time>2017-07-01T16:58:49Z</time><course>226</course><type>1</type></trkpt>
      <trkpt lat="38.084667" lon="-7.314883"><ele>1544</ele><speed>68.59</speed><time>2017-07-01T16:58:54Z</time><course>230</course><type>1</type></trkpt>
      <trkpt lat="38.084133" lon="-7.315733"><ele>1539</ele><speed>68.61</speed><time>2017-07-01T16:58:59Z</time><course>230</course><type>1</type></trkpt>
      <trkpt lat="38.083584" lon="-7.316583"><ele>1533</ele><speed>69.37</speed><time>2017-07-01T16:59:04Z</time><course>230</course><type>1</type></trkpt>
      <trkpt lat="38.083099" lon="-7.317417"><ele>1530</ele><speed>65.42</speed><time>2017-07-01T16:59:09Z</time><course>234</course><type>1</type></trkpt>
      <trkpt lat="38.082615" lon="-7.318267"><ele>1520</ele><speed>66.19</speed><time>2017-07-01T16:59:14Z</time><course>236</course><type>1</type></trkpt>
      <trkpt lat="38.082150" lon="-7.319133"><ele>1510</ele><speed>66.14</speed><time>2017-07-01T16:59:19Z</time><course>230</course><type>1</type></trkpt>
      <trkpt lat="38.081650" lon="-7.319950"><ele>1505</ele><speed>65.29</speed><time>2017-07-01T16:59:24Z</time><course>234</course><type>1</type></trkpt>
      <trkpt lat="38.080017" lon="-7.322417"><ele>1470</ele><speed>67.79</speed><time>2017-07-01T16:59:39Z</time><course>222</course><type>1</type></trkpt>
      <trkpt lat="38.079350" lon="-7.323250"><ele>1465</ele><speed>74.97</speed><time>2017-07-01T16:59:44Z</time><course>222</course><type>1</type></trkpt>
      <trkpt lat="38.078918" lon="-7.323884"><ele>1471</ele><speed>52.9</speed><time>2017-07-01T16:59:49Z</time><course>258</course><type>1</type></trkpt>
      <trkpt lat="38.079048" lon="-7.324017"><ele>1468</ele><speed>13.38</speed><time>2017-07-01T16:59:54Z</time><course>114</course><type>1</type></trkpt>
      <trkpt lat="38.078415" lon="-7.324050"><ele>1469</ele><speed>50.78</speed><time>2017-07-01T16:59:59Z</time><course>208</course><type>1</type></trkpt>
      <trkpt lat="38.077816" lon="-7.324750"><ele>1473</ele><speed>65.23</speed><time>2017-07-01T17:00:04Z</time><course>234</course><type>1</type></trkpt>
      <trkpt lat="38.077816" lon="-7.325250"><ele>1479</ele><speed>31.55</speed><time>2017-07-01T17:00:09Z</time><course>8</course><type>1</type></trkpt>
      <trkpt lat="38.077415" lon="-7.324966"><ele>1481</ele><speed>36.8</speed><time>2017-07-01T17:00:14Z</time><course>192</course><type>1</type></trkpt>
      <trkpt lat="38.076866" lon="-7.325600"><ele>1484</ele><speed>59.47</speed><time>2017-07-01T17:00:19Z</time><course>238</course><type>1</type></trkpt>
      <trkpt lat="38.076817" lon="-7.326383"><ele>1489</ele><speed>49.56</speed><time>2017-07-01T17:00:24Z</time><course>288</course><type>1</type></trkpt>
      <trkpt lat="38.077034" lon="-7.326433"><ele>1497</ele><speed>17.68</speed><time>2017-07-01T17:00:29Z</time><course>34</course><type>1</type></trkpt>
      <trkpt lat="38.076248" lon="-7.326684"><ele>1505</ele><speed>32.48</speed><time>2017-07-01T17:00:39Z</time><course>266</course><type>1</type></trkpt>
      <trkpt lat="38.076435" lon="-7.326883"><ele>1512</ele><speed>19.55</speed><time>2017-07-01T17:00:44Z</time><course>74</course><type>1</type></trkpt>
      <trkpt lat="38.076050" lon="-7.326684"><ele>1515</ele><speed>33.31</speed><time>2017-07-01T17:00:49Z</time><course>180</course><type>1</type></trkpt>
      <trkpt lat="38.075485" lon="-7.327267"><ele>1520</ele><speed>58.34</speed><time>2017-07-01T17:00:54Z</time><course>244</course><type>1</type></trkpt>
      <trkpt lat="38.075565" lon="-7.327717"><ele>1524</ele><speed>29.11</speed><time>2017-07-01T17:00:59Z</time><course>30</course><type>1</type></trkpt>
      <trkpt lat="38.075184" lon="-7.327450"><ele>1525</ele><speed>34.88</speed><time>2017-07-01T17:01:04Z</time><course>192</course><type>1</type></trkpt>
      <trkpt lat="38.074734" lon="-7.328117"><ele>1530</ele><speed>55.42</speed><time>2017-07-01T17:01:09Z</time><course>258</course><type>1</type></trkpt>
      <trkpt lat="38.074848" lon="-7.328633"><ele>1536</ele><speed>33.81</speed><time>2017-07-01T17:01:14Z</time><course>298</course><type>1</type></trkpt>
      <trkpt lat="38.074902" lon="-7.328550"><ele>1535</ele><speed>6.79</speed><time>2017-07-01T17:01:19Z</time><course>122</course><type>1</type></trkpt>
      <trkpt lat="38.074318" lon="-7.328667"><ele>1537</ele><speed>47.39</speed><time>2017-07-01T17:01:24Z</time><course>220</course><type>1</type></trkpt>
      <trkpt lat="38.074165" lon="-7.329317"><ele>1539</ele><speed>42.81</speed><time>2017-07-01T17:01:29Z</time><course>306</course><type>1</type></trkpt>
      <trkpt lat="38.074085" lon="-7.329100"><ele>1537</ele><speed>15.12</speed><time>2017-07-01T17:01:34Z</time><course>162</course><type>1</type></trkpt>
      <trkpt lat="38.073502" lon="-7.329484"><ele>1538</ele><speed>52.64</speed><time>2017-07-01T17:01:39Z</time><course>232</course><type>1</type></trkpt>
      <trkpt lat="38.073349" lon="-7.330200"><ele>1541</ele><speed>46.81</speed><time>2017-07-01T17:01:44Z</time><course>288</course><type>1</type></trkpt>
      <trkpt lat="38.073566" lon="-7.330200"><ele>1542</ele><speed>17.39</speed><time>2017-07-01T17:01:49Z</time><course>14</course><type>1</type></trkpt>
      <trkpt lat="38.073566" lon="-7.330067"><ele>1540</ele><speed>8.39</speed><time>2017-07-01T17:01:54Z</time><course>136</course><type>1</type></trkpt>
      <trkpt lat="38.073002" lon="-7.330417"><ele>1536</ele><speed>50.31</speed><time>2017-07-01T17:01:59Z</time><course>250</course><type>1</type></trkpt>
      <trkpt lat="38.073101" lon="-7.330966"><ele>1537</ele><speed>35.54</speed><time>2017-07-01T17:02:04Z</time><course>320</course><type>1</type></trkpt>
      <trkpt lat="38.073151" lon="-7.330817"><ele>1535</ele><speed>10.22</speed><time>2017-07-01T17:02:09Z</time><course>114</course><type>1</type></trkpt>
      <trkpt lat="38.072632" lon="-7.330733"><ele>1527</ele><speed>41.93</speed><time>2017-07-01T17:02:14Z</time><course>198</course><type>1</type></trkpt>
      <trkpt lat="38.072117" lon="-7.331400"><ele>1530</ele><speed>58.95</speed><time>2017-07-01T17:02:19Z</time><course>248</course><type>1</type></trkpt>
      <trkpt lat="38.072216" lon="-7.332100"><ele>1528</ele><speed>44.87</speed><time>2017-07-01T17:02:24Z</time><course>310</course><type>1</type></trkpt>
      <trkpt lat="38.072151" lon="-7.331883"><ele>1521</ele><speed>14.65</speed><time>2017-07-01T17:02:29Z</time><course>158</course><type>1</type></trkpt>
      <trkpt lat="38.071484" lon="-7.332217"><ele>1521</ele><speed>57.46</speed><time>2017-07-01T17:02:34Z</time><course>216</course><type>1</type></trkpt>
      <trkpt lat="38.071068" lon="-7.332933"><ele>1521</ele><speed>56.15</speed><time>2017-07-01T17:02:39Z</time><course>254</course><type>1</type></trkpt>
      <trkpt lat="38.071217" lon="-7.333233"><ele>1515</ele><speed>22.38</speed><time>2017-07-01T17:02:44Z</time><course>64</course><type>1</type></trkpt>
      <trkpt lat="38.070766" lon="-7.333100"><ele>1512</ele><speed>37.11</speed><time>2017-07-01T17:02:49Z</time><course>196</course><type>1</type></trkpt>
      <trkpt lat="38.070148" lon="-7.333667"><ele>1511</ele><speed>61.1</speed><time>2017-07-01T17:02:54Z</time><course>220</course><type>1</type></trkpt>
      <trkpt lat="38.069801" lon="-7.334450"><ele>1508</ele><speed>56.7</speed><time>2017-07-01T17:02:59Z</time><course>276</course><type>1</type></trkpt>
      <trkpt lat="38.069832" lon="-7.334434"><ele>1501</ele><speed>2.68</speed><time>2017-07-01T17:03:04Z</time><course>150</course><type>1</type></trkpt>
      <trkpt lat="38.069149" lon="-7.334733"><ele>1497</ele><speed>57.9</speed><time>2017-07-01T17:03:09Z</time><course>224</course><type>1</type></trkpt>
      <trkpt lat="38.068565" lon="-7.335433"><ele>1495</ele><speed>64.36</speed><time>2017-07-01T17:03:14Z</time><course>218</course><type>1</type></trkpt>
      <trkpt lat="38.067383" lon="-7.337000"><ele>1484</ele><speed>68.47</speed><time>2017-07-01T17:03:24Z</time><course>226</course><type>1</type></trkpt>
      <trkpt lat="38.066833" lon="-7.337817"><ele>1480</ele><speed>67.83</speed><time>2017-07-01T17:03:29Z</time><course>230</course><type>1</type></trkpt>
      <trkpt lat="38.066319" lon="-7.338600"><ele>1476</ele><speed>64.33</speed><time>2017-07-01T17:03:34Z</time><course>228</course><type>1</type></trkpt>
      <trkpt lat="38.065750" lon="-7.339383"><ele>1473</ele><speed>67.24</speed><time>2017-07-01T17:03:39Z</time><course>226</course><type>1</type></trkpt>
      <trkpt lat="38.065182" lon="-7.340150"><ele>1472</ele><speed>66.45</speed><time>2017-07-01T17:03:44Z</time><course>228</course><type>1</type></trkpt>
      <trkpt lat="38.064602" lon="-7.340867"><ele>1470</ele><speed>64.87</speed><time>2017-07-01T17:03:49Z</time><course>220</course><type>1</type></trkpt>
      <trkpt lat="38.063965" lon="-7.341617"><ele>1471</ele><speed>69.62</speed><time>2017-07-01T17:03:54Z</time><course>222</course><type>1</type></trkpt>
      <trkpt lat="38.063435" lon="-7.342433"><ele>1469</ele><speed>66.75</speed><time>2017-07-01T17:03:59Z</time><course>224</course><type>1</type></trkpt>
      <trkpt lat="38.062832" lon="-7.343217"><ele>1476</ele><speed>69.16</speed><time>2017-07-01T17:04:04Z</time><course>226</course><type>1</type></trkpt>
      <trkpt lat="38.062183" lon="-7.343966"><ele>1456</ele><speed>23.43</speed><time>2017-07-01T17:04:19Z</time><course>192</course><type>1</type></trkpt>
      <trkpt lat="38.061516" lon="-7.344117"><ele>1458</ele><speed>54.3</speed><time>2017-07-01T17:04:24Z</time><course>200</course><type>1</type></trkpt>
      <trkpt lat="38.061199" lon="-7.344950"><ele>1455</ele><speed>58.39</speed><time>2017-07-01T17:04:29Z</time><course>276</course><type>1</type></trkpt>
      <trkpt lat="38.061333" lon="-7.345117"><ele>1454</ele><speed>15.05</speed><time>2017-07-01T17:04:34Z</time><course>108</course><type>1</type></trkpt>
      <trkpt lat="38.060932" lon="-7.344934"><ele>1452</ele><speed>34.15</speed><time>2017-07-01T17:04:39Z</time><course>170</course><type>1</type></trkpt>
      <trkpt lat="38.060299" lon="-7.344883"><ele>1452</ele><speed>50.84</speed><time>2017-07-01T17:04:44Z</time><course>176</course><type>1</type></trkpt>
      <trkpt lat="38.060017" lon="-7.344750"><ele>1448</ele><speed>24.11</speed><time>2017-07-01T17:04:49Z</time><course>58</course><type>1</type></trkpt>
      <trkpt lat="38.060017" lon="-7.345517"><ele>1446</ele><speed>48.4</speed><time>2017-07-01T17:04:54Z</time><course>240</course><type>1</type></trkpt>
      <trkpt lat="38.059448" lon="-7.346317"><ele>1445</ele><speed>68.03</speed><time>2017-07-01T17:04:59Z</time><course>214</course><type>1</type></trkpt>
      <trkpt lat="38.058784" lon="-7.346983"><ele>1444</ele><speed>67.81</speed><time>2017-07-01T17:05:04Z</time><course>240</course><type>1</type></trkpt>
      <trkpt lat="38.058884" lon="-7.347550"><ele>1440</ele><speed>36.67</speed><time>2017-07-01T17:05:09Z</time><course>340</course><type>1</type></trkpt>
      <trkpt lat="38.058666" lon="-7.347417"><ele>1435</ele><speed>19.38</speed><time>2017-07-01T17:05:14Z</time><course>170</course><type>1</type></trkpt>
      <trkpt lat="38.057899" lon="-7.347867"><ele>1435</ele><speed>67.72</speed><time>2017-07-01T17:05:19Z</time><course>220</course><type>1</type></trkpt>
      <trkpt lat="38.057152" lon="-7.348700"><ele>1438</ele><speed>79.68</speed><time>2017-07-01T17:05:24Z</time><course>218</course><type>1</type></trkpt>
      <trkpt lat="38.056416" lon="-7.349283"><ele>1450</ele><speed>69.52</speed><time>2017-07-01T17:05:29Z</time><course>190</course><type>1</type></trkpt>
      <trkpt lat="38.056301" lon="-7.349233"><ele>1447</ele><speed>9.74</speed><time>2017-07-01T17:05:34Z</time><course>296</course><type>1</type></trkpt>
      <trkpt lat="38.056015" lon="-7.350200"><ele>1454</ele><speed>65.19</speed><time>2017-07-01T17:05:39Z</time><course>228</course><type>1</type></trkpt>
      <trkpt lat="38.055351" lon="-7.350567"><ele>1455</ele><speed>58.04</speed><time>2017-07-01T17:05:44Z</time><course>168</course><type>1</type></trkpt>
      <trkpt lat="38.055233" lon="-7.350483"><ele>1456</ele><speed>10.84</speed><time>2017-07-01T17:05:49Z</time><course>302</course><type>1</type></trkpt>
      <trkpt lat="38.055084" lon="-7.351333"><ele>1458</ele><speed>54.96</speed><time>2017-07-01T17:05:54Z</time><course>236</course><type>1</type></trkpt>
      <trkpt lat="38.054501" lon="-7.352133"><ele>1462</ele><speed>68.79</speed><time>2017-07-01T17:05:59Z</time><course>216</course><type>1</type></trkpt>
      <trkpt lat="38.053818" lon="-7.352167"><ele>1456</ele><speed>54.78</speed><time>2017-07-01T17:06:04Z</time><course>156</course><type>1</type></trkpt>
      <trkpt lat="38.053516" lon="-7.351967"><ele>1459</ele><speed>27.3</speed><time>2017-07-01T17:06:09Z</time><course>140</course><type>1</type></trkpt>
      <trkpt lat="38.053017" lon="-7.351883"><ele>1461</ele><speed>40.34</speed><time>2017-07-01T17:06:14Z</time><course>196</course><type>1</type></trkpt>
      <trkpt lat="38.052616" lon="-7.352716"><ele>1462</ele><speed>61.62</speed><time>2017-07-01T17:06:19Z</time><course>276</course><type>1</type></trkpt>
      <trkpt lat="38.052700" lon="-7.352800"><ele>1461</ele><speed>8.57</speed><time>2017-07-01T17:06:24Z</time><course>124</course><type>1</type></trkpt>
      <trkpt lat="38.052319" lon="-7.352517"><ele>1467</ele><speed>35.38</speed><time>2017-07-01T17:06:29Z</time><course>118</course><type>1</type></trkpt>
      <trkpt lat="38.052399" lon="-7.353150"><ele>1466</ele><speed>40.46</speed><time>2017-07-01T17:06:34Z</time><course>248</course><type>1</type></trkpt>
      <trkpt lat="38.051785" lon="-7.353683"><ele>1472</ele><speed>59.61</speed><time>2017-07-01T17:06:39Z</time><course>180</course><type>1</type></trkpt>
      <trkpt lat="38.051498" lon="-7.353433"><ele>1477</ele><speed>27.89</speed><time>2017-07-01T17:06:44Z</time><course>110</course><type>1</type></trkpt>
      <trkpt lat="38.051582" lon="-7.353683"><ele>1480</ele><speed>17.16</speed><time>2017-07-01T17:06:49Z</time><course>274</course><type>1</type></trkpt>
      <trkpt lat="38.051067" lon="-7.354434"><ele>1482</ele><speed>62.85</speed><time>2017-07-01T17:06:54Z</time><course>196</course><type>1</type></trkpt>
      <trkpt lat="38.050549" lon="-7.354383"><ele>1485</ele><speed>41.64</speed><time>2017-07-01T17:06:59Z</time><course>138</course><type>1</type></trkpt>
      <trkpt lat="38.050518" lon="-7.354300"><ele>1489</ele><speed>5.8</speed><time>2017-07-01T17:07:04Z</time><course>282</course><type>1</type></trkpt>
      <trkpt lat="38.050350" lon="-7.355083"><ele>1484</ele><speed>51.22</speed><time>2017-07-01T17:07:09Z</time><course>234</course><type>1</type></trkpt>
      <trkpt lat="38.049232" lon="-7.355417"><ele>1480</ele><speed>46.03</speed><time>2017-07-01T17:07:19Z</time><course>114</course><type>1</type></trkpt>
      <trkpt lat="38.049267" lon="-7.355484"><ele>1484</ele><speed>5.07</speed><time>2017-07-01T17:07:24Z</time><course>300</course><type>1</type></trkpt>
      <trkpt lat="38.049385" lon="-7.355617"><ele>1483</ele><speed>12.65</speed><time>2017-07-01T17:07:29Z</time><course>290</course><type>1</type></trkpt>
      <trkpt lat="38.049183" lon="-7.356467"><ele>1484</ele><speed>56.04</speed><time>2017-07-01T17:07:34Z</time><course>234</course><type>1</type></trkpt>
      <trkpt lat="38.049000" lon="-7.357217"><ele>1482</ele><speed>49.56</speed><time>2017-07-01T17:07:39Z</time><course>308</course><type>1</type></trkpt>
      <trkpt lat="38.048782" lon="-7.357033"><ele>1475</ele><speed>20.98</speed><time>2017-07-01T17:07:44Z</time><course>176</course><type>1</type></trkpt>
      <trkpt lat="38.048016" lon="-7.357267"><ele>1476</ele><speed>63.15</speed><time>2017-07-01T17:07:49Z</time><course>200</course><type>1</type></trkpt>
      <trkpt lat="38.047184" lon="-7.357767"><ele>1475</ele><speed>73.78</speed><time>2017-07-01T17:07:54Z</time><course>208</course><type>1</type></trkpt>
      <trkpt lat="38.046867" lon="-7.358600"><ele>1471</ele><speed>58.39</speed><time>2017-07-01T17:07:59Z</time><course>284</course><type>1</type></trkpt>
      <trkpt lat="38.046665" lon="-7.358550"><ele>1467</ele><speed>16.5</speed><time>2017-07-01T17:08:04Z</time><course>172</course><type>1</type></trkpt>
      <trkpt lat="38.045067" lon="-7.359350"><ele>1468</ele><speed>68.84</speed><time>2017-07-01T17:08:14Z</time><course>208</course><type>1</type></trkpt>
      <trkpt lat="38.044285" lon="-7.359833"><ele>1470</ele><speed>69.7</speed><time>2017-07-01T17:08:19Z</time><course>208</course><type>1</type></trkpt>
      <trkpt lat="38.043484" lon="-7.360350"><ele>1476</ele><speed>72.02</speed><time>2017-07-01T17:08:24Z</time><course>202</course><type>1</type></trkpt>
      <trkpt lat="38.042965" lon="-7.360350"><ele>1477</ele><speed>41.6</speed><time>2017-07-01T17:08:29Z</time><course>148</course><type>1</type></trkpt>
      <trkpt lat="38.043118" lon="-7.360600"><ele>1474</ele><speed>19.99</speed><time>2017-07-01T17:08:34Z</time><course>290</course><type>1</type></trkpt>
      <trkpt lat="38.043201" lon="-7.361233"><ele>1482</ele><speed>40.51</speed><time>2017-07-01T17:08:39Z</time><course>262</course><type>1</type></trkpt>
      <trkpt lat="38.042599" lon="-7.362050"><ele>1479</ele><speed>70.62</speed><time>2017-07-01T17:08:44Z</time><course>200</course><type>1</type></trkpt>
      <trkpt lat="38.042233" lon="-7.361967"><ele>1483</ele><speed>29.8</speed><time>2017-07-01T17:08:49Z</time><course>100</course><type>1</type></trkpt>
      <trkpt lat="38.042316" lon="-7.362417"><ele>1491</ele><speed>29.17</speed><time>2017-07-01T17:08:54Z</time><course>264</course><type>1</type></trkpt>
      <trkpt lat="38.041351" lon="-7.364183"><ele>1481</ele><speed>67.84</speed><time>2017-07-01T17:09:04Z</time><course>224</course><type>1</type></trkpt>
      <trkpt lat="38.040768" lon="-7.364367"><ele>1479</ele><speed>48.15</speed><time>2017-07-01T17:09:09Z</time><course>134</course><type>1</type></trkpt>
      <trkpt lat="38.040852" lon="-7.364617"><ele>1482</ele><speed>17.16</speed><time>2017-07-01T17:09:14Z</time><course>270</course><type>1</type></trkpt>
      <trkpt lat="38.040482" lon="-7.365483"><ele>1482</ele><speed>62.19</speed><time>2017-07-01T17:09:19Z</time><course>228</course><type>1</type></trkpt>
      <trkpt lat="38.039867" lon="-7.366183"><ele>1480</ele><speed>66.2</speed><time>2017-07-01T17:09:24Z</time><course>210</course><type>1</type></trkpt>
      <trkpt lat="38.039101" lon="-7.366766"><ele>1476</ele><speed>71.58</speed><time>2017-07-01T17:09:29Z</time><course>208</course><type>1</type></trkpt>
      <trkpt lat="38.038433" lon="-7.367133"><ele>1475</ele><speed>58.34</speed><time>2017-07-01T17:09:34Z</time><course>196</course><type>1</type></trkpt>
      <trkpt lat="38.037682" lon="-7.367683"><ele>1464</ele><speed>69.49</speed><time>2017-07-01T17:09:39Z</time><course>214</course><type>1</type></trkpt>
      <trkpt lat="38.036968" lon="-7.368250"><ele>1463</ele><speed>67.5</speed><time>2017-07-01T17:09:44Z</time><course>208</course><type>1</type></trkpt>
      <trkpt lat="38.036251" lon="-7.368817"><ele>1462</ele><speed>67.7</speed><time>2017-07-01T17:09:49Z</time><course>212</course><type>1</type></trkpt>
      <trkpt lat="38.034950" lon="-7.369916"><ele>1445</ele><speed>62.62</speed><time>2017-07-01T17:09:59Z</time><course>214</course><type>1</type></trkpt>
      <trkpt lat="38.034317" lon="-7.370633"><ele>1435</ele><speed>67.99</speed><time>2017-07-01T17:10:04Z</time><course>216</course><type>1</type></trkpt>
      <trkpt lat="38.033600" lon="-7.371300"><ele>1422</ele><speed>71.24</speed><time>2017-07-01T17:10:09Z</time><course>216</course><type>1</type></trkpt>
      <trkpt lat="38.032848" lon="-7.371967"><ele>1406</ele><speed>73.52</speed><time>2017-07-01T17:10:14Z</time><course>212</course><type>1</type></trkpt>
      <trkpt lat="38.032082" lon="-7.372533"><ele>1398</ele><speed>71.04</speed><time>2017-07-01T17:10:19Z</time><course>208</course><type>1</type></trkpt>
      <trkpt lat="38.031284" lon="-7.373050"><ele>1395</ele><speed>71.81</speed><time>2017-07-01T17:10:24Z</time><course>206</course><type>1</type></trkpt>
      <trkpt lat="38.030567" lon="-7.373500"><ele>1394</ele><speed>64.11</speed><time>2017-07-01T17:10:29Z</time><course>204</course><type>1</type></trkpt>
      <trkpt lat="38.029884" lon="-7.373950"><ele>1396</ele><speed>61.68</speed><time>2017-07-01T17:10:34Z</time><course>210</course><type>1</type></trkpt>
      <trkpt lat="38.029083" lon="-7.374467"><ele>1383</ele><speed>72.02</speed><time>2017-07-01T17:10:39Z</time><course>204</course><type>1</type></trkpt>
      <trkpt lat="38.028301" lon="-7.374933"><ele>1382</ele><speed>69.24</speed><time>2017-07-01T17:10:44Z</time><course>204</course><type>1</type></trkpt>
      <trkpt lat="38.026783" lon="-7.375867"><ele>1363</ele><speed>67.6</speed><time>2017-07-01T17:10:54Z</time><course>206</course><type>1</type></trkpt>
      <trkpt lat="38.025917" lon="-7.376417"><ele>1342</ele><speed>77.61</speed><time>2017-07-01T17:10:59Z</time><course>206</course><type>1</type></trkpt>
      <trkpt lat="38.025002" lon="-7.376950"><ele>1328</ele><speed>80.69</speed><time>2017-07-01T17:11:04Z</time><course>202</course><type>1</type></trkpt>
      <trkpt lat="38.024117" lon="-7.377417"><ele>1320</ele><speed>76.82</speed><time>2017-07-01T17:11:09Z</time><course>202</course><type>1</type></trkpt>
      <trkpt lat="38.023285" lon="-7.377883"><ele>1322</ele><speed>72.89</speed><time>2017-07-01T17:11:14Z</time><course>208</course><type>1</type></trkpt>
      <trkpt lat="38.022449" lon="-7.378417"><ele>1318</ele><speed>75.01</speed><time>2017-07-01T17:11:19Z</time><course>204</course><type>1</type></trkpt>
      <trkpt lat="38.021599" lon="-7.378950"><ele>1313</ele><speed>75.99</speed><time>2017-07-01T17:11:24Z</time><course>202</course><type>1</type></trkpt>
      <trkpt lat="38.020733" lon="-7.379350"><ele>1310</ele><speed>73.86</speed><time>2017-07-01T17:11:29Z</time><course>196</course><type>1</type></trkpt>
      <trkpt lat="38.019951" lon="-7.379667"><ele>1300</ele><speed>65.8</speed><time>2017-07-01T17:11:34Z</time><course>200</course><type>1</type></trkpt>
      <trkpt lat="38.018349" lon="-7.380617"><ele>1273</ele><speed>70.86</speed><time>2017-07-01T17:11:44Z</time><course>206</course><type>1</type></trkpt>
      <trkpt lat="38.017483" lon="-7.381134"><ele>1265</ele><speed>76.7</speed><time>2017-07-01T17:11:49Z</time><course>204</course><type>1</type></trkpt>
      <trkpt lat="38.016632" lon="-7.381667"><ele>1252</ele><speed>76.06</speed><time>2017-07-01T17:11:54Z</time><course>210</course><type>1</type></trkpt>
      <trkpt lat="38.015785" lon="-7.382184"><ele>1240</ele><speed>75.33</speed><time>2017-07-01T17:11:59Z</time><course>206</course><type>1</type></trkpt>
      <trkpt lat="38.014999" lon="-7.382667"><ele>1228</ele><speed>69.99</speed><time>2017-07-01T17:12:04Z</time><course>204</course><type>1</type></trkpt>
      <trkpt lat="38.014183" lon="-7.383183"><ele>1212</ele><speed>73.07</speed><time>2017-07-01T17:12:09Z</time><course>206</course><type>1</type></trkpt>
      <trkpt lat="38.013451" lon="-7.383683"><ele>1202</ele><speed>66.63</speed><time>2017-07-01T17:12:14Z</time><course>204</course><type>1</type></trkpt>
      <trkpt lat="38.012615" lon="-7.384183"><ele>1193</ele><speed>74.07</speed><time>2017-07-01T17:12:19Z</time><course>206</course><type>1</type></trkpt>
      <trkpt lat="38.011784" lon="-7.384683"><ele>1182</ele><speed>73.71</speed><time>2017-07-01T17:12:24Z</time><course>206</course><type>1</type></trkpt>
      <trkpt lat="38.010933" lon="-7.385183"><ele>1171</ele><speed>75.16</speed><time>2017-07-01T17:12:29Z</time><course>200</course><type>1</type></trkpt>
      <trkpt lat="38.009182" lon="-7.386117"><ele>1139</ele><speed>76.12</speed><time>2017-07-01T17:12:39Z</time><course>202</course><type>1</type></trkpt>
      <trkpt lat="38.008316" lon="-7.386550"><ele>1119</ele><speed>74.6</speed><time>2017-07-01T17:12:44Z</time><course>202</course><type>1</type></trkpt>
      <trkpt lat="38.007435" lon="-7.387050"><ele>1091</ele><speed>77.35</speed><time>2017-07-01T17:12:49Z</time><course>204</course><type>1</type></trkpt>
      <trkpt lat="38.006535" lon="-7.387516"><ele>1068</ele><speed>77.91</speed><time>2017-07-01T17:12:54Z</time><course>198</course><type>1</type></trkpt>
      <trkpt lat="38.005516" lon="-7.388033"><ele>1046</ele><speed>87.96</speed><time>2017-07-01T17:12:59Z</time><course>202</course><type>1</type></trkpt>
      <trkpt lat="38.004532" lon="-7.388517"><ele>1023</ele><speed>84.58</speed><time>2017-07-01T17:13:04Z</time><course>200</course><type>1</type></trkpt>
      <trkpt lat="38.003502" lon="-7.389000"><ele>1003</ele><speed>88.01</speed><time>2017-07-01T17:13:09Z</time><course>198</course><type>1</type></trkpt>
      <trkpt lat="38.002583" lon="-7.389350"><ele>985</ele><speed>76.9</speed><time>2017-07-01T17:13:14Z</time><course>200</course><type>1</type></trkpt>
      <trkpt lat="38.001617" lon="-7.389800"><ele>970</ele><speed>82.48</speed><time>2017-07-01T17:13:19Z</time><course>200</course><type>1</type></trkpt>
      <trkpt lat="38.000618" lon="-7.390350"><ele>959</ele><speed>87.28</speed><time>2017-07-01T17:13:24Z</time><course>204</course><type>1</type></trkpt>
      <trkpt lat="37.998917" lon="-7.391383"><ele>941</ele><speed>75.57</speed><time>2017-07-01T17:13:34Z</time><course>200</course><type>1</type></trkpt>
      <trkpt lat="37.998032" lon="-7.391900"><ele>922</ele><speed>78.09</speed><time>2017-07-01T17:13:39Z</time><course>202</course><type>1</type></trkpt>
      <trkpt lat="37.997150" lon="-7.392400"><ele>913</ele><speed>77.43</speed><time>2017-07-01T17:13:44Z</time><course>208</course><type>1</type></trkpt>
      <trkpt lat="37.996384" lon="-7.392967"><ele>903</ele><speed>71.08</speed><time>2017-07-01T17:13:49Z</time><course>206</course><type>1</type></trkpt>
      <trkpt lat="37.995651" lon="-7.393583"><ele>902</ele><speed>70.47</speed><time>2017-07-01T17:13:54Z</time><course>224</course><type>1</type></trkpt>
      <trkpt lat="37.995533" lon="-7.394117"><ele>896</ele><speed>35.03</speed><time>2017-07-01T17:13:59Z</time><course>298</course><type>1</type></trkpt>
      <trkpt lat="37.995132" lon="-7.393833"><ele>890</ele><speed>36.81</speed><time>2017-07-01T17:14:04Z</time><course>178</course><type>1</type></trkpt>
      <trkpt lat="37.994301" lon="-7.394200"><ele>887</ele><speed>70.52</speed><time>2017-07-01T17:14:09Z</time><course>202</course><type>1</type></trkpt>
      <trkpt lat="37.993382" lon="-7.394617"><ele>883</ele><speed>78.23</speed><time>2017-07-01T17:14:14Z</time><course>198</course><type>1</type></trkpt>
      <trkpt lat="37.991734" lon="-7.395700"><ele>874</ele><speed>74.38</speed><time>2017-07-01T17:14:24Z</time><course>204</course><type>1</type></trkpt>
      <trkpt lat="37.990898" lon="-7.396167"><ele>868</ele><speed>73.21</speed><time>2017-07-01T17:14:29Z</time><course>206</course><type>1</type></trkpt>
      <trkpt lat="37.990032" lon="-7.396800"><ele>857</ele><speed>80.1</speed><time>2017-07-01T17:14:34Z</time><course>210</course><type>1</type></trkpt>
      <trkpt lat="37.989368" lon="-7.397383"><ele>855</ele><speed>64.72</speed><time>2017-07-01T17:14:39Z</time><course>214</course><type>1</type></trkpt>
      <trkpt lat="37.988701" lon="-7.398050"><ele>839</ele><speed>68.07</speed><time>2017-07-01T17:14:44Z</time><course>206</course><type>1</type></trkpt>
      <trkpt lat="37.988232" lon="-7.397917"><ele>831</ele><speed>38.52</speed><time>2017-07-01T17:14:49Z</time><course>138</course><type>1</type></trkpt>
      <trkpt lat="37.987751" lon="-7.397700"><ele>827</ele><speed>40.92</speed><time>2017-07-01T17:14:54Z</time><course>172</course><type>1</type></trkpt>
      <trkpt lat="37.986935" lon="-7.397950"><ele>814</ele><speed>67.28</speed><time>2017-07-01T17:14:59Z</time><course>198</course><type>1</type></trkpt>
      <trkpt lat="37.986099" lon="-7.398450"><ele>798</ele><speed>74.08</speed><time>2017-07-01T17:15:04Z</time><course>210</course><type>1</type></trkpt>
      <trkpt lat="37.984699" lon="-7.399683"><ele>766</ele><speed>68.3</speed><time>2017-07-01T17:15:14Z</time><course>216</course><type>1</type></trkpt>
      <trkpt lat="37.984001" lon="-7.400350"><ele>752</ele><speed>70.04</speed><time>2017-07-01T17:15:19Z</time><course>218</course><type>1</type></trkpt>
      <trkpt lat="37.983383" lon="-7.401217"><ele>736</ele><speed>73.85</speed><time>2017-07-01T17:15:24Z</time><course>228</course><type>1</type></trkpt>
      <trkpt lat="37.982918" lon="-7.402133"><ele>730</ele><speed>68.83</speed><time>2017-07-01T17:15:29Z</time><course>240</course><type>1</type></trkpt>
      <trkpt lat="37.982433" lon="-7.403050"><ele>721</ele><speed>69.76</speed><time>2017-07-01T17:15:34Z</time><course>236</course><type>1</type></trkpt>
      <trkpt lat="37.981949" lon="-7.404000"><ele>714</ele><speed>71.46</speed><time>2017-07-01T17:15:39Z</time><course>236</course><type>1</type></trkpt>
      <trkpt lat="37.981449" lon="-7.404933"><ele>710</ele><speed>71.28</speed><time>2017-07-01T17:15:44Z</time><course>230</course><type>1</type></trkpt>
      <trkpt lat="37.980984" lon="-7.405766"><ele>716</ele><speed>64.49</speed><time>2017-07-01T17:15:49Z</time><course>246</course><type>1</type></trkpt>
      <trkpt lat="37.981033" lon="-7.406200"><ele>721</ele><speed>27.7</speed><time>2017-07-01T17:15:54Z</time><course>30</course><type>1</type></trkpt>
      <trkpt lat="37.980415" lon="-7.406483"><ele>719</ele><speed>52.66</speed><time>2017-07-01T17:15:59Z</time><course>240</course><type>1</type></trkpt>
      <trkpt lat="37.972065" lon="-7.415133"><ele>1085</ele><speed>30.86</speed><time>2017-07-01T17:18:19Z</time><course>252</course><type>1</type></trkpt>
      <trkpt lat="37.972168" lon="-7.415467"><ele>1098</ele><speed>22.66</speed><time>2017-07-01T17:18:24Z</time><course>4</course><type>1</type></trkpt>
      <trkpt lat="37.971901" lon="-7.415233"><ele>1107</ele><speed>26.01</speed><time>2017-07-01T17:18:29Z</time><course>192</course><type>1</type></trkpt>
      <trkpt lat="37.971767" lon="-7.415983"><ele>1110</ele><speed>48.59</speed><time>2017-07-01T17:18:34Z</time><course>318</course><type>1</type></trkpt>
      <trkpt lat="37.971733" lon="-7.415817"><ele>1121</ele><speed>10.84</speed><time>2017-07-01T17:18:39Z</time><course>146</course><type>1</type></trkpt>
      <trkpt lat="37.971134" lon="-7.416167"><ele>1123</ele><speed>52.86</speed><time>2017-07-01T17:18:44Z</time><course>236</course><type>1</type></trkpt>
      <trkpt lat="37.971050" lon="-7.416850"><ele>1132</ele><speed>43.68</speed><time>2017-07-01T17:18:49Z</time><course>290</course><type>1</type></trkpt>
      <trkpt lat="37.971333" lon="-7.417000"><ele>1139</ele><speed>24.58</speed><time>2017-07-01T17:18:54Z</time><course>342</course><type>1</type></trkpt>
      <trkpt lat="37.971249" lon="-7.416833"><ele>1144</ele><speed>12.52</speed><time>2017-07-01T17:18:59Z</time><course>160</course><type>1</type></trkpt>
      <trkpt lat="37.970615" lon="-7.417167"><ele>1144</ele><speed>55.02</speed><time>2017-07-01T17:19:04Z</time><course>224</course><type>1</type></trkpt>
      <trkpt lat="37.970451" lon="-7.418000"><ele>1149</ele><speed>54.25</speed><time>2017-07-01T17:19:09Z</time><course>282</course><type>1</type></trkpt>
      <trkpt lat="37.970650" lon="-7.418633"><ele>1160</ele><speed>43.06</speed><time>2017-07-01T17:19:14Z</time><course>282</course><type>1</type></trkpt>
      <trkpt lat="37.970585" lon="-7.418533"><ele>1161</ele><speed>8.19</speed><time>2017-07-01T17:19:19Z</time><course>158</course><type>1</type></trkpt>
      <trkpt lat="37.970016" lon="-7.419050"><ele>1163</ele><speed>56.1</speed><time>2017-07-01T17:19:24Z</time><course>244</course><type>1</type></trkpt>
      <trkpt lat="37.970016" lon="-7.419883"><ele>1169</ele><speed>52.63</speed><time>2017-07-01T17:19:29Z</time><course>282</course><type>1</type></trkpt>
      <trkpt lat="37.970066" lon="-7.419983"><ele>1170</ele><speed>7.48</speed><time>2017-07-01T17:19:34Z</time><course>132</course><type>1</type></trkpt>
      <trkpt lat="37.969418" lon="-7.420233"><ele>1175</ele><speed>54.29</speed><time>2017-07-01T17:19:39Z</time><course>226</course><type>1</type></trkpt>
      <trkpt lat="37.969284" lon="-7.421017"><ele>1181</ele><speed>50.69</speed><time>2017-07-01T17:19:44Z</time><course>292</course><type>1</type></trkpt>
      <trkpt lat="37.969284" lon="-7.421017"><ele>1186</ele><speed>0</speed><time>2017-07-01T17:19:49Z</time><course>146</course><type>1</type></trkpt>
      <trkpt lat="37.968616" lon="-7.421317"><ele>1187</ele><speed>56.8</speed><time>2017-07-01T17:19:54Z</time><course>226</course><type>1</type></trkpt>
      <trkpt lat="37.968449" lon="-7.422184"><ele>1193</ele><speed>56.39</speed><time>2017-07-01T17:19:59Z</time><course>274</course><type>1</type></trkpt>
      <trkpt lat="37.968567" lon="-7.422817"><ele>1200</ele><speed>41.1</speed><time>2017-07-01T17:20:04Z</time><course>302</course><type>1</type></trkpt>
      <trkpt lat="37.968384" lon="-7.422633"><ele>1203</ele><speed>18.72</speed><time>2017-07-01T17:20:09Z</time><course>166</course><type>1</type></trkpt>
      <trkpt lat="37.967682" lon="-7.423067"><ele>1209</ele><speed>62.59</speed><time>2017-07-01T17:20:14Z</time><course>226</course><type>1</type></trkpt>
      <trkpt lat="37.967434" lon="-7.423967"><ele>1216</ele><speed>60.24</speed><time>2017-07-01T17:20:19Z</time><course>272</course><type>1</type></trkpt>
      <trkpt lat="37.967567" lon="-7.424333"><ele>1222</ele><speed>25.47</speed><time>2017-07-01T17:20:24Z</time><course>0</course><type>1</type></trkpt>
      <trkpt lat="37.967068" lon="-7.424333"><ele>1229</ele><speed>39.99</speed><time>2017-07-01T17:20:29Z</time><course>206</course><type>1</type></trkpt>
      <trkpt lat="37.966633" lon="-7.425167"><ele>1236</ele><speed>63.19</speed><time>2017-07-01T17:20:34Z</time><course>258</course><type>1</type></trkpt>
      <trkpt lat="37.966732" lon="-7.425867"><ele>1243</ele><speed>44.94</speed><time>2017-07-01T17:20:39Z</time><course>300</course><type>1</type></trkpt>
      <trkpt lat="37.966583" lon="-7.425734"><ele>1249</ele><speed>14.6</speed><time>2017-07-01T17:20:44Z</time><course>172</course><type>1</type></trkpt>
      <trkpt lat="37.965984" lon="-7.426283"><ele>1254</ele><speed>59.23</speed><time>2017-07-01T17:20:49Z</time><course>248</course><type>1</type></trkpt>
      <trkpt lat="37.966049" lon="-7.426983"><ele>1262</ele><speed>44.54</speed><time>2017-07-01T17:20:54Z</time><course>306</course><type>1</type></trkpt>
      <trkpt lat="37.965900" lon="-7.426883"><ele>1267</ele><speed>13.51</speed><time>2017-07-01T17:20:59Z</time><course>166</course><type>1</type></trkpt>
      <trkpt lat="37.965233" lon="-7.427183"><ele>1277</ele><speed>56.72</speed><time>2017-07-01T17:21:04Z</time><course>220</course><type>1</type></trkpt>
      <trkpt lat="37.965050" lon="-7.428033"><ele>1282</ele><speed>55.68</speed><time>2017-07-01T17:21:09Z</time><course>290</course><type>1</type></trkpt>
      <trkpt lat="37.964550" lon="-7.428100"><ele>1296</ele><speed>20.15</speed><time>2017-07-01T17:21:19Z</time><course>204</course><type>1</type></trkpt>
      <trkpt lat="37.964149" lon="-7.428884"><ele>1303</ele><speed>59.05</speed><time>2017-07-01T17:21:24Z</time><course>262</course><type>1</type></trkpt>
      <trkpt lat="37.964233" lon="-7.429550"><ele>1311</ele><speed>42.62</speed><time>2017-07-01T17:21:29Z</time><course>300</course><type>1</type></trkpt>
      <trkpt lat="37.964149" lon="-7.429400"><ele>1314</ele><speed>11.63</speed><time>2017-07-01T17:21:34Z</time><course>158</course><type>1</type></trkpt>
      <trkpt lat="37.963501" lon="-7.429867"><ele>1321</ele><speed>59.74</speed><time>2017-07-01T17:21:39Z</time><course>236</course><type>1</type></trkpt>
      <trkpt lat="37.963516" lon="-7.430517"><ele>1327</ele><speed>41.09</speed><time>2017-07-01T17:21:44Z</time><course>312</course><type>1</type></trkpt>
      <trkpt lat="37.963383" lon="-7.430316"><ele>1333</ele><speed>16.58</speed><time>2017-07-01T17:21:49Z</time><course>164</course><type>1</type></trkpt>
      <trkpt lat="37.962700" lon="-7.430733"><ele>1341</ele><speed>60.75</speed><time>2017-07-01T17:21:54Z</time><course>226</course><type>1</type></trkpt>
      <trkpt lat="37.962582" lon="-7.431517"><ele>1346</ele><speed>50.44</speed><time>2017-07-01T17:21:59Z</time><course>296</course><type>1</type></trkpt>
      <trkpt lat="37.962601" lon="-7.431400"><ele>1353</ele><speed>7.55</speed><time>2017-07-01T17:22:04Z</time><course>140</course><type>1</type></trkpt>
      <trkpt lat="37.961933" lon="-7.431517"><ele>1360</ele><speed>54.05</speed><time>2017-07-01T17:22:09Z</time><course>212</course><type>1</type></trkpt>
      <trkpt lat="37.961533" lon="-7.432283"><ele>1367</ele><speed>58.06</speed><time>2017-07-01T17:22:14Z</time><course>262</course><type>1</type></trkpt>
      <trkpt lat="37.961750" lon="-7.432850"><ele>1375</ele><speed>39.83</speed><time>2017-07-01T17:22:19Z</time><course>314</course><type>1</type></trkpt>
      <trkpt lat="37.961651" lon="-7.432617"><ele>1377</ele><speed>16.73</speed><time>2017-07-01T17:22:24Z</time><course>144</course><type>1</type></trkpt>
      <trkpt lat="37.960983" lon="-7.432800"><ele>1383</ele><speed>54.77</speed><time>2017-07-01T17:22:29Z</time><course>218</course><type>1</type></trkpt>
      <trkpt lat="37.960682" lon="-7.433683"><ele>1390</ele><speed>60.79</speed><time>2017-07-01T17:22:34Z</time><course>268</course><type>1</type></trkpt>
      <trkpt lat="37.960800" lon="-7.433850"><ele>1395</ele><speed>14.17</speed><time>2017-07-01T17:22:39Z</time><course>112</course><type>1</type></trkpt>
      <trkpt lat="37.960167" lon="-7.433867"><ele>1393</ele><speed>50.75</speed><time>2017-07-01T17:22:44Z</time><course>210</course><type>1</type></trkpt>
      <trkpt lat="37.959900" lon="-7.434683"><ele>1401</ele><speed>55.83</speed><time>2017-07-01T17:22:49Z</time><course>276</course><type>1</type></trkpt>
      <trkpt lat="37.960033" lon="-7.434883"><ele>1402</ele><speed>16.53</speed><time>2017-07-01T17:22:54Z</time><course>100</course><type>1</type></trkpt>
      <trkpt lat="37.959633" lon="-7.434633"><ele>1402</ele><speed>35.74</speed><time>2017-07-01T17:22:59Z</time><course>174</course><type>1</type></trkpt>
      <trkpt lat="37.958900" lon="-7.434933"><ele>1408</ele><speed>61.73</speed><time>2017-07-01T17:23:04Z</time><course>212</course><type>1</type></trkpt>
      <trkpt lat="37.958698" lon="-7.435750"><ele>1414</ele><speed>54.11</speed><time>2017-07-01T17:23:09Z</time><course>296</course><type>1</type></trkpt>
      <trkpt lat="37.958717" lon="-7.435567"><ele>1422</ele><speed>11.66</speed><time>2017-07-01T17:23:14Z</time><course>154</course><type>1</type></trkpt>
      <trkpt lat="37.958015" lon="-7.435767"><ele>1428</ele><speed>57.67</speed><time>2017-07-01T17:23:19Z</time><course>214</course><type>1</type></trkpt>
      <trkpt lat="37.957565" lon="-7.436584"><ele>1435</ele><speed>62.98</speed><time>2017-07-01T17:23:24Z</time><course>264</course><type>1</type></trkpt>
      <trkpt lat="37.957783" lon="-7.436917"><ele>1439</ele><speed>27.35</speed><time>2017-07-01T17:23:29Z</time><course>62</course><type>1</type></trkpt>
      <trkpt lat="37.957268" lon="-7.436783"><ele>1442</ele><speed>42.14</speed><time>2017-07-01T17:23:34Z</time><course>194</course><type>1</type></trkpt>
      <trkpt lat="37.956749" lon="-7.437500"><ele>1454</ele><speed>61.51</speed><time>2017-07-01T17:23:39Z</time><course>256</course><type>1</type></trkpt>
      <trkpt lat="37.956932" lon="-7.437967"><ele>1457</ele><speed>32.96</speed><time>2017-07-01T17:23:44Z</time><course>16</course><type>1</type></trkpt>
      <trkpt lat="37.956635" lon="-7.437683"><ele>1461</ele><speed>29.81</speed><time>2017-07-01T17:23:49Z</time><course>168</course><type>1</type></trkpt>
      <trkpt lat="37.955952" lon="-7.438017"><ele>1469</ele><speed>58.67</speed><time>2017-07-01T17:23:54Z</time><course>224</course><type>1</type></trkpt>
      <trkpt lat="37.955952" lon="-7.438750"><ele>1474</ele><speed>46.32</speed><time>2017-07-01T17:23:59Z</time><course>310</course><type>1</type></trkpt>
      <trkpt lat="37.955750" lon="-7.438533"><ele>1478</ele><speed>21.22</speed><time>2017-07-01T17:24:04Z</time><course>174</course><type>1</type></trkpt>
      <trkpt lat="37.955101" lon="-7.439000"><ele>1486</ele><speed>59.81</speed><time>2017-07-01T17:24:09Z</time><course>228</course><type>1</type></trkpt>
      <trkpt lat="37.955185" lon="-7.439734"><ele>1495</ele><speed>23.44</speed><time>2017-07-01T17:24:19Z</time><course>130</course><type>1</type></trkpt>
      <trkpt lat="37.954533" lon="-7.439867"><ele>1502</ele><speed>52.93</speed><time>2017-07-01T17:24:24Z</time><course>222</course><type>1</type></trkpt>
      <trkpt lat="37.954300" lon="-7.440683"><ele>1510</ele><speed>54.85</speed><time>2017-07-01T17:24:29Z</time><course>280</course><type>1</type></trkpt>
      <trkpt lat="37.954567" lon="-7.440866"><ele>1511</ele><speed>24.33</speed><time>2017-07-01T17:24:34Z</time><course>24</course><type>1</type></trkpt>
      <trkpt lat="37.954517" lon="-7.440700"><ele>1516</ele><speed>11.23</speed><time>2017-07-01T17:24:39Z</time><course>144</course><type>1</type></trkpt>
      <trkpt lat="37.953800" lon="-7.440700"><ele>1524</ele><speed>57.47</speed><time>2017-07-01T17:24:44Z</time><course>204</course><type>1</type></trkpt>
      <trkpt lat="37.953468" lon="-7.441517"><ele>1528</ele><speed>58.09</speed><time>2017-07-01T17:24:49Z</time><course>276</course><type>1</type></trkpt>
      <trkpt lat="37.953701" lon="-7.441867"><ele>1533</ele><speed>28.95</speed><time>2017-07-01T17:24:54Z</time><course>14</course><type>1</type></trkpt>
      <trkpt lat="37.953518" lon="-7.441583"><ele>1541</ele><speed>23.18</speed><time>2017-07-01T17:24:59Z</time><course>162</course><type>1</type></trkpt>
      <trkpt lat="37.952816" lon="-7.441833"><ele>1547</ele><speed>58.44</speed><time>2017-07-01T17:25:04Z</time><course>222</course><type>1</type></trkpt>
      <trkpt lat="37.952648" lon="-7.442650"><ele>1553</ele><speed>53.36</speed><time>2017-07-01T17:25:09Z</time><course>282</course><type>1</type></trkpt>
      <trkpt lat="37.952835" lon="-7.442867"><ele>1559</ele><speed>20.32</speed><time>2017-07-01T17:25:14Z</time><course>46</course><type>1</type></trkpt>
      <trkpt lat="37.952465" lon="-7.442600"><ele>1564</ele><speed>34.12</speed><time>2017-07-01T17:25:19Z</time><course>176</course><type>1</type></trkpt>
      <trkpt lat="37.951752" lon="-7.442934"><ele>1570</ele><speed>60.92</speed><time>2017-07-01T17:25:24Z</time><course>214</course><type>1</type></trkpt>
      <trkpt lat="37.951485" lon="-7.443717"><ele>1575</ele><speed>53.92</speed><time>2017-07-01T17:25:29Z</time><course>274</course><type>1</type></trkpt>
      <trkpt lat="37.951668" lon="-7.443833"><ele>1579</ele><speed>16.4</speed><time>2017-07-01T17:25:34Z</time><course>90</course><type>1</type></trkpt>
      <trkpt lat="37.951149" lon="-7.443617"><ele>1583</ele><speed>43.78</speed><time>2017-07-01T17:25:39Z</time><course>182</course><type>1</type></trkpt>
      <trkpt lat="37.950485" lon="-7.444050"><ele>1591</ele><speed>59.84</speed><time>2017-07-01T17:25:44Z</time><course>228</course><type>1</type></trkpt>
      <trkpt lat="37.950367" lon="-7.444883"><ele>1594</ele><speed>53.49</speed><time>2017-07-01T17:25:49Z</time><course>282</course><type>1</type></trkpt>
      <trkpt lat="37.950550" lon="-7.445050"><ele>1600</ele><speed>18.07</speed><time>2017-07-01T17:25:54Z</time><course>74</course><type>1</type></trkpt>
      <trkpt lat="37.950050" lon="-7.444900"><ele>1606</ele><speed>41.18</speed><time>2017-07-01T17:25:59Z</time><course>194</course><type>1</type></trkpt>
      <trkpt lat="37.949532" lon="-7.445600"><ele>1613</ele><speed>60.67</speed><time>2017-07-01T17:26:04Z</time><course>252</course><type>1</type></trkpt>
      <trkpt lat="37.949665" lon="-7.446100"><ele>1616</ele><speed>33.35</speed><time>2017-07-01T17:26:09Z</time><course>350</course><type>1</type></trkpt>
      <trkpt lat="37.949585" lon="-7.445850"><ele>1624</ele><speed>17.05</speed><time>2017-07-01T17:26:14Z</time><course>158</course><type>1</type></trkpt>
      <trkpt lat="37.948883" lon="-7.446067"><ele>1627</ele><speed>57.91</speed><time>2017-07-01T17:26:19Z</time><course>216</course><type>1</type></trkpt>
      <trkpt lat="37.948616" lon="-7.446917"><ele>1629</ele><speed>57.83</speed><time>2017-07-01T17:26:24Z</time><course>266</course><type>1</type></trkpt>
      <trkpt lat="37.948700" lon="-7.447550"><ele>1636</ele><speed>40.57</speed><time>2017-07-01T17:26:29Z</time><course>312</course><type>1</type></trkpt>
      <trkpt lat="37.948700" lon="-7.447367"><ele>1641</ele><speed>11.57</speed><time>2017-07-01T17:26:34Z</time><course>152</course><type>1</type></trkpt>
      <trkpt lat="37.948017" lon="-7.447484"><ele>1642</ele><speed>55.24</speed><time>2017-07-01T17:26:39Z</time><course>208</course><type>1</type></trkpt>
      <trkpt lat="37.947468" lon="-7.448200"><ele>1646</ele><speed>63.12</speed><time>2017-07-01T17:26:44Z</time><course>242</course><type>1</type></trkpt>
      <trkpt lat="37.947533" lon="-7.448884"><ele>1647</ele><speed>43.54</speed><time>2017-07-01T17:26:49Z</time><course>304</course><type>1</type></trkpt>
      <trkpt lat="37.947666" lon="-7.448916"><ele>1653</ele><speed>10.85</speed><time>2017-07-01T17:26:54Z</time><course>106</course><type>1</type></trkpt>
      <trkpt lat="37.947166" lon="-7.448767"><ele>1656</ele><speed>41.17</speed><time>2017-07-01T17:26:59Z</time><course>188</course><type>1</type></trkpt>
      <trkpt lat="37.946617" lon="-7.449367"><ele>1661</ele><speed>58.09</speed><time>2017-07-01T17:27:04Z</time><course>244</course><type>1</type></trkpt>
      <trkpt lat="37.946632" lon="-7.450233"><ele>1664</ele><speed>54.75</speed><time>2017-07-01T17:27:09Z</time><course>284</course><type>1</type></trkpt>
      <trkpt lat="37.946568" lon="-7.450233"><ele>1676</ele><speed>2.56</speed><time>2017-07-01T17:27:19Z</time><course>170</course><type>1</type></trkpt>
      <trkpt lat="37.945934" lon="-7.450634"><ele>1681</ele><speed>56.79</speed><time>2017-07-01T17:27:24Z</time><course>232</course><type>1</type></trkpt>
      <trkpt lat="37.945782" lon="-7.451517"><ele>1685</ele><speed>57.12</speed><time>2017-07-01T17:27:29Z</time><course>282</course><type>1</type></trkpt>
      <trkpt lat="37.945984" lon="-7.451700"><ele>1689</ele><speed>19.9</speed><time>2017-07-01T17:27:34Z</time><course>68</course><type>1</type></trkpt>
      <trkpt lat="37.945583" lon="-7.451517"><ele>1694</ele><speed>34.16</speed><time>2017-07-01T17:27:39Z</time><course>180</course><type>1</type></trkpt>
      <trkpt lat="37.944965" lon="-7.451933"><ele>1701</ele><speed>56.08</speed><time>2017-07-01T17:27:44Z</time><course>224</course><type>1</type></trkpt>
      <trkpt lat="37.944683" lon="-7.452783"><ele>1703</ele><speed>58.29</speed><time>2017-07-01T17:27:49Z</time><course>266</course><type>1</type></trkpt>
      <trkpt lat="37.944866" lon="-7.453317"><ele>1706</ele><speed>36.8</speed><time>2017-07-01T17:27:54Z</time><course>326</course><type>1</type></trkpt>
      <trkpt lat="37.944950" lon="-7.453250"><ele>1711</ele><speed>7.95</speed><time>2017-07-01T17:27:59Z</time><course>122</course><type>1</type></trkpt>
      <trkpt lat="37.944534" lon="-7.453050"><ele>1716</ele><speed>35.66</speed><time>2017-07-01T17:28:04Z</time><course>176</course><type>1</type></trkpt>
      <trkpt lat="37.943867" lon="-7.453317"><ele>1719</ele><speed>56.06</speed><time>2017-07-01T17:28:09Z</time><course>212</course><type>1</type></trkpt>
      <trkpt lat="37.943401" lon="-7.454067"><ele>1727</ele><speed>60.35</speed><time>2017-07-01T17:28:14Z</time><course>248</course><type>1</type></trkpt>
      <trkpt lat="37.943401" lon="-7.454834"><ele>1732</ele><speed>48.48</speed><time>2017-07-01T17:28:19Z</time><course>288</course><type>1</type></trkpt>
      <trkpt lat="37.943668" lon="-7.455067"><ele>1733</ele><speed>25.98</speed><time>2017-07-01T17:28:24Z</time><course>358</course><type>1</type></trkpt>
      <trkpt lat="37.943699" lon="-7.454883"><ele>1735</ele><speed>11.89</speed><time>2017-07-01T17:28:29Z</time><course>116</course><type>1</type></trkpt>
      <trkpt lat="37.943298" lon="-7.454650"><ele>1738</ele><speed>35.35</speed><time>2017-07-01T17:28:34Z</time><course>170</course><type>1</type></trkpt>
      <trkpt lat="37.942635" lon="-7.454850"><ele>1740</ele><speed>54.62</speed><time>2017-07-01T17:28:39Z</time><course>204</course><type>1</type></trkpt>
      <trkpt lat="37.942116" lon="-7.455534"><ele>1744</ele><speed>60</speed><time>2017-07-01T17:28:44Z</time><course>240</course><type>1</type></trkpt>
      <trkpt lat="37.942001" lon="-7.456383"><ele>1748</ele><speed>54.45</speed><time>2017-07-01T17:28:49Z</time><course>274</course><type>1</type></trkpt>
      <trkpt lat="37.942215" lon="-7.456950"><ele>1747</ele><speed>39.73</speed><time>2017-07-01T17:28:54Z</time><course>314</course><type>1</type></trkpt>
      <trkpt lat="37.942284" lon="-7.456850"><ele>1745</ele><speed>8.4</speed><time>2017-07-01T17:28:59Z</time><course>130</course><type>1</type></trkpt>
      <trkpt lat="37.941765" lon="-7.456767"><ele>1747</ele><speed>41.93</speed><time>2017-07-01T17:29:04Z</time><course>192</course><type>1</type></trkpt>
      <trkpt lat="37.941132" lon="-7.457183"><ele>1747</ele><speed>57.14</speed><time>2017-07-01T17:29:09Z</time><course>218</course><type>1</type></trkpt>
      <trkpt lat="37.940750" lon="-7.457967"><ele>1743</ele><speed>58.25</speed><time>2017-07-01T17:29:14Z</time><course>256</course><type>1</type></trkpt>
      <trkpt lat="37.940849" lon="-7.458633"><ele>1744</ele><speed>42.84</speed><time>2017-07-01T17:29:19Z</time><course>310</course><type>1</type></trkpt>
      <trkpt lat="37.941032" lon="-7.458617"><ele>1742</ele><speed>14.7</speed><time>2017-07-01T17:29:24Z</time><course>74</course><type>1</type></trkpt>
      <trkpt lat="37.940681" lon="-7.458416"><ele>1741</ele><speed>30.87</speed><time>2017-07-01T17:29:29Z</time><course>182</course><type>1</type></trkpt>
      <trkpt lat="37.940018" lon="-7.458683"><ele>1737</ele><speed>55.76</speed><time>2017-07-01T17:29:34Z</time><course>204</course><type>1</type></trkpt>
      <trkpt lat="37.939301" lon="-7.459133"><ele>1731</ele><speed>64.12</speed><time>2017-07-01T17:29:39Z</time><course>204</course><type>1</type></trkpt>
      <trkpt lat="37.938583" lon="-7.459533"><ele>1733</ele><speed>62.86</speed><time>2017-07-01T17:29:44Z</time><course>198</course><type>1</type></trkpt>
      <trkpt lat="37.938232" lon="-7.459350"><ele>1731</ele><speed>30.42</speed><time>2017-07-01T17:29:49Z</time><course>94</course><type>1</type></trkpt>
      <trkpt lat="37.938332" lon="-7.459816"><ele>1730</ele><speed>30.53</speed><time>2017-07-01T17:29:54Z</time><course>264</course><type>1</type></trkpt>
      <trkpt lat="37.937950" lon="-7.460600"><ele>1731</ele><speed>58.25</speed><time>2017-07-01T17:29:59Z</time><course>224</course><type>1</type></trkpt>
      <trkpt lat="37.937302" lon="-7.461267"><ele>1729</ele><speed>66.9</speed><time>2017-07-01T17:30:04Z</time><course>214</course><type>1</type></trkpt>
      <trkpt lat="37.936733" lon="-7.461833"><ele>1736</ele><speed>57.97</speed><time>2017-07-01T17:30:09Z</time><course>234</course><type>1</type></trkpt>
      <trkpt lat="37.936852" lon="-7.462500"><ele>1735</ele><speed>21.61</speed><time>2017-07-01T17:30:19Z</time><course>140</course><type>1</type></trkpt>
      <trkpt lat="37.936249" lon="-7.462383"><ele>1735</ele><speed>48.89</speed><time>2017-07-01T17:30:24Z</time><course>186</course><type>1</type></trkpt>
      <trkpt lat="37.935719" lon="-7.462983"><ele>1737</ele><speed>56.95</speed><time>2017-07-01T17:30:29Z</time><course>246</course><type>1</type></trkpt>
      <trkpt lat="37.935482" lon="-7.463867"><ele>1732</ele><speed>59.02</speed><time>2017-07-01T17:30:34Z</time><course>234</course><type>1</type></trkpt>
      <trkpt lat="37.934849" lon="-7.464450"><ele>1726</ele><speed>62.71</speed><time>2017-07-01T17:30:39Z</time><course>208</course><type>1</type></trkpt>
      <trkpt lat="37.934101" lon="-7.464950"><ele>1716</ele><speed>67.77</speed><time>2017-07-01T17:30:44Z</time><course>210</course><type>1</type></trkpt>
      <trkpt lat="37.933399" lon="-7.465466"><ele>1712</ele><speed>65.04</speed><time>2017-07-01T17:30:49Z</time><course>206</course><type>1</type></trkpt>
      <trkpt lat="37.932682" lon="-7.465917"><ele>1708</ele><speed>64.15</speed><time>2017-07-01T17:30:54Z</time><course>210</course><type>1</type></trkpt>
      <trkpt lat="37.931934" lon="-7.466434"><ele>1703</ele><speed>68.28</speed><time>2017-07-01T17:30:59Z</time><course>210</course><type>1</type></trkpt>
      <trkpt lat="37.931282" lon="-7.466800"><ele>1709</ele><speed>57.15</speed><time>2017-07-01T17:31:04Z</time><course>166</course><type>1</type></trkpt>
      <trkpt lat="37.931217" lon="-7.466850"><ele>1704</ele><speed>6.09</speed><time>2017-07-01T17:31:09Z</time><course>270</course><type>1</type></trkpt>
      <trkpt lat="37.931183" lon="-7.467667"><ele>1709</ele><speed>51.72</speed><time>2017-07-01T17:31:14Z</time><course>254</course><type>1</type></trkpt>
      <trkpt lat="37.931217" lon="-7.468283"><ele>1706</ele><speed>39.04</speed><time>2017-07-01T17:31:19Z</time><course>328</course><type>1</type></trkpt>
      <trkpt lat="37.931000" lon="-7.468083"><ele>1701</ele><speed>21.5</speed><time>2017-07-01T17:31:24Z</time><course>170</course><type>1</type></trkpt>
      <trkpt lat="37.930233" lon="-7.468083"><ele>1700</ele><speed>61.48</speed><time>2017-07-01T17:31:29Z</time><course>182</course><type>1</type></trkpt>
      <trkpt lat="37.929550" lon="-7.468033"><ele>1709</ele><speed>54.83</speed><time>2017-07-01T17:31:34Z</time><course>152</course><type>1</type></trkpt>
      <trkpt lat="37.929615" lon="-7.467950"><ele>1710</ele><speed>7.39</speed><time>2017-07-01T17:31:39Z</time><course>328</course><type>1</type></trkpt>
      <trkpt lat="37.929718" lon="-7.468300"><ele>1715</ele><speed>23.62</speed><time>2017-07-01T17:31:44Z</time><course>268</course><type>1</type></trkpt>
      <trkpt lat="37.929134" lon="-7.468933"><ele>1717</ele><speed>61.58</speed><time>2017-07-01T17:31:49Z</time><course>190</course><type>1</type></trkpt>
      <trkpt lat="37.928585" lon="-7.468750"><ele>1721</ele><speed>45.5</speed><time>2017-07-01T17:31:54Z</time><course>146</course><type>1</type></trkpt>
      <trkpt lat="37.928467" lon="-7.468517"><ele>1721</ele><speed>17.51</speed><time>2017-07-01T17:31:59Z</time><course>62</course><type>1</type></trkpt>
      <trkpt lat="37.928616" lon="-7.468667"><ele>1720</ele><speed>15.25</speed><time>2017-07-01T17:32:04Z</time><course>296</course><type>1</type></trkpt>
      <trkpt lat="37.928734" lon="-7.469100"><ele>1724</ele><speed>28.96</speed><time>2017-07-01T17:32:09Z</time><course>270</course><type>1</type></trkpt>
      <trkpt lat="37.928318" lon="-7.469950"><ele>1732</ele><speed>63.24</speed><time>2017-07-01T17:32:14Z</time><course>214</course><type>1</type></trkpt>
      <trkpt lat="37.927650" lon="-7.469950"><ele>1735</ele><speed>53.54</speed><time>2017-07-01T17:32:19Z</time><course>138</course><type>1</type></trkpt>
      <trkpt lat="37.927734" lon="-7.470033"><ele>1738</ele><speed>8.54</speed><time>2017-07-01T17:32:24Z</time><course>286</course><type>1</type></trkpt>
      <trkpt lat="37.927383" lon="-7.470800"><ele>1743</ele><speed>56.06</speed><time>2017-07-01T17:32:29Z</time><course>210</course><type>1</type></trkpt>
      <trkpt lat="37.926868" lon="-7.470683"><ele>1746</ele><speed>41.93</speed><time>2017-07-01T17:32:34Z</time><course>106</course><type>1</type></trkpt>
      <trkpt lat="37.926983" lon="-7.471000"><ele>1752</ele><speed>22.06</speed><time>2017-07-01T17:32:39Z</time><course>266</course><type>1</type></trkpt>
      <trkpt lat="37.926468" lon="-7.471684"><ele>1757</ele><speed>59.78</speed><time>2017-07-01T17:32:44Z</time><course>198</course><type>1</type></trkpt>
      <trkpt lat="37.925884" lon="-7.471600"><ele>1766</ele><speed>47.11</speed><time>2017-07-01T17:32:49Z</time><course>138</course><type>1</type></trkpt>
      <trkpt lat="37.925999" lon="-7.471800"><ele>1768</ele><speed>15.65</speed><time>2017-07-01T17:32:54Z</time><course>272</course><type>1</type></trkpt>
      <trkpt lat="37.925484" lon="-7.472533"><ele>1773</ele><speed>62.06</speed><time>2017-07-01T17:32:59Z</time><course>204</course><type>1</type></trkpt>
      <trkpt lat="37.924835" lon="-7.472434"><ele>1777</ele><speed>52.39</speed><time>2017-07-01T17:33:04Z</time><course>144</course><type>1</type></trkpt>
      <trkpt lat="37.924835" lon="-7.472333"><ele>1780</ele><speed>6.39</speed><time>2017-07-01T17:33:09Z</time><course>310</course><type>1</type></trkpt>
      <trkpt lat="37.923916" lon="-7.473333"><ele>1784</ele><speed>48.54</speed><time>2017-07-01T17:33:19Z</time><course>170</course><type>1</type></trkpt>
      <trkpt lat="37.923733" lon="-7.473117"><ele>1787</ele><speed>20.04</speed><time>2017-07-01T17:33:24Z</time><course>342</course><type>1</type></trkpt>
      <trkpt lat="37.923683" lon="-7.473834"><ele>1785</ele><speed>45.51</speed><time>2017-07-01T17:33:29Z</time><course>236</course><type>1</type></trkpt>
      <trkpt lat="37.923016" lon="-7.474250"><ele>1790</ele><speed>59.58</speed><time>2017-07-01T17:33:34Z</time><course>178</course><type>1</type></trkpt>
      <trkpt lat="37.922733" lon="-7.474000"><ele>1790</ele><speed>27.65</speed><time>2017-07-01T17:33:39Z</time><course>42</course><type>1</type></trkpt>
      <trkpt lat="37.922852" lon="-7.474517"><ele>1792</ele><speed>34.05</speed><time>2017-07-01T17:33:44Z</time><course>260</course><type>1</type></trkpt>
      <trkpt lat="37.922417" lon="-7.475234"><ele>1799</ele><speed>57.19</speed><time>2017-07-01T17:33:49Z</time><course>210</course><type>1</type></trkpt>
      <trkpt lat="37.921734" lon="-7.475283"><ele>1801</ele><speed>54.83</speed><time>2017-07-01T17:33:54Z</time><course>150</course><type>1</type></trkpt>
      <trkpt lat="37.921768" lon="-7.475150"><ele>1803</ele><speed>8.84</speed><time>2017-07-01T17:33:59Z</time><course>318</course><type>1</type></trkpt>
      <trkpt lat="37.921818" lon="-7.475800"><ele>1806</ele><speed>41.29</speed><time>2017-07-01T17:34:04Z</time><course>256</course><type>1</type></trkpt>
      <trkpt lat="37.921349" lon="-7.476533"><ele>1810</ele><speed>59.67</speed><time>2017-07-01T17:34:09Z</time><course>204</course><type>1</type></trkpt>
      <trkpt lat="37.920818" lon="-7.476450"><ele>1810</ele><speed>42.88</speed><time>2017-07-01T17:34:14Z</time><course>122</course><type>1</type></trkpt>
      <trkpt lat="37.920952" lon="-7.476600"><ele>1811</ele><speed>14.33</speed><time>2017-07-01T17:34:19Z</time><course>284</course><type>1</type></trkpt>
      <trkpt lat="37.920784" lon="-7.477400"><ele>1812</ele><speed>52.34</speed><time>2017-07-01T17:34:24Z</time><course>234</course><type>1</type></trkpt>
      <trkpt lat="37.920067" lon="-7.477967"><ele>1811</ele><speed>67.73</speed><time>2017-07-01T17:34:29Z</time><course>194</course><type>1</type></trkpt>
      <trkpt lat="37.919384" lon="-7.477950"><ele>1814</ele><speed>54.75</speed><time>2017-07-01T17:34:34Z</time><course>160</course><type>1</type></trkpt>
      <trkpt lat="37.919384" lon="-7.477883"><ele>1810</ele><speed>4.24</speed><time>2017-07-01T17:34:39Z</time><course>304</course><type>1</type></trkpt>
      <trkpt lat="37.919201" lon="-7.478667"><ele>1814</ele><speed>51.7</speed><time>2017-07-01T17:34:44Z</time><course>226</course><type>1</type></trkpt>
      <trkpt lat="37.918468" lon="-7.479217"><ele>1815</ele><speed>68.27</speed><time>2017-07-01T17:34:49Z</time><course>204</course><type>1</type></trkpt>
      <trkpt lat="37.917782" lon="-7.479283"><ele>1816</ele><speed>55.14</speed><time>2017-07-01T17:34:54Z</time><course>154</course><type>1</type></trkpt>
      <trkpt lat="37.917599" lon="-7.478983"><ele>1815</ele><speed>23.98</speed><time>2017-07-01T17:34:59Z</time><course>76</course><type>1</type></trkpt>
      <trkpt lat="37.917751" lon="-7.479167"><ele>1815</ele><speed>16.85</speed><time>2017-07-01T17:35:04Z</time><course>292</course><type>1</type></trkpt>
      <trkpt lat="37.917683" lon="-7.480017"><ele>1813</ele><speed>54.02</speed><time>2017-07-01T17:35:09Z</time><course>240</course><type>1</type></trkpt>
      <trkpt lat="37.917217" lon="-7.480783"><ele>1812</ele><speed>61.16</speed><time>2017-07-01T17:35:14Z</time><course>222</course><type>1</type></trkpt>
      <trkpt lat="37.916451" lon="-7.481283"><ele>1808</ele><speed>69.06</speed><time>2017-07-01T17:35:19Z</time><course>200</course><type>1</type></trkpt>
      <trkpt lat="37.915649" lon="-7.481650"><ele>1808</ele><speed>68.34</speed><time>2017-07-01T17:35:24Z</time><course>198</course><type>1</type></trkpt>
      <trkpt lat="37.914902" lon="-7.481983"><ele>1807</ele><speed>63.47</speed><time>2017-07-01T17:35:29Z</time><course>198</course><type>1</type></trkpt>
      <trkpt lat="37.914082" lon="-7.482316"><ele>1806</ele><speed>69.01</speed><time>2017-07-01T17:35:34Z</time><course>198</course><type>1</type></trkpt>
      <trkpt lat="37.913315" lon="-7.482683"><ele>1810</ele><speed>65.71</speed><time>2017-07-01T17:35:39Z</time><course>200</course><type>1</type></trkpt>
      <trkpt lat="37.912735" lon="-7.482633"><ele>1811</ele><speed>46.59</speed><time>2017-07-01T17:35:44Z</time><course>132</course><type>1</type></trkpt>
      <trkpt lat="37.912766" lon="-7.482567"><ele>1811</ele><speed>4.86</speed><time>2017-07-01T17:35:49Z</time><course>284</course><type>1</type></trkpt>
      <trkpt lat="37.912498" lon="-7.483250"><ele>1810</ele><speed>48.24</speed><time>2017-07-01T17:35:54Z</time><course>218</course><type>1</type></trkpt>
      <trkpt lat="37.911816" lon="-7.483634"><ele>1811</ele><speed>59.81</speed><time>2017-07-01T17:35:59Z</time><course>196</course><type>1</type></trkpt>
      <trkpt lat="37.911083" lon="-7.483917"><ele>1800</ele><speed>61.42</speed><time>2017-07-01T17:36:04Z</time><course>196</course><type>1</type></trkpt>
      <trkpt lat="37.910301" lon="-7.484267"><ele>1795</ele><speed>66.47</speed><time>2017-07-01T17:36:09Z</time><course>198</course><type>1</type></trkpt>
      <trkpt lat="37.908916" lon="-7.485017"><ele>1787</ele><speed>60.36</speed><time>2017-07-01T17:36:19Z</time><course>206</course><type>1</type></trkpt>
      <trkpt lat="37.908268" lon="-7.485466"><ele>1777</ele><speed>59.19</speed><time>2017-07-01T17:36:24Z</time><course>204</course><type>1</type></trkpt>
      <trkpt lat="37.907585" lon="-7.485767"><ele>1768</ele><speed>57.96</speed><time>2017-07-01T17:36:29Z</time><course>198</course><type>1</type></trkpt>
      <trkpt lat="37.906883" lon="-7.486200"><ele>1764</ele><speed>62.57</speed><time>2017-07-01T17:36:34Z</time><course>210</course><type>1</type></trkpt>
      <trkpt lat="37.906250" lon="-7.486617"><ele>1762</ele><speed>57.18</speed><time>2017-07-01T17:36:39Z</time><course>204</course><type>1</type></trkpt>
      <trkpt lat="37.905701" lon="-7.486983"><ele>1759</ele><speed>49.72</speed><time>2017-07-01T17:36:44Z</time><course>202</course><type>1</type></trkpt>
      <trkpt lat="37.905083" lon="-7.487350"><ele>1756</ele><speed>54.7</speed><time>2017-07-01T17:36:49Z</time><course>204</course><type>1</type></trkpt>
      <trkpt lat="37.904499" lon="-7.487833"><ele>1752</ele><speed>55.89</speed><time>2017-07-01T17:36:54Z</time><course>214</course><type>1</type></trkpt>
      <trkpt lat="37.903816" lon="-7.488350"><ele>1747</ele><speed>63.76</speed><time>2017-07-01T17:36:59Z</time><course>204</course><type>1</type></trkpt>
      <trkpt lat="37.903183" lon="-7.488800"><ele>1752</ele><speed>58.17</speed><time>2017-07-01T17:37:04Z</time><course>212</course><type>1</type></trkpt>
      <trkpt lat="37.902534" lon="-7.489267"><ele>1759</ele><speed>59.82</speed><time>2017-07-01T17:37:09Z</time><course>208</course><type>1</type></trkpt>
      <trkpt lat="37.901932" lon="-7.489750"><ele>1763</ele><speed>57.11</speed><time>2017-07-01T17:37:14Z</time><course>216</course><type>1</type></trkpt>
      <trkpt lat="37.901783" lon="-7.490684"><ele>1760</ele><speed>60.26</speed><time>2017-07-01T17:37:19Z</time><course>292</course><type>1</type></trkpt>
      <trkpt lat="37.901951" lon="-7.490684"><ele>1757</ele><speed>13.47</speed><time>2017-07-01T17:37:24Z</time><course>130</course><type>1</type></trkpt>
      <trkpt lat="37.901382" lon="-7.490833"><ele>1751</ele><speed>46.57</speed><time>2017-07-01T17:37:29Z</time><course>210</course><type>1</type></trkpt>
      <trkpt lat="37.900749" lon="-7.491350"><ele>1754</ele><speed>60.36</speed><time>2017-07-01T17:37:34Z</time><course>212</course><type>1</type></trkpt>
      <trkpt lat="37.900101" lon="-7.491933"><ele>1751</ele><speed>63.69</speed><time>2017-07-01T17:37:39Z</time><course>210</course><type>1</type></trkpt>
      <trkpt lat="37.899384" lon="-7.492434"><ele>1747</ele><speed>65.62</speed><time>2017-07-01T17:37:44Z</time><course>208</course><type>1</type></trkpt>
      <trkpt lat="37.898750" lon="-7.492867"><ele>1750</ele><speed>57.72</speed><time>2017-07-01T17:37:49Z</time><course>208</course><type>1</type></trkpt>
      <trkpt lat="37.898151" lon="-7.493300"><ele>1747</ele><speed>55.27</speed><time>2017-07-01T17:37:54Z</time><course>208</course><type>1</type></trkpt>
      <trkpt lat="37.897484" lon="-7.493800"><ele>1740</ele><speed>62.11</speed><time>2017-07-01T17:37:59Z</time><course>208</course><type>1</type></trkpt>
      <trkpt lat="37.896832" lon="-7.494333"><ele>1730</ele><speed>62.19</speed><time>2017-07-01T17:38:04Z</time><course>216</course><type>1</type></trkpt>
      <trkpt lat="37.896198" lon="-7.494916"><ele>1720</ele><speed>62.78</speed><time>2017-07-01T17:38:09Z</time><course>212</course><type>1</type></trkpt>
      <trkpt lat="37.895500" lon="-7.495400"><ele>1713</ele><speed>63.77</speed><time>2017-07-01T17:38:14Z</time><course>212</course><type>1</type></trkpt>
      <trkpt lat="37.894852" lon="-7.495983"><ele>1705</ele><speed>63.7</speed><time>2017-07-01T17:38:19Z</time><course>208</course><type>1</type></trkpt>
      <trkpt lat="37.894184" lon="-7.496517"><ele>1698</ele><speed>63.3</speed><time>2017-07-01T17:38:24Z</time><course>210</course><type>1</type></trkpt>
      <trkpt lat="37.893452" lon="-7.497083"><ele>1685</ele><speed>68.73</speed><time>2017-07-01T17:38:29Z</time><course>212</course><type>1</type></trkpt>
      <trkpt lat="37.892750" lon="-7.497600"><ele>1685</ele><speed>65.08</speed><time>2017-07-01T17:38:34Z</time><course>210</course><type>1</type></trkpt>
      <trkpt lat="37.892033" lon="-7.498116"><ele>1683</ele><speed>66.09</speed><time>2017-07-01T17:38:39Z</time><course>206</course><type>1</type></trkpt>
      <trkpt lat="37.891285" lon="-7.498567"><ele>1678</ele><speed>66.39</speed><time>2017-07-01T17:38:44Z</time><course>202</course><type>1</type></trkpt>
      <trkpt lat="37.890617" lon="-7.498967"><ele>1673</ele><speed>59.22</speed><time>2017-07-01T17:38:49Z</time><course>204</course><type>1</type></trkpt>
      <trkpt lat="37.889935" lon="-7.499367"><ele>1667</ele><speed>60.23</speed><time>2017-07-01T17:38:54Z</time><course>204</course><type>1</type></trkpt>
      <trkpt lat="37.889317" lon="-7.499717"><ele>1658</ele><speed>54.26</speed><time>2017-07-01T17:38:59Z</time><course>204</course><type>1</type></trkpt>
      <trkpt lat="37.888683" lon="-7.500117"><ele>1651</ele><speed>56.77</speed><time>2017-07-01T17:39:04Z</time><course>206</course><type>1</type></trkpt>
      <trkpt lat="37.888035" lon="-7.500484"><ele>1646</ele><speed>56.89</speed><time>2017-07-01T17:39:09Z</time><course>206</course><type>1</type></trkpt>
      <trkpt lat="37.865433" lon="-7.513633"><ele>1401</ele><speed>52.46</speed><time>2017-07-01T17:42:19Z</time><course>216</course><type>1</type></trkpt>
      <trkpt lat="37.864883" lon="-7.514184"><ele>1403</ele><speed>56.2</speed><time>2017-07-01T17:42:24Z</time><course>234</course><type>1</type></trkpt>
      <trkpt lat="37.864616" lon="-7.515167"><ele>1401</ele><speed>65.78</speed><time>2017-07-01T17:42:29Z</time><course>262</course><type>1</type></trkpt>
      <trkpt lat="37.864834" lon="-7.515633"><ele>1397</ele><speed>34.27</speed><time>2017-07-01T17:42:34Z</time><course>10</course><type>1</type></trkpt>
      <trkpt lat="37.864384" lon="-7.515584"><ele>1396</ele><speed>36.2</speed><time>2017-07-01T17:42:39Z</time><course>196</course><type>1</type></trkpt>
      <trkpt lat="37.863750" lon="-7.515983"><ele>1402</ele><speed>56.74</speed><time>2017-07-01T17:42:44Z</time><course>214</course><type>1</type></trkpt>
      <trkpt lat="37.863533" lon="-7.516833"><ele>1401</ele><speed>56.53</speed><time>2017-07-01T17:42:49Z</time><course>290</course><type>1</type></trkpt>
      <trkpt lat="37.863617" lon="-7.516867"><ele>1400</ele><speed>7.07</speed><time>2017-07-01T17:42:54Z</time><course>158</course><type>1</type></trkpt>
      <trkpt lat="37.862984" lon="-7.517817"><ele>1406</ele><speed>26.22</speed><time>2017-07-01T17:43:09Z</time><course>156</course><type>1</type></trkpt>
      <trkpt lat="37.862415" lon="-7.517983"><ele>1408</ele><speed>46.8</speed><time>2017-07-01T17:43:14Z</time><course>210</course><type>1</type></trkpt>
      <trkpt lat="37.862068" lon="-7.518816"><ele>1410</ele><speed>59.6</speed><time>2017-07-01T17:43:19Z</time><course>268</course><type>1</type></trkpt>
      <trkpt lat="37.862301" lon="-7.519183"><ele>1409</ele><speed>29.8</speed><time>2017-07-01T17:43:24Z</time><course>356</course><type>1</type></trkpt>
      <trkpt lat="37.862000" lon="-7.519117"><ele>1412</ele><speed>24.48</speed><time>2017-07-01T17:43:29Z</time><course>188</course><type>1</type></trkpt>
      <trkpt lat="37.861317" lon="-7.519433"><ele>1414</ele><speed>58.28</speed><time>2017-07-01T17:43:34Z</time><course>202</course><type>1</type></trkpt>
      <trkpt lat="37.860668" lon="-7.519733"><ele>1416</ele><speed>55.37</speed><time>2017-07-01T17:43:39Z</time><course>198</course><type>1</type></trkpt>
      <trkpt lat="37.860100" lon="-7.520150"><ele>1422</ele><speed>52.62</speed><time>2017-07-01T17:43:44Z</time><course>234</course><type>1</type></trkpt>
      <trkpt lat="37.860184" lon="-7.520916"><ele>1420</ele><speed>48.94</speed><time>2017-07-01T17:43:49Z</time><course>316</course><type>1</type></trkpt>
      <trkpt lat="37.860085" lon="-7.520750"><ele>1420</ele><speed>13.16</speed><time>2017-07-01T17:43:54Z</time><course>162</course><type>1</type></trkpt>
      <trkpt lat="37.859516" lon="-7.520933"><ele>1429</ele><speed>47.05</speed><time>2017-07-01T17:43:59Z</time><course>210</course><type>1</type></trkpt>
      <trkpt lat="37.859200" lon="-7.521733"><ele>1427</ele><speed>56.61</speed><time>2017-07-01T17:44:04Z</time><course>272</course><type>1</type></trkpt>
      <trkpt lat="37.859402" lon="-7.522200"><ele>1427</ele><speed>33.7</speed><time>2017-07-01T17:44:09Z</time><course>318</course><type>1</type></trkpt>
      <trkpt lat="37.859299" lon="-7.522000"><ele>1428</ele><speed>15.11</speed><time>2017-07-01T17:44:14Z</time><course>156</course><type>1</type></trkpt>
      <trkpt lat="37.858734" lon="-7.522217"><ele>1434</ele><speed>47.32</speed><time>2017-07-01T17:44:19Z</time><course>222</course><type>1</type></trkpt>
      <trkpt lat="37.858501" lon="-7.523100"><ele>1434</ele><speed>58.91</speed><time>2017-07-01T17:44:24Z</time><course>266</course><type>1</type></trkpt>
      <trkpt lat="37.858700" lon="-7.523450"><ele>1429</ele><speed>27.29</speed><time>2017-07-01T17:44:29Z</time><course>18</course><type>1</type></trkpt>
      <trkpt lat="37.858517" lon="-7.523233"><ele>1435</ele><speed>20.09</speed><time>2017-07-01T17:44:34Z</time><course>152</course><type>1</type></trkpt>
      <trkpt lat="37.858017" lon="-7.523400"><ele>1438</ele><speed>41.44</speed><time>2017-07-01T17:44:39Z</time><course>220</course><type>1</type></trkpt>
      <trkpt lat="37.857933" lon="-7.524217"><ele>1438</ele><speed>52.14</speed><time>2017-07-01T17:44:44Z</time><course>300</course><type>1</type></trkpt>
      <trkpt lat="37.858032" lon="-7.524167"><ele>1435</ele><speed>8.54</speed><time>2017-07-01T17:44:49Z</time><course>142</course><type>1</type></trkpt>
      <trkpt lat="37.857533" lon="-7.524200"><ele>1442</ele><speed>40.05</speed><time>2017-07-01T17:44:54Z</time><course>200</course><type>1</type></trkpt>
      <trkpt lat="37.857067" lon="-7.524917"><ele>1440</ele><speed>58.77</speed><time>2017-07-01T17:44:59Z</time><course>254</course><type>1</type></trkpt>
      <trkpt lat="37.857300" lon="-7.525317"><ele>1437</ele><speed>31.46</speed><time>2017-07-01T17:45:04Z</time><course>12</course><type>1</type></trkpt>
      <trkpt lat="37.857052" lon="-7.525150"><ele>1439</ele><speed>22.51</speed><time>2017-07-01T17:45:09Z</time><course>180</course><type>1</type></trkpt>
      <trkpt lat="37.856400" lon="-7.525517"><ele>1439</ele><speed>57.19</speed><time>2017-07-01T17:45:14Z</time><course>216</course><type>1</type></trkpt>
      <trkpt lat="37.856033" lon="-7.526283"><ele>1441</ele><speed>56.7</speed><time>2017-07-01T17:45:19Z</time><course>258</course><type>1</type></trkpt>
      <trkpt lat="37.856117" lon="-7.527050"><ele>1439</ele><speed>49</speed><time>2017-07-01T17:45:24Z</time><course>292</course><type>1</type></trkpt>
      <trkpt lat="37.856434" lon="-7.527350"><ele>1438</ele><speed>31.72</speed><time>2017-07-01T17:45:29Z</time><course>342</course><type>1</type></trkpt>
      <trkpt lat="37.856400" lon="-7.527184"><ele>1438</ele><speed>10.85</speed><time>2017-07-01T17:45:34Z</time><course>136</course><type>1</type></trkpt>
      <trkpt lat="37.855984" lon="-7.527083"><ele>1439</ele><speed>33.95</speed><time>2017-07-01T17:45:39Z</time><course>180</course><type>1</type></trkpt>
      <trkpt lat="37.855385" lon="-7.527400"><ele>1439</ele><speed>52.03</speed><time>2017-07-01T17:45:44Z</time><course>212</course><type>1</type></trkpt>
      <trkpt lat="37.854801" lon="-7.528050"><ele>1439</ele><speed>62.31</speed><time>2017-07-01T17:45:49Z</time><course>234</course><type>1</type></trkpt>
      <trkpt lat="37.854618" lon="-7.528967"><ele>1438</ele><speed>59.86</speed><time>2017-07-01T17:45:54Z</time><course>276</course><type>1</type></trkpt>
      <trkpt lat="37.854866" lon="-7.529517"><ele>1435</ele><speed>40.08</speed><time>2017-07-01T17:45:59Z</time><course>316</course><type>1</type></trkpt>
      <trkpt lat="37.854965" lon="-7.529483"><ele>1437</ele><speed>4.11</speed><time>2017-07-01T17:46:09Z</time><course>164</course><type>1</type></trkpt>
      <trkpt lat="37.854317" lon="-7.529667"><ele>1433</ele><speed>53.23</speed><time>2017-07-01T17:46:14Z</time><course>206</course><type>1</type></trkpt>
      <trkpt lat="37.853668" lon="-7.530133"><ele>1431</ele><speed>59.8</speed><time>2017-07-01T17:46:19Z</time><course>202</course><type>1</type></trkpt>
      <trkpt lat="37.852951" lon="-7.530467"><ele>1432</ele><speed>61.23</speed><time>2017-07-01T17:46:24Z</time><course>198</course><type>1</type></trkpt>
      <trkpt lat="37.852718" lon="-7.530334"><ele>1431</ele><speed>20.48</speed><time>2017-07-01T17:46:29Z</time><course>58</course><type>1</type></trkpt>
      <trkpt lat="37.852852" lon="-7.530967"><ele>1428</ele><speed>41.47</speed><time>2017-07-01T17:46:34Z</time><course>262</course><type>1</type></trkpt>
      <trkpt lat="37.852417" lon="-7.531833"><ele>1425</ele><speed>64.96</speed><time>2017-07-01T17:46:39Z</time><course>220</course><type>1</type></trkpt>
      <trkpt lat="37.851749" lon="-7.532450"><ele>1422</ele><speed>66.27</speed><time>2017-07-01T17:46:44Z</time><course>212</course><type>1</type></trkpt>
      <trkpt lat="37.851101" lon="-7.532967"><ele>1426</ele><speed>61.38</speed><time>2017-07-01T17:46:49Z</time><course>210</course><type>1</type></trkpt>
      <trkpt lat="37.850849" lon="-7.533834"><ele>1423</ele><speed>58.47</speed><time>2017-07-01T17:46:54Z</time><course>284</course><type>1</type></trkpt>
      <trkpt lat="37.851051" lon="-7.534067"><ele>1422</ele><speed>21.9</speed><time>2017-07-01T17:46:59Z</time><course>74</course><type>1</type></trkpt>
      <trkpt lat="37.850616" lon="-7.534000"><ele>1421</ele><speed>35.12</speed><time>2017-07-01T17:47:04Z</time><course>174</course><type>1</type></trkpt>
      <trkpt lat="37.850384" lon="-7.533900"><ele>1425</ele><speed>19.64</speed><time>2017-07-01T17:47:09Z</time><course>26</course><type>1</type></trkpt>
      <trkpt lat="37.850384" lon="-7.534683"><ele>1424</ele><speed>49.55</speed><time>2017-07-01T17:47:14Z</time><course>234</course><type>1</type></trkpt>
      <trkpt lat="37.849785" lon="-7.535284"><ele>1430</ele><speed>61.25</speed><time>2017-07-01T17:47:19Z</time><course>194</course><type>1</type></trkpt>
      <trkpt lat="37.849548" lon="-7.535167"><ele>1428</ele><speed>20.39</speed><time>2017-07-01T17:47:24Z</time><course>8</course><type>1</type></trkpt>
      <trkpt lat="37.849731" lon="-7.535666"><ele>1431</ele><speed>34.82</speed><time>2017-07-01T17:47:29Z</time><course>264</course><type>1</type></trkpt>
      <trkpt lat="37.849152" lon="-7.536550"><ele>1426</ele><speed>72.69</speed><time>2017-07-01T17:47:34Z</time><course>210</course><type>1</type></trkpt>
      <trkpt lat="37.848484" lon="-7.536933"><ele>1427</ele><speed>58.77</speed><time>2017-07-01T17:47:39Z</time><course>202</course><type>1</type></trkpt>
      <trkpt lat="37.847752" lon="-7.537317"><ele>1423</ele><speed>63.5</speed><time>2017-07-01T17:47:44Z</time><course>202</course><type>1</type></trkpt>
      <trkpt lat="37.847149" lon="-7.537683"><ele>1428</ele><speed>53.59</speed><time>2017-07-01T17:47:49Z</time><course>206</course><type>1</type></trkpt>
      <trkpt lat="37.847099" lon="-7.537583"><ele>1420</ele><speed>7.49</speed><time>2017-07-01T17:47:54Z</time><course>334</course><type>1</type></trkpt>
      <trkpt lat="37.847301" lon="-7.538084"><ele>1429</ele><speed>35.6</speed><time>2017-07-01T17:47:59Z</time><course>282</course><type>1</type></trkpt>
      <trkpt lat="37.847015" lon="-7.539017"><ele>1424</ele><speed>63.34</speed><time>2017-07-01T17:48:04Z</time><course>216</course><type>1</type></trkpt>
      <trkpt lat="37.846352" lon="-7.539333"><ele>1421</ele><speed>56.78</speed><time>2017-07-01T17:48:09Z</time><course>198</course><type>1</type></trkpt>
      <trkpt lat="37.845684" lon="-7.539617"><ele>1421</ele><speed>56.48</speed><time>2017-07-01T17:48:14Z</time><course>194</course><type>1</type></trkpt>
      <trkpt lat="37.845066" lon="-7.539850"><ele>1427</ele><speed>51.68</speed><time>2017-07-01T17:48:19Z</time><course>196</course><type>1</type></trkpt>
      <trkpt lat="37.844418" lon="-7.539967"><ele>1428</ele><speed>52.46</speed><time>2017-07-01T17:48:24Z</time><course>186</course><type>1</type></trkpt>
      <trkpt lat="37.843750" lon="-7.540117"><ele>1429</ele><speed>54.38</speed><time>2017-07-01T17:48:29Z</time><course>194</course><type>1</type></trkpt>
      <trkpt lat="37.843067" lon="-7.540350"><ele>1422</ele><speed>56.69</speed><time>2017-07-01T17:48:34Z</time><course>194</course><type>1</type></trkpt>
      <trkpt lat="37.842365" lon="-7.540633"><ele>1417</ele><speed>59.05</speed><time>2017-07-01T17:48:39Z</time><course>190</course><type>1</type></trkpt>
      <trkpt lat="37.841633" lon="-7.540833"><ele>1411</ele><speed>60.02</speed><time>2017-07-01T17:48:44Z</time><course>188</course><type>1</type></trkpt>
      <trkpt lat="37.840935" lon="-7.541033"><ele>1411</ele><speed>57.36</speed><time>2017-07-01T17:48:49Z</time><course>190</course><type>1</type></trkpt>
      <trkpt lat="37.838951" lon="-7.541667"><ele>1414</ele><speed>54.67</speed><time>2017-07-01T17:49:04Z</time><course>192</course><type>1</type></trkpt>
      <trkpt lat="37.838200" lon="-7.541850"><ele>1411</ele><speed>61.3</speed><time>2017-07-01T17:49:09Z</time><course>192</course><type>1</type></trkpt>
      <trkpt lat="37.837482" lon="-7.542083"><ele>1414</ele><speed>59.41</speed><time>2017-07-01T17:49:14Z</time><course>196</course><type>1</type></trkpt>
      <trkpt lat="37.836700" lon="-7.542300"><ele>1406</ele><speed>64.16</speed><time>2017-07-01T17:49:19Z</time><course>188</course><type>1</type></trkpt>
      <trkpt lat="37.835968" lon="-7.542450"><ele>1410</ele><speed>59.43</speed><time>2017-07-01T17:49:24Z</time><course>180</course><type>1</type></trkpt>
      <trkpt lat="37.835766" lon="-7.542217"><ele>1415</ele><speed>21.9</speed><time>2017-07-01T17:49:29Z</time><course>58</course><type>1</type></trkpt>
      <trkpt lat="37.835800" lon="-7.542783"><ele>1422</ele><speed>35.93</speed><time>2017-07-01T17:49:34Z</time><course>248</course><type>1</type></trkpt>
      <trkpt lat="37.835182" lon="-7.543300"><ele>1430</ele><speed>59.37</speed><time>2017-07-01T17:49:39Z</time><course>188</course><type>1</type></trkpt>
      <trkpt lat="37.834682" lon="-7.543200"><ele>1436</ele><speed>40.57</speed><time>2017-07-01T17:49:44Z</time><course>136</course><type>1</type></trkpt>
      <trkpt lat="37.834801" lon="-7.543350"><ele>1442</ele><speed>13.46</speed><time>2017-07-01T17:49:49Z</time><course>278</course><type>1</type></trkpt>
      <trkpt lat="37.834366" lon="-7.544100"><ele>1445</ele><speed>58.9</speed><time>2017-07-01T17:49:54Z</time><course>204</course><type>1</type></trkpt>
      <trkpt lat="37.833733" lon="-7.544150"><ele>1451</ele><speed>50.83</speed><time>2017-07-01T17:49:59Z</time><course>158</course><type>1</type></trkpt>
      <trkpt lat="37.833851" lon="-7.544167"><ele>1449</ele><speed>9.52</speed><time>2017-07-01T17:50:04Z</time><course>300</course><type>1</type></trkpt>
      <trkpt lat="37.833649" lon="-7.544933"><ele>1457</ele><speed>51.12</speed><time>2017-07-01T17:50:09Z</time><course>224</course><type>1</type></trkpt>
      <trkpt lat="37.832932" lon="-7.545117"><ele>1460</ele><speed>58.64</speed><time>2017-07-01T17:50:14Z</time><course>180</course><type>1</type></trkpt>
      <trkpt lat="37.832718" lon="-7.544900"><ele>1460</ele><speed>21.97</speed><time>2017-07-01T17:50:19Z</time><course>52</course><type>1</type></trkpt>
      <trkpt lat="37.832817" lon="-7.545500"><ele>1463</ele><speed>38.8</speed><time>2017-07-01T17:50:24Z</time><course>246</course><type>1</type></trkpt>
      <trkpt lat="37.832165" lon="-7.545967"><ele>1467</ele><speed>60.04</speed><time>2017-07-01T17:50:29Z</time><course>186</course><type>1</type></trkpt>
      <trkpt lat="37.831867" lon="-7.545750"><ele>1468</ele><speed>27.55</speed><time>2017-07-01T17:50:34Z</time><course>84</course><type>1</type></trkpt>
      <trkpt lat="37.832050" lon="-7.546117"><ele>1472</ele><speed>27.48</speed><time>2017-07-01T17:50:39Z</time><course>276</course><type>1</type></trkpt>
      <trkpt lat="37.831833" lon="-7.546900"><ele>1482</ele><speed>52.53</speed><time>2017-07-01T17:50:44Z</time><course>220</course><type>1</type></trkpt>
      <trkpt lat="37.831249" lon="-7.546850"><ele>1479</ele><speed>46.91</speed><time>2017-07-01T17:50:49Z</time><course>138</course><type>1</type></trkpt>
      <trkpt lat="37.831348" lon="-7.546867"><ele>1487</ele><speed>8.01</speed><time>2017-07-01T17:50:54Z</time><course>298</course><type>1</type></trkpt>
      <trkpt lat="37.831085" lon="-7.547650"><ele>1492</ele><speed>53.86</speed><time>2017-07-01T17:50:59Z</time><course>216</course><type>1</type></trkpt>
      <trkpt lat="37.830418" lon="-7.547733"><ele>1495</ele><speed>53.72</speed><time>2017-07-01T17:51:04Z</time><course>168</course><type>1</type></trkpt>
      <trkpt lat="37.830284" lon="-7.547517"><ele>1499</ele><speed>17.39</speed><time>2017-07-01T17:51:09Z</time><course>28</course><type>1</type></trkpt>
      <trkpt lat="37.830482" lon="-7.547966"><ele>1505</ele><speed>32.55</speed><time>2017-07-01T17:51:14Z</time><course>274</course><type>1</type></trkpt>
      <trkpt lat="37.830166" lon="-7.548833"><ele>1513</ele><speed>60.45</speed><time>2017-07-01T17:51:19Z</time><course>226</course><type>1</type></trkpt>
      <trkpt lat="37.829552" lon="-7.549033"><ele>1512</ele><speed>50.81</speed><time>2017-07-01T17:51:24Z</time><course>166</course><type>1</type></trkpt>
      <trkpt lat="37.829334" lon="-7.548833"><ele>1515</ele><speed>21.58</speed><time>2017-07-01T17:51:29Z</time><course>112</course><type>1</type></trkpt>
      <trkpt lat="37.829384" lon="-7.549033"><ele>1519</ele><speed>13.28</speed><time>2017-07-01T17:51:34Z</time><course>286</course><type>1</type></trkpt>
      <trkpt lat="37.829315" lon="-7.549833"><ele>1525</ele><speed>50.95</speed><time>2017-07-01T17:51:39Z</time><course>242</course><type>1</type></trkpt>
      <trkpt lat="37.828667" lon="-7.550350"><ele>1530</ele><speed>61.39</speed><time>2017-07-01T17:51:44Z</time><course>188</course><type>1</type></trkpt>
      <trkpt lat="37.828316" lon="-7.550200"><ele>1532</ele><speed>29.69</speed><time>2017-07-01T17:51:49Z</time><course>120</course><type>1</type></trkpt>
      <trkpt lat="37.828468" lon="-7.550533"><ele>1539</ele><speed>24.35</speed><time>2017-07-01T17:51:54Z</time><course>270</course><type>1</type></trkpt>
      <trkpt lat="37.827351" lon="-7.551533"><ele>1547</ele><speed>54.82</speed><time>2017-07-01T17:52:04Z</time><course>162</course><type>1</type></trkpt>
      <trkpt lat="37.827316" lon="-7.551483"><ele>1552</ele><speed>4.23</speed><time>2017-07-01T17:52:09Z</time><course>312</course><type>1</type></trkpt>
      <trkpt lat="37.827251" lon="-7.552233"><ele>1558</ele><speed>47.77</speed><time>2017-07-01T17:52:14Z</time><course>238</course><type>1</type></trkpt>
      <trkpt lat="37.826618" lon="-7.552866"><ele>1562</ele><speed>64.65</speed><time>2017-07-01T17:52:19Z</time><course>204</course><type>1</type></trkpt>
      <trkpt lat="37.825932" lon="-7.553000"><ele>1570</ele><speed>55.63</speed><time>2017-07-01T17:52:24Z</time><course>168</course><type>1</type></trkpt>
      <trkpt lat="37.825951" lon="-7.552983"><ele>1572</ele><speed>1.86</speed><time>2017-07-01T17:52:29Z</time><course>304</course><type>1</type></trkpt>
      <trkpt lat="37.825817" lon="-7.553783"><ele>1580</ele><speed>51.77</speed><time>2017-07-01T17:52:34Z</time><course>236</course><type>1</type></trkpt>
      <trkpt lat="37.825134" lon="-7.554317"><ele>1588</ele><speed>64.34</speed><time>2017-07-01T17:52:39Z</time><course>190</course><type>1</type></trkpt>
      <trkpt lat="37.824799" lon="-7.554150"><ele>1592</ele><speed>28.86</speed><time>2017-07-01T17:52:44Z</time><course>114</course><type>1</type></trkpt>
      <trkpt lat="37.824932" lon="-7.554650"><ele>1599</ele><speed>33.4</speed><time>2017-07-01T17:52:49Z</time><course>264</course><type>1</type></trkpt>
      <trkpt lat="37.824451" lon="-7.555467"><ele>1608</ele><speed>64.51</speed><time>2017-07-01T17:52:54Z</time><course>216</course><type>1</type></trkpt>
      <trkpt lat="37.823883" lon="-7.555550"><ele>1614</ele><speed>45.83</speed><time>2017-07-01T17:52:59Z</time><course>148</course><type>1</type></trkpt>
      <trkpt lat="37.823952" lon="-7.555600"><ele>1620</ele><speed>6.37</speed><time>2017-07-01T17:53:04Z</time><course>302</course><type>1</type></trkpt>
      <trkpt lat="37.823849" lon="-7.556400"><ele>1630</ele><speed>51.32</speed><time>2017-07-01T17:53:09Z</time><course>236</course><type>1</type></trkpt>
      <trkpt lat="37.823215" lon="-7.557017"><ele>1636</ele><speed>64.09</speed><time>2017-07-01T17:53:14Z</time><course>196</course><type>1</type></trkpt>
      <trkpt lat="37.822918" lon="-7.556817"><ele>1640</ele><speed>26.96</speed><time>2017-07-01T17:53:19Z</time><course>90</course><type>1</type></trkpt>
      <trkpt lat="37.823032" lon="-7.557350"><ele>1648</ele><speed>34.96</speed><time>2017-07-01T17:53:24Z</time><course>258</course><type>1</type></trkpt>
      <trkpt lat="37.822498" lon="-7.558100"><ele>1653</ele><speed>63.93</speed><time>2017-07-01T17:53:29Z</time><course>214</course><type>1</type></trkpt>
      <trkpt lat="37.821850" lon="-7.558250"><ele>1659</ele><speed>52.8</speed><time>2017-07-01T17:53:34Z</time><course>162</course><type>1</type></trkpt>
      <trkpt lat="37.821850" lon="-7.558250"><ele>1667</ele><speed>0</speed><time>2017-07-01T17:53:39Z</time><course>294</course><type>1</type></trkpt>
      <trkpt lat="37.821701" lon="-7.559067"><ele>1677</ele><speed>53.09</speed><time>2017-07-01T17:53:44Z</time><course>238</course><type>1</type></trkpt>
      <trkpt lat="37.821033" lon="-7.559717"><ele>1686</ele><speed>67.53</speed><time>2017-07-01T17:53:49Z</time><course>200</course><type>1</type></trkpt>
      <trkpt lat="37.820648" lon="-7.559600"><ele>1694</ele><speed>31.73</speed><time>2017-07-01T17:53:54Z</time><course>104</course><type>1</type></trkpt>
      <trkpt lat="37.820782" lon="-7.559950"><ele>1707</ele><speed>24.63</speed><time>2017-07-01T17:53:59Z</time><course>266</course><type>1</type></trkpt>
      <trkpt lat="37.820351" lon="-7.560750"><ele>1717</ele><speed>61.31</speed><time>2017-07-01T17:54:04Z</time><course>210</course><type>1</type></trkpt>
      <trkpt lat="37.819817" lon="-7.560733"><ele>1725</ele><speed>42.81</speed><time>2017-07-01T17:54:09Z</time><course>128</course><type>1</type></trkpt>
      <trkpt lat="37.819984" lon="-7.560900"><ele>1735</ele><speed>17.06</speed><time>2017-07-01T17:54:14Z</time><course>284</course><type>1</type></trkpt>
      <trkpt lat="37.819733" lon="-7.561733"><ele>1747</ele><speed>56.45</speed><time>2017-07-01T17:54:19Z</time><course>226</course><type>1</type></trkpt>
      <trkpt lat="37.819118" lon="-7.561967"><ele>1752</ele><speed>51.47</speed><time>2017-07-01T17:54:24Z</time><course>154</course><type>1</type></trkpt>
      <trkpt lat="37.819099" lon="-7.561833"><ele>1759</ele><speed>8.62</speed><time>2017-07-01T17:54:29Z</time><course>312</course><type>1</type></trkpt>
      <trkpt lat="37.819084" lon="-7.562667"><ele>1767</ele><speed>52.82</speed><time>2017-07-01T17:54:34Z</time><course>248</course><type>1</type></trkpt>
      <trkpt lat="37.818584" lon="-7.563167"><ele>1774</ele><speed>51.07</speed><time>2017-07-01T17:54:39Z</time><course>182</course><type>1</type></trkpt>
      <trkpt lat="37.818233" lon="-7.562917"><ele>1778</ele><speed>32.28</speed><time>2017-07-01T17:54:44Z</time><course>100</course><type>1</type></trkpt>
      <trkpt lat="37.818417" lon="-7.563050"><ele>1785</ele><speed>16.98</speed><time>2017-07-01T17:54:49Z</time><course>294</course><type>1</type></trkpt>
      <trkpt lat="37.818233" lon="-7.563900"><ele>1796</ele><speed>55.8</speed><time>2017-07-01T17:54:54Z</time><course>230</course><type>1</type></trkpt>
      <trkpt lat="37.817532" lon="-7.564050"><ele>1812</ele><speed>28.49</speed><time>2017-07-01T17:55:04Z</time><course>356</course><type>1</type></trkpt>
      <trkpt lat="37.817650" lon="-7.564734"><ele>1819</ele><speed>44.33</speed><time>2017-07-01T17:55:09Z</time><course>254</course><type>1</type></trkpt>
      <trkpt lat="37.817165" lon="-7.565400"><ele>1829</ele><speed>57.35</speed><time>2017-07-01T17:55:14Z</time><course>204</course><type>1</type></trkpt>
      <trkpt lat="37.816685" lon="-7.565317"><ele>1831</ele><speed>38.83</speed><time>2017-07-01T17:55:19Z</time><course>124</course><type>1</type></trkpt>
      <trkpt lat="37.816849" lon="-7.565333"><ele>1836</ele><speed>13.18</speed><time>2017-07-01T17:55:24Z</time><course>300</course><type>1</type></trkpt>
      <trkpt lat="37.816784" lon="-7.566150"><ele>1843</ele><speed>51.99</speed><time>2017-07-01T17:55:29Z</time><course>244</course><type>1</type></trkpt>
      <trkpt lat="37.816284" lon="-7.566833"><ele>1849</ele><speed>58.96</speed><time>2017-07-01T17:55:34Z</time><course>206</course><type>1</type></trkpt>
      <trkpt lat="37.815701" lon="-7.566817"><ele>1852</ele><speed>46.74</speed><time>2017-07-01T17:55:39Z</time><course>156</course><type>1</type></trkpt>
      <trkpt lat="37.815716" lon="-7.566750"><ele>1853</ele><speed>4.41</speed><time>2017-07-01T17:55:44Z</time><course>320</course><type>1</type></trkpt>
      <trkpt lat="37.815681" lon="-7.567550"><ele>1855</ele><speed>50.73</speed><time>2017-07-01T17:55:49Z</time><course>242</course><type>1</type></trkpt>
      <trkpt lat="37.815117" lon="-7.568167"><ele>1861</ele><speed>59.75</speed><time>2017-07-01T17:55:54Z</time><course>202</course><type>1</type></trkpt>
      <trkpt lat="37.814617" lon="-7.568083"><ele>1860</ele><speed>40.43</speed><time>2017-07-01T17:55:59Z</time><course>134</course><type>1</type></trkpt>
      <trkpt lat="37.814732" lon="-7.568200"><ele>1863</ele><speed>11.83</speed><time>2017-07-01T17:56:04Z</time><course>292</course><type>1</type></trkpt>
      <trkpt lat="37.814602" lon="-7.569050"><ele>1865</ele><speed>54.82</speed><time>2017-07-01T17:56:09Z</time><course>242</course><type>1</type></trkpt>
      <trkpt lat="37.814034" lon="-7.569733"><ele>1867</ele><speed>62.79</speed><time>2017-07-01T17:56:14Z</time><course>204</course><type>1</type></trkpt>
      <trkpt lat="37.813435" lon="-7.569783"><ele>1872</ele><speed>48.11</speed><time>2017-07-01T17:56:19Z</time><course>150</course><type>1</type></trkpt>
      <trkpt lat="37.813519" lon="-7.569733"><ele>1872</ele><speed>7.44</speed><time>2017-07-01T17:56:24Z</time><course>324</course><type>1</type></trkpt>
      <trkpt lat="37.813683" lon="-7.570384"><ele>1872</ele><speed>43.27</speed><time>2017-07-01T17:56:29Z</time><course>264</course><type>1</type></trkpt>
      <trkpt lat="37.813183" lon="-7.571200"><ele>1873</ele><speed>65.39</speed><time>2017-07-01T17:56:34Z</time><course>218</course><type>1</type></trkpt>
      <trkpt lat="37.812515" lon="-7.571650"><ele>1879</ele><speed>60.65</speed><time>2017-07-01T17:56:39Z</time><course>196</course><type>1</type></trkpt>
      <trkpt lat="37.812199" lon="-7.571466"><ele>1881</ele><speed>27.88</speed><time>2017-07-01T17:56:44Z</time><course>76</course><type>1</type></trkpt>
      <trkpt lat="37.812332" lon="-7.571950"><ele>1886</ele><speed>32.45</speed><time>2017-07-01T17:56:49Z</time><course>264</course><type>1</type></trkpt>
      <trkpt lat="37.811932" lon="-7.572817"><ele>1889</ele><speed>63.57</speed><time>2017-07-01T17:56:54Z</time><course>224</course><type>1</type></trkpt>
      <trkpt lat="37.811298" lon="-7.573350"><ele>1894</ele><speed>61</speed><time>2017-07-01T17:56:59Z</time><course>202</course><type>1</type></trkpt>
      <trkpt lat="37.810966" lon="-7.573184"><ele>1894</ele><speed>28.61</speed><time>2017-07-01T17:57:04Z</time><course>82</course><type>1</type></trkpt>
      <trkpt lat="37.811100" lon="-7.573583"><ele>1900</ele><speed>27.45</speed><time>2017-07-01T17:57:09Z</time><course>266</course><type>1</type></trkpt>
      <trkpt lat="37.810719" lon="-7.574450"><ele>1902</ele><speed>62.82</speed><time>2017-07-01T17:57:14Z</time><course>226</course><type>1</type></trkpt>
      <trkpt lat="37.810165" lon="-7.574983"><ele>1904</ele><speed>55.77</speed><time>2017-07-01T17:57:19Z</time><course>192</course><type>1</type></trkpt>
      <trkpt lat="37.809883" lon="-7.574783"><ele>1894</ele><speed>25.91</speed><time>2017-07-01T17:57:24Z</time><course>120</course><type>1</type></trkpt>
      <trkpt lat="37.809952" lon="-7.574717"><ele>1900</ele><speed>6.93</speed><time>2017-07-01T17:57:29Z</time><course>334</course><type>1</type></trkpt>
      <trkpt lat="37.809952" lon="-7.575483"><ele>1899</ele><speed>48.5</speed><time>2017-07-01T17:57:34Z</time><course>236</course><type>1</type></trkpt>
      <trkpt lat="37.809334" lon="-7.575967"><ele>1904</ele><speed>58.25</speed><time>2017-07-01T17:57:39Z</time><course>186</course><type>1</type></trkpt>
      <trkpt lat="37.808968" lon="-7.575767"><ele>1909</ele><speed>31.95</speed><time>2017-07-01T17:57:44Z</time><course>120</course><type>1</type></trkpt>
      <trkpt lat="37.809116" lon="-7.575933"><ele>1910</ele><speed>15.85</speed><time>2017-07-01T17:57:49Z</time><course>288</course><type>1</type></trkpt>
      <trkpt lat="37.808849" lon="-7.576783"><ele>1909</ele><speed>57.92</speed><time>2017-07-01T17:57:54Z</time><course>224</course><type>1</type></trkpt>
      <trkpt lat="37.807533" lon="-7.577567"><ele>1913</ele><speed>58.29</speed><time>2017-07-01T17:58:04Z</time><course>158</course><type>1</type></trkpt>
      <trkpt lat="37.807499" lon="-7.577483"><ele>1902</ele><speed>5.98</speed><time>2017-07-01T17:58:09Z</time><course>326</course><type>1</type></trkpt>
      <trkpt lat="37.807499" lon="-7.578300"><ele>1898</ele><speed>51.74</speed><time>2017-07-01T17:58:14Z</time><course>246</course><type>1</type></trkpt>
      <trkpt lat="37.807018" lon="-7.579200"><ele>1898</ele><speed>68.81</speed><time>2017-07-01T17:58:19Z</time><course>226</course><type>1</type></trkpt>
      <trkpt lat="37.806267" lon="-7.579883"><ele>1891</ele><speed>74.12</speed><time>2017-07-01T17:58:24Z</time><course>214</course><type>1</type></trkpt>
      <trkpt lat="37.805550" lon="-7.580483"><ele>1887</ele><speed>68.89</speed><time>2017-07-01T17:58:29Z</time><course>212</course><type>1</type></trkpt>
      <trkpt lat="37.804901" lon="-7.581017"><ele>1887</ele><speed>62.04</speed><time>2017-07-01T17:58:34Z</time><course>210</course><type>1</type></trkpt>
      <trkpt lat="37.804234" lon="-7.581550"><ele>1884</ele><speed>63.22</speed><time>2017-07-01T17:58:39Z</time><course>214</course><type>1</type></trkpt>
      <trkpt lat="37.803600" lon="-7.582083"><ele>1877</ele><speed>61</speed><time>2017-07-01T17:58:44Z</time><course>208</course><type>1</type></trkpt>
      <trkpt lat="37.802265" lon="-7.583100"><ele>1872</ele><speed>62.44</speed><time>2017-07-01T17:58:54Z</time><course>212</course><type>1</type></trkpt>
      <trkpt lat="37.801552" lon="-7.583667"><ele>1860</ele><speed>67.49</speed><time>2017-07-01T17:58:59Z</time><course>212</course><type>1</type></trkpt>
      <trkpt lat="37.800900" lon="-7.584233"><ele>1859</ele><speed>63.37</speed><time>2017-07-01T17:59:04Z</time><course>212</course><type>1</type></trkpt>
      <trkpt lat="37.800232" lon="-7.584800"><ele>1853</ele><speed>64.47</speed><time>2017-07-01T17:59:09Z</time><course>216</course><type>1</type></trkpt>
      <trkpt lat="37.799534" lon="-7.585400"><ele>1847</ele><speed>67.63</speed><time>2017-07-01T17:59:14Z</time><course>212</course><type>1</type></trkpt>
      <trkpt lat="37.798882" lon="-7.585950"><ele>1845</ele><speed>62.8</speed><time>2017-07-01T17:59:19Z</time><course>214</course><type>1</type></trkpt>
      <trkpt lat="37.798199" lon="-7.586534"><ele>1841</ele><speed>66.07</speed><time>2017-07-01T17:59:24Z</time><course>216</course><type>1</type></trkpt>
      <trkpt lat="37.797516" lon="-7.587117"><ele>1835</ele><speed>66.03</speed><time>2017-07-01T17:59:29Z</time><course>212</course><type>1</type></trkpt>
      <trkpt lat="37.796867" lon="-7.587667"><ele>1838</ele><speed>62.6</speed><time>2017-07-01T17:59:34Z</time><course>212</course><type>1</type></trkpt>
      <trkpt lat="37.796165" lon="-7.588183"><ele>1831</ele><speed>65.07</speed><time>2017-07-01T17:59:39Z</time><course>210</course><type>1</type></trkpt>
      <trkpt lat="37.794815" lon="-7.589300"><ele>1821</ele><speed>64.64</speed><time>2017-07-01T17:59:49Z</time><course>214</course><type>1</type></trkpt>
      <trkpt lat="37.794132" lon="-7.589867"><ele>1817</ele><speed>65.47</speed><time>2017-07-01T17:59:54Z</time><course>212</course><type>1</type></trkpt>
      <trkpt lat="37.793484" lon="-7.590400"><ele>1809</ele><speed>61.94</speed><time>2017-07-01T17:59:59Z</time><course>214</course><type>1</type></trkpt>
      <trkpt lat="37.792801" lon="-7.591000"><ele>1800</ele><speed>66.64</speed><time>2017-07-01T18:00:04Z</time><course>216</course><type>1</type></trkpt>
      <trkpt lat="37.792118" lon="-7.591633"><ele>1789</ele><speed>67.85</speed><time>2017-07-01T18:00:09Z</time><course>212</course><type>1</type></trkpt>
      <trkpt lat="37.791431" lon="-7.592183"><ele>1781</ele><speed>65.16</speed><time>2017-07-01T18:00:14Z</time><course>208</course><type>1</type></trkpt>
      <trkpt lat="37.790699" lon="-7.592700"><ele>1772</ele><speed>67.19</speed><time>2017-07-01T18:00:19Z</time><course>208</course><type>1</type></trkpt>
      <trkpt lat="37.789967" lon="-7.593233"><ele>1764</ele><speed>67.69</speed><time>2017-07-01T18:00:24Z</time><course>212</course><type>1</type></trkpt>
      <trkpt lat="37.789249" lon="-7.593817"><ele>1756</ele><speed>68.41</speed><time>2017-07-01T18:00:29Z</time><course>212</course><type>1</type></trkpt>
      <trkpt lat="37.787849" lon="-7.594900"><ele>1750</ele><speed>65.76</speed><time>2017-07-01T18:00:39Z</time><course>210</course><type>1</type></trkpt>
      <trkpt lat="37.787117" lon="-7.595433"><ele>1746</ele><speed>67.69</speed><time>2017-07-01T18:00:44Z</time><course>210</course><type>1</type></trkpt>
      <trkpt lat="37.786400" lon="-7.595917"><ele>1742</ele><speed>65.13</speed><time>2017-07-01T18:00:49Z</time><course>210</course><type>1</type></trkpt>
      <trkpt lat="37.785683" lon="-7.596416"><ele>1736</ele><speed>65.59</speed><time>2017-07-01T18:00:54Z</time><course>204</course><type>1</type></trkpt>
      <trkpt lat="37.784985" lon="-7.596867"><ele>1733</ele><speed>62.82</speed><time>2017-07-01T18:00:59Z</time><course>206</course><type>1</type></trkpt>
      <trkpt lat="37.784218" lon="-7.597317"><ele>1728</ele><speed>67.76</speed><time>2017-07-01T18:01:04Z</time><course>202</course><type>1</type></trkpt>
      <trkpt lat="37.783451" lon="-7.597717"><ele>1726</ele><speed>66.49</speed><time>2017-07-01T18:01:09Z</time><course>200</course><type>1</type></trkpt>
      <trkpt lat="37.782734" lon="-7.598117"><ele>1721</ele><speed>62.81</speed><time>2017-07-01T18:01:14Z</time><course>204</course><type>1</type></trkpt>
      <trkpt lat="37.781952" lon="-7.598533"><ele>1711</ele><speed>67.99</speed><time>2017-07-01T18:01:19Z</time><course>200</course><type>1</type></trkpt>
      <trkpt lat="37.780365" lon="-7.599383"><ele>1708</ele><speed>69.06</speed><time>2017-07-01T18:01:29Z</time><course>202</course><type>1</type></trkpt>
      <trkpt lat="37.779583" lon="-7.599783"><ele>1704</ele><speed>67.61</speed><time>2017-07-01T18:01:34Z</time><course>200</course><type>1</type></trkpt>
      <trkpt lat="37.778801" lon="-7.600217"><ele>1705</ele><speed>68.44</speed><time>2017-07-01T18:01:39Z</time><course>202</course><type>1</type></trkpt>
      <trkpt lat="37.778000" lon="-7.600700"><ele>1704</ele><speed>71.12</speed><time>2017-07-01T18:01:44Z</time><course>208</course><type>1</type></trkpt>
      <trkpt lat="37.777233" lon="-7.601217"><ele>1708</ele><speed>69.66</speed><time>2017-07-01T18:01:49Z</time><course>206</course><type>1</type></trkpt>
      <trkpt lat="37.776417" lon="-7.601733"><ele>1708</ele><speed>73.12</speed><time>2017-07-01T18:01:54Z</time><course>202</course><type>1</type></trkpt>
      <trkpt lat="37.775585" lon="-7.602200"><ele>1710</ele><speed>72.95</speed><time>2017-07-01T18:01:59Z</time><course>204</course><type>1</type></trkpt>
      <trkpt lat="37.774799" lon="-7.602667"><ele>1712</ele><speed>69.6</speed><time>2017-07-01T18:02:04Z</time><course>202</course><type>1</type></trkpt>
      <trkpt lat="37.773983" lon="-7.603133"><ele>1708</ele><speed>71.76</speed><time>2017-07-01T18:02:09Z</time><course>204</course><type>1</type></trkpt>
      <trkpt lat="37.773167" lon="-7.603600"><ele>1708</ele><speed>71.78</speed><time>2017-07-01T18:02:14Z</time><course>202</course><type>1</type></trkpt>
      <trkpt lat="37.771515" lon="-7.604417"><ele>1710</ele><speed>71.08</speed><time>2017-07-01T18:02:24Z</time><course>200</course><type>1</type></trkpt>
      <trkpt lat="37.770748" lon="-7.604784"><ele>1708</ele><speed>65.73</speed><time>2017-07-01T18:02:29Z</time><course>200</course><type>1</type></trkpt>
      <trkpt lat="37.769966" lon="-7.605200"><ele>1709</ele><speed>67.99</speed><time>2017-07-01T18:02:34Z</time><course>202</course><type>1</type></trkpt>
      <trkpt lat="37.769184" lon="-7.605583"><ele>1705</ele><speed>67.21</speed><time>2017-07-01T18:02:39Z</time><course>198</course><type>1</type></trkpt>
      <trkpt lat="37.768398" lon="-7.605983"><ele>1705</ele><speed>67.9</speed><time>2017-07-01T18:02:44Z</time><course>198</course><type>1</type></trkpt>
      <trkpt lat="37.767582" lon="-7.606400"><ele>1700</ele><speed>70.54</speed><time>2017-07-01T18:02:49Z</time><course>200</course><type>1</type></trkpt>
      <trkpt lat="37.766800" lon="-7.606817"><ele>1700</ele><speed>68.02</speed><time>2017-07-01T18:02:54Z</time><course>200</course><type>1</type></trkpt>
      <trkpt lat="37.765984" lon="-7.607234"><ele>1697</ele><speed>70.54</speed><time>2017-07-01T18:02:59Z</time><course>200</course><type>1</type></trkpt>
      <trkpt lat="37.765266" lon="-7.607600"><ele>1695</ele><speed>62.04</speed><time>2017-07-01T18:03:04Z</time><course>200</course><type>1</type></trkpt>
      <trkpt lat="37.764549" lon="-7.607983"><ele>1689</ele><speed>62.38</speed><time>2017-07-01T18:03:09Z</time><course>202</course><type>1</type></trkpt>
      <trkpt lat="37.763168" lon="-7.608667"><ele>1682</ele><speed>59.43</speed><time>2017-07-01T18:03:19Z</time><course>200</course><type>1</type></trkpt>
      <trkpt lat="37.762516" lon="-7.609017"><ele>1676</ele><speed>56.77</speed><time>2017-07-01T18:03:24Z</time><course>200</course><type>1</type></trkpt>
      <trkpt lat="37.761799" lon="-7.609383"><ele>1669</ele><speed>61.97</speed><time>2017-07-01T18:03:29Z</time><course>200</course><type>1</type></trkpt>
      <trkpt lat="37.761082" lon="-7.609750"><ele>1665</ele><speed>61.99</speed><time>2017-07-01T18:03:34Z</time><course>200</course><type>1</type></trkpt>
      <trkpt lat="37.760334" lon="-7.610133"><ele>1664</ele><speed>64.68</speed><time>2017-07-01T18:03:39Z</time><course>202</course><type>1</type></trkpt>
      <trkpt lat="37.759602" lon="-7.610517"><ele>1657</ele><speed>63.52</speed><time>2017-07-01T18:03:44Z</time><course>200</course><type>1</type></trkpt>
      <trkpt lat="37.758835" lon="-7.610867"><ele>1651</ele><speed>65.35</speed><time>2017-07-01T18:03:49Z</time><course>198</course><type>1</type></trkpt>
      <trkpt lat="37.758068" lon="-7.611217"><ele>1645</ele><speed>65.35</speed><time>2017-07-01T18:03:54Z</time><course>200</course><type>1</type></trkpt>
      <trkpt lat="37.757317" lon="-7.611516"><ele>1635</ele><speed>63.1</speed><time>2017-07-01T18:03:59Z</time><course>198</course><type>1</type></trkpt>
      <trkpt lat="37.756634" lon="-7.611850"><ele>1632</ele><speed>58.69</speed><time>2017-07-01T18:04:04Z</time><course>200</course><type>1</type></trkpt>
      <trkpt lat="37.755135" lon="-7.612534"><ele>1618</ele><speed>63.86</speed><time>2017-07-01T18:04:14Z</time><course>196</course><type>1</type></trkpt>
      <trkpt lat="37.754398" lon="-7.612817"><ele>1615</ele><speed>61.73</speed><time>2017-07-01T18:04:19Z</time><course>196</course><type>1</type></trkpt>
      <trkpt lat="37.753651" lon="-7.613117"><ele>1611</ele><speed>62.82</speed><time>2017-07-01T18:04:24Z</time><course>198</course><type>1</type></trkpt>
      <trkpt lat="37.752884" lon="-7.613400"><ele>1605</ele><speed>64.04</speed><time>2017-07-01T18:04:29Z</time><course>194</course><type>1</type></trkpt>
      <trkpt lat="37.752132" lon="-7.613750"><ele>1601</ele><speed>64.22</speed><time>2017-07-01T18:04:34Z</time><course>200</course><type>1</type></trkpt>
      <trkpt lat="37.751385" lon="-7.614117"><ele>1598</ele><speed>64.23</speed><time>2017-07-01T18:04:39Z</time><course>200</course><type>1</type></trkpt>
      <trkpt lat="37.750618" lon="-7.614450"><ele>1596</ele><speed>65</speed><time>2017-07-01T18:04:44Z</time><course>198</course><type>1</type></trkpt>
      <trkpt lat="37.749866" lon="-7.614783"><ele>1595</ele><speed>63.86</speed><time>2017-07-01T18:04:49Z</time><course>196</course><type>1</type></trkpt>
      <trkpt lat="37.749100" lon="-7.615100"><ele>1592</ele><speed>64.6</speed><time>2017-07-01T18:04:54Z</time><course>200</course><type>1</type></trkpt>
      <trkpt lat="37.747601" lon="-7.615633"><ele>1576</ele><speed>62.4</speed><time>2017-07-01T18:05:04Z</time><course>196</course><type>1</type></trkpt>
      <trkpt lat="37.746799" lon="-7.615883"><ele>1570</ele><speed>66.2</speed><time>2017-07-01T18:05:09Z</time><course>196</course><type>1</type></trkpt>
      <trkpt lat="37.746067" lon="-7.616183"><ele>1561</ele><speed>61.67</speed><time>2017-07-01T18:05:14Z</time><course>196</course><type>1</type></trkpt>
      <trkpt lat="37.745384" lon="-7.616400"><ele>1555</ele><speed>56.44</speed><time>2017-07-01T18:05:19Z</time><course>192</course><type>1</type></trkpt>
      <trkpt lat="37.744682" lon="-7.616683"><ele>1546</ele><speed>59.05</speed><time>2017-07-01T18:05:24Z</time><course>192</course><type>1</type></trkpt>
      <trkpt lat="37.743950" lon="-7.616867"><ele>1533</ele><speed>59.82</speed><time>2017-07-01T18:05:29Z</time><course>192</course><type>1</type></trkpt>
      <trkpt lat="37.743149" lon="-7.617150"><ele>1525</ele><speed>66.66</speed><time>2017-07-01T18:05:34Z</time><course>194</course><type>1</type></trkpt>
      <trkpt lat="37.742367" lon="-7.617367"><ele>1516</ele><speed>64.17</speed><time>2017-07-01T18:05:39Z</time><course>190</course><type>1</type></trkpt>
      <trkpt lat="37.741550" lon="-7.617567"><ele>1506</ele><speed>66.7</speed><time>2017-07-01T18:05:44Z</time><course>188</course><type>1</type></trkpt>
      <trkpt lat="37.740715" lon="-7.617784"><ele>1499</ele><speed>68.32</speed><time>2017-07-01T18:05:49Z</time><course>190</course><type>1</type></trkpt>
      <trkpt lat="37.739082" lon="-7.618166"><ele>1490</ele><speed>66.55</speed><time>2017-07-01T18:05:59Z</time><course>186</course><type>1</type></trkpt>
      <trkpt lat="37.738266" lon="-7.618333"><ele>1485</ele><speed>66.25</speed><time>2017-07-01T18:06:04Z</time><course>190</course><type>1</type></trkpt>
      <trkpt lat="37.737465" lon="-7.618533"><ele>1481</ele><speed>65.44</speed><time>2017-07-01T18:06:09Z</time><course>192</course><type>1</type></trkpt>
      <trkpt lat="37.736698" lon="-7.618733"><ele>1475</ele><speed>62.77</speed><time>2017-07-01T18:06:14Z</time><course>190</course><type>1</type></trkpt>
      <trkpt lat="37.735935" lon="-7.619000"><ele>1470</ele><speed>63.45</speed><time>2017-07-01T18:06:19Z</time><course>194</course><type>1</type></trkpt>
      <trkpt lat="37.735149" lon="-7.619300"><ele>1463</ele><speed>65.81</speed><time>2017-07-01T18:06:24Z</time><course>200</course><type>1</type></trkpt>
      <trkpt lat="37.734402" lon="-7.619566"><ele>1453</ele><speed>62.2</speed><time>2017-07-01T18:06:29Z</time><course>194</course><type>1</type></trkpt>
      <trkpt lat="37.733650" lon="-7.619783"><ele>1446</ele><speed>61.82</speed><time>2017-07-01T18:06:34Z</time><course>190</course><type>1</type></trkpt>
      <trkpt lat="37.732849" lon="-7.620000"><ele>1441</ele><speed>65.66</speed><time>2017-07-01T18:06:39Z</time><course>194</course><type>1</type></trkpt>
      <trkpt lat="37.732067" lon="-7.620200"><ele>1437</ele><speed>63.95</speed><time>2017-07-01T18:06:44Z</time><course>192</course><type>1</type></trkpt>
      <trkpt lat="37.730618" lon="-7.620733"><ele>1432</ele><speed>60.48</speed><time>2017-07-01T18:06:54Z</time><course>198</course><type>1</type></trkpt>
      <trkpt lat="37.729916" lon="-7.621033"><ele>1430</ele><speed>59.39</speed><time>2017-07-01T18:06:59Z</time><course>200</course><type>1</type></trkpt>
      <trkpt lat="37.729218" lon="-7.621333"><ele>1430</ele><speed>59.09</speed><time>2017-07-01T18:07:04Z</time><course>200</course><type>1</type></trkpt>
      <trkpt lat="37.728550" lon="-7.621634"><ele>1425</ele><speed>56.84</speed><time>2017-07-01T18:07:09Z</time><course>198</course><type>1</type></trkpt>
      <trkpt lat="37.727852" lon="-7.621900"><ele>1418</ele><speed>58.43</speed><time>2017-07-01T18:07:14Z</time><course>194</course><type>1</type></trkpt>
      <trkpt lat="37.727184" lon="-7.622100"><ele>1409</ele><speed>55.02</speed><time>2017-07-01T18:07:19Z</time><course>192</course><type>1</type></trkpt>
      <trkpt lat="37.726482" lon="-7.622283"><ele>1400</ele><speed>57.45</speed><time>2017-07-01T18:07:24Z</time><course>190</course><type>1</type></trkpt>
      <trkpt lat="37.725834" lon="-7.622467"><ele>1392</ele><speed>53.23</speed><time>2017-07-01T18:07:29Z</time><course>194</course><type>1</type></trkpt>
      <trkpt lat="37.725132" lon="-7.622700"><ele>1383</ele><speed>58.17</speed><time>2017-07-01T18:07:34Z</time><course>194</course><type>1</type></trkpt>
      <trkpt lat="37.723701" lon="-7.623267"><ele>1359</ele><speed>60.1</speed><time>2017-07-01T18:07:44Z</time><course>194</course><type>1</type></trkpt>
      <trkpt lat="37.722916" lon="-7.623517"><ele>1350</ele><speed>64.88</speed><time>2017-07-01T18:07:49Z</time><course>196</course><type>1</type></trkpt>
      <trkpt lat="37.722168" lon="-7.623750"><ele>1341</ele><speed>61.75</speed><time>2017-07-01T18:07:54Z</time><course>190</course><type>1</type></trkpt>
      <trkpt lat="37.721432" lon="-7.623967"><ele>1332</ele><speed>60.57</speed><time>2017-07-01T18:07:59Z</time><course>192</course><type>1</type></trkpt>
      <trkpt lat="37.720684" lon="-7.624200"><ele>1323</ele><speed>61.75</speed><time>2017-07-01T18:08:04Z</time><course>194</course><type>1</type></trkpt>
      <trkpt lat="37.719898" lon="-7.624383"><ele>1313</ele><speed>64.06</speed><time>2017-07-01T18:08:09Z</time><course>188</course><type>1</type></trkpt>
      <trkpt lat="37.719116" lon="-7.624533"><ele>1310</ele><speed>63.39</speed><time>2017-07-01T18:08:14Z</time><course>186</course><type>1</type></trkpt>
      <trkpt lat="37.718266" lon="-7.624650"><ele>1306</ele><speed>68.53</speed><time>2017-07-01T18:08:19Z</time><course>184</course><type>1</type></trkpt>
      <trkpt lat="37.717434" lon="-7.624817"><ele>1302</ele><speed>67.52</speed><time>2017-07-01T18:08:24Z</time><course>190</course><type>1</type></trkpt>
      <trkpt lat="37.715801" lon="-7.625167"><ele>1298</ele><speed>66.38</speed><time>2017-07-01T18:08:34Z</time><course>188</course><type>1</type></trkpt>
      <trkpt lat="37.714966" lon="-7.625300"><ele>1290</ele><speed>67.45</speed><time>2017-07-01T18:08:39Z</time><course>186</course><type>1</type></trkpt>
      <trkpt lat="37.714149" lon="-7.625350"><ele>1285</ele><speed>65.56</speed><time>2017-07-01T18:08:44Z</time><course>182</course><type>1</type></trkpt>
      <trkpt lat="37.713402" lon="-7.625450"><ele>1279</ele><speed>60.21</speed><time>2017-07-01T18:08:49Z</time><course>184</course><type>1</type></trkpt>
      <trkpt lat="37.712582" lon="-7.625500"><ele>1277</ele><speed>65.8</speed><time>2017-07-01T18:08:54Z</time><course>184</course><type>1</type></trkpt>
      <trkpt lat="37.711800" lon="-7.625550"><ele>1275</ele><speed>62.76</speed><time>2017-07-01T18:08:59Z</time><course>184</course><type>1</type></trkpt>
      <trkpt lat="37.710983" lon="-7.625550"><ele>1270</ele><speed>65.48</speed><time>2017-07-01T18:09:04Z</time><course>180</course><type>1</type></trkpt>
      <trkpt lat="37.710167" lon="-7.625566"><ele>1273</ele><speed>65.41</speed><time>2017-07-01T18:09:09Z</time><course>180</course><type>1</type></trkpt>
      <trkpt lat="37.709301" lon="-7.625583"><ele>1267</ele><speed>69.42</speed><time>2017-07-01T18:09:14Z</time><course>180</course><type>1</type></trkpt>
      <trkpt lat="37.708500" lon="-7.625667"><ele>1267</ele><speed>64.42</speed><time>2017-07-01T18:09:19Z</time><course>184</course><type>1</type></trkpt>
      <trkpt lat="37.706966" lon="-7.625733"><ele>1261</ele><speed>61.51</speed><time>2017-07-01T18:09:29Z</time><course>178</course><type>1</type></trkpt>
      <trkpt lat="37.706184" lon="-7.625733"><ele>1257</ele><speed>62.68</speed><time>2017-07-01T18:09:34Z</time><course>176</course><type>1</type></trkpt>
      <trkpt lat="37.705399" lon="-7.625750"><ele>1249</ele><speed>62.93</speed><time>2017-07-01T18:09:39Z</time><course>180</course><type>1</type></trkpt>
      <trkpt lat="37.704567" lon="-7.625783"><ele>1239</ele><speed>66.72</speed><time>2017-07-01T18:09:44Z</time><course>180</course><type>1</type></trkpt>
      <trkpt lat="37.703751" lon="-7.625783"><ele>1236</ele><speed>65.4</speed><time>2017-07-01T18:09:49Z</time><course>176</course><type>1</type></trkpt>
      <trkpt lat="37.702900" lon="-7.625800"><ele>1231</ele><speed>68.22</speed><time>2017-07-01T18:09:54Z</time><course>176</course><type>1</type></trkpt>
      <trkpt lat="37.702099" lon="-7.625750"><ele>1227</ele><speed>64.28</speed><time>2017-07-01T18:09:59Z</time><course>178</course><type>1</type></trkpt>
      <trkpt lat="37.701283" lon="-7.625700"><ele>1221</ele><speed>65.48</speed><time>2017-07-01T18:10:04Z</time><course>174</course><type>1</type></trkpt>
      <trkpt lat="37.700466" lon="-7.625617"><ele>1216</ele><speed>65.69</speed><time>2017-07-01T18:10:09Z</time><course>174</course><type>1</type></trkpt>
      <trkpt lat="37.698818" lon="-7.625500"><ele>1204</ele><speed>66.15</speed><time>2017-07-01T18:10:19Z</time><course>178</course><type>1</type></trkpt>
      <trkpt lat="37.698032" lon="-7.625484"><ele>1207</ele><speed>63.01</speed><time>2017-07-01T18:10:24Z</time><course>174</course><type>1</type></trkpt>
      <trkpt lat="37.697235" lon="-7.625417"><ele>1203</ele><speed>64.02</speed><time>2017-07-01T18:10:29Z</time><course>178</course><type>1</type></trkpt>
      <trkpt lat="37.696449" lon="-7.625417"><ele>1195</ele><speed>63</speed><time>2017-07-01T18:10:34Z</time><course>178</course><type>1</type></trkpt>
      <trkpt lat="37.695648" lon="-7.625417"><ele>1188</ele><speed>64.2</speed><time>2017-07-01T18:10:39Z</time><course>176</course><type>1</type></trkpt>
      <trkpt lat="37.694801" lon="-7.625500"><ele>1181</ele><speed>68.09</speed><time>2017-07-01T18:10:44Z</time><course>184</course><type>1</type></trkpt>
      <trkpt lat="37.693966" lon="-7.625566"><ele>1175</ele><speed>67.06</speed><time>2017-07-01T18:10:49Z</time><course>180</course><type>1</type></trkpt>
      <trkpt lat="37.693150" lon="-7.625633"><ele>1168</ele><speed>65.54</speed><time>2017-07-01T18:10:54Z</time><course>178</course><type>1</type></trkpt>
      <trkpt lat="37.692348" lon="-7.625617"><ele>1158</ele><speed>64.29</speed><time>2017-07-01T18:10:59Z</time><course>178</course><type>1</type></trkpt>
      <trkpt lat="37.691551" lon="-7.625600"><ele>1149</ele><speed>63.89</speed><time>2017-07-01T18:11:04Z</time><course>178</course><type>1</type></trkpt>
      <trkpt lat="37.689968" lon="-7.625650"><ele>1123</ele><speed>63.46</speed><time>2017-07-01T18:11:14Z</time><course>178</course><type>1</type></trkpt>
      <trkpt lat="37.689098" lon="-7.625650"><ele>1109</ele><speed>69.73</speed><time>2017-07-01T18:11:19Z</time><course>180</course><type>1</type></trkpt>
      <trkpt lat="37.688217" lon="-7.625600"><ele>1095</ele><speed>70.68</speed><time>2017-07-01T18:11:24Z</time><course>176</course><type>1</type></trkpt>
      <trkpt lat="37.687435" lon="-7.625617"><ele>1092</ele><speed>62.69</speed><time>2017-07-01T18:11:29Z</time><course>174</course><type>1</type></trkpt>
      <trkpt lat="37.686550" lon="-7.625500"><ele>1091</ele><speed>71.32</speed><time>2017-07-01T18:11:34Z</time><course>172</course><type>1</type></trkpt>
      <trkpt lat="37.685749" lon="-7.625400"><ele>1087</ele><speed>64.51</speed><time>2017-07-01T18:11:39Z</time><course>174</course><type>1</type></trkpt>
      <trkpt lat="37.684933" lon="-7.625317"><ele>1084</ele><speed>65.61</speed><time>2017-07-01T18:11:44Z</time><course>174</course><type>1</type></trkpt>
      <trkpt lat="37.684101" lon="-7.625250"><ele>1082</ele><speed>66.82</speed><time>2017-07-01T18:11:49Z</time><course>174</course><type>1</type></trkpt>
      <trkpt lat="37.683235" lon="-7.625183"><ele>1077</ele><speed>69.54</speed><time>2017-07-01T18:11:54Z</time><course>176</course><type>1</type></trkpt>
      <trkpt lat="37.682384" lon="-7.625150"><ele>1070</ele><speed>68.24</speed><time>2017-07-01T18:11:59Z</time><course>176</course><type>1</type></trkpt>
      <trkpt lat="37.680000" lon="-7.624917"><ele>1054</ele><speed>63.88</speed><time>2017-07-01T18:12:14Z</time><course>174</course><type>1</type></trkpt>
      <trkpt lat="37.679165" lon="-7.624900"><ele>1051</ele><speed>66.93</speed><time>2017-07-01T18:12:19Z</time><course>178</course><type>1</type></trkpt>
      <trkpt lat="37.678284" lon="-7.624933"><ele>1045</ele><speed>70.64</speed><time>2017-07-01T18:12:24Z</time><course>184</course><type>1</type></trkpt>
      <trkpt lat="37.677433" lon="-7.625017"><ele>1037</ele><speed>68.42</speed><time>2017-07-01T18:12:29Z</time><course>182</course><type>1</type></trkpt>
      <trkpt lat="37.676601" lon="-7.625067"><ele>1033</ele><speed>66.76</speed><time>2017-07-01T18:12:34Z</time><course>182</course><type>1</type></trkpt>
      <trkpt lat="37.675732" lon="-7.625117"><ele>1024</ele><speed>69.72</speed><time>2017-07-01T18:12:39Z</time><course>184</course><type>1</type></trkpt>
      <trkpt lat="37.674866" lon="-7.625167"><ele>1016</ele><speed>69.48</speed><time>2017-07-01T18:12:44Z</time><course>180</course><type>1</type></trkpt>
      <trkpt lat="37.674034" lon="-7.625233"><ele>1009</ele><speed>66.82</speed><time>2017-07-01T18:12:49Z</time><course>180</course><type>1</type></trkpt>
      <trkpt lat="37.673199" lon="-7.625250"><ele>999</ele><speed>66.93</speed><time>2017-07-01T18:12:54Z</time><course>178</course><type>1</type></trkpt>
      <trkpt lat="37.672333" lon="-7.625300"><ele>988</ele><speed>69.48</speed><time>2017-07-01T18:12:59Z</time><course>186</course><type>1</type></trkpt>
      <trkpt lat="37.671467" lon="-7.625433"><ele>977</ele><speed>69.92</speed><time>2017-07-01T18:13:04Z</time><course>186</course><type>1</type></trkpt>
      <trkpt lat="37.670635" lon="-7.625583"><ele>974</ele><speed>67.36</speed><time>2017-07-01T18:13:09Z</time><course>184</course><type>1</type></trkpt>
      <trkpt lat="37.669800" lon="-7.625667"><ele>967</ele><speed>67.14</speed><time>2017-07-01T18:13:14Z</time><course>180</course><type>1</type></trkpt>
      <trkpt lat="37.668999" lon="-7.625750"><ele>956</ele><speed>64.42</speed><time>2017-07-01T18:13:19Z</time><course>184</course><type>1</type></trkpt>
      <trkpt lat="37.668217" lon="-7.625850"><ele>949</ele><speed>63</speed><time>2017-07-01T18:13:24Z</time><course>190</course><type>1</type></trkpt>
      <trkpt lat="37.667416" lon="-7.625850"><ele>939</ele><speed>64.2</speed><time>2017-07-01T18:13:29Z</time><course>180</course><type>1</type></trkpt>
      <trkpt lat="37.666649" lon="-7.625900"><ele>934</ele><speed>61.56</speed><time>2017-07-01T18:13:34Z</time><course>186</course><type>1</type></trkpt>
      <trkpt lat="37.665852" lon="-7.626033"><ele>926</ele><speed>64.43</speed><time>2017-07-01T18:13:39Z</time><course>180</course><type>1</type></trkpt>
      <trkpt lat="37.665085" lon="-7.626000"><ele>923</ele><speed>61.51</speed><time>2017-07-01T18:13:44Z</time><course>172</course><type>1</type></trkpt>
      <trkpt lat="37.664349" lon="-7.625950"><ele>916</ele><speed>59.08</speed><time>2017-07-01T18:13:49Z</time><course>176</course><type>1</type></trkpt>
      <trkpt lat="37.663582" lon="-7.625967"><ele>906</ele><speed>61.48</speed><time>2017-07-01T18:13:54Z</time><course>182</course><type>1</type></trkpt>
      <trkpt lat="37.662750" lon="-7.626000"><ele>894</ele><speed>66.72</speed><time>2017-07-01T18:13:59Z</time><course>182</course><type>1</type></trkpt>
      <trkpt lat="37.661934" lon="-7.626117"><ele>885</ele><speed>65.82</speed><time>2017-07-01T18:14:04Z</time><course>186</course><type>1</type></trkpt>
      <trkpt lat="37.661098" lon="-7.626200"><ele>876</ele><speed>67.21</speed><time>2017-07-01T18:14:09Z</time><course>184</course><type>1</type></trkpt>
      <trkpt lat="37.660332" lon="-7.626283"><ele>866</ele><speed>61.62</speed><time>2017-07-01T18:14:14Z</time><course>180</course><type>1</type></trkpt>
      <trkpt lat="37.659550" lon="-7.626333"><ele>859</ele><speed>62.76</speed><time>2017-07-01T18:14:19Z</time><course>180</course><type>1</type></trkpt>
      <trkpt lat="37.658733" lon="-7.626333"><ele>849</ele><speed>65.48</speed><time>2017-07-01T18:14:24Z</time><course>182</course><type>1</type></trkpt>
      <trkpt lat="37.657951" lon="-7.626383"><ele>843</ele><speed>62.76</speed><time>2017-07-01T18:14:29Z</time><course>180</course><type>1</type></trkpt>
      <trkpt lat="37.657185" lon="-7.626400"><ele>841</ele><speed>61.4</speed><time>2017-07-01T18:14:34Z</time><course>180</course><type>1</type></trkpt>
      <trkpt lat="37.656418" lon="-7.626417"><ele>837</ele><speed>61.48</speed><time>2017-07-01T18:14:39Z</time><course>182</course><type>1</type></trkpt>
      <trkpt lat="37.655651" lon="-7.626450"><ele>831</ele><speed>61.51</speed><time>2017-07-01T18:14:44Z</time><course>180</course><type>1</type></trkpt>
      <trkpt lat="37.654835" lon="-7.626450"><ele>824</ele><speed>65.4</speed><time>2017-07-01T18:14:49Z</time><course>180</course><type>1</type></trkpt>
      <trkpt lat="37.653999" lon="-7.626450"><ele>820</ele><speed>67.01</speed><time>2017-07-01T18:14:54Z</time><course>178</course><type>1</type></trkpt>
      <trkpt lat="37.653198" lon="-7.626367"><ele>814</ele><speed>64.42</speed><time>2017-07-01T18:14:59Z</time><course>176</course><type>1</type></trkpt>
      <trkpt lat="37.652451" lon="-7.626333"><ele>810</ele><speed>59.91</speed><time>2017-07-01T18:15:04Z</time><course>172</course><type>1</type></trkpt>
      <trkpt lat="37.650799" lon="-7.626167"><ele>793</ele><speed>66.41</speed><time>2017-07-01T18:15:14Z</time><course>176</course><type>1</type></trkpt>
      <trkpt lat="37.649982" lon="-7.626067"><ele>790</ele><speed>65.79</speed><time>2017-07-01T18:15:19Z</time><course>174</course><type>1</type></trkpt>
      <trkpt lat="37.649200" lon="-7.625950"><ele>786</ele><speed>63.12</speed><time>2017-07-01T18:15:24Z</time><course>172</course><type>1</type></trkpt>
      <trkpt lat="37.648434" lon="-7.625834"><ele>781</ele><speed>61.83</speed><time>2017-07-01T18:15:29Z</time><course>170</course><type>1</type></trkpt>
      <trkpt lat="37.647652" lon="-7.625733"><ele>769</ele><speed>63</speed><time>2017-07-01T18:15:34Z</time><course>172</course><type>1</type></trkpt>
      <trkpt lat="37.646866" lon="-7.625667"><ele>761</ele><speed>63.14</speed><time>2017-07-01T18:15:39Z</time><course>176</course><type>1</type></trkpt>
      <trkpt lat="37.646084" lon="-7.625566"><ele>753</ele><speed>63</speed><time>2017-07-01T18:15:44Z</time><course>170</course><type>1</type></trkpt>
      <trkpt lat="37.645367" lon="-7.625450"><ele>744</ele><speed>57.94</speed><time>2017-07-01T18:15:49Z</time><course>172</course><type>1</type></trkpt>
      <trkpt lat="37.644516" lon="-7.625216"><ele>741</ele><speed>69.81</speed><time>2017-07-01T18:15:54Z</time><course>166</course><type>1</type></trkpt>
      <trkpt lat="37.643684" lon="-7.624950"><ele>736</ele><speed>68.79</speed><time>2017-07-01T18:15:59Z</time><course>166</course><type>1</type></trkpt>
      <trkpt lat="37.642918" lon="-7.624733"><ele>733</ele><speed>62.92</speed><time>2017-07-01T18:16:04Z</time><course>166</course><type>1</type></trkpt>
      <trkpt lat="37.642117" lon="-7.624516"><ele>731</ele><speed>65.66</speed><time>2017-07-01T18:16:09Z</time><course>164</course><type>1</type></trkpt>
      <trkpt lat="37.641335" lon="-7.624333"><ele>724</ele><speed>63.74</speed><time>2017-07-01T18:16:14Z</time><course>170</course><type>1</type></trkpt>
      <trkpt lat="37.640533" lon="-7.624200"><ele>715</ele><speed>64.83</speed><time>2017-07-01T18:16:19Z</time><course>174</course><type>1</type></trkpt>
      <trkpt lat="37.639702" lon="-7.624067"><ele>710</ele><speed>67.14</speed><time>2017-07-01T18:16:24Z</time><course>170</course><type>1</type></trkpt>
      <trkpt lat="37.638916" lon="-7.623883"><ele>703</ele><speed>64.07</speed><time>2017-07-01T18:16:29Z</time><course>170</course><type>1</type></trkpt>
      <trkpt lat="37.638134" lon="-7.623717"><ele>697</ele><speed>63.56</speed><time>2017-07-01T18:16:34Z</time><course>170</course><type>1</type></trkpt>
      <trkpt lat="37.637367" lon="-7.623567"><ele>693</ele><speed>62.21</speed><time>2017-07-01T18:16:39Z</time><course>170</course><type>1</type></trkpt>
      <trkpt lat="37.636566" lon="-7.623333"><ele>691</ele><speed>65.9</speed><time>2017-07-01T18:16:44Z</time><course>166</course><type>1</type></trkpt>
      <trkpt lat="37.635883" lon="-7.623050"><ele>695</ele><speed>57.61</speed><time>2017-07-01T18:16:49Z</time><course>162</course><type>1</type></trkpt>
      <trkpt lat="37.635181" lon="-7.622783"><ele>689</ele><speed>58.76</speed><time>2017-07-01T18:16:54Z</time><course>162</course><type>1</type></trkpt>
      <trkpt lat="37.634384" lon="-7.622550"><ele>681</ele><speed>65.57</speed><time>2017-07-01T18:16:59Z</time><course>168</course><type>1</type></trkpt>
      <trkpt lat="37.633598" lon="-7.622317"><ele>678</ele><speed>64.71</speed><time>2017-07-01T18:17:04Z</time><course>164</course><type>1</type></trkpt>
      <trkpt lat="37.632782" lon="-7.622117"><ele>673</ele><speed>66.62</speed><time>2017-07-01T18:17:09Z</time><course>170</course><type>1</type></trkpt>
      <trkpt lat="37.631985" lon="-7.621984"><ele>669</ele><speed>64.44</speed><time>2017-07-01T18:17:14Z</time><course>172</course><type>1</type></trkpt>
      <trkpt lat="37.630348" lon="-7.621950"><ele>657</ele><speed>65.61</speed><time>2017-07-01T18:17:24Z</time><course>198</course><type>1</type></trkpt>
      <trkpt lat="37.629452" lon="-7.622133"><ele>658</ele><speed>72.75</speed><time>2017-07-01T18:17:29Z</time><course>184</course><type>1</type></trkpt>
      <trkpt lat="37.628685" lon="-7.622350"><ele>658</ele><speed>63</speed><time>2017-07-01T18:17:34Z</time><course>218</course><type>1</type></trkpt>
      <trkpt lat="37.628502" lon="-7.622933"><ele>654</ele><speed>39.81</speed><time>2017-07-01T18:17:39Z</time><course>280</course><type>1</type></trkpt>
      <trkpt lat="37.628532" lon="-7.622800"><ele>656</ele><speed>8.78</speed><time>2017-07-01T18:17:44Z</time><course>132</course><type>1</type></trkpt>
      <trkpt lat="37.627968" lon="-7.622550"><ele>653</ele><speed>47.91</speed><time>2017-07-01T18:17:49Z</time><course>178</course><type>1</type></trkpt>
      <trkpt lat="37.627384" lon="-7.623150"><ele>652</ele><speed>60.35</speed><time>2017-07-01T18:17:54Z</time><course>254</course><type>1</type></trkpt>
      <trkpt lat="37.627335" lon="-7.623183"><ele>651</ele><speed>4.45</speed><time>2017-07-01T18:17:59Z</time><course>136</course><type>1</type></trkpt>
      <trkpt lat="37.626583" lon="-7.622967"><ele>648</ele><speed>61.81</speed><time>2017-07-01T18:18:04Z</time><course>180</course><type>1</type></trkpt>
      <trkpt lat="37.625782" lon="-7.623267"><ele>650</ele><speed>66.97</speed><time>2017-07-01T18:18:09Z</time><course>216</course><type>1</type></trkpt>
      <trkpt lat="37.625435" lon="-7.623517"><ele>641</ele><speed>16.01</speed><time>2017-07-01T18:18:19Z</time><course>160</course><type>1</type></trkpt>
      <trkpt lat="37.624634" lon="-7.623683"><ele>640</ele><speed>65.06</speed><time>2017-07-01T18:18:24Z</time><course>214</course><type>1</type></trkpt>
      <trkpt lat="37.624298" lon="-7.624300"><ele>632</ele><speed>47.53</speed><time>2017-07-01T18:18:29Z</time><course>268</course><type>1</type></trkpt>
      <trkpt lat="37.624268" lon="-7.624200"><ele>625</ele><speed>6.79</speed><time>2017-07-01T18:18:34Z</time><course>138</course><type>1</type></trkpt>
      <trkpt lat="37.623718" lon="-7.623833"><ele>623</ele><speed>49.86</speed><time>2017-07-01T18:18:39Z</time><course>150</course><type>1</type></trkpt>
      <trkpt lat="37.623184" lon="-7.623483"><ele>626</ele><speed>48.22</speed><time>2017-07-01T18:18:44Z</time><course>156</course><type>1</type></trkpt>
      <trkpt lat="37.622601" lon="-7.623133"><ele>616</ele><speed>51.74</speed><time>2017-07-01T18:18:49Z</time><course>148</course><type>1</type></trkpt>
      <trkpt lat="37.622101" lon="-7.622733"><ele>610</ele><speed>47.44</speed><time>2017-07-01T18:18:54Z</time><course>142</course><type>1</type></trkpt>
      <trkpt lat="37.621666" lon="-7.622300"><ele>602</ele><speed>44.4</speed><time>2017-07-01T18:18:59Z</time><course>136</course><type>1</type></trkpt>
      <trkpt lat="37.620815" lon="-7.621433"><ele>591</ele><speed>43.82</speed><time>2017-07-01T18:19:09Z</time><course>138</course><type>1</type></trkpt>
      <trkpt lat="37.620583" lon="-7.621017"><ele>585</ele><speed>32.3</speed><time>2017-07-01T18:19:14Z</time><course>130</course><type>1</type></trkpt>
      <trkpt lat="37.620350" lon="-7.620667"><ele>583</ele><speed>29.03</speed><time>2017-07-01T18:19:19Z</time><course>132</course><type>1</type></trkpt>
      <trkpt lat="37.620132" lon="-7.620283"><ele>586</ele><speed>29.99</speed><time>2017-07-01T18:19:24Z</time><course>122</course><type>1</type></trkpt>
      <trkpt lat="37.619816" lon="-7.619783"><ele>591</ele><speed>40.61</speed><time>2017-07-01T18:19:29Z</time><course>132</course><type>1</type></trkpt>
      <trkpt lat="37.619316" lon="-7.619367"><ele>598</ele><speed>47.99</speed><time>2017-07-01T18:19:34Z</time><course>166</course><type>1</type></trkpt>
      <trkpt lat="37.618649" lon="-7.619783"><ele>595</ele><speed>59.63</speed><time>2017-07-01T18:19:39Z</time><course>230</course><type>1</type></trkpt>
      <trkpt lat="37.618568" lon="-7.620117"><ele>595</ele><speed>22.18</speed><time>2017-07-01T18:19:44Z</time><course>10</course><type>1</type></trkpt>
      <trkpt lat="37.618500" lon="-7.619800"><ele>599</ele><speed>20.85</speed><time>2017-07-01T18:19:49Z</time><course>106</course><type>1</type></trkpt>
      <trkpt lat="37.618465" lon="-7.619467"><ele>606</ele><speed>21.33</speed><time>2017-07-01T18:19:54Z</time><course>96</course><type>1</type></trkpt>
      <trkpt lat="37.618366" lon="-7.619067"><ele>609</ele><speed>26.61</speed><time>2017-07-01T18:19:59Z</time><course>120</course><type>1</type></trkpt>
      <trkpt lat="37.618149" lon="-7.618667"><ele>600</ele><speed>30.78</speed><time>2017-07-01T18:20:04Z</time><course>114</course><type>1</type></trkpt>
      <trkpt lat="37.617985" lon="-7.618400"><ele>600</ele><speed>21.45</speed><time>2017-07-01T18:20:09Z</time><course>124</course><type>1</type></trkpt>
      <trkpt lat="37.618000" lon="-7.618117"><ele>594</ele><speed>18.01</speed><time>2017-07-01T18:20:14Z</time><course>90</course><type>1</type></trkpt>
      <trkpt lat="37.618065" lon="-7.618000"><ele>584</ele><speed>9.07</speed><time>2017-07-01T18:20:19Z</time><course>40</course><type>1</type></trkpt>
      <trkpt lat="37.618168" lon="-7.617967"><ele>579</ele><speed>8.52</speed><time>2017-07-01T18:20:24Z</time><course>350</course><type>1</type></trkpt>
      <trkpt lat="37.618233" lon="-7.617917"><ele>571</ele><speed>6.1</speed><time>2017-07-01T18:20:29Z</time><course>44</course><type>1</type></trkpt>
      <trkpt lat="37.618301" lon="-7.617750"><ele>558</ele><speed>11.92</speed><time>2017-07-01T18:20:34Z</time><course>66</course><type>1</type></trkpt>
      <trkpt lat="37.618351" lon="-7.617550"><ele>547</ele><speed>13.31</speed><time>2017-07-01T18:20:39Z</time><course>66</course><type>1</type></trkpt>
      <trkpt lat="37.618465" lon="-7.617383"><ele>537</ele><speed>14</speed><time>2017-07-01T18:20:44Z</time><course>28</course><type>1</type></trkpt>
      <trkpt lat="37.618549" lon="-7.617183"><ele>529</ele><speed>14.37</speed><time>2017-07-01T18:20:49Z</time><course>80</course><type>1</type></trkpt>
      <trkpt lat="37.618683" lon="-7.617033"><ele>519</ele><speed>14.35</speed><time>2017-07-01T18:20:54Z</time><course>46</course><type>1</type></trkpt>
      <trkpt lat="37.618717" lon="-7.616850"><ele>514</ele><speed>11.93</speed><time>2017-07-01T18:20:59Z</time><course>42</course><type>1</type></trkpt>
      <trkpt lat="37.618782" lon="-7.616766"><ele>519</ele><speed>7.46</speed><time>2017-07-01T18:21:04Z</time><course>72</course><type>1</type></trkpt>
      <trkpt lat="37.618935" lon="-7.616766"><ele>512</ele><speed>12.26</speed><time>2017-07-01T18:21:09Z</time><course>320</course><type>1</type></trkpt>
      <trkpt lat="37.618999" lon="-7.616850"><ele>509</ele><speed>7.4</speed><time>2017-07-01T18:21:14Z</time><course>36</course><type>1</type></trkpt>
      <trkpt lat="37.618816" lon="-7.616600"><ele>499</ele><speed>21.61</speed><time>2017-07-01T18:21:19Z</time><course>152</course><type>1</type></trkpt>
      <trkpt lat="37.618500" lon="-7.616933"><ele>467</ele><speed>32.99</speed><time>2017-07-01T18:21:24Z</time><course>46</course><type>1</type></trkpt>
      <trkpt lat="37.618084" lon="-7.617067"><ele>423</ele><speed>34.41</speed><time>2017-07-01T18:21:29Z</time><course>346</course><type>1</type></trkpt>
      <trkpt lat="37.617485" lon="-7.617067"><ele>387</ele><speed>48.01</speed><time>2017-07-01T18:21:34Z</time><course>260</course><type>1</type></trkpt>
      <trkpt lat="37.617516" lon="-7.617150"><ele>389</ele><speed>5.83</speed><time>2017-07-01T18:21:39Z</time><course>140</course><type>1</type></trkpt>
      <trkpt lat="37.617683" lon="-7.617200"><ele>380</ele><speed>13.76</speed><time>2017-07-01T18:21:44Z</time><course>8</course><type>1</type></trkpt>
      <trkpt lat="37.617817" lon="-7.617283"><ele>376</ele><speed>11.96</speed><time>2017-07-01T18:21:49Z</time><course>308</course><type>1</type></trkpt>
      <trkpt lat="37.617901" lon="-7.617350"><ele>377</ele><speed>7.96</speed><time>2017-07-01T18:21:54Z</time><course>342</course><type>1</type></trkpt>
      <trkpt lat="37.618000" lon="-7.617383"><ele>378</ele><speed>8.21</speed><time>2017-07-01T18:21:59Z</time><course>328</course><type>1</type></trkpt>
      <trkpt lat="37.618065" lon="-7.617317"><ele>378</ele><speed>6.69</speed><time>2017-07-01T18:22:04Z</time><course>42</course><type>1</type></trkpt>
      <trkpt lat="37.618282" lon="-7.617417"><ele>380</ele><speed>9.26</speed><time>2017-07-01T18:22:14Z</time><course>320</course><type>1</type></trkpt>
      <trkpt lat="37.618416" lon="-7.617567"><ele>373</ele><speed>14.35</speed><time>2017-07-01T18:22:19Z</time><course>314</course><type>1</type></trkpt>
      <trkpt lat="37.618500" lon="-7.617650"><ele>373</ele><speed>8.55</speed><time>2017-07-01T18:22:24Z</time><course>322</course><type>1</type></trkpt>
      <trkpt lat="37.618618" lon="-7.617567"><ele>373</ele><speed>10.83</speed><time>2017-07-01T18:22:29Z</time><course>36</course><type>1</type></trkpt>
      <trkpt lat="37.618732" lon="-7.617450"><ele>372</ele><speed>11.78</speed><time>2017-07-01T18:22:34Z</time><course>18</course><type>1</type></trkpt>
      <trkpt lat="37.618900" lon="-7.617333"><ele>372</ele><speed>15.38</speed><time>2017-07-01T18:22:39Z</time><course>16</course><type>1</type></trkpt>
      <trkpt lat="37.619019" lon="-7.617283"><ele>374</ele><speed>10.05</speed><time>2017-07-01T18:22:44Z</time><course>56</course><type>1</type></trkpt>
      <trkpt lat="37.619049" lon="-7.617084"><ele>378</ele><speed>12.86</speed><time>2017-07-01T18:22:49Z</time><course>56</course><type>1</type></trkpt>
      <trkpt lat="37.619049" lon="-7.616933"><ele>383</ele><speed>9.59</speed><time>2017-07-01T18:22:54Z</time><course>126</course><type>1</type></trkpt>
      <trkpt lat="37.619301" lon="-7.616783"><ele>365</ele><speed>11.17</speed><time>2017-07-01T18:23:04Z</time><course>4</course><type>1</type></trkpt>
      <trkpt lat="37.619415" lon="-7.616783"><ele>358</ele><speed>9.14</speed><time>2017-07-01T18:23:09Z</time><course>350</course><type>1</type></trkpt>
      <trkpt lat="37.619267" lon="-7.616450"><ele>346</ele><speed>24.24</speed><time>2017-07-01T18:23:14Z</time><course>154</course><type>1</type></trkpt>
      <trkpt lat="37.618916" lon="-7.617000"><ele>328</ele><speed>44.84</speed><time>2017-07-01T18:23:19Z</time><course>318</course><type>1</type></trkpt>
      <trkpt lat="37.619019" lon="-7.617084"><ele>329</ele><speed>9.83</speed><time>2017-07-01T18:23:24Z</time><course>328</course><type>1</type></trkpt>
      <trkpt lat="37.619148" lon="-7.617116"><ele>324</ele><speed>10.54</speed><time>2017-07-01T18:23:29Z</time><course>328</course><type>1</type></trkpt>
      <trkpt lat="37.619251" lon="-7.617050"><ele>322</ele><speed>9.26</speed><time>2017-07-01T18:23:34Z</time><course>100</course><type>1</type></trkpt>
      <trkpt lat="37.619251" lon="-7.617133"><ele>318</ele><speed>5.27</speed><time>2017-07-01T18:23:39Z</time><course>6</course><type>1</type></trkpt>
      <trkpt lat="37.619350" lon="-7.617084"><ele>308</ele><speed>8.52</speed><time>2017-07-01T18:23:44Z</time><course>338</course><type>1</type></trkpt>
      <trkpt lat="37.619549" lon="-7.617067"><ele>287</ele><speed>7.99</speed><time>2017-07-01T18:23:54Z</time><course>20</course><type>1</type></trkpt>
      <trkpt lat="37.619518" lon="-7.616867"><ele>288</ele><speed>12.94</speed><time>2017-07-01T18:23:59Z</time><course>84</course><type>1</type></trkpt>
      <trkpt lat="37.619583" lon="-7.616783"><ele>290</ele><speed>7.46</speed><time>2017-07-01T18:24:04Z</time><course>250</course><type>1</type></trkpt>
      <trkpt lat="37.619667" lon="-7.616750"><ele>282</ele><speed>7.05</speed><time>2017-07-01T18:24:09Z</time><course>10</course><type>1</type></trkpt>
      <trkpt lat="37.619701" lon="-7.616900"><ele>274</ele><speed>9.91</speed><time>2017-07-01T18:24:14Z</time><course>316</course><type>1</type></trkpt>
      <trkpt lat="37.619766" lon="-7.616933"><ele>264</ele><speed>5.62</speed><time>2017-07-01T18:24:19Z</time><course>348</course><type>1</type></trkpt>
      <trkpt lat="37.619865" lon="-7.616900"><ele>250</ele><speed>8.21</speed><time>2017-07-01T18:24:24Z</time><course>30</course><type>1</type></trkpt>
      <trkpt lat="37.619968" lon="-7.616817"><ele>238</ele><speed>9.79</speed><time>2017-07-01T18:24:29Z</time><course>32</course><type>1</type></trkpt>
      <trkpt lat="37.620033" lon="-7.616766"><ele>231</ele><speed>6.13</speed><time>2017-07-01T18:24:34Z</time><course>28</course><type>1</type></trkpt>
      <trkpt lat="37.620117" lon="-7.616717"><ele>231</ele><speed>7.42</speed><time>2017-07-01T18:24:39Z</time><course>110</course><type>1</type></trkpt>
      <trkpt lat="37.620167" lon="-7.616700"><ele>212</ele><speed>2.08</speed><time>2017-07-01T18:24:49Z</time><course>4</course><type>1</type></trkpt>
      <trkpt lat="37.620266" lon="-7.616633"><ele>192</ele><speed>9</speed><time>2017-07-01T18:24:54Z</time><course>28</course><type>1</type></trkpt>
      <trkpt lat="37.620468" lon="-7.616567"><ele>181</ele><speed>16.72</speed><time>2017-07-01T18:24:59Z</time><course>12</course><type>1</type></trkpt>
      <trkpt lat="37.620499" lon="-7.616517"><ele>184</ele><speed>4.03</speed><time>2017-07-01T18:25:04Z</time><course>74</course><type>1</type></trkpt>
      <trkpt lat="37.620548" lon="-7.616283"><ele>179</ele><speed>15.37</speed><time>2017-07-01T18:25:09Z</time><course>92</course><type>1</type></trkpt>
      <trkpt lat="37.620651" lon="-7.616183"><ele>170</ele><speed>10.41</speed><time>2017-07-01T18:25:14Z</time><course>28</course><type>1</type></trkpt>
      <trkpt lat="37.620735" lon="-7.616133"><ele>159</ele><speed>7.44</speed><time>2017-07-01T18:25:19Z</time><course>0</course><type>1</type></trkpt>
      <trkpt lat="37.621067" lon="-7.616117"><ele>139</ele><speed>13.31</speed><time>2017-07-01T18:25:29Z</time><course>8</course><type>1</type></trkpt>
      <trkpt lat="37.621067" lon="-7.616150"><ele>138</ele><speed>2.09</speed><time>2017-07-01T18:25:34Z</time><course>342</course><type>1</type></trkpt>
      <trkpt lat="37.621033" lon="-7.616167"><ele>136</ele><speed>2.93</speed><time>2017-07-01T18:25:39Z</time><course>320</course><type>1</type></trkpt>
      <trkpt lat="37.621052" lon="-7.616150"><ele>135</ele><speed>1.87</speed><time>2017-07-01T18:25:44Z</time><course>320</course><type>1</type></trkpt>
      <trkpt lat="37.621033" lon="-7.616150"><ele>135</ele><speed>1.52</speed><time>2017-07-01T18:25:49Z</time><course>320</course><type>1</type></trkpt>
      <trkpt lat="37.621052" lon="-7.616150"><ele>134</ele><speed>1.52</speed><time>2017-07-01T18:25:54Z</time><course>320</course><type>1</type></trkpt>
      <trkpt lat="37.621052" lon="-7.616150"><ele>133</ele><speed>0</speed><time>2017-07-01T18:25:59Z</time><course>320</course><type>1</type></trkpt>
      <trkpt lat="37.621033" lon="-7.616150"><ele>132</ele><speed>1.52</speed><time>2017-07-01T18:26:04Z</time><course>320</course><type>1</type></trkpt>
      <trkpt lat="37.621017" lon="-7.616167"><ele>132</ele><speed>1.68</speed><time>2017-07-01T18:26:09Z</time><course>320</course><type>1</type></trkpt>
      <trkpt lat="37.621017" lon="-7.616167"><ele>131</ele><speed>0</speed><time>2017-07-01T18:26:14Z</time><course>320</course><type>1</type></trkpt>
   </trkseg>
  </trk>
</gpx>
